<?xml version="1.0" encoding="UTF-8" standalone="no" ?>
<gpx xmlns="http://www.topografix.com/GPX/1/1" xmlns:xsi="http://www.w3.org/2001/XMLSchema-instance" xsi:schemaLocation="http://www.topografix.com/GPX/1/1 http://www.topografix.com/GPX/1/1/gpx.xsd" version="1.1" creator="VisuGPX - https://www.visugpx.com">
  <metadata>
    <name>Lac Esparon-25km</name>
    <desc><![CDATA[Ballade sur les bord du Lac d'esparron, au départ de Saint Julien]]></desc>
  </metadata>
  <trk>
    <name><![CDATA[Lac Esparon-25km_1]]></name>
    <trkseg>
      <trkpt lat="43.70584" lon="5.92259">
        <ele>535</ele>
        <time>2016-04-23T07:07:29.000Z</time>
      </trkpt>
      <trkpt lat="43.70584" lon="5.92259">
        <ele>535</ele>
        <time>2016-04-23T07:07:47.000Z</time>
      </trkpt>
      <trkpt lat="43.70577" lon="5.92253">
        <ele>539</ele>
        <time>2016-04-23T07:08:58.000Z</time>
      </trkpt>
      <trkpt lat="43.70577" lon="5.92253">
        <ele>539</ele>
        <time>2016-04-23T07:09:04.000Z</time>
      </trkpt>
      <trkpt lat="43.70566" lon="5.92265">
        <ele>541</ele>
        <time>2016-04-23T07:09:08.000Z</time>
      </trkpt>
      <trkpt lat="43.70558" lon="5.92275">
        <ele>541</ele>
        <time>2016-04-23T07:09:14.000Z</time>
      </trkpt>
      <trkpt lat="43.70562" lon="5.92293">
        <ele>542</ele>
        <time>2016-04-23T07:09:20.000Z</time>
      </trkpt>
      <trkpt lat="43.70566" lon="5.92309">
        <ele>542</ele>
        <time>2016-04-23T07:09:24.000Z</time>
      </trkpt>
      <trkpt lat="43.70567" lon="5.92326">
        <ele>542</ele>
        <time>2016-04-23T07:09:28.000Z</time>
      </trkpt>
      <trkpt lat="43.70568" lon="5.92343">
        <ele>543</ele>
        <time>2016-04-23T07:09:32.000Z</time>
      </trkpt>
      <trkpt lat="43.7057" lon="5.92361">
        <ele>543</ele>
        <time>2016-04-23T07:09:36.000Z</time>
      </trkpt>
      <trkpt lat="43.70577" lon="5.92376">
        <ele>543</ele>
        <time>2016-04-23T07:09:40.000Z</time>
      </trkpt>
      <trkpt lat="43.70577" lon="5.92376">
        <ele>543</ele>
        <time>2016-04-23T07:09:42.000Z</time>
      </trkpt>
      <trkpt lat="43.70577" lon="5.92376">
        <ele>543</ele>
        <time>2016-04-23T07:09:44.000Z</time>
      </trkpt>
      <trkpt lat="43.70577" lon="5.92376">
        <ele>543</ele>
        <time>2016-04-23T07:09:46.000Z</time>
      </trkpt>
      <trkpt lat="43.70577" lon="5.92376">
        <ele>543</ele>
        <time>2016-04-23T07:09:48.000Z</time>
      </trkpt>
      <trkpt lat="43.70584" lon="5.92412">
        <ele>542</ele>
        <time>2016-04-23T07:12:41.000Z</time>
      </trkpt>
      <trkpt lat="43.70584" lon="5.92412">
        <ele>542</ele>
        <time>2016-04-23T07:12:44.000Z</time>
      </trkpt>
      <trkpt lat="43.70584" lon="5.92412">
        <ele>542</ele>
        <time>2016-04-23T07:12:46.000Z</time>
      </trkpt>
      <trkpt lat="43.70584" lon="5.92412">
        <ele>542</ele>
        <time>2016-04-23T07:12:48.000Z</time>
      </trkpt>
      <trkpt lat="43.70584" lon="5.92412">
        <ele>542</ele>
        <time>2016-04-23T07:12:56.000Z</time>
      </trkpt>
      <trkpt lat="43.70584" lon="5.92412">
        <ele>542</ele>
        <time>2016-04-23T07:12:58.000Z</time>
      </trkpt>
      <trkpt lat="43.70584" lon="5.92412">
        <ele>542</ele>
        <time>2016-04-23T07:13:00.000Z</time>
      </trkpt>
      <trkpt lat="43.70584" lon="5.92412">
        <ele>542</ele>
        <time>2016-04-23T07:13:02.000Z</time>
      </trkpt>
      <trkpt lat="43.70584" lon="5.92412">
        <ele>542</ele>
        <time>2016-04-23T07:13:04.000Z</time>
      </trkpt>
      <trkpt lat="43.70597" lon="5.92523">
        <ele>543</ele>
        <time>2016-04-23T07:13:08.000Z</time>
      </trkpt>
      <trkpt lat="43.70604" lon="5.92537">
        <ele>543</ele>
        <time>2016-04-23T07:13:12.000Z</time>
      </trkpt>
      <trkpt lat="43.70606" lon="5.92555">
        <ele>544</ele>
        <time>2016-04-23T07:13:16.000Z</time>
      </trkpt>
      <trkpt lat="43.7061" lon="5.92573">
        <ele>544</ele>
        <time>2016-04-23T07:13:20.000Z</time>
      </trkpt>
      <trkpt lat="43.70613" lon="5.9259">
        <ele>544</ele>
        <time>2016-04-23T07:13:24.000Z</time>
      </trkpt>
      <trkpt lat="43.70613" lon="5.9259">
        <ele>544</ele>
        <time>2016-04-23T07:13:26.000Z</time>
      </trkpt>
      <trkpt lat="43.70613" lon="5.92609">
        <ele>543</ele>
        <time>2016-04-23T07:13:28.000Z</time>
      </trkpt>
      <trkpt lat="43.70617" lon="5.92631">
        <ele>544</ele>
        <time>2016-04-23T07:13:32.000Z</time>
      </trkpt>
      <trkpt lat="43.70623" lon="5.92646">
        <ele>544</ele>
        <time>2016-04-23T07:13:36.000Z</time>
      </trkpt>
      <trkpt lat="43.70623" lon="5.92646">
        <ele>544</ele>
        <time>2016-04-23T07:13:38.000Z</time>
      </trkpt>
      <trkpt lat="43.70623" lon="5.92646">
        <ele>544</ele>
        <time>2016-04-23T07:13:40.000Z</time>
      </trkpt>
      <trkpt lat="43.70623" lon="5.92646">
        <ele>544</ele>
        <time>2016-04-23T07:13:42.000Z</time>
      </trkpt>
      <trkpt lat="43.70651" lon="5.92654">
        <ele>545</ele>
        <time>2016-04-23T07:13:46.000Z</time>
      </trkpt>
      <trkpt lat="43.70665" lon="5.92649">
        <ele>544</ele>
        <time>2016-04-23T07:13:50.000Z</time>
      </trkpt>
      <trkpt lat="43.70676" lon="5.9265">
        <ele>545</ele>
        <time>2016-04-23T07:13:54.000Z</time>
      </trkpt>
      <trkpt lat="43.70676" lon="5.9265">
        <ele>545</ele>
        <time>2016-04-23T07:13:56.000Z</time>
      </trkpt>
      <trkpt lat="43.70676" lon="5.9265">
        <ele>545</ele>
        <time>2016-04-23T07:13:58.000Z</time>
      </trkpt>
      <trkpt lat="43.70676" lon="5.9265">
        <ele>545</ele>
        <time>2016-04-23T07:14:00.000Z</time>
      </trkpt>
      <trkpt lat="43.70707" lon="5.92665">
        <ele>542</ele>
        <time>2016-04-23T07:14:04.000Z</time>
      </trkpt>
      <trkpt lat="43.70714" lon="5.92671">
        <ele>539</ele>
        <time>2016-04-23T07:14:08.000Z</time>
      </trkpt>
      <trkpt lat="43.70723" lon="5.92678">
        <ele>537</ele>
        <time>2016-04-23T07:14:10.000Z</time>
      </trkpt>
      <trkpt lat="43.70733" lon="5.92685">
        <ele>537</ele>
        <time>2016-04-23T07:14:12.000Z</time>
      </trkpt>
      <trkpt lat="43.70741" lon="5.92691">
        <ele>537</ele>
        <time>2016-04-23T07:14:14.000Z</time>
      </trkpt>
      <trkpt lat="43.70748" lon="5.92696">
        <ele>535</ele>
        <time>2016-04-23T07:14:16.000Z</time>
      </trkpt>
      <trkpt lat="43.70748" lon="5.92696">
        <ele>535</ele>
        <time>2016-04-23T07:14:18.000Z</time>
      </trkpt>
      <trkpt lat="43.70748" lon="5.92696">
        <ele>535</ele>
        <time>2016-04-23T07:14:20.000Z</time>
      </trkpt>
      <trkpt lat="43.70748" lon="5.92696">
        <ele>535</ele>
        <time>2016-04-23T07:14:22.000Z</time>
      </trkpt>
      <trkpt lat="43.70748" lon="5.92696">
        <ele>535</ele>
        <time>2016-04-23T07:14:24.000Z</time>
      </trkpt>
      <trkpt lat="43.70748" lon="5.92696">
        <ele>535</ele>
        <time>2016-04-23T07:14:26.000Z</time>
      </trkpt>
      <trkpt lat="43.70748" lon="5.92696">
        <ele>535</ele>
        <time>2016-04-23T07:14:28.000Z</time>
      </trkpt>
      <trkpt lat="43.70774" lon="5.92731">
        <ele>534</ele>
        <time>2016-04-23T07:14:32.000Z</time>
      </trkpt>
      <trkpt lat="43.70783" lon="5.92737">
        <ele>535</ele>
        <time>2016-04-23T07:14:36.000Z</time>
      </trkpt>
      <trkpt lat="43.70794" lon="5.92746">
        <ele>534</ele>
        <time>2016-04-23T07:14:42.000Z</time>
      </trkpt>
      <trkpt lat="43.70802" lon="5.92756">
        <ele>533</ele>
        <time>2016-04-23T07:14:46.000Z</time>
      </trkpt>
      <trkpt lat="43.70813" lon="5.92765">
        <ele>534</ele>
        <time>2016-04-23T07:14:52.000Z</time>
      </trkpt>
      <trkpt lat="43.70813" lon="5.92765">
        <ele>534</ele>
        <time>2016-04-23T07:14:54.000Z</time>
      </trkpt>
      <trkpt lat="43.70828" lon="5.92765">
        <ele>534</ele>
        <time>2016-04-23T07:14:58.000Z</time>
      </trkpt>
      <trkpt lat="43.70838" lon="5.92768">
        <ele>534</ele>
        <time>2016-04-23T07:15:02.000Z</time>
      </trkpt>
      <trkpt lat="43.70838" lon="5.92768">
        <ele>534</ele>
        <time>2016-04-23T07:15:04.000Z</time>
      </trkpt>
      <trkpt lat="43.70848" lon="5.9277">
        <ele>534</ele>
        <time>2016-04-23T07:15:06.000Z</time>
      </trkpt>
      <trkpt lat="43.70858" lon="5.92759">
        <ele>535</ele>
        <time>2016-04-23T07:15:10.000Z</time>
      </trkpt>
      <trkpt lat="43.70874" lon="5.92753">
        <ele>534</ele>
        <time>2016-04-23T07:15:14.000Z</time>
      </trkpt>
      <trkpt lat="43.70889" lon="5.92747">
        <ele>534</ele>
        <time>2016-04-23T07:15:18.000Z</time>
      </trkpt>
      <trkpt lat="43.70889" lon="5.92747">
        <ele>534</ele>
        <time>2016-04-23T07:15:20.000Z</time>
      </trkpt>
      <trkpt lat="43.70889" lon="5.92747">
        <ele>534</ele>
        <time>2016-04-23T07:15:22.000Z</time>
      </trkpt>
      <trkpt lat="43.70889" lon="5.92747">
        <ele>534</ele>
        <time>2016-04-23T07:15:24.000Z</time>
      </trkpt>
      <trkpt lat="43.70922" lon="5.92754">
        <ele>535</ele>
        <time>2016-04-23T07:15:30.000Z</time>
      </trkpt>
      <trkpt lat="43.70937" lon="5.9276">
        <ele>534</ele>
        <time>2016-04-23T07:15:34.000Z</time>
      </trkpt>
      <trkpt lat="43.70947" lon="5.92765">
        <ele>533</ele>
        <time>2016-04-23T07:15:36.000Z</time>
      </trkpt>
      <trkpt lat="43.70957" lon="5.92772">
        <ele>532</ele>
        <time>2016-04-23T07:15:38.000Z</time>
      </trkpt>
      <trkpt lat="43.70966" lon="5.92775">
        <ele>531</ele>
        <time>2016-04-23T07:15:40.000Z</time>
      </trkpt>
      <trkpt lat="43.7098" lon="5.92786">
        <ele>530</ele>
        <time>2016-04-23T07:15:44.000Z</time>
      </trkpt>
      <trkpt lat="43.7098" lon="5.92786">
        <ele>530</ele>
        <time>2016-04-23T07:15:46.000Z</time>
      </trkpt>
      <trkpt lat="43.70996" lon="5.92816">
        <ele>530</ele>
        <time>2016-04-23T07:15:50.000Z</time>
      </trkpt>
      <trkpt lat="43.70996" lon="5.92816">
        <ele>530</ele>
        <time>2016-04-23T07:15:52.000Z</time>
      </trkpt>
      <trkpt lat="43.70996" lon="5.92816">
        <ele>530</ele>
        <time>2016-04-23T07:15:54.000Z</time>
      </trkpt>
      <trkpt lat="43.70996" lon="5.92816">
        <ele>530</ele>
        <time>2016-04-23T07:15:56.000Z</time>
      </trkpt>
      <trkpt lat="43.70996" lon="5.92816">
        <ele>530</ele>
        <time>2016-04-23T07:15:58.000Z</time>
      </trkpt>
      <trkpt lat="43.70996" lon="5.92816">
        <ele>530</ele>
        <time>2016-04-23T07:16:00.000Z</time>
      </trkpt>
      <trkpt lat="43.70996" lon="5.92816">
        <ele>530</ele>
        <time>2016-04-23T07:16:02.000Z</time>
      </trkpt>
      <trkpt lat="43.70996" lon="5.92816">
        <ele>530</ele>
        <time>2016-04-23T07:16:04.000Z</time>
      </trkpt>
      <trkpt lat="43.71014" lon="5.92843">
        <ele>521</ele>
        <time>2016-04-23T07:16:06.000Z</time>
      </trkpt>
      <trkpt lat="43.71027" lon="5.92861">
        <ele>521</ele>
        <time>2016-04-23T07:16:08.000Z</time>
      </trkpt>
      <trkpt lat="43.71037" lon="5.92874">
        <ele>521</ele>
        <time>2016-04-23T07:16:10.000Z</time>
      </trkpt>
      <trkpt lat="43.71043" lon="5.92883">
        <ele>519</ele>
        <time>2016-04-23T07:16:12.000Z</time>
      </trkpt>
      <trkpt lat="43.71043" lon="5.92883">
        <ele>519</ele>
        <time>2016-04-23T07:16:14.000Z</time>
      </trkpt>
      <trkpt lat="43.71043" lon="5.92883">
        <ele>519</ele>
        <time>2016-04-23T07:16:16.000Z</time>
      </trkpt>
      <trkpt lat="43.71043" lon="5.92883">
        <ele>519</ele>
        <time>2016-04-23T07:16:18.000Z</time>
      </trkpt>
      <trkpt lat="43.71043" lon="5.92883">
        <ele>519</ele>
        <time>2016-04-23T07:16:20.000Z</time>
      </trkpt>
      <trkpt lat="43.71043" lon="5.92883">
        <ele>519</ele>
        <time>2016-04-23T07:16:22.000Z</time>
      </trkpt>
      <trkpt lat="43.71043" lon="5.92883">
        <ele>519</ele>
        <time>2016-04-23T07:16:24.000Z</time>
      </trkpt>
      <trkpt lat="43.71043" lon="5.92883">
        <ele>519</ele>
        <time>2016-04-23T07:16:26.000Z</time>
      </trkpt>
      <trkpt lat="43.7106" lon="5.92888">
        <ele>524</ele>
        <time>2016-04-23T07:16:32.000Z</time>
      </trkpt>
      <trkpt lat="43.71069" lon="5.92893">
        <ele>524</ele>
        <time>2016-04-23T07:16:34.000Z</time>
      </trkpt>
      <trkpt lat="43.71075" lon="5.92898">
        <ele>524</ele>
        <time>2016-04-23T07:16:36.000Z</time>
      </trkpt>
      <trkpt lat="43.71077" lon="5.92905">
        <ele>525</ele>
        <time>2016-04-23T07:16:40.000Z</time>
      </trkpt>
      <trkpt lat="43.71078" lon="5.92911">
        <ele>526</ele>
        <time>2016-04-23T07:16:42.000Z</time>
      </trkpt>
      <trkpt lat="43.71082" lon="5.92917">
        <ele>527</ele>
        <time>2016-04-23T07:16:46.000Z</time>
      </trkpt>
      <trkpt lat="43.71082" lon="5.92917">
        <ele>527</ele>
        <time>2016-04-23T07:16:50.000Z</time>
      </trkpt>
      <trkpt lat="43.71082" lon="5.92917">
        <ele>527</ele>
        <time>2016-04-23T07:16:52.000Z</time>
      </trkpt>
      <trkpt lat="43.71082" lon="5.92917">
        <ele>527</ele>
        <time>2016-04-23T07:16:54.000Z</time>
      </trkpt>
      <trkpt lat="43.71082" lon="5.92917">
        <ele>527</ele>
        <time>2016-04-23T07:16:56.000Z</time>
      </trkpt>
      <trkpt lat="43.71082" lon="5.92917">
        <ele>527</ele>
        <time>2016-04-23T07:16:58.000Z</time>
      </trkpt>
      <trkpt lat="43.71095" lon="5.92919">
        <ele>529</ele>
        <time>2016-04-23T07:17:04.000Z</time>
      </trkpt>
      <trkpt lat="43.71102" lon="5.9292">
        <ele>529</ele>
        <time>2016-04-23T07:17:06.000Z</time>
      </trkpt>
      <trkpt lat="43.71107" lon="5.92922">
        <ele>529</ele>
        <time>2016-04-23T07:17:08.000Z</time>
      </trkpt>
      <trkpt lat="43.71111" lon="5.92925">
        <ele>530</ele>
        <time>2016-04-23T07:17:12.000Z</time>
      </trkpt>
      <trkpt lat="43.71116" lon="5.92929">
        <ele>531</ele>
        <time>2016-04-23T07:17:16.000Z</time>
      </trkpt>
      <trkpt lat="43.71121" lon="5.92932">
        <ele>532</ele>
        <time>2016-04-23T07:17:20.000Z</time>
      </trkpt>
      <trkpt lat="43.71126" lon="5.92935">
        <ele>533</ele>
        <time>2016-04-23T07:17:24.000Z</time>
      </trkpt>
      <trkpt lat="43.71126" lon="5.92935">
        <ele>533</ele>
        <time>2016-04-23T07:17:28.000Z</time>
      </trkpt>
      <trkpt lat="43.71126" lon="5.92935">
        <ele>533</ele>
        <time>2016-04-23T07:17:30.000Z</time>
      </trkpt>
      <trkpt lat="43.71126" lon="5.92935">
        <ele>533</ele>
        <time>2016-04-23T07:17:32.000Z</time>
      </trkpt>
      <trkpt lat="43.71126" lon="5.92935">
        <ele>533</ele>
        <time>2016-04-23T07:17:34.000Z</time>
      </trkpt>
      <trkpt lat="43.71126" lon="5.92935">
        <ele>533</ele>
        <time>2016-04-23T07:17:36.000Z</time>
      </trkpt>
      <trkpt lat="43.71126" lon="5.92935">
        <ele>533</ele>
        <time>2016-04-23T07:17:38.000Z</time>
      </trkpt>
      <trkpt lat="43.71126" lon="5.92935">
        <ele>533</ele>
        <time>2016-04-23T07:17:40.000Z</time>
      </trkpt>
      <trkpt lat="43.71126" lon="5.92935">
        <ele>533</ele>
        <time>2016-04-23T07:17:42.000Z</time>
      </trkpt>
      <trkpt lat="43.71126" lon="5.92935">
        <ele>533</ele>
        <time>2016-04-23T07:17:44.000Z</time>
      </trkpt>
      <trkpt lat="43.71126" lon="5.92935">
        <ele>533</ele>
        <time>2016-04-23T07:17:46.000Z</time>
      </trkpt>
      <trkpt lat="43.71126" lon="5.92935">
        <ele>533</ele>
        <time>2016-04-23T07:17:48.000Z</time>
      </trkpt>
      <trkpt lat="43.71126" lon="5.92935">
        <ele>533</ele>
        <time>2016-04-23T07:17:50.000Z</time>
      </trkpt>
      <trkpt lat="43.71126" lon="5.92935">
        <ele>533</ele>
        <time>2016-04-23T07:17:52.000Z</time>
      </trkpt>
      <trkpt lat="43.71126" lon="5.92935">
        <ele>533</ele>
        <time>2016-04-23T07:17:54.000Z</time>
      </trkpt>
      <trkpt lat="43.71126" lon="5.92935">
        <ele>533</ele>
        <time>2016-04-23T07:17:56.000Z</time>
      </trkpt>
      <trkpt lat="43.71126" lon="5.92935">
        <ele>533</ele>
        <time>2016-04-23T07:17:58.000Z</time>
      </trkpt>
      <trkpt lat="43.71126" lon="5.92935">
        <ele>533</ele>
        <time>2016-04-23T07:18:00.000Z</time>
      </trkpt>
      <trkpt lat="43.71126" lon="5.92935">
        <ele>533</ele>
        <time>2016-04-23T07:18:02.000Z</time>
      </trkpt>
      <trkpt lat="43.71126" lon="5.92935">
        <ele>533</ele>
        <time>2016-04-23T07:18:04.000Z</time>
      </trkpt>
      <trkpt lat="43.71126" lon="5.92935">
        <ele>533</ele>
        <time>2016-04-23T07:18:06.000Z</time>
      </trkpt>
      <trkpt lat="43.71126" lon="5.92935">
        <ele>533</ele>
        <time>2016-04-23T07:18:08.000Z</time>
      </trkpt>
      <trkpt lat="43.71126" lon="5.92935">
        <ele>533</ele>
        <time>2016-04-23T07:18:10.000Z</time>
      </trkpt>
      <trkpt lat="43.71126" lon="5.92935">
        <ele>533</ele>
        <time>2016-04-23T07:18:12.000Z</time>
      </trkpt>
      <trkpt lat="43.71159" lon="5.92941">
        <ele>544</ele>
        <time>2016-04-23T07:18:22.000Z</time>
      </trkpt>
      <trkpt lat="43.71175" lon="5.92945">
        <ele>544</ele>
        <time>2016-04-23T07:18:24.000Z</time>
      </trkpt>
      <trkpt lat="43.71185" lon="5.92948">
        <ele>544</ele>
        <time>2016-04-23T07:18:26.000Z</time>
      </trkpt>
      <trkpt lat="43.71191" lon="5.9295">
        <ele>544</ele>
        <time>2016-04-23T07:18:28.000Z</time>
      </trkpt>
      <trkpt lat="43.71197" lon="5.92952">
        <ele>543</ele>
        <time>2016-04-23T07:18:32.000Z</time>
      </trkpt>
      <trkpt lat="43.71202" lon="5.92953">
        <ele>543</ele>
        <time>2016-04-23T07:18:36.000Z</time>
      </trkpt>
      <trkpt lat="43.71207" lon="5.92953">
        <ele>543</ele>
        <time>2016-04-23T07:18:40.000Z</time>
      </trkpt>
      <trkpt lat="43.71213" lon="5.92954">
        <ele>544</ele>
        <time>2016-04-23T07:18:44.000Z</time>
      </trkpt>
      <trkpt lat="43.71218" lon="5.92956">
        <ele>543</ele>
        <time>2016-04-23T07:18:48.000Z</time>
      </trkpt>
      <trkpt lat="43.71223" lon="5.92958">
        <ele>543</ele>
        <time>2016-04-23T07:18:52.000Z</time>
      </trkpt>
      <trkpt lat="43.7123" lon="5.9296">
        <ele>544</ele>
        <time>2016-04-23T07:18:56.000Z</time>
      </trkpt>
      <trkpt lat="43.71234" lon="5.92962">
        <ele>544</ele>
        <time>2016-04-23T07:18:58.000Z</time>
      </trkpt>
      <trkpt lat="43.71239" lon="5.92964">
        <ele>544</ele>
        <time>2016-04-23T07:19:02.000Z</time>
      </trkpt>
      <trkpt lat="43.71244" lon="5.92965">
        <ele>544</ele>
        <time>2016-04-23T07:19:06.000Z</time>
      </trkpt>
      <trkpt lat="43.7125" lon="5.92967">
        <ele>544</ele>
        <time>2016-04-23T07:19:10.000Z</time>
      </trkpt>
      <trkpt lat="43.71255" lon="5.92969">
        <ele>545</ele>
        <time>2016-04-23T07:19:14.000Z</time>
      </trkpt>
      <trkpt lat="43.71261" lon="5.92972">
        <ele>544</ele>
        <time>2016-04-23T07:19:18.000Z</time>
      </trkpt>
      <trkpt lat="43.71264" lon="5.92977">
        <ele>546</ele>
        <time>2016-04-23T07:19:22.000Z</time>
      </trkpt>
      <trkpt lat="43.71265" lon="5.92984">
        <ele>547</ele>
        <time>2016-04-23T07:19:26.000Z</time>
      </trkpt>
      <trkpt lat="43.71266" lon="5.92993">
        <ele>549</ele>
        <time>2016-04-23T07:19:30.000Z</time>
      </trkpt>
      <trkpt lat="43.71266" lon="5.93">
        <ele>550</ele>
        <time>2016-04-23T07:19:32.000Z</time>
      </trkpt>
      <trkpt lat="43.71266" lon="5.93008">
        <ele>550</ele>
        <time>2016-04-23T07:19:36.000Z</time>
      </trkpt>
      <trkpt lat="43.71266" lon="5.93014">
        <ele>551</ele>
        <time>2016-04-23T07:19:38.000Z</time>
      </trkpt>
      <trkpt lat="43.71268" lon="5.93022">
        <ele>551</ele>
        <time>2016-04-23T07:19:42.000Z</time>
      </trkpt>
      <trkpt lat="43.7127" lon="5.93027">
        <ele>550</ele>
        <time>2016-04-23T07:19:44.000Z</time>
      </trkpt>
      <trkpt lat="43.71273" lon="5.93034">
        <ele>550</ele>
        <time>2016-04-23T07:19:48.000Z</time>
      </trkpt>
      <trkpt lat="43.71277" lon="5.9304">
        <ele>552</ele>
        <time>2016-04-23T07:19:52.000Z</time>
      </trkpt>
      <trkpt lat="43.71277" lon="5.9304">
        <ele>552</ele>
        <time>2016-04-23T07:19:54.000Z</time>
      </trkpt>
      <trkpt lat="43.71277" lon="5.9304">
        <ele>552</ele>
        <time>2016-04-23T07:19:56.000Z</time>
      </trkpt>
      <trkpt lat="43.71277" lon="5.9304">
        <ele>552</ele>
        <time>2016-04-23T07:19:58.000Z</time>
      </trkpt>
      <trkpt lat="43.71277" lon="5.9304">
        <ele>552</ele>
        <time>2016-04-23T07:20:00.000Z</time>
      </trkpt>
      <trkpt lat="43.71277" lon="5.9304">
        <ele>552</ele>
        <time>2016-04-23T07:20:02.000Z</time>
      </trkpt>
      <trkpt lat="43.71277" lon="5.9304">
        <ele>552</ele>
        <time>2016-04-23T07:20:04.000Z</time>
      </trkpt>
      <trkpt lat="43.71277" lon="5.9304">
        <ele>552</ele>
        <time>2016-04-23T07:20:06.000Z</time>
      </trkpt>
      <trkpt lat="43.71277" lon="5.9304">
        <ele>552</ele>
        <time>2016-04-23T07:20:08.000Z</time>
      </trkpt>
      <trkpt lat="43.71277" lon="5.9304">
        <ele>552</ele>
        <time>2016-04-23T07:20:10.000Z</time>
      </trkpt>
      <trkpt lat="43.71277" lon="5.9304">
        <ele>552</ele>
        <time>2016-04-23T07:20:12.000Z</time>
      </trkpt>
      <trkpt lat="43.71277" lon="5.9304">
        <ele>552</ele>
        <time>2016-04-23T07:20:14.000Z</time>
      </trkpt>
      <trkpt lat="43.71277" lon="5.9304">
        <ele>552</ele>
        <time>2016-04-23T07:20:16.000Z</time>
      </trkpt>
      <trkpt lat="43.71277" lon="5.9304">
        <ele>552</ele>
        <time>2016-04-23T07:20:18.000Z</time>
      </trkpt>
      <trkpt lat="43.71277" lon="5.9304">
        <ele>552</ele>
        <time>2016-04-23T07:20:20.000Z</time>
      </trkpt>
      <trkpt lat="43.71277" lon="5.9304">
        <ele>552</ele>
        <time>2016-04-23T07:20:22.000Z</time>
      </trkpt>
      <trkpt lat="43.71277" lon="5.9304">
        <ele>552</ele>
        <time>2016-04-23T07:20:24.000Z</time>
      </trkpt>
      <trkpt lat="43.71277" lon="5.9304">
        <ele>552</ele>
        <time>2016-04-23T07:20:26.000Z</time>
      </trkpt>
      <trkpt lat="43.71303" lon="5.93035">
        <ele>561</ele>
        <time>2016-04-23T07:20:30.000Z</time>
      </trkpt>
      <trkpt lat="43.71317" lon="5.93031">
        <ele>561</ele>
        <time>2016-04-23T07:20:32.000Z</time>
      </trkpt>
      <trkpt lat="43.71326" lon="5.93028">
        <ele>562</ele>
        <time>2016-04-23T07:20:34.000Z</time>
      </trkpt>
      <trkpt lat="43.71331" lon="5.93025">
        <ele>562</ele>
        <time>2016-04-23T07:20:36.000Z</time>
      </trkpt>
      <trkpt lat="43.71337" lon="5.93021">
        <ele>563</ele>
        <time>2016-04-23T07:20:40.000Z</time>
      </trkpt>
      <trkpt lat="43.71341" lon="5.93019">
        <ele>564</ele>
        <time>2016-04-23T07:20:42.000Z</time>
      </trkpt>
      <trkpt lat="43.71345" lon="5.93015">
        <ele>564</ele>
        <time>2016-04-23T07:20:46.000Z</time>
      </trkpt>
      <trkpt lat="43.71349" lon="5.93011">
        <ele>565</ele>
        <time>2016-04-23T07:20:50.000Z</time>
      </trkpt>
      <trkpt lat="43.71353" lon="5.93007">
        <ele>566</ele>
        <time>2016-04-23T07:20:54.000Z</time>
      </trkpt>
      <trkpt lat="43.71357" lon="5.93003">
        <ele>566</ele>
        <time>2016-04-23T07:20:58.000Z</time>
      </trkpt>
      <trkpt lat="43.71362" lon="5.92998">
        <ele>567</ele>
        <time>2016-04-23T07:21:02.000Z</time>
      </trkpt>
      <trkpt lat="43.71366" lon="5.92994">
        <ele>567</ele>
        <time>2016-04-23T07:21:06.000Z</time>
      </trkpt>
      <trkpt lat="43.71366" lon="5.92994">
        <ele>567</ele>
        <time>2016-04-23T07:21:10.000Z</time>
      </trkpt>
      <trkpt lat="43.71366" lon="5.92994">
        <ele>567</ele>
        <time>2016-04-23T07:21:12.000Z</time>
      </trkpt>
      <trkpt lat="43.71366" lon="5.92994">
        <ele>567</ele>
        <time>2016-04-23T07:21:14.000Z</time>
      </trkpt>
      <trkpt lat="43.71375" lon="5.92988">
        <ele>569</ele>
        <time>2016-04-23T07:21:18.000Z</time>
      </trkpt>
      <trkpt lat="43.7138" lon="5.92985">
        <ele>569</ele>
        <time>2016-04-23T07:21:20.000Z</time>
      </trkpt>
      <trkpt lat="43.71386" lon="5.92983">
        <ele>570</ele>
        <time>2016-04-23T07:21:24.000Z</time>
      </trkpt>
      <trkpt lat="43.71386" lon="5.92983">
        <ele>570</ele>
        <time>2016-04-23T07:21:28.000Z</time>
      </trkpt>
      <trkpt lat="43.71386" lon="5.92983">
        <ele>570</ele>
        <time>2016-04-23T07:21:30.000Z</time>
      </trkpt>
      <trkpt lat="43.71386" lon="5.92983">
        <ele>570</ele>
        <time>2016-04-23T07:21:32.000Z</time>
      </trkpt>
      <trkpt lat="43.71386" lon="5.92983">
        <ele>570</ele>
        <time>2016-04-23T07:21:34.000Z</time>
      </trkpt>
      <trkpt lat="43.71386" lon="5.92983">
        <ele>570</ele>
        <time>2016-04-23T07:21:36.000Z</time>
      </trkpt>
      <trkpt lat="43.71386" lon="5.92983">
        <ele>570</ele>
        <time>2016-04-23T07:21:38.000Z</time>
      </trkpt>
      <trkpt lat="43.71386" lon="5.92983">
        <ele>570</ele>
        <time>2016-04-23T07:21:40.000Z</time>
      </trkpt>
      <trkpt lat="43.71386" lon="5.92983">
        <ele>570</ele>
        <time>2016-04-23T07:21:42.000Z</time>
      </trkpt>
      <trkpt lat="43.71386" lon="5.92983">
        <ele>570</ele>
        <time>2016-04-23T07:21:44.000Z</time>
      </trkpt>
      <trkpt lat="43.71386" lon="5.92983">
        <ele>570</ele>
        <time>2016-04-23T07:21:46.000Z</time>
      </trkpt>
      <trkpt lat="43.71386" lon="5.92983">
        <ele>570</ele>
        <time>2016-04-23T07:21:48.000Z</time>
      </trkpt>
      <trkpt lat="43.71386" lon="5.92983">
        <ele>570</ele>
        <time>2016-04-23T07:21:50.000Z</time>
      </trkpt>
      <trkpt lat="43.71386" lon="5.92983">
        <ele>570</ele>
        <time>2016-04-23T07:21:52.000Z</time>
      </trkpt>
      <trkpt lat="43.71386" lon="5.92983">
        <ele>570</ele>
        <time>2016-04-23T07:21:54.000Z</time>
      </trkpt>
      <trkpt lat="43.71386" lon="5.92983">
        <ele>570</ele>
        <time>2016-04-23T07:21:56.000Z</time>
      </trkpt>
      <trkpt lat="43.71386" lon="5.92983">
        <ele>570</ele>
        <time>2016-04-23T07:21:58.000Z</time>
      </trkpt>
      <trkpt lat="43.71386" lon="5.92983">
        <ele>570</ele>
        <time>2016-04-23T07:22:00.000Z</time>
      </trkpt>
      <trkpt lat="43.71432" lon="5.92953">
        <ele>578</ele>
        <time>2016-04-23T07:22:07.000Z</time>
      </trkpt>
      <trkpt lat="43.71441" lon="5.92949">
        <ele>581</ele>
        <time>2016-04-23T07:22:15.000Z</time>
      </trkpt>
      <trkpt lat="43.71449" lon="5.92942">
        <ele>580</ele>
        <time>2016-04-23T07:22:25.000Z</time>
      </trkpt>
      <trkpt lat="43.71456" lon="5.92936">
        <ele>583</ele>
        <time>2016-04-23T07:22:33.000Z</time>
      </trkpt>
      <trkpt lat="43.71465" lon="5.92929">
        <ele>585</ele>
        <time>2016-04-23T07:22:43.000Z</time>
      </trkpt>
      <trkpt lat="43.71474" lon="5.9292">
        <ele>586</ele>
        <time>2016-04-23T07:22:51.000Z</time>
      </trkpt>
      <trkpt lat="43.71482" lon="5.92908">
        <ele>587</ele>
        <time>2016-04-23T07:22:59.000Z</time>
      </trkpt>
      <trkpt lat="43.7149" lon="5.929">
        <ele>588</ele>
        <time>2016-04-23T07:23:07.000Z</time>
      </trkpt>
      <trkpt lat="43.715" lon="5.92893">
        <ele>590</ele>
        <time>2016-04-23T07:23:15.000Z</time>
      </trkpt>
      <trkpt lat="43.715" lon="5.92893">
        <ele>590</ele>
        <time>2016-04-23T07:23:21.000Z</time>
      </trkpt>
      <trkpt lat="43.715" lon="5.92893">
        <ele>590</ele>
        <time>2016-04-23T07:23:23.000Z</time>
      </trkpt>
      <trkpt lat="43.715" lon="5.92893">
        <ele>590</ele>
        <time>2016-04-23T07:23:25.000Z</time>
      </trkpt>
      <trkpt lat="43.715" lon="5.92893">
        <ele>590</ele>
        <time>2016-04-23T07:23:27.000Z</time>
      </trkpt>
      <trkpt lat="43.71516" lon="5.92875">
        <ele>591</ele>
        <time>2016-04-23T07:23:38.000Z</time>
      </trkpt>
      <trkpt lat="43.71516" lon="5.92875">
        <ele>591</ele>
        <time>2016-04-23T07:23:44.000Z</time>
      </trkpt>
      <trkpt lat="43.71536" lon="5.92853">
        <ele>591</ele>
        <time>2016-04-23T07:23:54.000Z</time>
      </trkpt>
      <trkpt lat="43.71546" lon="5.9285">
        <ele>592</ele>
        <time>2016-04-23T07:24:00.000Z</time>
      </trkpt>
      <trkpt lat="43.71555" lon="5.92848">
        <ele>594</ele>
        <time>2016-04-23T07:24:06.000Z</time>
      </trkpt>
      <trkpt lat="43.71555" lon="5.92848">
        <ele>594</ele>
        <time>2016-04-23T07:24:10.000Z</time>
      </trkpt>
      <trkpt lat="43.71555" lon="5.92848">
        <ele>594</ele>
        <time>2016-04-23T07:24:12.000Z</time>
      </trkpt>
      <trkpt lat="43.71555" lon="5.92848">
        <ele>594</ele>
        <time>2016-04-23T07:24:14.000Z</time>
      </trkpt>
      <trkpt lat="43.71555" lon="5.92848">
        <ele>594</ele>
        <time>2016-04-23T07:24:16.000Z</time>
      </trkpt>
      <trkpt lat="43.71555" lon="5.92848">
        <ele>594</ele>
        <time>2016-04-23T07:24:18.000Z</time>
      </trkpt>
      <trkpt lat="43.71555" lon="5.92848">
        <ele>594</ele>
        <time>2016-04-23T07:24:20.000Z</time>
      </trkpt>
      <trkpt lat="43.71579" lon="5.92835">
        <ele>597</ele>
        <time>2016-04-23T07:24:24.000Z</time>
      </trkpt>
      <trkpt lat="43.71589" lon="5.92832">
        <ele>597</ele>
        <time>2016-04-23T07:24:30.000Z</time>
      </trkpt>
      <trkpt lat="43.71589" lon="5.92832">
        <ele>597</ele>
        <time>2016-04-23T07:24:36.000Z</time>
      </trkpt>
      <trkpt lat="43.71589" lon="5.92832">
        <ele>597</ele>
        <time>2016-04-23T07:24:38.000Z</time>
      </trkpt>
      <trkpt lat="43.71589" lon="5.92832">
        <ele>597</ele>
        <time>2016-04-23T07:24:40.000Z</time>
      </trkpt>
      <trkpt lat="43.71589" lon="5.92832">
        <ele>597</ele>
        <time>2016-04-23T07:24:42.000Z</time>
      </trkpt>
      <trkpt lat="43.71589" lon="5.92832">
        <ele>597</ele>
        <time>2016-04-23T07:24:44.000Z</time>
      </trkpt>
      <trkpt lat="43.71589" lon="5.92832">
        <ele>597</ele>
        <time>2016-04-23T07:24:46.000Z</time>
      </trkpt>
      <trkpt lat="43.71589" lon="5.92832">
        <ele>597</ele>
        <time>2016-04-23T07:24:48.000Z</time>
      </trkpt>
      <trkpt lat="43.71589" lon="5.92832">
        <ele>597</ele>
        <time>2016-04-23T07:24:50.000Z</time>
      </trkpt>
      <trkpt lat="43.71589" lon="5.92832">
        <ele>597</ele>
        <time>2016-04-23T07:24:52.000Z</time>
      </trkpt>
      <trkpt lat="43.71589" lon="5.92832">
        <ele>597</ele>
        <time>2016-04-23T07:24:54.000Z</time>
      </trkpt>
      <trkpt lat="43.71589" lon="5.92832">
        <ele>597</ele>
        <time>2016-04-23T07:24:56.000Z</time>
      </trkpt>
      <trkpt lat="43.71589" lon="5.92832">
        <ele>597</ele>
        <time>2016-04-23T07:24:58.000Z</time>
      </trkpt>
      <trkpt lat="43.71589" lon="5.92832">
        <ele>597</ele>
        <time>2016-04-23T07:25:00.000Z</time>
      </trkpt>
      <trkpt lat="43.71589" lon="5.92832">
        <ele>597</ele>
        <time>2016-04-23T07:25:02.000Z</time>
      </trkpt>
      <trkpt lat="43.71589" lon="5.92832">
        <ele>597</ele>
        <time>2016-04-23T07:25:04.000Z</time>
      </trkpt>
      <trkpt lat="43.71589" lon="5.92832">
        <ele>597</ele>
        <time>2016-04-23T07:25:06.000Z</time>
      </trkpt>
      <trkpt lat="43.71589" lon="5.92832">
        <ele>597</ele>
        <time>2016-04-23T07:25:08.000Z</time>
      </trkpt>
      <trkpt lat="43.71589" lon="5.92832">
        <ele>597</ele>
        <time>2016-04-23T07:25:10.000Z</time>
      </trkpt>
      <trkpt lat="43.71589" lon="5.92832">
        <ele>597</ele>
        <time>2016-04-23T07:25:12.000Z</time>
      </trkpt>
      <trkpt lat="43.71589" lon="5.92832">
        <ele>597</ele>
        <time>2016-04-23T07:25:14.000Z</time>
      </trkpt>
      <trkpt lat="43.71589" lon="5.92832">
        <ele>597</ele>
        <time>2016-04-23T07:25:16.000Z</time>
      </trkpt>
      <trkpt lat="43.71622" lon="5.92834">
        <ele>602</ele>
        <time>2016-04-23T07:25:18.000Z</time>
      </trkpt>
      <trkpt lat="43.71641" lon="5.92834">
        <ele>602</ele>
        <time>2016-04-23T07:25:20.000Z</time>
      </trkpt>
      <trkpt lat="43.71652" lon="5.92834">
        <ele>603</ele>
        <time>2016-04-23T07:25:22.000Z</time>
      </trkpt>
      <trkpt lat="43.71659" lon="5.92833">
        <ele>604</ele>
        <time>2016-04-23T07:25:24.000Z</time>
      </trkpt>
      <trkpt lat="43.71664" lon="5.92832">
        <ele>604</ele>
        <time>2016-04-23T07:25:26.000Z</time>
      </trkpt>
      <trkpt lat="43.71676" lon="5.92831">
        <ele>606</ele>
        <time>2016-04-23T07:25:30.000Z</time>
      </trkpt>
      <trkpt lat="43.71686" lon="5.9283">
        <ele>606</ele>
        <time>2016-04-23T07:25:36.000Z</time>
      </trkpt>
      <trkpt lat="43.71697" lon="5.92827">
        <ele>608</ele>
        <time>2016-04-23T07:25:42.000Z</time>
      </trkpt>
      <trkpt lat="43.71708" lon="5.92828">
        <ele>609</ele>
        <time>2016-04-23T07:25:48.000Z</time>
      </trkpt>
      <trkpt lat="43.71719" lon="5.92824">
        <ele>610</ele>
        <time>2016-04-23T07:25:54.000Z</time>
      </trkpt>
      <trkpt lat="43.7173" lon="5.9282">
        <ele>611</ele>
        <time>2016-04-23T07:26:00.000Z</time>
      </trkpt>
      <trkpt lat="43.71741" lon="5.92817">
        <ele>613</ele>
        <time>2016-04-23T07:26:06.000Z</time>
      </trkpt>
      <trkpt lat="43.71752" lon="5.92815">
        <ele>614</ele>
        <time>2016-04-23T07:26:12.000Z</time>
      </trkpt>
      <trkpt lat="43.71761" lon="5.92821">
        <ele>614</ele>
        <time>2016-04-23T07:26:18.000Z</time>
      </trkpt>
      <trkpt lat="43.71761" lon="5.92821">
        <ele>614</ele>
        <time>2016-04-23T07:26:20.000Z</time>
      </trkpt>
      <trkpt lat="43.71761" lon="5.92821">
        <ele>614</ele>
        <time>2016-04-23T07:26:22.000Z</time>
      </trkpt>
      <trkpt lat="43.71761" lon="5.92821">
        <ele>614</ele>
        <time>2016-04-23T07:26:24.000Z</time>
      </trkpt>
      <trkpt lat="43.71761" lon="5.92821">
        <ele>614</ele>
        <time>2016-04-23T07:26:26.000Z</time>
      </trkpt>
      <trkpt lat="43.71761" lon="5.92821">
        <ele>614</ele>
        <time>2016-04-23T07:26:28.000Z</time>
      </trkpt>
      <trkpt lat="43.71761" lon="5.92821">
        <ele>614</ele>
        <time>2016-04-23T07:26:30.000Z</time>
      </trkpt>
      <trkpt lat="43.71761" lon="5.92821">
        <ele>614</ele>
        <time>2016-04-23T07:26:32.000Z</time>
      </trkpt>
      <trkpt lat="43.71761" lon="5.92821">
        <ele>614</ele>
        <time>2016-04-23T07:26:34.000Z</time>
      </trkpt>
      <trkpt lat="43.71761" lon="5.92821">
        <ele>614</ele>
        <time>2016-04-23T07:26:36.000Z</time>
      </trkpt>
      <trkpt lat="43.71761" lon="5.92821">
        <ele>614</ele>
        <time>2016-04-23T07:26:38.000Z</time>
      </trkpt>
      <trkpt lat="43.71761" lon="5.92821">
        <ele>614</ele>
        <time>2016-04-23T07:26:40.000Z</time>
      </trkpt>
      <trkpt lat="43.71761" lon="5.92821">
        <ele>614</ele>
        <time>2016-04-23T07:26:42.000Z</time>
      </trkpt>
      <trkpt lat="43.71761" lon="5.92821">
        <ele>614</ele>
        <time>2016-04-23T07:26:44.000Z</time>
      </trkpt>
      <trkpt lat="43.71761" lon="5.92821">
        <ele>614</ele>
        <time>2016-04-23T07:26:46.000Z</time>
      </trkpt>
      <trkpt lat="43.71804" lon="5.92802">
        <ele>619</ele>
        <time>2016-04-23T07:27:13.000Z</time>
      </trkpt>
      <trkpt lat="43.71804" lon="5.92802">
        <ele>619</ele>
        <time>2016-04-23T07:27:19.000Z</time>
      </trkpt>
      <trkpt lat="43.71804" lon="5.92802">
        <ele>619</ele>
        <time>2016-04-23T07:27:29.000Z</time>
      </trkpt>
      <trkpt lat="43.71804" lon="5.92802">
        <ele>619</ele>
        <time>2016-04-23T07:27:31.000Z</time>
      </trkpt>
      <trkpt lat="43.71804" lon="5.92802">
        <ele>619</ele>
        <time>2016-04-23T07:27:33.000Z</time>
      </trkpt>
      <trkpt lat="43.71804" lon="5.92802">
        <ele>619</ele>
        <time>2016-04-23T07:27:35.000Z</time>
      </trkpt>
      <trkpt lat="43.71804" lon="5.92802">
        <ele>619</ele>
        <time>2016-04-23T07:27:37.000Z</time>
      </trkpt>
      <trkpt lat="43.71842" lon="5.92831">
        <ele>618</ele>
        <time>2016-04-23T07:27:41.000Z</time>
      </trkpt>
      <trkpt lat="43.71852" lon="5.92835">
        <ele>618</ele>
        <time>2016-04-23T07:27:47.000Z</time>
      </trkpt>
      <trkpt lat="43.71852" lon="5.92835">
        <ele>618</ele>
        <time>2016-04-23T07:27:53.000Z</time>
      </trkpt>
      <trkpt lat="43.71852" lon="5.92835">
        <ele>618</ele>
        <time>2016-04-23T07:27:55.000Z</time>
      </trkpt>
      <trkpt lat="43.71852" lon="5.92835">
        <ele>618</ele>
        <time>2016-04-23T07:27:57.000Z</time>
      </trkpt>
      <trkpt lat="43.71856" lon="5.92858">
        <ele>620</ele>
        <time>2016-04-23T07:28:03.000Z</time>
      </trkpt>
      <trkpt lat="43.71861" lon="5.92873">
        <ele>620</ele>
        <time>2016-04-23T07:28:09.000Z</time>
      </trkpt>
      <trkpt lat="43.71869" lon="5.92881">
        <ele>621</ele>
        <time>2016-04-23T07:28:15.000Z</time>
      </trkpt>
      <trkpt lat="43.71869" lon="5.92881">
        <ele>621</ele>
        <time>2016-04-23T07:28:21.000Z</time>
      </trkpt>
      <trkpt lat="43.71869" lon="5.92881">
        <ele>621</ele>
        <time>2016-04-23T07:28:23.000Z</time>
      </trkpt>
      <trkpt lat="43.71869" lon="5.92881">
        <ele>621</ele>
        <time>2016-04-23T07:28:25.000Z</time>
      </trkpt>
      <trkpt lat="43.71869" lon="5.92881">
        <ele>621</ele>
        <time>2016-04-23T07:28:27.000Z</time>
      </trkpt>
      <trkpt lat="43.71869" lon="5.92881">
        <ele>621</ele>
        <time>2016-04-23T07:28:29.000Z</time>
      </trkpt>
      <trkpt lat="43.71869" lon="5.92881">
        <ele>621</ele>
        <time>2016-04-23T07:28:31.000Z</time>
      </trkpt>
      <trkpt lat="43.71869" lon="5.92881">
        <ele>621</ele>
        <time>2016-04-23T07:28:33.000Z</time>
      </trkpt>
      <trkpt lat="43.71869" lon="5.92881">
        <ele>621</ele>
        <time>2016-04-23T07:28:35.000Z</time>
      </trkpt>
      <trkpt lat="43.71869" lon="5.92881">
        <ele>621</ele>
        <time>2016-04-23T07:28:37.000Z</time>
      </trkpt>
      <trkpt lat="43.71869" lon="5.92881">
        <ele>621</ele>
        <time>2016-04-23T07:28:39.000Z</time>
      </trkpt>
      <trkpt lat="43.71869" lon="5.92881">
        <ele>621</ele>
        <time>2016-04-23T07:28:41.000Z</time>
      </trkpt>
      <trkpt lat="43.71869" lon="5.92881">
        <ele>621</ele>
        <time>2016-04-23T07:28:43.000Z</time>
      </trkpt>
      <trkpt lat="43.71869" lon="5.92881">
        <ele>621</ele>
        <time>2016-04-23T07:28:45.000Z</time>
      </trkpt>
      <trkpt lat="43.71887" lon="5.92901">
        <ele>623</ele>
        <time>2016-04-23T07:28:47.000Z</time>
      </trkpt>
      <trkpt lat="43.71897" lon="5.92914">
        <ele>623</ele>
        <time>2016-04-23T07:28:49.000Z</time>
      </trkpt>
      <trkpt lat="43.71903" lon="5.92923">
        <ele>623</ele>
        <time>2016-04-23T07:28:51.000Z</time>
      </trkpt>
      <trkpt lat="43.71907" lon="5.92929">
        <ele>623</ele>
        <time>2016-04-23T07:28:53.000Z</time>
      </trkpt>
      <trkpt lat="43.71912" lon="5.92934">
        <ele>623</ele>
        <time>2016-04-23T07:28:55.000Z</time>
      </trkpt>
      <trkpt lat="43.7192" lon="5.92941">
        <ele>623</ele>
        <time>2016-04-23T07:28:57.000Z</time>
      </trkpt>
      <trkpt lat="43.71928" lon="5.92947">
        <ele>624</ele>
        <time>2016-04-23T07:29:01.000Z</time>
      </trkpt>
      <trkpt lat="43.71938" lon="5.9296">
        <ele>624</ele>
        <time>2016-04-23T07:29:07.000Z</time>
      </trkpt>
      <trkpt lat="43.71946" lon="5.92968">
        <ele>624</ele>
        <time>2016-04-23T07:29:11.000Z</time>
      </trkpt>
      <trkpt lat="43.71954" lon="5.92974">
        <ele>625</ele>
        <time>2016-04-23T07:29:15.000Z</time>
      </trkpt>
      <trkpt lat="43.71966" lon="5.92982">
        <ele>626</ele>
        <time>2016-04-23T07:29:21.000Z</time>
      </trkpt>
      <trkpt lat="43.71966" lon="5.92982">
        <ele>626</ele>
        <time>2016-04-23T07:29:23.000Z</time>
      </trkpt>
      <trkpt lat="43.71966" lon="5.92982">
        <ele>626</ele>
        <time>2016-04-23T07:29:25.000Z</time>
      </trkpt>
      <trkpt lat="43.71966" lon="5.92982">
        <ele>626</ele>
        <time>2016-04-23T07:29:27.000Z</time>
      </trkpt>
      <trkpt lat="43.71966" lon="5.92982">
        <ele>626</ele>
        <time>2016-04-23T07:29:29.000Z</time>
      </trkpt>
      <trkpt lat="43.71966" lon="5.92982">
        <ele>626</ele>
        <time>2016-04-23T07:29:31.000Z</time>
      </trkpt>
      <trkpt lat="43.71966" lon="5.92982">
        <ele>626</ele>
        <time>2016-04-23T07:29:33.000Z</time>
      </trkpt>
      <trkpt lat="43.71966" lon="5.92982">
        <ele>626</ele>
        <time>2016-04-23T07:29:35.000Z</time>
      </trkpt>
      <trkpt lat="43.71966" lon="5.92982">
        <ele>626</ele>
        <time>2016-04-23T07:29:37.000Z</time>
      </trkpt>
      <trkpt lat="43.72003" lon="5.92994">
        <ele>628</ele>
        <time>2016-04-23T07:29:39.000Z</time>
      </trkpt>
      <trkpt lat="43.72014" lon="5.9299">
        <ele>629</ele>
        <time>2016-04-23T07:29:43.000Z</time>
      </trkpt>
      <trkpt lat="43.72026" lon="5.92993">
        <ele>630</ele>
        <time>2016-04-23T07:29:47.000Z</time>
      </trkpt>
      <trkpt lat="43.72037" lon="5.92997">
        <ele>631</ele>
        <time>2016-04-23T07:29:51.000Z</time>
      </trkpt>
      <trkpt lat="43.72037" lon="5.92997">
        <ele>631</ele>
        <time>2016-04-23T07:29:53.000Z</time>
      </trkpt>
      <trkpt lat="43.72037" lon="5.92997">
        <ele>631</ele>
        <time>2016-04-23T07:29:55.000Z</time>
      </trkpt>
      <trkpt lat="43.72037" lon="5.92997">
        <ele>631</ele>
        <time>2016-04-23T07:29:57.000Z</time>
      </trkpt>
      <trkpt lat="43.72037" lon="5.92997">
        <ele>631</ele>
        <time>2016-04-23T07:29:59.000Z</time>
      </trkpt>
      <trkpt lat="43.72037" lon="5.92997">
        <ele>631</ele>
        <time>2016-04-23T07:30:01.000Z</time>
      </trkpt>
      <trkpt lat="43.72037" lon="5.92997">
        <ele>631</ele>
        <time>2016-04-23T07:30:03.000Z</time>
      </trkpt>
      <trkpt lat="43.72037" lon="5.92997">
        <ele>631</ele>
        <time>2016-04-23T07:30:05.000Z</time>
      </trkpt>
      <trkpt lat="43.72037" lon="5.92997">
        <ele>631</ele>
        <time>2016-04-23T07:30:07.000Z</time>
      </trkpt>
      <trkpt lat="43.72037" lon="5.92997">
        <ele>631</ele>
        <time>2016-04-23T07:30:09.000Z</time>
      </trkpt>
      <trkpt lat="43.72037" lon="5.92997">
        <ele>631</ele>
        <time>2016-04-23T07:30:11.000Z</time>
      </trkpt>
      <trkpt lat="43.72095" lon="5.92997">
        <ele>634</ele>
        <time>2016-04-23T07:30:13.000Z</time>
      </trkpt>
      <trkpt lat="43.72108" lon="5.92998">
        <ele>634</ele>
        <time>2016-04-23T07:30:17.000Z</time>
      </trkpt>
      <trkpt lat="43.72114" lon="5.92998">
        <ele>634</ele>
        <time>2016-04-23T07:30:21.000Z</time>
      </trkpt>
      <trkpt lat="43.72121" lon="5.93">
        <ele>633</ele>
        <time>2016-04-23T07:30:23.000Z</time>
      </trkpt>
      <trkpt lat="43.72128" lon="5.93003">
        <ele>631</ele>
        <time>2016-04-23T07:30:25.000Z</time>
      </trkpt>
      <trkpt lat="43.72134" lon="5.93007">
        <ele>631</ele>
        <time>2016-04-23T07:30:27.000Z</time>
      </trkpt>
      <trkpt lat="43.7214" lon="5.93013">
        <ele>631</ele>
        <time>2016-04-23T07:30:29.000Z</time>
      </trkpt>
      <trkpt lat="43.72151" lon="5.93025">
        <ele>631</ele>
        <time>2016-04-23T07:30:31.000Z</time>
      </trkpt>
      <trkpt lat="43.72151" lon="5.93025">
        <ele>631</ele>
        <time>2016-04-23T07:30:35.000Z</time>
      </trkpt>
      <trkpt lat="43.72151" lon="5.93025">
        <ele>631</ele>
        <time>2016-04-23T07:30:37.000Z</time>
      </trkpt>
      <trkpt lat="43.72151" lon="5.93025">
        <ele>631</ele>
        <time>2016-04-23T07:30:39.000Z</time>
      </trkpt>
      <trkpt lat="43.72151" lon="5.93025">
        <ele>631</ele>
        <time>2016-04-23T07:30:41.000Z</time>
      </trkpt>
      <trkpt lat="43.72151" lon="5.93025">
        <ele>631</ele>
        <time>2016-04-23T07:30:43.000Z</time>
      </trkpt>
      <trkpt lat="43.72151" lon="5.93025">
        <ele>631</ele>
        <time>2016-04-23T07:30:45.000Z</time>
      </trkpt>
      <trkpt lat="43.72151" lon="5.93025">
        <ele>631</ele>
        <time>2016-04-23T07:30:47.000Z</time>
      </trkpt>
      <trkpt lat="43.72151" lon="5.93025">
        <ele>631</ele>
        <time>2016-04-23T07:30:49.000Z</time>
      </trkpt>
      <trkpt lat="43.72151" lon="5.93025">
        <ele>631</ele>
        <time>2016-04-23T07:30:51.000Z</time>
      </trkpt>
      <trkpt lat="43.72151" lon="5.93025">
        <ele>631</ele>
        <time>2016-04-23T07:30:53.000Z</time>
      </trkpt>
      <trkpt lat="43.72151" lon="5.93025">
        <ele>631</ele>
        <time>2016-04-23T07:30:55.000Z</time>
      </trkpt>
      <trkpt lat="43.72151" lon="5.93025">
        <ele>631</ele>
        <time>2016-04-23T07:30:57.000Z</time>
      </trkpt>
      <trkpt lat="43.72151" lon="5.93025">
        <ele>631</ele>
        <time>2016-04-23T07:30:59.000Z</time>
      </trkpt>
      <trkpt lat="43.72204" lon="5.93091">
        <ele>635</ele>
        <time>2016-04-23T07:31:01.000Z</time>
      </trkpt>
      <trkpt lat="43.72216" lon="5.93083">
        <ele>634</ele>
        <time>2016-04-23T07:31:05.000Z</time>
      </trkpt>
      <trkpt lat="43.7223" lon="5.93077">
        <ele>634</ele>
        <time>2016-04-23T07:31:09.000Z</time>
      </trkpt>
      <trkpt lat="43.72246" lon="5.9308">
        <ele>633</ele>
        <time>2016-04-23T07:31:13.000Z</time>
      </trkpt>
      <trkpt lat="43.72261" lon="5.93071">
        <ele>634</ele>
        <time>2016-04-23T07:31:17.000Z</time>
      </trkpt>
      <trkpt lat="43.72274" lon="5.93063">
        <ele>634</ele>
        <time>2016-04-23T07:31:21.000Z</time>
      </trkpt>
      <trkpt lat="43.72274" lon="5.93063">
        <ele>634</ele>
        <time>2016-04-23T07:31:23.000Z</time>
      </trkpt>
      <trkpt lat="43.72274" lon="5.93063">
        <ele>634</ele>
        <time>2016-04-23T07:31:25.000Z</time>
      </trkpt>
      <trkpt lat="43.72274" lon="5.93063">
        <ele>634</ele>
        <time>2016-04-23T07:31:27.000Z</time>
      </trkpt>
      <trkpt lat="43.72274" lon="5.93063">
        <ele>634</ele>
        <time>2016-04-23T07:31:29.000Z</time>
      </trkpt>
      <trkpt lat="43.72274" lon="5.93063">
        <ele>634</ele>
        <time>2016-04-23T07:31:31.000Z</time>
      </trkpt>
      <trkpt lat="43.72274" lon="5.93063">
        <ele>634</ele>
        <time>2016-04-23T07:31:33.000Z</time>
      </trkpt>
      <trkpt lat="43.72321" lon="5.93032">
        <ele>637</ele>
        <time>2016-04-23T07:31:37.000Z</time>
      </trkpt>
      <trkpt lat="43.72332" lon="5.93023">
        <ele>638</ele>
        <time>2016-04-23T07:31:41.000Z</time>
      </trkpt>
      <trkpt lat="43.72346" lon="5.93012">
        <ele>638</ele>
        <time>2016-04-23T07:31:45.000Z</time>
      </trkpt>
      <trkpt lat="43.7236" lon="5.93002">
        <ele>637</ele>
        <time>2016-04-23T07:31:49.000Z</time>
      </trkpt>
      <trkpt lat="43.72367" lon="5.92998">
        <ele>636</ele>
        <time>2016-04-23T07:31:53.000Z</time>
      </trkpt>
      <trkpt lat="43.72374" lon="5.92996">
        <ele>635</ele>
        <time>2016-04-23T07:31:55.000Z</time>
      </trkpt>
      <trkpt lat="43.72382" lon="5.92993">
        <ele>636</ele>
        <time>2016-04-23T07:31:57.000Z</time>
      </trkpt>
      <trkpt lat="43.72389" lon="5.92991">
        <ele>636</ele>
        <time>2016-04-23T07:31:59.000Z</time>
      </trkpt>
      <trkpt lat="43.72396" lon="5.92989">
        <ele>636</ele>
        <time>2016-04-23T07:32:01.000Z</time>
      </trkpt>
      <trkpt lat="43.72396" lon="5.92989">
        <ele>636</ele>
        <time>2016-04-23T07:32:03.000Z</time>
      </trkpt>
      <trkpt lat="43.72396" lon="5.92989">
        <ele>636</ele>
        <time>2016-04-23T07:32:05.000Z</time>
      </trkpt>
      <trkpt lat="43.72396" lon="5.92989">
        <ele>636</ele>
        <time>2016-04-23T07:32:07.000Z</time>
      </trkpt>
      <trkpt lat="43.72396" lon="5.92989">
        <ele>636</ele>
        <time>2016-04-23T07:32:09.000Z</time>
      </trkpt>
      <trkpt lat="43.72396" lon="5.92989">
        <ele>636</ele>
        <time>2016-04-23T07:32:11.000Z</time>
      </trkpt>
      <trkpt lat="43.72396" lon="5.92989">
        <ele>636</ele>
        <time>2016-04-23T07:32:13.000Z</time>
      </trkpt>
      <trkpt lat="43.72396" lon="5.92989">
        <ele>636</ele>
        <time>2016-04-23T07:32:15.000Z</time>
      </trkpt>
      <trkpt lat="43.7244" lon="5.92962">
        <ele>631</ele>
        <time>2016-04-23T07:32:19.000Z</time>
      </trkpt>
      <trkpt lat="43.7243" lon="5.92973">
        <ele>632</ele>
        <time>2016-04-23T07:32:23.000Z</time>
      </trkpt>
      <trkpt lat="43.72419" lon="5.92979">
        <ele>630</ele>
        <time>2016-04-23T07:32:27.000Z</time>
      </trkpt>
      <trkpt lat="43.72418" lon="5.92996">
        <ele>630</ele>
        <time>2016-04-23T07:32:31.000Z</time>
      </trkpt>
      <trkpt lat="43.72418" lon="5.92996">
        <ele>630</ele>
        <time>2016-04-23T07:32:35.000Z</time>
      </trkpt>
      <trkpt lat="43.72418" lon="5.92996">
        <ele>630</ele>
        <time>2016-04-23T07:32:37.000Z</time>
      </trkpt>
      <trkpt lat="43.72418" lon="5.92996">
        <ele>630</ele>
        <time>2016-04-23T07:32:39.000Z</time>
      </trkpt>
      <trkpt lat="43.72445" lon="5.93024">
        <ele>628</ele>
        <time>2016-04-23T07:32:43.000Z</time>
      </trkpt>
      <trkpt lat="43.72445" lon="5.93024">
        <ele>628</ele>
        <time>2016-04-23T07:32:45.000Z</time>
      </trkpt>
      <trkpt lat="43.72443" lon="5.93042">
        <ele>627</ele>
        <time>2016-04-23T07:32:47.000Z</time>
      </trkpt>
      <trkpt lat="43.72443" lon="5.93042">
        <ele>627</ele>
        <time>2016-04-23T07:32:49.000Z</time>
      </trkpt>
      <trkpt lat="43.72443" lon="5.93042">
        <ele>627</ele>
        <time>2016-04-23T07:32:51.000Z</time>
      </trkpt>
      <trkpt lat="43.72443" lon="5.93042">
        <ele>627</ele>
        <time>2016-04-23T07:32:53.000Z</time>
      </trkpt>
      <trkpt lat="43.72443" lon="5.93042">
        <ele>627</ele>
        <time>2016-04-23T07:32:55.000Z</time>
      </trkpt>
      <trkpt lat="43.72443" lon="5.93042">
        <ele>627</ele>
        <time>2016-04-23T07:32:57.000Z</time>
      </trkpt>
      <trkpt lat="43.72414" lon="5.93042">
        <ele>625</ele>
        <time>2016-04-23T07:33:01.000Z</time>
      </trkpt>
      <trkpt lat="43.72401" lon="5.93043">
        <ele>622</ele>
        <time>2016-04-23T07:33:05.000Z</time>
      </trkpt>
      <trkpt lat="43.72385" lon="5.93046">
        <ele>622</ele>
        <time>2016-04-23T07:33:09.000Z</time>
      </trkpt>
      <trkpt lat="43.72385" lon="5.93046">
        <ele>622</ele>
        <time>2016-04-23T07:33:11.000Z</time>
      </trkpt>
      <trkpt lat="43.72385" lon="5.93046">
        <ele>622</ele>
        <time>2016-04-23T07:33:13.000Z</time>
      </trkpt>
      <trkpt lat="43.72385" lon="5.93046">
        <ele>622</ele>
        <time>2016-04-23T07:33:15.000Z</time>
      </trkpt>
      <trkpt lat="43.72385" lon="5.93046">
        <ele>622</ele>
        <time>2016-04-23T07:33:17.000Z</time>
      </trkpt>
      <trkpt lat="43.7237" lon="5.93059">
        <ele>621</ele>
        <time>2016-04-23T07:33:21.000Z</time>
      </trkpt>
      <trkpt lat="43.7236" lon="5.9307">
        <ele>620</ele>
        <time>2016-04-23T07:33:23.000Z</time>
      </trkpt>
      <trkpt lat="43.72351" lon="5.93082">
        <ele>617</ele>
        <time>2016-04-23T07:33:25.000Z</time>
      </trkpt>
      <trkpt lat="43.72343" lon="5.93096">
        <ele>615</ele>
        <time>2016-04-23T07:33:27.000Z</time>
      </trkpt>
      <trkpt lat="43.72337" lon="5.9311">
        <ele>613</ele>
        <time>2016-04-23T07:33:29.000Z</time>
      </trkpt>
      <trkpt lat="43.72332" lon="5.93133">
        <ele>611</ele>
        <time>2016-04-23T07:33:31.000Z</time>
      </trkpt>
      <trkpt lat="43.72332" lon="5.93133">
        <ele>611</ele>
        <time>2016-04-23T07:33:33.000Z</time>
      </trkpt>
      <trkpt lat="43.72332" lon="5.93133">
        <ele>611</ele>
        <time>2016-04-23T07:33:35.000Z</time>
      </trkpt>
      <trkpt lat="43.72332" lon="5.93133">
        <ele>611</ele>
        <time>2016-04-23T07:33:37.000Z</time>
      </trkpt>
      <trkpt lat="43.72332" lon="5.93133">
        <ele>611</ele>
        <time>2016-04-23T07:33:39.000Z</time>
      </trkpt>
      <trkpt lat="43.7232" lon="5.93188">
        <ele>601</ele>
        <time>2016-04-23T07:33:45.000Z</time>
      </trkpt>
      <trkpt lat="43.72311" lon="5.93193">
        <ele>600</ele>
        <time>2016-04-23T07:33:47.000Z</time>
      </trkpt>
      <trkpt lat="43.72311" lon="5.93193">
        <ele>600</ele>
        <time>2016-04-23T07:33:49.000Z</time>
      </trkpt>
      <trkpt lat="43.72311" lon="5.93193">
        <ele>600</ele>
        <time>2016-04-23T07:33:51.000Z</time>
      </trkpt>
      <trkpt lat="43.72311" lon="5.93193">
        <ele>600</ele>
        <time>2016-04-23T07:33:53.000Z</time>
      </trkpt>
      <trkpt lat="43.72313" lon="5.93207">
        <ele>594</ele>
        <time>2016-04-23T07:33:57.000Z</time>
      </trkpt>
      <trkpt lat="43.72322" lon="5.93216">
        <ele>592</ele>
        <time>2016-04-23T07:34:01.000Z</time>
      </trkpt>
      <trkpt lat="43.72322" lon="5.93216">
        <ele>592</ele>
        <time>2016-04-23T07:34:03.000Z</time>
      </trkpt>
      <trkpt lat="43.72322" lon="5.93216">
        <ele>592</ele>
        <time>2016-04-23T07:34:05.000Z</time>
      </trkpt>
      <trkpt lat="43.72322" lon="5.93216">
        <ele>592</ele>
        <time>2016-04-23T07:34:07.000Z</time>
      </trkpt>
      <trkpt lat="43.72336" lon="5.93235">
        <ele>587</ele>
        <time>2016-04-23T07:34:13.000Z</time>
      </trkpt>
      <trkpt lat="43.72345" lon="5.93237">
        <ele>586</ele>
        <time>2016-04-23T07:34:15.000Z</time>
      </trkpt>
      <trkpt lat="43.72357" lon="5.9324">
        <ele>584</ele>
        <time>2016-04-23T07:34:19.000Z</time>
      </trkpt>
      <trkpt lat="43.72372" lon="5.93232">
        <ele>580</ele>
        <time>2016-04-23T07:34:23.000Z</time>
      </trkpt>
      <trkpt lat="43.72387" lon="5.93238">
        <ele>579</ele>
        <time>2016-04-23T07:34:27.000Z</time>
      </trkpt>
      <trkpt lat="43.72387" lon="5.93238">
        <ele>579</ele>
        <time>2016-04-23T07:34:29.000Z</time>
      </trkpt>
      <trkpt lat="43.724" lon="5.93245">
        <ele>577</ele>
        <time>2016-04-23T07:34:31.000Z</time>
      </trkpt>
      <trkpt lat="43.724" lon="5.93245">
        <ele>577</ele>
        <time>2016-04-23T07:34:33.000Z</time>
      </trkpt>
      <trkpt lat="43.724" lon="5.93245">
        <ele>577</ele>
        <time>2016-04-23T07:34:35.000Z</time>
      </trkpt>
      <trkpt lat="43.724" lon="5.93245">
        <ele>577</ele>
        <time>2016-04-23T07:34:37.000Z</time>
      </trkpt>
      <trkpt lat="43.724" lon="5.93245">
        <ele>577</ele>
        <time>2016-04-23T07:34:39.000Z</time>
      </trkpt>
      <trkpt lat="43.724" lon="5.93245">
        <ele>577</ele>
        <time>2016-04-23T07:34:41.000Z</time>
      </trkpt>
      <trkpt lat="43.72431" lon="5.93273">
        <ele>569</ele>
        <time>2016-04-23T07:34:45.000Z</time>
      </trkpt>
      <trkpt lat="43.72441" lon="5.93285">
        <ele>569</ele>
        <time>2016-04-23T07:34:47.000Z</time>
      </trkpt>
      <trkpt lat="43.72441" lon="5.93285">
        <ele>569</ele>
        <time>2016-04-23T07:34:49.000Z</time>
      </trkpt>
      <trkpt lat="43.72456" lon="5.93298">
        <ele>566</ele>
        <time>2016-04-23T07:34:51.000Z</time>
      </trkpt>
      <trkpt lat="43.72464" lon="5.93306">
        <ele>566</ele>
        <time>2016-04-23T07:34:53.000Z</time>
      </trkpt>
      <trkpt lat="43.72476" lon="5.93329">
        <ele>564</ele>
        <time>2016-04-23T07:34:57.000Z</time>
      </trkpt>
      <trkpt lat="43.7248" lon="5.93341">
        <ele>563</ele>
        <time>2016-04-23T07:34:59.000Z</time>
      </trkpt>
      <trkpt lat="43.7248" lon="5.93341">
        <ele>563</ele>
        <time>2016-04-23T07:35:01.000Z</time>
      </trkpt>
      <trkpt lat="43.7248" lon="5.93341">
        <ele>563</ele>
        <time>2016-04-23T07:35:03.000Z</time>
      </trkpt>
      <trkpt lat="43.7248" lon="5.93341">
        <ele>563</ele>
        <time>2016-04-23T07:35:05.000Z</time>
      </trkpt>
      <trkpt lat="43.72499" lon="5.93351">
        <ele>559</ele>
        <time>2016-04-23T07:35:09.000Z</time>
      </trkpt>
      <trkpt lat="43.72515" lon="5.93356">
        <ele>558</ele>
        <time>2016-04-23T07:35:11.000Z</time>
      </trkpt>
      <trkpt lat="43.72527" lon="5.93359">
        <ele>558</ele>
        <time>2016-04-23T07:35:13.000Z</time>
      </trkpt>
      <trkpt lat="43.72538" lon="5.93359">
        <ele>558</ele>
        <time>2016-04-23T07:35:15.000Z</time>
      </trkpt>
      <trkpt lat="43.7255" lon="5.93358">
        <ele>557</ele>
        <time>2016-04-23T07:35:17.000Z</time>
      </trkpt>
      <trkpt lat="43.72574" lon="5.93354">
        <ele>557</ele>
        <time>2016-04-23T07:35:19.000Z</time>
      </trkpt>
      <trkpt lat="43.72586" lon="5.93352">
        <ele>558</ele>
        <time>2016-04-23T07:35:21.000Z</time>
      </trkpt>
      <trkpt lat="43.72597" lon="5.93347">
        <ele>558</ele>
        <time>2016-04-23T07:35:23.000Z</time>
      </trkpt>
      <trkpt lat="43.72609" lon="5.9334">
        <ele>558</ele>
        <time>2016-04-23T07:35:25.000Z</time>
      </trkpt>
      <trkpt lat="43.72619" lon="5.93336">
        <ele>557</ele>
        <time>2016-04-23T07:35:27.000Z</time>
      </trkpt>
      <trkpt lat="43.72619" lon="5.93336">
        <ele>557</ele>
        <time>2016-04-23T07:35:29.000Z</time>
      </trkpt>
      <trkpt lat="43.72619" lon="5.93336">
        <ele>557</ele>
        <time>2016-04-23T07:35:31.000Z</time>
      </trkpt>
      <trkpt lat="43.72619" lon="5.93336">
        <ele>557</ele>
        <time>2016-04-23T07:35:33.000Z</time>
      </trkpt>
      <trkpt lat="43.72671" lon="5.93347">
        <ele>554</ele>
        <time>2016-04-23T07:35:39.000Z</time>
      </trkpt>
      <trkpt lat="43.72683" lon="5.93352">
        <ele>553</ele>
        <time>2016-04-23T07:35:41.000Z</time>
      </trkpt>
      <trkpt lat="43.72695" lon="5.93354">
        <ele>551</ele>
        <time>2016-04-23T07:35:43.000Z</time>
      </trkpt>
      <trkpt lat="43.72707" lon="5.93355">
        <ele>550</ele>
        <time>2016-04-23T07:35:45.000Z</time>
      </trkpt>
      <trkpt lat="43.7272" lon="5.93354">
        <ele>550</ele>
        <time>2016-04-23T07:35:47.000Z</time>
      </trkpt>
      <trkpt lat="43.72731" lon="5.93352">
        <ele>548</ele>
        <time>2016-04-23T07:35:49.000Z</time>
      </trkpt>
      <trkpt lat="43.72741" lon="5.93354">
        <ele>546</ele>
        <time>2016-04-23T07:35:51.000Z</time>
      </trkpt>
      <trkpt lat="43.72741" lon="5.93354">
        <ele>546</ele>
        <time>2016-04-23T07:35:53.000Z</time>
      </trkpt>
      <trkpt lat="43.72763" lon="5.93366">
        <ele>544</ele>
        <time>2016-04-23T07:35:55.000Z</time>
      </trkpt>
      <trkpt lat="43.72773" lon="5.93377">
        <ele>544</ele>
        <time>2016-04-23T07:35:57.000Z</time>
      </trkpt>
      <trkpt lat="43.72783" lon="5.93389">
        <ele>543</ele>
        <time>2016-04-23T07:35:59.000Z</time>
      </trkpt>
      <trkpt lat="43.72794" lon="5.93399">
        <ele>541</ele>
        <time>2016-04-23T07:36:01.000Z</time>
      </trkpt>
      <trkpt lat="43.72803" lon="5.93414">
        <ele>540</ele>
        <time>2016-04-23T07:36:03.000Z</time>
      </trkpt>
      <trkpt lat="43.72812" lon="5.93427">
        <ele>539</ele>
        <time>2016-04-23T07:36:05.000Z</time>
      </trkpt>
      <trkpt lat="43.72822" lon="5.93436">
        <ele>540</ele>
        <time>2016-04-23T07:36:07.000Z</time>
      </trkpt>
      <trkpt lat="43.72822" lon="5.93436">
        <ele>540</ele>
        <time>2016-04-23T07:36:09.000Z</time>
      </trkpt>
      <trkpt lat="43.72822" lon="5.93436">
        <ele>540</ele>
        <time>2016-04-23T07:36:11.000Z</time>
      </trkpt>
      <trkpt lat="43.72822" lon="5.93436">
        <ele>540</ele>
        <time>2016-04-23T07:36:13.000Z</time>
      </trkpt>
      <trkpt lat="43.72822" lon="5.93436">
        <ele>540</ele>
        <time>2016-04-23T07:36:15.000Z</time>
      </trkpt>
      <trkpt lat="43.72822" lon="5.93436">
        <ele>540</ele>
        <time>2016-04-23T07:36:17.000Z</time>
      </trkpt>
      <trkpt lat="43.72822" lon="5.93436">
        <ele>540</ele>
        <time>2016-04-23T07:36:19.000Z</time>
      </trkpt>
      <trkpt lat="43.72822" lon="5.93436">
        <ele>540</ele>
        <time>2016-04-23T07:36:21.000Z</time>
      </trkpt>
      <trkpt lat="43.72822" lon="5.93436">
        <ele>540</ele>
        <time>2016-04-23T07:36:23.000Z</time>
      </trkpt>
      <trkpt lat="43.72822" lon="5.93436">
        <ele>540</ele>
        <time>2016-04-23T07:36:25.000Z</time>
      </trkpt>
      <trkpt lat="43.72822" lon="5.93436">
        <ele>540</ele>
        <time>2016-04-23T07:36:27.000Z</time>
      </trkpt>
      <trkpt lat="43.72822" lon="5.93436">
        <ele>540</ele>
        <time>2016-04-23T07:36:29.000Z</time>
      </trkpt>
      <trkpt lat="43.72822" lon="5.93436">
        <ele>540</ele>
        <time>2016-04-23T07:36:31.000Z</time>
      </trkpt>
      <trkpt lat="43.72822" lon="5.93436">
        <ele>540</ele>
        <time>2016-04-23T07:36:33.000Z</time>
      </trkpt>
      <trkpt lat="43.72822" lon="5.93436">
        <ele>540</ele>
        <time>2016-04-23T07:36:35.000Z</time>
      </trkpt>
      <trkpt lat="43.72822" lon="5.93436">
        <ele>540</ele>
        <time>2016-04-23T07:36:37.000Z</time>
      </trkpt>
      <trkpt lat="43.72822" lon="5.93436">
        <ele>540</ele>
        <time>2016-04-23T07:36:39.000Z</time>
      </trkpt>
      <trkpt lat="43.72884" lon="5.93378">
        <ele>538</ele>
        <time>2016-04-23T07:36:47.000Z</time>
      </trkpt>
      <trkpt lat="43.72889" lon="5.93366">
        <ele>538</ele>
        <time>2016-04-23T07:36:53.000Z</time>
      </trkpt>
      <trkpt lat="43.72897" lon="5.93357">
        <ele>542</ele>
        <time>2016-04-23T07:36:59.000Z</time>
      </trkpt>
      <trkpt lat="43.72904" lon="5.93357">
        <ele>542</ele>
        <time>2016-04-23T07:37:05.000Z</time>
      </trkpt>
      <trkpt lat="43.72911" lon="5.93356">
        <ele>543</ele>
        <time>2016-04-23T07:37:07.000Z</time>
      </trkpt>
      <trkpt lat="43.72917" lon="5.93357">
        <ele>542</ele>
        <time>2016-04-23T07:37:09.000Z</time>
      </trkpt>
      <trkpt lat="43.72923" lon="5.93359">
        <ele>543</ele>
        <time>2016-04-23T07:37:11.000Z</time>
      </trkpt>
      <trkpt lat="43.72929" lon="5.93361">
        <ele>544</ele>
        <time>2016-04-23T07:37:13.000Z</time>
      </trkpt>
      <trkpt lat="43.72938" lon="5.93366">
        <ele>543</ele>
        <time>2016-04-23T07:37:15.000Z</time>
      </trkpt>
      <trkpt lat="43.72938" lon="5.93366">
        <ele>543</ele>
        <time>2016-04-23T07:37:17.000Z</time>
      </trkpt>
      <trkpt lat="43.72938" lon="5.93366">
        <ele>543</ele>
        <time>2016-04-23T07:37:19.000Z</time>
      </trkpt>
      <trkpt lat="43.72938" lon="5.93366">
        <ele>543</ele>
        <time>2016-04-23T07:37:21.000Z</time>
      </trkpt>
      <trkpt lat="43.72938" lon="5.93366">
        <ele>543</ele>
        <time>2016-04-23T07:37:23.000Z</time>
      </trkpt>
      <trkpt lat="43.72938" lon="5.93366">
        <ele>543</ele>
        <time>2016-04-23T07:37:25.000Z</time>
      </trkpt>
      <trkpt lat="43.72938" lon="5.93366">
        <ele>543</ele>
        <time>2016-04-23T07:37:27.000Z</time>
      </trkpt>
      <trkpt lat="43.72938" lon="5.93366">
        <ele>543</ele>
        <time>2016-04-23T07:37:29.000Z</time>
      </trkpt>
      <trkpt lat="43.72938" lon="5.93366">
        <ele>543</ele>
        <time>2016-04-23T07:37:31.000Z</time>
      </trkpt>
      <trkpt lat="43.72938" lon="5.93366">
        <ele>543</ele>
        <time>2016-04-23T07:37:33.000Z</time>
      </trkpt>
      <trkpt lat="43.72938" lon="5.93366">
        <ele>543</ele>
        <time>2016-04-23T07:37:35.000Z</time>
      </trkpt>
      <trkpt lat="43.72938" lon="5.93366">
        <ele>543</ele>
        <time>2016-04-23T07:37:37.000Z</time>
      </trkpt>
      <trkpt lat="43.72938" lon="5.93366">
        <ele>543</ele>
        <time>2016-04-23T07:37:39.000Z</time>
      </trkpt>
      <trkpt lat="43.72938" lon="5.93366">
        <ele>543</ele>
        <time>2016-04-23T07:37:41.000Z</time>
      </trkpt>
      <trkpt lat="43.72938" lon="5.93366">
        <ele>543</ele>
        <time>2016-04-23T07:37:43.000Z</time>
      </trkpt>
      <trkpt lat="43.72938" lon="5.93366">
        <ele>543</ele>
        <time>2016-04-23T07:37:45.000Z</time>
      </trkpt>
      <trkpt lat="43.72974" lon="5.9337">
        <ele>548</ele>
        <time>2016-04-23T07:37:58.000Z</time>
      </trkpt>
      <trkpt lat="43.72974" lon="5.9337">
        <ele>548</ele>
        <time>2016-04-23T07:38:02.000Z</time>
      </trkpt>
      <trkpt lat="43.72974" lon="5.9337">
        <ele>548</ele>
        <time>2016-04-23T07:38:04.000Z</time>
      </trkpt>
      <trkpt lat="43.72974" lon="5.9337">
        <ele>548</ele>
        <time>2016-04-23T07:38:06.000Z</time>
      </trkpt>
      <trkpt lat="43.72974" lon="5.9337">
        <ele>548</ele>
        <time>2016-04-23T07:38:08.000Z</time>
      </trkpt>
      <trkpt lat="43.72992" lon="5.93354">
        <ele>549</ele>
        <time>2016-04-23T07:38:12.000Z</time>
      </trkpt>
      <trkpt lat="43.73008" lon="5.93355">
        <ele>550</ele>
        <time>2016-04-23T07:38:18.000Z</time>
      </trkpt>
      <trkpt lat="43.73018" lon="5.93349">
        <ele>551</ele>
        <time>2016-04-23T07:38:22.000Z</time>
      </trkpt>
      <trkpt lat="43.73018" lon="5.93349">
        <ele>551</ele>
        <time>2016-04-23T07:38:24.000Z</time>
      </trkpt>
      <trkpt lat="43.73018" lon="5.93349">
        <ele>551</ele>
        <time>2016-04-23T07:38:26.000Z</time>
      </trkpt>
      <trkpt lat="43.73018" lon="5.93349">
        <ele>551</ele>
        <time>2016-04-23T07:38:28.000Z</time>
      </trkpt>
      <trkpt lat="43.73035" lon="5.93326">
        <ele>550</ele>
        <time>2016-04-23T07:38:32.000Z</time>
      </trkpt>
      <trkpt lat="43.7304" lon="5.93312">
        <ele>546</ele>
        <time>2016-04-23T07:38:36.000Z</time>
      </trkpt>
      <trkpt lat="43.7304" lon="5.93312">
        <ele>546</ele>
        <time>2016-04-23T07:38:38.000Z</time>
      </trkpt>
      <trkpt lat="43.7304" lon="5.93312">
        <ele>546</ele>
        <time>2016-04-23T07:38:40.000Z</time>
      </trkpt>
      <trkpt lat="43.7304" lon="5.93312">
        <ele>546</ele>
        <time>2016-04-23T07:38:42.000Z</time>
      </trkpt>
      <trkpt lat="43.7304" lon="5.93312">
        <ele>546</ele>
        <time>2016-04-23T07:38:44.000Z</time>
      </trkpt>
      <trkpt lat="43.73038" lon="5.93269">
        <ele>542</ele>
        <time>2016-04-23T07:38:48.000Z</time>
      </trkpt>
      <trkpt lat="43.73034" lon="5.9325">
        <ele>542</ele>
        <time>2016-04-23T07:38:52.000Z</time>
      </trkpt>
      <trkpt lat="43.73035" lon="5.93224">
        <ele>540</ele>
        <time>2016-04-23T07:38:55.000Z</time>
      </trkpt>
      <trkpt lat="43.73034" lon="5.93208">
        <ele>539</ele>
        <time>2016-04-23T07:38:57.000Z</time>
      </trkpt>
      <trkpt lat="43.73034" lon="5.93191">
        <ele>539</ele>
        <time>2016-04-23T07:38:59.000Z</time>
      </trkpt>
      <trkpt lat="43.73038" lon="5.93178">
        <ele>539</ele>
        <time>2016-04-23T07:39:01.000Z</time>
      </trkpt>
      <trkpt lat="43.73038" lon="5.93178">
        <ele>539</ele>
        <time>2016-04-23T07:39:03.000Z</time>
      </trkpt>
      <trkpt lat="43.73038" lon="5.93178">
        <ele>539</ele>
        <time>2016-04-23T07:39:05.000Z</time>
      </trkpt>
      <trkpt lat="43.73038" lon="5.93178">
        <ele>539</ele>
        <time>2016-04-23T07:39:07.000Z</time>
      </trkpt>
      <trkpt lat="43.73038" lon="5.93178">
        <ele>539</ele>
        <time>2016-04-23T07:39:09.000Z</time>
      </trkpt>
      <trkpt lat="43.73038" lon="5.93178">
        <ele>539</ele>
        <time>2016-04-23T07:39:11.000Z</time>
      </trkpt>
      <trkpt lat="43.73038" lon="5.93178">
        <ele>539</ele>
        <time>2016-04-23T07:39:13.000Z</time>
      </trkpt>
      <trkpt lat="43.73038" lon="5.93178">
        <ele>539</ele>
        <time>2016-04-23T07:39:15.000Z</time>
      </trkpt>
      <trkpt lat="43.73038" lon="5.93178">
        <ele>539</ele>
        <time>2016-04-23T07:39:21.000Z</time>
      </trkpt>
      <trkpt lat="43.73038" lon="5.93178">
        <ele>539</ele>
        <time>2016-04-23T07:39:23.000Z</time>
      </trkpt>
      <trkpt lat="43.73038" lon="5.93178">
        <ele>539</ele>
        <time>2016-04-23T07:39:26.000Z</time>
      </trkpt>
      <trkpt lat="43.73038" lon="5.93178">
        <ele>539</ele>
        <time>2016-04-23T07:39:28.000Z</time>
      </trkpt>
      <trkpt lat="43.73038" lon="5.93178">
        <ele>539</ele>
        <time>2016-04-23T07:39:30.000Z</time>
      </trkpt>
      <trkpt lat="43.73061" lon="5.93125">
        <ele>545</ele>
        <time>2016-04-23T07:39:34.000Z</time>
      </trkpt>
      <trkpt lat="43.73071" lon="5.93093">
        <ele>546</ele>
        <time>2016-04-23T07:39:36.000Z</time>
      </trkpt>
      <trkpt lat="43.73074" lon="5.93074">
        <ele>545</ele>
        <time>2016-04-23T07:39:38.000Z</time>
      </trkpt>
      <trkpt lat="43.73074" lon="5.93074">
        <ele>545</ele>
        <time>2016-04-23T07:39:40.000Z</time>
      </trkpt>
      <trkpt lat="43.73074" lon="5.93074">
        <ele>545</ele>
        <time>2016-04-23T07:39:42.000Z</time>
      </trkpt>
      <trkpt lat="43.73074" lon="5.93074">
        <ele>545</ele>
        <time>2016-04-23T07:39:44.000Z</time>
      </trkpt>
      <trkpt lat="43.73074" lon="5.93074">
        <ele>545</ele>
        <time>2016-04-23T07:39:46.000Z</time>
      </trkpt>
      <trkpt lat="43.73074" lon="5.93074">
        <ele>545</ele>
        <time>2016-04-23T07:39:48.000Z</time>
      </trkpt>
      <trkpt lat="43.73074" lon="5.93074">
        <ele>545</ele>
        <time>2016-04-23T07:39:50.000Z</time>
      </trkpt>
      <trkpt lat="43.73074" lon="5.93074">
        <ele>545</ele>
        <time>2016-04-23T07:39:52.000Z</time>
      </trkpt>
      <trkpt lat="43.73074" lon="5.93074">
        <ele>545</ele>
        <time>2016-04-23T07:39:54.000Z</time>
      </trkpt>
      <trkpt lat="43.73074" lon="5.93074">
        <ele>545</ele>
        <time>2016-04-23T07:39:56.000Z</time>
      </trkpt>
      <trkpt lat="43.73074" lon="5.93074">
        <ele>545</ele>
        <time>2016-04-23T07:39:58.000Z</time>
      </trkpt>
      <trkpt lat="43.73074" lon="5.93074">
        <ele>545</ele>
        <time>2016-04-23T07:40:00.000Z</time>
      </trkpt>
      <trkpt lat="43.73065" lon="5.93037">
        <ele>541</ele>
        <time>2016-04-23T07:40:06.000Z</time>
      </trkpt>
      <trkpt lat="43.73059" lon="5.93017">
        <ele>541</ele>
        <time>2016-04-23T07:40:08.000Z</time>
      </trkpt>
      <trkpt lat="43.73059" lon="5.93017">
        <ele>541</ele>
        <time>2016-04-23T07:40:10.000Z</time>
      </trkpt>
      <trkpt lat="43.73059" lon="5.93017">
        <ele>541</ele>
        <time>2016-04-23T07:40:12.000Z</time>
      </trkpt>
      <trkpt lat="43.73059" lon="5.93017">
        <ele>541</ele>
        <time>2016-04-23T07:40:14.000Z</time>
      </trkpt>
      <trkpt lat="43.73059" lon="5.93017">
        <ele>541</ele>
        <time>2016-04-23T07:40:16.000Z</time>
      </trkpt>
      <trkpt lat="43.73059" lon="5.93017">
        <ele>541</ele>
        <time>2016-04-23T07:40:18.000Z</time>
      </trkpt>
      <trkpt lat="43.73059" lon="5.93017">
        <ele>541</ele>
        <time>2016-04-23T07:40:20.000Z</time>
      </trkpt>
      <trkpt lat="43.73059" lon="5.93017">
        <ele>541</ele>
        <time>2016-04-23T07:40:22.000Z</time>
      </trkpt>
      <trkpt lat="43.73059" lon="5.93017">
        <ele>541</ele>
        <time>2016-04-23T07:40:24.000Z</time>
      </trkpt>
      <trkpt lat="43.73059" lon="5.93017">
        <ele>541</ele>
        <time>2016-04-23T07:40:26.000Z</time>
      </trkpt>
      <trkpt lat="43.73059" lon="5.93017">
        <ele>541</ele>
        <time>2016-04-23T07:40:28.000Z</time>
      </trkpt>
      <trkpt lat="43.73059" lon="5.93017">
        <ele>541</ele>
        <time>2016-04-23T07:40:30.000Z</time>
      </trkpt>
      <trkpt lat="43.73059" lon="5.93017">
        <ele>541</ele>
        <time>2016-04-23T07:40:32.000Z</time>
      </trkpt>
      <trkpt lat="43.73059" lon="5.93017">
        <ele>541</ele>
        <time>2016-04-23T07:40:34.000Z</time>
      </trkpt>
      <trkpt lat="43.73059" lon="5.93017">
        <ele>541</ele>
        <time>2016-04-23T07:40:36.000Z</time>
      </trkpt>
      <trkpt lat="43.73059" lon="5.93017">
        <ele>541</ele>
        <time>2016-04-23T07:40:38.000Z</time>
      </trkpt>
      <trkpt lat="43.73059" lon="5.93017">
        <ele>541</ele>
        <time>2016-04-23T07:40:40.000Z</time>
      </trkpt>
      <trkpt lat="43.73059" lon="5.93017">
        <ele>541</ele>
        <time>2016-04-23T07:40:42.000Z</time>
      </trkpt>
      <trkpt lat="43.73059" lon="5.93017">
        <ele>541</ele>
        <time>2016-04-23T07:40:44.000Z</time>
      </trkpt>
      <trkpt lat="43.73059" lon="5.93017">
        <ele>541</ele>
        <time>2016-04-23T07:40:46.000Z</time>
      </trkpt>
      <trkpt lat="43.73059" lon="5.93017">
        <ele>541</ele>
        <time>2016-04-23T07:40:48.000Z</time>
      </trkpt>
      <trkpt lat="43.73059" lon="5.93017">
        <ele>541</ele>
        <time>2016-04-23T07:40:50.000Z</time>
      </trkpt>
      <trkpt lat="43.73048" lon="5.92961">
        <ele>555</ele>
        <time>2016-04-23T07:41:00.000Z</time>
      </trkpt>
      <trkpt lat="43.73042" lon="5.92932">
        <ele>555</ele>
        <time>2016-04-23T07:41:02.000Z</time>
      </trkpt>
      <trkpt lat="43.73039" lon="5.92915">
        <ele>555</ele>
        <time>2016-04-23T07:41:04.000Z</time>
      </trkpt>
      <trkpt lat="43.73036" lon="5.92905">
        <ele>555</ele>
        <time>2016-04-23T07:41:06.000Z</time>
      </trkpt>
      <trkpt lat="43.73034" lon="5.92899">
        <ele>555</ele>
        <time>2016-04-23T07:41:08.000Z</time>
      </trkpt>
      <trkpt lat="43.73028" lon="5.92885">
        <ele>555</ele>
        <time>2016-04-23T07:41:12.000Z</time>
      </trkpt>
      <trkpt lat="43.73022" lon="5.92872">
        <ele>555</ele>
        <time>2016-04-23T07:41:20.000Z</time>
      </trkpt>
      <trkpt lat="43.73016" lon="5.92862">
        <ele>556</ele>
        <time>2016-04-23T07:41:28.000Z</time>
      </trkpt>
      <trkpt lat="43.73016" lon="5.92862">
        <ele>556</ele>
        <time>2016-04-23T07:41:36.000Z</time>
      </trkpt>
      <trkpt lat="43.73016" lon="5.92862">
        <ele>556</ele>
        <time>2016-04-23T07:41:38.000Z</time>
      </trkpt>
      <trkpt lat="43.73016" lon="5.92862">
        <ele>556</ele>
        <time>2016-04-23T07:41:40.000Z</time>
      </trkpt>
      <trkpt lat="43.73016" lon="5.92862">
        <ele>556</ele>
        <time>2016-04-23T07:41:42.000Z</time>
      </trkpt>
      <trkpt lat="43.73016" lon="5.92862">
        <ele>556</ele>
        <time>2016-04-23T07:41:44.000Z</time>
      </trkpt>
      <trkpt lat="43.73016" lon="5.92862">
        <ele>556</ele>
        <time>2016-04-23T07:41:46.000Z</time>
      </trkpt>
      <trkpt lat="43.73016" lon="5.92862">
        <ele>556</ele>
        <time>2016-04-23T07:41:48.000Z</time>
      </trkpt>
      <trkpt lat="43.73016" lon="5.92862">
        <ele>556</ele>
        <time>2016-04-23T07:41:50.000Z</time>
      </trkpt>
      <trkpt lat="43.73016" lon="5.92862">
        <ele>556</ele>
        <time>2016-04-23T07:41:52.000Z</time>
      </trkpt>
      <trkpt lat="43.73016" lon="5.92862">
        <ele>556</ele>
        <time>2016-04-23T07:41:54.000Z</time>
      </trkpt>
      <trkpt lat="43.73016" lon="5.92862">
        <ele>556</ele>
        <time>2016-04-23T07:41:56.000Z</time>
      </trkpt>
      <trkpt lat="43.73016" lon="5.92862">
        <ele>556</ele>
        <time>2016-04-23T07:41:58.000Z</time>
      </trkpt>
      <trkpt lat="43.73016" lon="5.92862">
        <ele>556</ele>
        <time>2016-04-23T07:42:00.000Z</time>
      </trkpt>
      <trkpt lat="43.73016" lon="5.92862">
        <ele>556</ele>
        <time>2016-04-23T07:42:02.000Z</time>
      </trkpt>
      <trkpt lat="43.73016" lon="5.92862">
        <ele>556</ele>
        <time>2016-04-23T07:42:04.000Z</time>
      </trkpt>
      <trkpt lat="43.73016" lon="5.92862">
        <ele>556</ele>
        <time>2016-04-23T07:42:06.000Z</time>
      </trkpt>
      <trkpt lat="43.73016" lon="5.92862">
        <ele>556</ele>
        <time>2016-04-23T07:42:08.000Z</time>
      </trkpt>
      <trkpt lat="43.73016" lon="5.92862">
        <ele>556</ele>
        <time>2016-04-23T07:42:10.000Z</time>
      </trkpt>
      <trkpt lat="43.73016" lon="5.92862">
        <ele>556</ele>
        <time>2016-04-23T07:42:12.000Z</time>
      </trkpt>
      <trkpt lat="43.73016" lon="5.92862">
        <ele>556</ele>
        <time>2016-04-23T07:42:14.000Z</time>
      </trkpt>
      <trkpt lat="43.73016" lon="5.92862">
        <ele>556</ele>
        <time>2016-04-23T07:42:16.000Z</time>
      </trkpt>
      <trkpt lat="43.73016" lon="5.92862">
        <ele>556</ele>
        <time>2016-04-23T07:42:18.000Z</time>
      </trkpt>
      <trkpt lat="43.73016" lon="5.92862">
        <ele>556</ele>
        <time>2016-04-23T07:42:20.000Z</time>
      </trkpt>
      <trkpt lat="43.73004" lon="5.9282">
        <ele>565</ele>
        <time>2016-04-23T07:42:30.000Z</time>
      </trkpt>
      <trkpt lat="43.72997" lon="5.92798">
        <ele>565</ele>
        <time>2016-04-23T07:42:32.000Z</time>
      </trkpt>
      <trkpt lat="43.72993" lon="5.92786">
        <ele>564</ele>
        <time>2016-04-23T07:42:34.000Z</time>
      </trkpt>
      <trkpt lat="43.72991" lon="5.92778">
        <ele>565</ele>
        <time>2016-04-23T07:42:36.000Z</time>
      </trkpt>
      <trkpt lat="43.72989" lon="5.92771">
        <ele>565</ele>
        <time>2016-04-23T07:42:40.000Z</time>
      </trkpt>
      <trkpt lat="43.72987" lon="5.92765">
        <ele>565</ele>
        <time>2016-04-23T07:42:44.000Z</time>
      </trkpt>
      <trkpt lat="43.72985" lon="5.92758">
        <ele>565</ele>
        <time>2016-04-23T07:42:50.000Z</time>
      </trkpt>
      <trkpt lat="43.72982" lon="5.92752">
        <ele>566</ele>
        <time>2016-04-23T07:42:54.000Z</time>
      </trkpt>
      <trkpt lat="43.7298" lon="5.92746">
        <ele>568</ele>
        <time>2016-04-23T07:42:58.000Z</time>
      </trkpt>
      <trkpt lat="43.72976" lon="5.92739">
        <ele>569</ele>
        <time>2016-04-23T07:43:04.000Z</time>
      </trkpt>
      <trkpt lat="43.72974" lon="5.92734">
        <ele>569</ele>
        <time>2016-04-23T07:43:06.000Z</time>
      </trkpt>
      <trkpt lat="43.72971" lon="5.92727">
        <ele>570</ele>
        <time>2016-04-23T07:43:10.000Z</time>
      </trkpt>
      <trkpt lat="43.72968" lon="5.92722">
        <ele>571</ele>
        <time>2016-04-23T07:43:12.000Z</time>
      </trkpt>
      <trkpt lat="43.72968" lon="5.92722">
        <ele>571</ele>
        <time>2016-04-23T07:43:14.000Z</time>
      </trkpt>
      <trkpt lat="43.72965" lon="5.92716">
        <ele>572</ele>
        <time>2016-04-23T07:43:16.000Z</time>
      </trkpt>
      <trkpt lat="43.72965" lon="5.92716">
        <ele>572</ele>
        <time>2016-04-23T07:43:18.000Z</time>
      </trkpt>
      <trkpt lat="43.72965" lon="5.92716">
        <ele>572</ele>
        <time>2016-04-23T07:43:20.000Z</time>
      </trkpt>
      <trkpt lat="43.72965" lon="5.92716">
        <ele>572</ele>
        <time>2016-04-23T07:43:22.000Z</time>
      </trkpt>
      <trkpt lat="43.72965" lon="5.92716">
        <ele>572</ele>
        <time>2016-04-23T07:43:24.000Z</time>
      </trkpt>
      <trkpt lat="43.72965" lon="5.92716">
        <ele>572</ele>
        <time>2016-04-23T07:43:26.000Z</time>
      </trkpt>
      <trkpt lat="43.72965" lon="5.92716">
        <ele>572</ele>
        <time>2016-04-23T07:43:28.000Z</time>
      </trkpt>
      <trkpt lat="43.72965" lon="5.92716">
        <ele>572</ele>
        <time>2016-04-23T07:43:30.000Z</time>
      </trkpt>
      <trkpt lat="43.72965" lon="5.92716">
        <ele>572</ele>
        <time>2016-04-23T07:43:32.000Z</time>
      </trkpt>
      <trkpt lat="43.72965" lon="5.92716">
        <ele>572</ele>
        <time>2016-04-23T07:43:34.000Z</time>
      </trkpt>
      <trkpt lat="43.72965" lon="5.92716">
        <ele>572</ele>
        <time>2016-04-23T07:43:36.000Z</time>
      </trkpt>
      <trkpt lat="43.72965" lon="5.92716">
        <ele>572</ele>
        <time>2016-04-23T07:43:38.000Z</time>
      </trkpt>
      <trkpt lat="43.72965" lon="5.92716">
        <ele>572</ele>
        <time>2016-04-23T07:43:40.000Z</time>
      </trkpt>
      <trkpt lat="43.72965" lon="5.92716">
        <ele>572</ele>
        <time>2016-04-23T07:43:42.000Z</time>
      </trkpt>
      <trkpt lat="43.72965" lon="5.92716">
        <ele>572</ele>
        <time>2016-04-23T07:43:44.000Z</time>
      </trkpt>
      <trkpt lat="43.72965" lon="5.92716">
        <ele>572</ele>
        <time>2016-04-23T07:43:46.000Z</time>
      </trkpt>
      <trkpt lat="43.72965" lon="5.92716">
        <ele>572</ele>
        <time>2016-04-23T07:43:48.000Z</time>
      </trkpt>
      <trkpt lat="43.72965" lon="5.92716">
        <ele>572</ele>
        <time>2016-04-23T07:43:50.000Z</time>
      </trkpt>
      <trkpt lat="43.72965" lon="5.92716">
        <ele>572</ele>
        <time>2016-04-23T07:43:52.000Z</time>
      </trkpt>
      <trkpt lat="43.72965" lon="5.92716">
        <ele>572</ele>
        <time>2016-04-23T07:43:54.000Z</time>
      </trkpt>
      <trkpt lat="43.72965" lon="5.92716">
        <ele>572</ele>
        <time>2016-04-23T07:43:56.000Z</time>
      </trkpt>
      <trkpt lat="43.72965" lon="5.92716">
        <ele>572</ele>
        <time>2016-04-23T07:43:58.000Z</time>
      </trkpt>
      <trkpt lat="43.72965" lon="5.92716">
        <ele>572</ele>
        <time>2016-04-23T07:44:00.000Z</time>
      </trkpt>
      <trkpt lat="43.72965" lon="5.92716">
        <ele>572</ele>
        <time>2016-04-23T07:44:02.000Z</time>
      </trkpt>
      <trkpt lat="43.72965" lon="5.92716">
        <ele>572</ele>
        <time>2016-04-23T07:44:04.000Z</time>
      </trkpt>
      <trkpt lat="43.72965" lon="5.92716">
        <ele>572</ele>
        <time>2016-04-23T07:44:06.000Z</time>
      </trkpt>
      <trkpt lat="43.72965" lon="5.92716">
        <ele>572</ele>
        <time>2016-04-23T07:44:08.000Z</time>
      </trkpt>
      <trkpt lat="43.72965" lon="5.92716">
        <ele>572</ele>
        <time>2016-04-23T07:44:10.000Z</time>
      </trkpt>
      <trkpt lat="43.72965" lon="5.92716">
        <ele>572</ele>
        <time>2016-04-23T07:44:12.000Z</time>
      </trkpt>
      <trkpt lat="43.72965" lon="5.92716">
        <ele>572</ele>
        <time>2016-04-23T07:44:14.000Z</time>
      </trkpt>
      <trkpt lat="43.72965" lon="5.92716">
        <ele>572</ele>
        <time>2016-04-23T07:44:16.000Z</time>
      </trkpt>
      <trkpt lat="43.72965" lon="5.92716">
        <ele>572</ele>
        <time>2016-04-23T07:44:18.000Z</time>
      </trkpt>
      <trkpt lat="43.72965" lon="5.92716">
        <ele>572</ele>
        <time>2016-04-23T07:44:20.000Z</time>
      </trkpt>
      <trkpt lat="43.72965" lon="5.92716">
        <ele>572</ele>
        <time>2016-04-23T07:44:22.000Z</time>
      </trkpt>
      <trkpt lat="43.72965" lon="5.92716">
        <ele>572</ele>
        <time>2016-04-23T07:44:24.000Z</time>
      </trkpt>
      <trkpt lat="43.72965" lon="5.92716">
        <ele>572</ele>
        <time>2016-04-23T07:44:26.000Z</time>
      </trkpt>
      <trkpt lat="43.72965" lon="5.92716">
        <ele>572</ele>
        <time>2016-04-23T07:44:28.000Z</time>
      </trkpt>
      <trkpt lat="43.72965" lon="5.92716">
        <ele>572</ele>
        <time>2016-04-23T07:44:30.000Z</time>
      </trkpt>
      <trkpt lat="43.72965" lon="5.92716">
        <ele>572</ele>
        <time>2016-04-23T07:44:32.000Z</time>
      </trkpt>
      <trkpt lat="43.72965" lon="5.92716">
        <ele>572</ele>
        <time>2016-04-23T07:44:34.000Z</time>
      </trkpt>
      <trkpt lat="43.72965" lon="5.92716">
        <ele>572</ele>
        <time>2016-04-23T07:44:36.000Z</time>
      </trkpt>
      <trkpt lat="43.72965" lon="5.92716">
        <ele>572</ele>
        <time>2016-04-23T07:44:38.000Z</time>
      </trkpt>
      <trkpt lat="43.72965" lon="5.92716">
        <ele>572</ele>
        <time>2016-04-23T07:44:40.000Z</time>
      </trkpt>
      <trkpt lat="43.72965" lon="5.92716">
        <ele>572</ele>
        <time>2016-04-23T07:44:42.000Z</time>
      </trkpt>
      <trkpt lat="43.72965" lon="5.92716">
        <ele>572</ele>
        <time>2016-04-23T07:44:44.000Z</time>
      </trkpt>
      <trkpt lat="43.72972" lon="5.92637">
        <ele>595</ele>
        <time>2016-04-23T07:44:46.000Z</time>
      </trkpt>
      <trkpt lat="43.72977" lon="5.92596">
        <ele>595</ele>
        <time>2016-04-23T07:44:48.000Z</time>
      </trkpt>
      <trkpt lat="43.7298" lon="5.92573">
        <ele>595</ele>
        <time>2016-04-23T07:44:50.000Z</time>
      </trkpt>
      <trkpt lat="43.72983" lon="5.92561">
        <ele>595</ele>
        <time>2016-04-23T07:44:52.000Z</time>
      </trkpt>
      <trkpt lat="43.72985" lon="5.92553">
        <ele>596</ele>
        <time>2016-04-23T07:44:54.000Z</time>
      </trkpt>
      <trkpt lat="43.7299" lon="5.92539">
        <ele>598</ele>
        <time>2016-04-23T07:44:58.000Z</time>
      </trkpt>
      <trkpt lat="43.72998" lon="5.92527">
        <ele>598</ele>
        <time>2016-04-23T07:45:06.000Z</time>
      </trkpt>
      <trkpt lat="43.72998" lon="5.92527">
        <ele>598</ele>
        <time>2016-04-23T07:45:08.000Z</time>
      </trkpt>
      <trkpt lat="43.72998" lon="5.92527">
        <ele>598</ele>
        <time>2016-04-23T07:45:10.000Z</time>
      </trkpt>
      <trkpt lat="43.72998" lon="5.92527">
        <ele>598</ele>
        <time>2016-04-23T07:45:12.000Z</time>
      </trkpt>
      <trkpt lat="43.73003" lon="5.9251">
        <ele>596</ele>
        <time>2016-04-23T07:46:25.000Z</time>
      </trkpt>
      <trkpt lat="43.73005" lon="5.92499">
        <ele>597</ele>
        <time>2016-04-23T07:46:31.000Z</time>
      </trkpt>
      <trkpt lat="43.73005" lon="5.92499">
        <ele>597</ele>
        <time>2016-04-23T07:46:33.000Z</time>
      </trkpt>
      <trkpt lat="43.73005" lon="5.92499">
        <ele>597</ele>
        <time>2016-04-23T07:46:35.000Z</time>
      </trkpt>
      <trkpt lat="43.73005" lon="5.92499">
        <ele>597</ele>
        <time>2016-04-23T07:46:37.000Z</time>
      </trkpt>
      <trkpt lat="43.73005" lon="5.92499">
        <ele>597</ele>
        <time>2016-04-23T07:46:39.000Z</time>
      </trkpt>
      <trkpt lat="43.73005" lon="5.92499">
        <ele>597</ele>
        <time>2016-04-23T07:46:41.000Z</time>
      </trkpt>
      <trkpt lat="43.73015" lon="5.92506">
        <ele>600</ele>
        <time>2016-04-23T07:46:51.000Z</time>
      </trkpt>
      <trkpt lat="43.73021" lon="5.92519">
        <ele>603</ele>
        <time>2016-04-23T07:46:57.000Z</time>
      </trkpt>
      <trkpt lat="43.73026" lon="5.92534">
        <ele>602</ele>
        <time>2016-04-23T07:47:03.000Z</time>
      </trkpt>
      <trkpt lat="43.73026" lon="5.92534">
        <ele>602</ele>
        <time>2016-04-23T07:47:05.000Z</time>
      </trkpt>
      <trkpt lat="43.73026" lon="5.92534">
        <ele>602</ele>
        <time>2016-04-23T07:47:07.000Z</time>
      </trkpt>
      <trkpt lat="43.73026" lon="5.92534">
        <ele>602</ele>
        <time>2016-04-23T07:47:09.000Z</time>
      </trkpt>
      <trkpt lat="43.73026" lon="5.92534">
        <ele>602</ele>
        <time>2016-04-23T07:47:11.000Z</time>
      </trkpt>
      <trkpt lat="43.73026" lon="5.92534">
        <ele>602</ele>
        <time>2016-04-23T07:47:13.000Z</time>
      </trkpt>
      <trkpt lat="43.73026" lon="5.92534">
        <ele>602</ele>
        <time>2016-04-23T07:47:15.000Z</time>
      </trkpt>
      <trkpt lat="43.73026" lon="5.92534">
        <ele>602</ele>
        <time>2016-04-23T07:47:17.000Z</time>
      </trkpt>
      <trkpt lat="43.73026" lon="5.92534">
        <ele>602</ele>
        <time>2016-04-23T07:47:19.000Z</time>
      </trkpt>
      <trkpt lat="43.73026" lon="5.92534">
        <ele>602</ele>
        <time>2016-04-23T07:47:21.000Z</time>
      </trkpt>
      <trkpt lat="43.73026" lon="5.92534">
        <ele>602</ele>
        <time>2016-04-23T07:47:23.000Z</time>
      </trkpt>
      <trkpt lat="43.73026" lon="5.92534">
        <ele>602</ele>
        <time>2016-04-23T07:47:25.000Z</time>
      </trkpt>
      <trkpt lat="43.73026" lon="5.92534">
        <ele>602</ele>
        <time>2016-04-23T07:47:27.000Z</time>
      </trkpt>
      <trkpt lat="43.73026" lon="5.92534">
        <ele>602</ele>
        <time>2016-04-23T07:47:29.000Z</time>
      </trkpt>
      <trkpt lat="43.73026" lon="5.92534">
        <ele>602</ele>
        <time>2016-04-23T07:47:31.000Z</time>
      </trkpt>
      <trkpt lat="43.73026" lon="5.92534">
        <ele>602</ele>
        <time>2016-04-23T07:47:33.000Z</time>
      </trkpt>
      <trkpt lat="43.73026" lon="5.92534">
        <ele>602</ele>
        <time>2016-04-23T07:47:35.000Z</time>
      </trkpt>
      <trkpt lat="43.73026" lon="5.92534">
        <ele>602</ele>
        <time>2016-04-23T07:47:37.000Z</time>
      </trkpt>
      <trkpt lat="43.73026" lon="5.92534">
        <ele>602</ele>
        <time>2016-04-23T07:47:39.000Z</time>
      </trkpt>
      <trkpt lat="43.73056" lon="5.92647">
        <ele>609</ele>
        <time>2016-04-23T07:47:49.000Z</time>
      </trkpt>
      <trkpt lat="43.73056" lon="5.92647">
        <ele>609</ele>
        <time>2016-04-23T07:47:51.000Z</time>
      </trkpt>
      <trkpt lat="43.73056" lon="5.92647">
        <ele>609</ele>
        <time>2016-04-23T07:47:53.000Z</time>
      </trkpt>
      <trkpt lat="43.73056" lon="5.92647">
        <ele>609</ele>
        <time>2016-04-23T07:47:55.000Z</time>
      </trkpt>
      <trkpt lat="43.73065" lon="5.92655">
        <ele>609</ele>
        <time>2016-04-23T07:49:42.000Z</time>
      </trkpt>
      <trkpt lat="43.73065" lon="5.92655">
        <ele>609</ele>
        <time>2016-04-23T07:49:48.000Z</time>
      </trkpt>
      <trkpt lat="43.73065" lon="5.92655">
        <ele>609</ele>
        <time>2016-04-23T07:49:50.000Z</time>
      </trkpt>
      <trkpt lat="43.73065" lon="5.92655">
        <ele>609</ele>
        <time>2016-04-23T07:49:52.000Z</time>
      </trkpt>
      <trkpt lat="43.73079" lon="5.92672">
        <ele>608</ele>
        <time>2016-04-23T07:50:42.000Z</time>
      </trkpt>
      <trkpt lat="43.73088" lon="5.92684">
        <ele>608</ele>
        <time>2016-04-23T07:50:48.000Z</time>
      </trkpt>
      <trkpt lat="43.73097" lon="5.92695">
        <ele>608</ele>
        <time>2016-04-23T07:50:54.000Z</time>
      </trkpt>
      <trkpt lat="43.73104" lon="5.92708">
        <ele>608</ele>
        <time>2016-04-23T07:50:58.000Z</time>
      </trkpt>
      <trkpt lat="43.73112" lon="5.9272">
        <ele>609</ele>
        <time>2016-04-23T07:51:02.000Z</time>
      </trkpt>
      <trkpt lat="43.73112" lon="5.9272">
        <ele>609</ele>
        <time>2016-04-23T07:51:04.000Z</time>
      </trkpt>
      <trkpt lat="43.73112" lon="5.9272">
        <ele>609</ele>
        <time>2016-04-23T07:51:06.000Z</time>
      </trkpt>
      <trkpt lat="43.73112" lon="5.9272">
        <ele>609</ele>
        <time>2016-04-23T07:51:08.000Z</time>
      </trkpt>
      <trkpt lat="43.73126" lon="5.92748">
        <ele>609</ele>
        <time>2016-04-23T07:51:12.000Z</time>
      </trkpt>
      <trkpt lat="43.73132" lon="5.9276">
        <ele>610</ele>
        <time>2016-04-23T07:51:16.000Z</time>
      </trkpt>
      <trkpt lat="43.73132" lon="5.9276">
        <ele>610</ele>
        <time>2016-04-23T07:51:18.000Z</time>
      </trkpt>
      <trkpt lat="43.73132" lon="5.9276">
        <ele>610</ele>
        <time>2016-04-23T07:51:20.000Z</time>
      </trkpt>
      <trkpt lat="43.73132" lon="5.9276">
        <ele>610</ele>
        <time>2016-04-23T07:51:22.000Z</time>
      </trkpt>
      <trkpt lat="43.73147" lon="5.92789">
        <ele>611</ele>
        <time>2016-04-23T07:51:26.000Z</time>
      </trkpt>
      <trkpt lat="43.73153" lon="5.92801">
        <ele>610</ele>
        <time>2016-04-23T07:51:30.000Z</time>
      </trkpt>
      <trkpt lat="43.73153" lon="5.92801">
        <ele>610</ele>
        <time>2016-04-23T07:51:32.000Z</time>
      </trkpt>
      <trkpt lat="43.73161" lon="5.9281">
        <ele>610</ele>
        <time>2016-04-23T07:51:34.000Z</time>
      </trkpt>
      <trkpt lat="43.73171" lon="5.92818">
        <ele>610</ele>
        <time>2016-04-23T07:51:38.000Z</time>
      </trkpt>
      <trkpt lat="43.73182" lon="5.92832">
        <ele>609</ele>
        <time>2016-04-23T07:51:42.000Z</time>
      </trkpt>
      <trkpt lat="43.73195" lon="5.9284">
        <ele>608</ele>
        <time>2016-04-23T07:51:46.000Z</time>
      </trkpt>
      <trkpt lat="43.73195" lon="5.9284">
        <ele>608</ele>
        <time>2016-04-23T07:51:48.000Z</time>
      </trkpt>
      <trkpt lat="43.73195" lon="5.9284">
        <ele>608</ele>
        <time>2016-04-23T07:51:50.000Z</time>
      </trkpt>
      <trkpt lat="43.73195" lon="5.9284">
        <ele>608</ele>
        <time>2016-04-23T07:51:52.000Z</time>
      </trkpt>
      <trkpt lat="43.73195" lon="5.9284">
        <ele>608</ele>
        <time>2016-04-23T07:51:54.000Z</time>
      </trkpt>
      <trkpt lat="43.73208" lon="5.92871">
        <ele>602</ele>
        <time>2016-04-23T07:51:57.000Z</time>
      </trkpt>
      <trkpt lat="43.73209" lon="5.92886">
        <ele>600</ele>
        <time>2016-04-23T07:51:59.000Z</time>
      </trkpt>
      <trkpt lat="43.73209" lon="5.92899">
        <ele>598</ele>
        <time>2016-04-23T07:52:03.000Z</time>
      </trkpt>
      <trkpt lat="43.73209" lon="5.92899">
        <ele>598</ele>
        <time>2016-04-23T07:52:05.000Z</time>
      </trkpt>
      <trkpt lat="43.73209" lon="5.92899">
        <ele>598</ele>
        <time>2016-04-23T07:52:07.000Z</time>
      </trkpt>
      <trkpt lat="43.73239" lon="5.92916">
        <ele>587</ele>
        <time>2016-04-23T07:52:13.000Z</time>
      </trkpt>
      <trkpt lat="43.73246" lon="5.92928">
        <ele>585</ele>
        <time>2016-04-23T07:52:15.000Z</time>
      </trkpt>
      <trkpt lat="43.73251" lon="5.9294">
        <ele>583</ele>
        <time>2016-04-23T07:52:17.000Z</time>
      </trkpt>
      <trkpt lat="43.73261" lon="5.92943">
        <ele>582</ele>
        <time>2016-04-23T07:52:19.000Z</time>
      </trkpt>
      <trkpt lat="43.73275" lon="5.9295">
        <ele>579</ele>
        <time>2016-04-23T07:52:21.000Z</time>
      </trkpt>
      <trkpt lat="43.73288" lon="5.92956">
        <ele>578</ele>
        <time>2016-04-23T07:52:23.000Z</time>
      </trkpt>
      <trkpt lat="43.73298" lon="5.9296">
        <ele>578</ele>
        <time>2016-04-23T07:52:25.000Z</time>
      </trkpt>
      <trkpt lat="43.73298" lon="5.9296">
        <ele>578</ele>
        <time>2016-04-23T07:52:28.000Z</time>
      </trkpt>
      <trkpt lat="43.73298" lon="5.9296">
        <ele>578</ele>
        <time>2016-04-23T07:52:30.000Z</time>
      </trkpt>
      <trkpt lat="43.73298" lon="5.9296">
        <ele>578</ele>
        <time>2016-04-23T07:52:32.000Z</time>
      </trkpt>
      <trkpt lat="43.73298" lon="5.9296">
        <ele>578</ele>
        <time>2016-04-23T07:52:34.000Z</time>
      </trkpt>
      <trkpt lat="43.73298" lon="5.9296">
        <ele>578</ele>
        <time>2016-04-23T07:52:36.000Z</time>
      </trkpt>
      <trkpt lat="43.73303" lon="5.92973">
        <ele>579</ele>
        <time>2016-04-23T07:52:40.000Z</time>
      </trkpt>
      <trkpt lat="43.73305" lon="5.92981">
        <ele>580</ele>
        <time>2016-04-23T07:52:42.000Z</time>
      </trkpt>
      <trkpt lat="43.73305" lon="5.92981">
        <ele>580</ele>
        <time>2016-04-23T07:52:44.000Z</time>
      </trkpt>
      <trkpt lat="43.73305" lon="5.92981">
        <ele>580</ele>
        <time>2016-04-23T07:52:46.000Z</time>
      </trkpt>
      <trkpt lat="43.73311" lon="5.9299">
        <ele>577</ele>
        <time>2016-04-23T07:52:51.000Z</time>
      </trkpt>
      <trkpt lat="43.73321" lon="5.93002">
        <ele>574</ele>
        <time>2016-04-23T07:52:54.000Z</time>
      </trkpt>
      <trkpt lat="43.73331" lon="5.93013">
        <ele>575</ele>
        <time>2016-04-23T07:52:56.000Z</time>
      </trkpt>
      <trkpt lat="43.73341" lon="5.93025">
        <ele>574</ele>
        <time>2016-04-23T07:52:58.000Z</time>
      </trkpt>
      <trkpt lat="43.73349" lon="5.93036">
        <ele>574</ele>
        <time>2016-04-23T07:53:00.000Z</time>
      </trkpt>
      <trkpt lat="43.73363" lon="5.93057">
        <ele>574</ele>
        <time>2016-04-23T07:53:02.000Z</time>
      </trkpt>
      <trkpt lat="43.73363" lon="5.93057">
        <ele>574</ele>
        <time>2016-04-23T07:53:04.000Z</time>
      </trkpt>
      <trkpt lat="43.73363" lon="5.93057">
        <ele>574</ele>
        <time>2016-04-23T07:53:06.000Z</time>
      </trkpt>
      <trkpt lat="43.73363" lon="5.93057">
        <ele>574</ele>
        <time>2016-04-23T07:53:08.000Z</time>
      </trkpt>
      <trkpt lat="43.73363" lon="5.93057">
        <ele>574</ele>
        <time>2016-04-23T07:53:10.000Z</time>
      </trkpt>
      <trkpt lat="43.73363" lon="5.93057">
        <ele>574</ele>
        <time>2016-04-23T07:53:12.000Z</time>
      </trkpt>
      <trkpt lat="43.73379" lon="5.93125">
        <ele>572</ele>
        <time>2016-04-23T07:53:18.000Z</time>
      </trkpt>
      <trkpt lat="43.73379" lon="5.93125">
        <ele>572</ele>
        <time>2016-04-23T07:53:20.000Z</time>
      </trkpt>
      <trkpt lat="43.73379" lon="5.93125">
        <ele>572</ele>
        <time>2016-04-23T07:53:22.000Z</time>
      </trkpt>
      <trkpt lat="43.73379" lon="5.93125">
        <ele>572</ele>
        <time>2016-04-23T07:53:24.000Z</time>
      </trkpt>
      <trkpt lat="43.7336" lon="5.93151">
        <ele>570</ele>
        <time>2016-04-23T07:53:28.000Z</time>
      </trkpt>
      <trkpt lat="43.73353" lon="5.93171">
        <ele>570</ele>
        <time>2016-04-23T07:53:32.000Z</time>
      </trkpt>
      <trkpt lat="43.73352" lon="5.93189">
        <ele>569</ele>
        <time>2016-04-23T07:53:36.000Z</time>
      </trkpt>
      <trkpt lat="43.73352" lon="5.93189">
        <ele>569</ele>
        <time>2016-04-23T07:53:38.000Z</time>
      </trkpt>
      <trkpt lat="43.73363" lon="5.93206">
        <ele>566</ele>
        <time>2016-04-23T07:53:40.000Z</time>
      </trkpt>
      <trkpt lat="43.73372" lon="5.93231">
        <ele>564</ele>
        <time>2016-04-23T07:53:43.000Z</time>
      </trkpt>
      <trkpt lat="43.73372" lon="5.93231">
        <ele>564</ele>
        <time>2016-04-23T07:53:47.000Z</time>
      </trkpt>
      <trkpt lat="43.73398" lon="5.93226">
        <ele>559</ele>
        <time>2016-04-23T07:53:53.000Z</time>
      </trkpt>
      <trkpt lat="43.73398" lon="5.93226">
        <ele>559</ele>
        <time>2016-04-23T07:53:55.000Z</time>
      </trkpt>
      <trkpt lat="43.73398" lon="5.93226">
        <ele>559</ele>
        <time>2016-04-23T07:53:57.000Z</time>
      </trkpt>
      <trkpt lat="43.73398" lon="5.93226">
        <ele>559</ele>
        <time>2016-04-23T07:53:59.000Z</time>
      </trkpt>
      <trkpt lat="43.73398" lon="5.93226">
        <ele>559</ele>
        <time>2016-04-23T07:54:01.000Z</time>
      </trkpt>
      <trkpt lat="43.73413" lon="5.93205">
        <ele>559</ele>
        <time>2016-04-23T07:54:12.000Z</time>
      </trkpt>
      <trkpt lat="43.73413" lon="5.93205">
        <ele>559</ele>
        <time>2016-04-23T07:54:14.000Z</time>
      </trkpt>
      <trkpt lat="43.73413" lon="5.93205">
        <ele>559</ele>
        <time>2016-04-23T07:54:20.000Z</time>
      </trkpt>
      <trkpt lat="43.73413" lon="5.93205">
        <ele>559</ele>
        <time>2016-04-23T07:54:22.000Z</time>
      </trkpt>
      <trkpt lat="43.73413" lon="5.93205">
        <ele>559</ele>
        <time>2016-04-23T07:54:24.000Z</time>
      </trkpt>
      <trkpt lat="43.73413" lon="5.93205">
        <ele>559</ele>
        <time>2016-04-23T07:54:26.000Z</time>
      </trkpt>
      <trkpt lat="43.73413" lon="5.93205">
        <ele>559</ele>
        <time>2016-04-23T07:54:28.000Z</time>
      </trkpt>
      <trkpt lat="43.73413" lon="5.93205">
        <ele>559</ele>
        <time>2016-04-23T07:54:30.000Z</time>
      </trkpt>
      <trkpt lat="43.73413" lon="5.93205">
        <ele>559</ele>
        <time>2016-04-23T07:54:32.000Z</time>
      </trkpt>
      <trkpt lat="43.73449" lon="5.93163">
        <ele>556</ele>
        <time>2016-04-23T07:54:43.000Z</time>
      </trkpt>
      <trkpt lat="43.73449" lon="5.93163">
        <ele>556</ele>
        <time>2016-04-23T07:54:47.000Z</time>
      </trkpt>
      <trkpt lat="43.73449" lon="5.93163">
        <ele>556</ele>
        <time>2016-04-23T07:54:49.000Z</time>
      </trkpt>
      <trkpt lat="43.73449" lon="5.93163">
        <ele>556</ele>
        <time>2016-04-23T07:54:51.000Z</time>
      </trkpt>
      <trkpt lat="43.73449" lon="5.93163">
        <ele>556</ele>
        <time>2016-04-23T07:54:53.000Z</time>
      </trkpt>
      <trkpt lat="43.73449" lon="5.93163">
        <ele>556</ele>
        <time>2016-04-23T07:54:55.000Z</time>
      </trkpt>
      <trkpt lat="43.73458" lon="5.93142">
        <ele>559</ele>
        <time>2016-04-23T07:55:04.000Z</time>
      </trkpt>
      <trkpt lat="43.73468" lon="5.9314">
        <ele>556</ele>
        <time>2016-04-23T07:55:10.000Z</time>
      </trkpt>
      <trkpt lat="43.7348" lon="5.93144">
        <ele>555</ele>
        <time>2016-04-23T07:55:16.000Z</time>
      </trkpt>
      <trkpt lat="43.7348" lon="5.93144">
        <ele>555</ele>
        <time>2016-04-23T07:55:20.000Z</time>
      </trkpt>
      <trkpt lat="43.73489" lon="5.93148">
        <ele>554</ele>
        <time>2016-04-23T07:55:22.000Z</time>
      </trkpt>
      <trkpt lat="43.73501" lon="5.93151">
        <ele>549</ele>
        <time>2016-04-23T07:55:26.000Z</time>
      </trkpt>
      <trkpt lat="43.73518" lon="5.93145">
        <ele>547</ele>
        <time>2016-04-23T07:55:30.000Z</time>
      </trkpt>
      <trkpt lat="43.73527" lon="5.93144">
        <ele>543</ele>
        <time>2016-04-23T07:55:34.000Z</time>
      </trkpt>
      <trkpt lat="43.73527" lon="5.93144">
        <ele>543</ele>
        <time>2016-04-23T07:55:36.000Z</time>
      </trkpt>
      <trkpt lat="43.73527" lon="5.93144">
        <ele>543</ele>
        <time>2016-04-23T07:55:38.000Z</time>
      </trkpt>
      <trkpt lat="43.73527" lon="5.93144">
        <ele>543</ele>
        <time>2016-04-23T07:55:40.000Z</time>
      </trkpt>
      <trkpt lat="43.7355" lon="5.93168">
        <ele>532</ele>
        <time>2016-04-23T07:55:46.000Z</time>
      </trkpt>
      <trkpt lat="43.73554" lon="5.93183">
        <ele>529</ele>
        <time>2016-04-23T07:55:50.000Z</time>
      </trkpt>
      <trkpt lat="43.73556" lon="5.93201">
        <ele>525</ele>
        <time>2016-04-23T07:55:54.000Z</time>
      </trkpt>
      <trkpt lat="43.73562" lon="5.9322">
        <ele>522</ele>
        <time>2016-04-23T07:55:58.000Z</time>
      </trkpt>
      <trkpt lat="43.73577" lon="5.93229">
        <ele>519</ele>
        <time>2016-04-23T07:56:02.000Z</time>
      </trkpt>
      <trkpt lat="43.73577" lon="5.93229">
        <ele>519</ele>
        <time>2016-04-23T07:56:06.000Z</time>
      </trkpt>
      <trkpt lat="43.73577" lon="5.93229">
        <ele>519</ele>
        <time>2016-04-23T07:56:08.000Z</time>
      </trkpt>
      <trkpt lat="43.73577" lon="5.93229">
        <ele>519</ele>
        <time>2016-04-23T07:56:10.000Z</time>
      </trkpt>
      <trkpt lat="43.73577" lon="5.93229">
        <ele>519</ele>
        <time>2016-04-23T07:56:12.000Z</time>
      </trkpt>
      <trkpt lat="43.73577" lon="5.93229">
        <ele>519</ele>
        <time>2016-04-23T07:56:14.000Z</time>
      </trkpt>
      <trkpt lat="43.73577" lon="5.93229">
        <ele>519</ele>
        <time>2016-04-23T07:56:16.000Z</time>
      </trkpt>
      <trkpt lat="43.73574" lon="5.93254">
        <ele>514</ele>
        <time>2016-04-23T07:56:20.000Z</time>
      </trkpt>
      <trkpt lat="43.73564" lon="5.93256">
        <ele>513</ele>
        <time>2016-04-23T07:56:22.000Z</time>
      </trkpt>
      <trkpt lat="43.7355" lon="5.93258">
        <ele>512</ele>
        <time>2016-04-23T07:56:24.000Z</time>
      </trkpt>
      <trkpt lat="43.73534" lon="5.93259">
        <ele>510</ele>
        <time>2016-04-23T07:56:26.000Z</time>
      </trkpt>
      <trkpt lat="43.73519" lon="5.93259">
        <ele>509</ele>
        <time>2016-04-23T07:56:28.000Z</time>
      </trkpt>
      <trkpt lat="43.73507" lon="5.93268">
        <ele>508</ele>
        <time>2016-04-23T07:56:30.000Z</time>
      </trkpt>
      <trkpt lat="43.73501" lon="5.93285">
        <ele>510</ele>
        <time>2016-04-23T07:56:32.000Z</time>
      </trkpt>
      <trkpt lat="43.73496" lon="5.93301">
        <ele>510</ele>
        <time>2016-04-23T07:56:34.000Z</time>
      </trkpt>
      <trkpt lat="43.73491" lon="5.93319">
        <ele>508</ele>
        <time>2016-04-23T07:56:36.000Z</time>
      </trkpt>
      <trkpt lat="43.73486" lon="5.93334">
        <ele>508</ele>
        <time>2016-04-23T07:56:38.000Z</time>
      </trkpt>
      <trkpt lat="43.73482" lon="5.93347">
        <ele>508</ele>
        <time>2016-04-23T07:56:40.000Z</time>
      </trkpt>
      <trkpt lat="43.73482" lon="5.93347">
        <ele>508</ele>
        <time>2016-04-23T07:56:42.000Z</time>
      </trkpt>
      <trkpt lat="43.73482" lon="5.93347">
        <ele>508</ele>
        <time>2016-04-23T07:56:44.000Z</time>
      </trkpt>
      <trkpt lat="43.73482" lon="5.93347">
        <ele>508</ele>
        <time>2016-04-23T07:56:46.000Z</time>
      </trkpt>
      <trkpt lat="43.73469" lon="5.93376">
        <ele>506</ele>
        <time>2016-04-23T07:56:50.000Z</time>
      </trkpt>
      <trkpt lat="43.73457" lon="5.93397">
        <ele>504</ele>
        <time>2016-04-23T07:56:52.000Z</time>
      </trkpt>
      <trkpt lat="43.73444" lon="5.93413">
        <ele>502</ele>
        <time>2016-04-23T07:56:54.000Z</time>
      </trkpt>
      <trkpt lat="43.73435" lon="5.93427">
        <ele>502</ele>
        <time>2016-04-23T07:56:56.000Z</time>
      </trkpt>
      <trkpt lat="43.73428" lon="5.93445">
        <ele>501</ele>
        <time>2016-04-23T07:56:58.000Z</time>
      </trkpt>
      <trkpt lat="43.73421" lon="5.93485">
        <ele>500</ele>
        <time>2016-04-23T07:57:00.000Z</time>
      </trkpt>
      <trkpt lat="43.73426" lon="5.93531">
        <ele>497</ele>
        <time>2016-04-23T07:57:03.000Z</time>
      </trkpt>
      <trkpt lat="43.73432" lon="5.93559">
        <ele>494</ele>
        <time>2016-04-23T07:57:05.000Z</time>
      </trkpt>
      <trkpt lat="43.73445" lon="5.93583">
        <ele>490</ele>
        <time>2016-04-23T07:57:07.000Z</time>
      </trkpt>
      <trkpt lat="43.73463" lon="5.93603">
        <ele>486</ele>
        <time>2016-04-23T07:57:09.000Z</time>
      </trkpt>
      <trkpt lat="43.73485" lon="5.93621">
        <ele>484</ele>
        <time>2016-04-23T07:57:11.000Z</time>
      </trkpt>
      <trkpt lat="43.73503" lon="5.9364">
        <ele>481</ele>
        <time>2016-04-23T07:57:13.000Z</time>
      </trkpt>
      <trkpt lat="43.73518" lon="5.93665">
        <ele>477</ele>
        <time>2016-04-23T07:57:15.000Z</time>
      </trkpt>
      <trkpt lat="43.73534" lon="5.93695">
        <ele>473</ele>
        <time>2016-04-23T07:57:18.000Z</time>
      </trkpt>
      <trkpt lat="43.73547" lon="5.93712">
        <ele>471</ele>
        <time>2016-04-23T07:57:21.000Z</time>
      </trkpt>
      <trkpt lat="43.73547" lon="5.93712">
        <ele>471</ele>
        <time>2016-04-23T07:57:23.000Z</time>
      </trkpt>
      <trkpt lat="43.73558" lon="5.93732">
        <ele>469</ele>
        <time>2016-04-23T07:57:25.000Z</time>
      </trkpt>
      <trkpt lat="43.73565" lon="5.9375">
        <ele>466</ele>
        <time>2016-04-23T07:57:27.000Z</time>
      </trkpt>
      <trkpt lat="43.73566" lon="5.93769">
        <ele>464</ele>
        <time>2016-04-23T07:57:29.000Z</time>
      </trkpt>
      <trkpt lat="43.73558" lon="5.93788">
        <ele>462</ele>
        <time>2016-04-23T07:57:31.000Z</time>
      </trkpt>
      <trkpt lat="43.73542" lon="5.93804">
        <ele>459</ele>
        <time>2016-04-23T07:57:33.000Z</time>
      </trkpt>
      <trkpt lat="43.73528" lon="5.93813">
        <ele>458</ele>
        <time>2016-04-23T07:57:35.000Z</time>
      </trkpt>
      <trkpt lat="43.73514" lon="5.93813">
        <ele>457</ele>
        <time>2016-04-23T07:57:38.000Z</time>
      </trkpt>
      <trkpt lat="43.73514" lon="5.93813">
        <ele>457</ele>
        <time>2016-04-23T07:57:40.000Z</time>
      </trkpt>
      <trkpt lat="43.73514" lon="5.93813">
        <ele>457</ele>
        <time>2016-04-23T07:57:42.000Z</time>
      </trkpt>
      <trkpt lat="43.73462" lon="5.93817">
        <ele>451</ele>
        <time>2016-04-23T07:57:48.000Z</time>
      </trkpt>
      <trkpt lat="43.73451" lon="5.93814">
        <ele>449</ele>
        <time>2016-04-23T07:57:50.000Z</time>
      </trkpt>
      <trkpt lat="43.73439" lon="5.9381">
        <ele>449</ele>
        <time>2016-04-23T07:57:52.000Z</time>
      </trkpt>
      <trkpt lat="43.73425" lon="5.93805">
        <ele>447</ele>
        <time>2016-04-23T07:57:54.000Z</time>
      </trkpt>
      <trkpt lat="43.73412" lon="5.93803">
        <ele>446</ele>
        <time>2016-04-23T07:57:56.000Z</time>
      </trkpt>
      <trkpt lat="43.734" lon="5.93802">
        <ele>445</ele>
        <time>2016-04-23T07:57:58.000Z</time>
      </trkpt>
      <trkpt lat="43.73384" lon="5.93799">
        <ele>444</ele>
        <time>2016-04-23T07:58:00.000Z</time>
      </trkpt>
      <trkpt lat="43.73366" lon="5.93796">
        <ele>441</ele>
        <time>2016-04-23T07:58:02.000Z</time>
      </trkpt>
      <trkpt lat="43.73349" lon="5.93795">
        <ele>439</ele>
        <time>2016-04-23T07:58:04.000Z</time>
      </trkpt>
      <trkpt lat="43.73331" lon="5.93793">
        <ele>438</ele>
        <time>2016-04-23T07:58:06.000Z</time>
      </trkpt>
      <trkpt lat="43.73315" lon="5.93788">
        <ele>435</ele>
        <time>2016-04-23T07:58:08.000Z</time>
      </trkpt>
      <trkpt lat="43.733" lon="5.93781">
        <ele>433</ele>
        <time>2016-04-23T07:58:10.000Z</time>
      </trkpt>
      <trkpt lat="43.73286" lon="5.93771">
        <ele>431</ele>
        <time>2016-04-23T07:58:12.000Z</time>
      </trkpt>
      <trkpt lat="43.73275" lon="5.93758">
        <ele>429</ele>
        <time>2016-04-23T07:58:14.000Z</time>
      </trkpt>
      <trkpt lat="43.73266" lon="5.93743">
        <ele>428</ele>
        <time>2016-04-23T07:58:16.000Z</time>
      </trkpt>
      <trkpt lat="43.7326" lon="5.93729">
        <ele>428</ele>
        <time>2016-04-23T07:58:18.000Z</time>
      </trkpt>
      <trkpt lat="43.73256" lon="5.93714">
        <ele>428</ele>
        <time>2016-04-23T07:58:20.000Z</time>
      </trkpt>
      <trkpt lat="43.73256" lon="5.93714">
        <ele>428</ele>
        <time>2016-04-23T07:58:22.000Z</time>
      </trkpt>
      <trkpt lat="43.73256" lon="5.93714">
        <ele>428</ele>
        <time>2016-04-23T07:58:24.000Z</time>
      </trkpt>
      <trkpt lat="43.73256" lon="5.93714">
        <ele>428</ele>
        <time>2016-04-23T07:58:26.000Z</time>
      </trkpt>
      <trkpt lat="43.73256" lon="5.93714">
        <ele>428</ele>
        <time>2016-04-23T07:58:28.000Z</time>
      </trkpt>
      <trkpt lat="43.73256" lon="5.93714">
        <ele>428</ele>
        <time>2016-04-23T07:58:30.000Z</time>
      </trkpt>
      <trkpt lat="43.73256" lon="5.93714">
        <ele>428</ele>
        <time>2016-04-23T07:58:32.000Z</time>
      </trkpt>
      <trkpt lat="43.73256" lon="5.93714">
        <ele>428</ele>
        <time>2016-04-23T07:58:34.000Z</time>
      </trkpt>
      <trkpt lat="43.73256" lon="5.93714">
        <ele>428</ele>
        <time>2016-04-23T07:58:36.000Z</time>
      </trkpt>
      <trkpt lat="43.73256" lon="5.93714">
        <ele>428</ele>
        <time>2016-04-23T07:58:38.000Z</time>
      </trkpt>
      <trkpt lat="43.73256" lon="5.93714">
        <ele>428</ele>
        <time>2016-04-23T07:58:40.000Z</time>
      </trkpt>
      <trkpt lat="43.73232" lon="5.93677">
        <ele>425</ele>
        <time>2016-04-23T07:58:50.000Z</time>
      </trkpt>
      <trkpt lat="43.73231" lon="5.93694">
        <ele>427</ele>
        <time>2016-04-23T07:58:58.000Z</time>
      </trkpt>
      <trkpt lat="43.73228" lon="5.93716">
        <ele>425</ele>
        <time>2016-04-23T07:59:04.000Z</time>
      </trkpt>
      <trkpt lat="43.73225" lon="5.93738">
        <ele>425</ele>
        <time>2016-04-23T07:59:08.000Z</time>
      </trkpt>
      <trkpt lat="43.7322" lon="5.93751">
        <ele>425</ele>
        <time>2016-04-23T07:59:12.000Z</time>
      </trkpt>
      <trkpt lat="43.7322" lon="5.93751">
        <ele>425</ele>
        <time>2016-04-23T07:59:14.000Z</time>
      </trkpt>
      <trkpt lat="43.7322" lon="5.93751">
        <ele>425</ele>
        <time>2016-04-23T07:59:16.000Z</time>
      </trkpt>
      <trkpt lat="43.7322" lon="5.93751">
        <ele>425</ele>
        <time>2016-04-23T07:59:18.000Z</time>
      </trkpt>
      <trkpt lat="43.7322" lon="5.93751">
        <ele>425</ele>
        <time>2016-04-23T07:59:20.000Z</time>
      </trkpt>
      <trkpt lat="43.7322" lon="5.93751">
        <ele>425</ele>
        <time>2016-04-23T07:59:22.000Z</time>
      </trkpt>
      <trkpt lat="43.7322" lon="5.93751">
        <ele>425</ele>
        <time>2016-04-23T07:59:24.000Z</time>
      </trkpt>
      <trkpt lat="43.7322" lon="5.93751">
        <ele>425</ele>
        <time>2016-04-23T07:59:26.000Z</time>
      </trkpt>
      <trkpt lat="43.7322" lon="5.93751">
        <ele>425</ele>
        <time>2016-04-23T07:59:28.000Z</time>
      </trkpt>
      <trkpt lat="43.73218" lon="5.93773">
        <ele>426</ele>
        <time>2016-04-23T07:59:32.000Z</time>
      </trkpt>
      <trkpt lat="43.73218" lon="5.93791">
        <ele>427</ele>
        <time>2016-04-23T07:59:36.000Z</time>
      </trkpt>
      <trkpt lat="43.73218" lon="5.93791">
        <ele>427</ele>
        <time>2016-04-23T07:59:38.000Z</time>
      </trkpt>
      <trkpt lat="43.73218" lon="5.93791">
        <ele>427</ele>
        <time>2016-04-23T07:59:40.000Z</time>
      </trkpt>
      <trkpt lat="43.73218" lon="5.93791">
        <ele>427</ele>
        <time>2016-04-23T07:59:42.000Z</time>
      </trkpt>
      <trkpt lat="43.73218" lon="5.93791">
        <ele>427</ele>
        <time>2016-04-23T07:59:44.000Z</time>
      </trkpt>
      <trkpt lat="43.73218" lon="5.93791">
        <ele>427</ele>
        <time>2016-04-23T07:59:46.000Z</time>
      </trkpt>
      <trkpt lat="43.73218" lon="5.93791">
        <ele>427</ele>
        <time>2016-04-23T07:59:48.000Z</time>
      </trkpt>
      <trkpt lat="43.73233" lon="5.9384">
        <ele>426</ele>
        <time>2016-04-23T08:00:15.000Z</time>
      </trkpt>
      <trkpt lat="43.7324" lon="5.93856">
        <ele>425</ele>
        <time>2016-04-23T08:00:18.000Z</time>
      </trkpt>
      <trkpt lat="43.73251" lon="5.93875">
        <ele>426</ele>
        <time>2016-04-23T08:00:22.000Z</time>
      </trkpt>
      <trkpt lat="43.73251" lon="5.93875">
        <ele>426</ele>
        <time>2016-04-23T08:00:24.000Z</time>
      </trkpt>
      <trkpt lat="43.73251" lon="5.93875">
        <ele>426</ele>
        <time>2016-04-23T08:00:26.000Z</time>
      </trkpt>
      <trkpt lat="43.73251" lon="5.93875">
        <ele>426</ele>
        <time>2016-04-23T08:00:28.000Z</time>
      </trkpt>
      <trkpt lat="43.73251" lon="5.93875">
        <ele>426</ele>
        <time>2016-04-23T08:00:30.000Z</time>
      </trkpt>
      <trkpt lat="43.73251" lon="5.93875">
        <ele>426</ele>
        <time>2016-04-23T08:00:32.000Z</time>
      </trkpt>
      <trkpt lat="43.73251" lon="5.93875">
        <ele>426</ele>
        <time>2016-04-23T08:00:34.000Z</time>
      </trkpt>
      <trkpt lat="43.73251" lon="5.93875">
        <ele>426</ele>
        <time>2016-04-23T08:00:36.000Z</time>
      </trkpt>
      <trkpt lat="43.73251" lon="5.93875">
        <ele>426</ele>
        <time>2016-04-23T08:00:38.000Z</time>
      </trkpt>
      <trkpt lat="43.73282" lon="5.93944">
        <ele>421</ele>
        <time>2016-04-23T08:00:42.000Z</time>
      </trkpt>
      <trkpt lat="43.73289" lon="5.93958">
        <ele>422</ele>
        <time>2016-04-23T08:00:46.000Z</time>
      </trkpt>
      <trkpt lat="43.73289" lon="5.93958">
        <ele>422</ele>
        <time>2016-04-23T08:00:48.000Z</time>
      </trkpt>
      <trkpt lat="43.73289" lon="5.93958">
        <ele>422</ele>
        <time>2016-04-23T08:00:50.000Z</time>
      </trkpt>
      <trkpt lat="43.73289" lon="5.93958">
        <ele>422</ele>
        <time>2016-04-23T08:00:52.000Z</time>
      </trkpt>
      <trkpt lat="43.73289" lon="5.93958">
        <ele>422</ele>
        <time>2016-04-23T08:00:54.000Z</time>
      </trkpt>
      <trkpt lat="43.73289" lon="5.93958">
        <ele>422</ele>
        <time>2016-04-23T08:00:56.000Z</time>
      </trkpt>
      <trkpt lat="43.73289" lon="5.93958">
        <ele>422</ele>
        <time>2016-04-23T08:00:58.000Z</time>
      </trkpt>
      <trkpt lat="43.73289" lon="5.93958">
        <ele>422</ele>
        <time>2016-04-23T08:01:00.000Z</time>
      </trkpt>
      <trkpt lat="43.73289" lon="5.93958">
        <ele>422</ele>
        <time>2016-04-23T08:01:02.000Z</time>
      </trkpt>
      <trkpt lat="43.73289" lon="5.93958">
        <ele>422</ele>
        <time>2016-04-23T08:01:04.000Z</time>
      </trkpt>
      <trkpt lat="43.73313" lon="5.94006">
        <ele>425</ele>
        <time>2016-04-23T08:01:21.000Z</time>
      </trkpt>
      <trkpt lat="43.73313" lon="5.94006">
        <ele>425</ele>
        <time>2016-04-23T08:01:23.000Z</time>
      </trkpt>
      <trkpt lat="43.73313" lon="5.94006">
        <ele>425</ele>
        <time>2016-04-23T08:01:25.000Z</time>
      </trkpt>
      <trkpt lat="43.73313" lon="5.94006">
        <ele>425</ele>
        <time>2016-04-23T08:01:27.000Z</time>
      </trkpt>
      <trkpt lat="43.73313" lon="5.94006">
        <ele>425</ele>
        <time>2016-04-23T08:01:29.000Z</time>
      </trkpt>
      <trkpt lat="43.73313" lon="5.94006">
        <ele>425</ele>
        <time>2016-04-23T08:01:31.000Z</time>
      </trkpt>
      <trkpt lat="43.73313" lon="5.94006">
        <ele>425</ele>
        <time>2016-04-23T08:01:33.000Z</time>
      </trkpt>
      <trkpt lat="43.73322" lon="5.94053">
        <ele>421</ele>
        <time>2016-04-23T08:01:37.000Z</time>
      </trkpt>
      <trkpt lat="43.73321" lon="5.94071">
        <ele>418</ele>
        <time>2016-04-23T08:01:41.000Z</time>
      </trkpt>
      <trkpt lat="43.73318" lon="5.94088">
        <ele>419</ele>
        <time>2016-04-23T08:01:45.000Z</time>
      </trkpt>
      <trkpt lat="43.73314" lon="5.94104">
        <ele>420</ele>
        <time>2016-04-23T08:01:49.000Z</time>
      </trkpt>
      <trkpt lat="43.73314" lon="5.94104">
        <ele>420</ele>
        <time>2016-04-23T08:01:51.000Z</time>
      </trkpt>
      <trkpt lat="43.73314" lon="5.94104">
        <ele>420</ele>
        <time>2016-04-23T08:01:53.000Z</time>
      </trkpt>
      <trkpt lat="43.73314" lon="5.94104">
        <ele>420</ele>
        <time>2016-04-23T08:01:55.000Z</time>
      </trkpt>
      <trkpt lat="43.73314" lon="5.94104">
        <ele>420</ele>
        <time>2016-04-23T08:01:57.000Z</time>
      </trkpt>
      <trkpt lat="43.73314" lon="5.94104">
        <ele>420</ele>
        <time>2016-04-23T08:01:59.000Z</time>
      </trkpt>
      <trkpt lat="43.73298" lon="5.94155">
        <ele>420</ele>
        <time>2016-04-23T08:02:03.000Z</time>
      </trkpt>
      <trkpt lat="43.73292" lon="5.94175">
        <ele>420</ele>
        <time>2016-04-23T08:02:07.000Z</time>
      </trkpt>
      <trkpt lat="43.73289" lon="5.94193">
        <ele>417</ele>
        <time>2016-04-23T08:02:11.000Z</time>
      </trkpt>
      <trkpt lat="43.73289" lon="5.94193">
        <ele>417</ele>
        <time>2016-04-23T08:02:13.000Z</time>
      </trkpt>
      <trkpt lat="43.7328" lon="5.94208">
        <ele>418</ele>
        <time>2016-04-23T08:02:15.000Z</time>
      </trkpt>
      <trkpt lat="43.7328" lon="5.94208">
        <ele>418</ele>
        <time>2016-04-23T08:02:19.000Z</time>
      </trkpt>
      <trkpt lat="43.7328" lon="5.94208">
        <ele>418</ele>
        <time>2016-04-23T08:02:21.000Z</time>
      </trkpt>
      <trkpt lat="43.7328" lon="5.94208">
        <ele>418</ele>
        <time>2016-04-23T08:02:23.000Z</time>
      </trkpt>
      <trkpt lat="43.7328" lon="5.94208">
        <ele>418</ele>
        <time>2016-04-23T08:02:25.000Z</time>
      </trkpt>
      <trkpt lat="43.7328" lon="5.94208">
        <ele>418</ele>
        <time>2016-04-23T08:02:27.000Z</time>
      </trkpt>
      <trkpt lat="43.7328" lon="5.94208">
        <ele>418</ele>
        <time>2016-04-23T08:02:29.000Z</time>
      </trkpt>
      <trkpt lat="43.73242" lon="5.94259">
        <ele>429</ele>
        <time>2016-04-23T08:02:33.000Z</time>
      </trkpt>
      <trkpt lat="43.73236" lon="5.94273">
        <ele>427</ele>
        <time>2016-04-23T08:02:37.000Z</time>
      </trkpt>
      <trkpt lat="43.73236" lon="5.94273">
        <ele>427</ele>
        <time>2016-04-23T08:02:39.000Z</time>
      </trkpt>
      <trkpt lat="43.73236" lon="5.94273">
        <ele>427</ele>
        <time>2016-04-23T08:02:41.000Z</time>
      </trkpt>
      <trkpt lat="43.73236" lon="5.94273">
        <ele>427</ele>
        <time>2016-04-23T08:02:43.000Z</time>
      </trkpt>
      <trkpt lat="43.73236" lon="5.94273">
        <ele>427</ele>
        <time>2016-04-23T08:02:45.000Z</time>
      </trkpt>
      <trkpt lat="43.73236" lon="5.94273">
        <ele>427</ele>
        <time>2016-04-23T08:02:47.000Z</time>
      </trkpt>
      <trkpt lat="43.73236" lon="5.94273">
        <ele>427</ele>
        <time>2016-04-23T08:02:49.000Z</time>
      </trkpt>
      <trkpt lat="43.73236" lon="5.94273">
        <ele>427</ele>
        <time>2016-04-23T08:02:51.000Z</time>
      </trkpt>
      <trkpt lat="43.73236" lon="5.94273">
        <ele>427</ele>
        <time>2016-04-23T08:02:53.000Z</time>
      </trkpt>
      <trkpt lat="43.73234" lon="5.94314">
        <ele>429</ele>
        <time>2016-04-23T08:03:05.000Z</time>
      </trkpt>
      <trkpt lat="43.73234" lon="5.94314">
        <ele>429</ele>
        <time>2016-04-23T08:03:11.000Z</time>
      </trkpt>
      <trkpt lat="43.73234" lon="5.94314">
        <ele>429</ele>
        <time>2016-04-23T08:03:13.000Z</time>
      </trkpt>
      <trkpt lat="43.73232" lon="5.94311">
        <ele>423</ele>
        <time>2016-04-23T08:03:32.000Z</time>
      </trkpt>
      <trkpt lat="43.73232" lon="5.94311">
        <ele>423</ele>
        <time>2016-04-23T08:03:34.000Z</time>
      </trkpt>
      <trkpt lat="43.73232" lon="5.94311">
        <ele>423</ele>
        <time>2016-04-23T08:03:36.000Z</time>
      </trkpt>
      <trkpt lat="43.73232" lon="5.94311">
        <ele>423</ele>
        <time>2016-04-23T08:03:38.000Z</time>
      </trkpt>
      <trkpt lat="43.73232" lon="5.94311">
        <ele>423</ele>
        <time>2016-04-23T08:03:40.000Z</time>
      </trkpt>
      <trkpt lat="43.73222" lon="5.94331">
        <ele>423</ele>
        <time>2016-04-23T08:03:49.000Z</time>
      </trkpt>
      <trkpt lat="43.73222" lon="5.94331">
        <ele>423</ele>
        <time>2016-04-23T08:03:51.000Z</time>
      </trkpt>
      <trkpt lat="43.73222" lon="5.94331">
        <ele>423</ele>
        <time>2016-04-23T08:03:53.000Z</time>
      </trkpt>
      <trkpt lat="43.73222" lon="5.94331">
        <ele>423</ele>
        <time>2016-04-23T08:03:55.000Z</time>
      </trkpt>
      <trkpt lat="43.73222" lon="5.94331">
        <ele>423</ele>
        <time>2016-04-23T08:03:57.000Z</time>
      </trkpt>
      <trkpt lat="43.73222" lon="5.94331">
        <ele>423</ele>
        <time>2016-04-23T08:03:59.000Z</time>
      </trkpt>
      <trkpt lat="43.73203" lon="5.94362">
        <ele>426</ele>
        <time>2016-04-23T08:04:03.000Z</time>
      </trkpt>
      <trkpt lat="43.73202" lon="5.94375">
        <ele>424</ele>
        <time>2016-04-23T08:04:07.000Z</time>
      </trkpt>
      <trkpt lat="43.73202" lon="5.94375">
        <ele>424</ele>
        <time>2016-04-23T08:04:09.000Z</time>
      </trkpt>
      <trkpt lat="43.73202" lon="5.94375">
        <ele>424</ele>
        <time>2016-04-23T08:04:11.000Z</time>
      </trkpt>
      <trkpt lat="43.73202" lon="5.94375">
        <ele>424</ele>
        <time>2016-04-23T08:04:13.000Z</time>
      </trkpt>
      <trkpt lat="43.73202" lon="5.94375">
        <ele>424</ele>
        <time>2016-04-23T08:04:15.000Z</time>
      </trkpt>
      <trkpt lat="43.73202" lon="5.94375">
        <ele>424</ele>
        <time>2016-04-23T08:04:21.000Z</time>
      </trkpt>
      <trkpt lat="43.73202" lon="5.94375">
        <ele>424</ele>
        <time>2016-04-23T08:04:23.000Z</time>
      </trkpt>
      <trkpt lat="43.73202" lon="5.94375">
        <ele>424</ele>
        <time>2016-04-23T08:04:25.000Z</time>
      </trkpt>
      <trkpt lat="43.7323" lon="5.94426">
        <ele>425</ele>
        <time>2016-04-23T08:04:27.000Z</time>
      </trkpt>
      <trkpt lat="43.73235" lon="5.94444">
        <ele>424</ele>
        <time>2016-04-23T08:04:31.000Z</time>
      </trkpt>
      <trkpt lat="43.73238" lon="5.94464">
        <ele>423</ele>
        <time>2016-04-23T08:04:35.000Z</time>
      </trkpt>
      <trkpt lat="43.73238" lon="5.94483">
        <ele>425</ele>
        <time>2016-04-23T08:04:39.000Z</time>
      </trkpt>
      <trkpt lat="43.73238" lon="5.94483">
        <ele>425</ele>
        <time>2016-04-23T08:04:41.000Z</time>
      </trkpt>
      <trkpt lat="43.73238" lon="5.94483">
        <ele>425</ele>
        <time>2016-04-23T08:04:43.000Z</time>
      </trkpt>
      <trkpt lat="43.73238" lon="5.94483">
        <ele>425</ele>
        <time>2016-04-23T08:04:45.000Z</time>
      </trkpt>
      <trkpt lat="43.73238" lon="5.94483">
        <ele>425</ele>
        <time>2016-04-23T08:04:47.000Z</time>
      </trkpt>
      <trkpt lat="43.73228" lon="5.94551">
        <ele>426</ele>
        <time>2016-04-23T08:04:55.000Z</time>
      </trkpt>
      <trkpt lat="43.73219" lon="5.94568">
        <ele>425</ele>
        <time>2016-04-23T08:04:59.000Z</time>
      </trkpt>
      <trkpt lat="43.73209" lon="5.94581">
        <ele>425</ele>
        <time>2016-04-23T08:05:03.000Z</time>
      </trkpt>
      <trkpt lat="43.73209" lon="5.94581">
        <ele>425</ele>
        <time>2016-04-23T08:05:05.000Z</time>
      </trkpt>
      <trkpt lat="43.73209" lon="5.94581">
        <ele>425</ele>
        <time>2016-04-23T08:05:07.000Z</time>
      </trkpt>
      <trkpt lat="43.73209" lon="5.94581">
        <ele>425</ele>
        <time>2016-04-23T08:05:09.000Z</time>
      </trkpt>
      <trkpt lat="43.73209" lon="5.94581">
        <ele>425</ele>
        <time>2016-04-23T08:05:11.000Z</time>
      </trkpt>
      <trkpt lat="43.73209" lon="5.94581">
        <ele>425</ele>
        <time>2016-04-23T08:05:13.000Z</time>
      </trkpt>
      <trkpt lat="43.73209" lon="5.94581">
        <ele>425</ele>
        <time>2016-04-23T08:05:15.000Z</time>
      </trkpt>
      <trkpt lat="43.73209" lon="5.94581">
        <ele>425</ele>
        <time>2016-04-23T08:05:17.000Z</time>
      </trkpt>
      <trkpt lat="43.73209" lon="5.94581">
        <ele>425</ele>
        <time>2016-04-23T08:05:19.000Z</time>
      </trkpt>
      <trkpt lat="43.73182" lon="5.94593">
        <ele>422</ele>
        <time>2016-04-23T08:05:25.000Z</time>
      </trkpt>
      <trkpt lat="43.73165" lon="5.94599">
        <ele>423</ele>
        <time>2016-04-23T08:05:27.000Z</time>
      </trkpt>
      <trkpt lat="43.73153" lon="5.94601">
        <ele>424</ele>
        <time>2016-04-23T08:05:29.000Z</time>
      </trkpt>
      <trkpt lat="43.73143" lon="5.94602">
        <ele>424</ele>
        <time>2016-04-23T08:05:31.000Z</time>
      </trkpt>
      <trkpt lat="43.73134" lon="5.94602">
        <ele>424</ele>
        <time>2016-04-23T08:05:33.000Z</time>
      </trkpt>
      <trkpt lat="43.73118" lon="5.94602">
        <ele>424</ele>
        <time>2016-04-23T08:05:35.000Z</time>
      </trkpt>
      <trkpt lat="43.73105" lon="5.94603">
        <ele>425</ele>
        <time>2016-04-23T08:05:39.000Z</time>
      </trkpt>
      <trkpt lat="43.73092" lon="5.94604">
        <ele>425</ele>
        <time>2016-04-23T08:05:43.000Z</time>
      </trkpt>
      <trkpt lat="43.73079" lon="5.94604">
        <ele>426</ele>
        <time>2016-04-23T08:05:47.000Z</time>
      </trkpt>
      <trkpt lat="43.73065" lon="5.94605">
        <ele>429</ele>
        <time>2016-04-23T08:05:51.000Z</time>
      </trkpt>
      <trkpt lat="43.73048" lon="5.94609">
        <ele>429</ele>
        <time>2016-04-23T08:05:55.000Z</time>
      </trkpt>
      <trkpt lat="43.73035" lon="5.9461">
        <ele>431</ele>
        <time>2016-04-23T08:05:59.000Z</time>
      </trkpt>
      <trkpt lat="43.73035" lon="5.9461">
        <ele>431</ele>
        <time>2016-04-23T08:06:01.000Z</time>
      </trkpt>
      <trkpt lat="43.73035" lon="5.9461">
        <ele>431</ele>
        <time>2016-04-23T08:06:03.000Z</time>
      </trkpt>
      <trkpt lat="43.73035" lon="5.9461">
        <ele>431</ele>
        <time>2016-04-23T08:06:05.000Z</time>
      </trkpt>
      <trkpt lat="43.73035" lon="5.9461">
        <ele>431</ele>
        <time>2016-04-23T08:06:07.000Z</time>
      </trkpt>
      <trkpt lat="43.73035" lon="5.9461">
        <ele>431</ele>
        <time>2016-04-23T08:06:13.000Z</time>
      </trkpt>
      <trkpt lat="43.73035" lon="5.9461">
        <ele>431</ele>
        <time>2016-04-23T08:06:15.000Z</time>
      </trkpt>
      <trkpt lat="43.73035" lon="5.9461">
        <ele>431</ele>
        <time>2016-04-23T08:06:17.000Z</time>
      </trkpt>
      <trkpt lat="43.73035" lon="5.9461">
        <ele>431</ele>
        <time>2016-04-23T08:06:19.000Z</time>
      </trkpt>
      <trkpt lat="43.73035" lon="5.9461">
        <ele>431</ele>
        <time>2016-04-23T08:06:21.000Z</time>
      </trkpt>
      <trkpt lat="43.73035" lon="5.9461">
        <ele>431</ele>
        <time>2016-04-23T08:06:23.000Z</time>
      </trkpt>
      <trkpt lat="43.73035" lon="5.9461">
        <ele>431</ele>
        <time>2016-04-23T08:06:25.000Z</time>
      </trkpt>
      <trkpt lat="43.73035" lon="5.9461">
        <ele>431</ele>
        <time>2016-04-23T08:06:27.000Z</time>
      </trkpt>
      <trkpt lat="43.73035" lon="5.9461">
        <ele>431</ele>
        <time>2016-04-23T08:06:29.000Z</time>
      </trkpt>
      <trkpt lat="43.73035" lon="5.9461">
        <ele>431</ele>
        <time>2016-04-23T08:06:31.000Z</time>
      </trkpt>
      <trkpt lat="43.72969" lon="5.94642">
        <ele>428</ele>
        <time>2016-04-23T08:07:12.000Z</time>
      </trkpt>
      <trkpt lat="43.72958" lon="5.94647">
        <ele>428</ele>
        <time>2016-04-23T08:07:20.000Z</time>
      </trkpt>
      <trkpt lat="43.72948" lon="5.94648">
        <ele>428</ele>
        <time>2016-04-23T08:07:28.000Z</time>
      </trkpt>
      <trkpt lat="43.72948" lon="5.94648">
        <ele>428</ele>
        <time>2016-04-23T08:07:32.000Z</time>
      </trkpt>
      <trkpt lat="43.72948" lon="5.94648">
        <ele>428</ele>
        <time>2016-04-23T08:07:34.000Z</time>
      </trkpt>
      <trkpt lat="43.72948" lon="5.94648">
        <ele>428</ele>
        <time>2016-04-23T08:07:36.000Z</time>
      </trkpt>
      <trkpt lat="43.7294" lon="5.94653">
        <ele>434</ele>
        <time>2016-04-23T08:07:44.000Z</time>
      </trkpt>
      <trkpt lat="43.7294" lon="5.94653">
        <ele>434</ele>
        <time>2016-04-23T08:07:50.000Z</time>
      </trkpt>
      <trkpt lat="43.7294" lon="5.94653">
        <ele>434</ele>
        <time>2016-04-23T08:07:52.000Z</time>
      </trkpt>
      <trkpt lat="43.72929" lon="5.94653">
        <ele>436</ele>
        <time>2016-04-23T08:08:03.000Z</time>
      </trkpt>
      <trkpt lat="43.72929" lon="5.94653">
        <ele>436</ele>
        <time>2016-04-23T08:08:09.000Z</time>
      </trkpt>
      <trkpt lat="43.72905" lon="5.94656">
        <ele>437</ele>
        <time>2016-04-23T08:08:19.000Z</time>
      </trkpt>
      <trkpt lat="43.72895" lon="5.94656">
        <ele>439</ele>
        <time>2016-04-23T08:08:27.000Z</time>
      </trkpt>
      <trkpt lat="43.72895" lon="5.94656">
        <ele>439</ele>
        <time>2016-04-23T08:08:29.000Z</time>
      </trkpt>
      <trkpt lat="43.72895" lon="5.94656">
        <ele>439</ele>
        <time>2016-04-23T08:08:31.000Z</time>
      </trkpt>
      <trkpt lat="43.72895" lon="5.94656">
        <ele>439</ele>
        <time>2016-04-23T08:08:33.000Z</time>
      </trkpt>
      <trkpt lat="43.72881" lon="5.94655">
        <ele>440</ele>
        <time>2016-04-23T08:08:39.000Z</time>
      </trkpt>
      <trkpt lat="43.72881" lon="5.94655">
        <ele>440</ele>
        <time>2016-04-23T08:08:45.000Z</time>
      </trkpt>
      <trkpt lat="43.72881" lon="5.94655">
        <ele>440</ele>
        <time>2016-04-23T08:08:47.000Z</time>
      </trkpt>
      <trkpt lat="43.72881" lon="5.94655">
        <ele>440</ele>
        <time>2016-04-23T08:08:49.000Z</time>
      </trkpt>
      <trkpt lat="43.72881" lon="5.94655">
        <ele>440</ele>
        <time>2016-04-23T08:08:51.000Z</time>
      </trkpt>
      <trkpt lat="43.72881" lon="5.94655">
        <ele>440</ele>
        <time>2016-04-23T08:08:53.000Z</time>
      </trkpt>
      <trkpt lat="43.72881" lon="5.94655">
        <ele>440</ele>
        <time>2016-04-23T08:08:55.000Z</time>
      </trkpt>
      <trkpt lat="43.72881" lon="5.94655">
        <ele>440</ele>
        <time>2016-04-23T08:08:57.000Z</time>
      </trkpt>
      <trkpt lat="43.72881" lon="5.94655">
        <ele>440</ele>
        <time>2016-04-23T08:08:59.000Z</time>
      </trkpt>
      <trkpt lat="43.72881" lon="5.94655">
        <ele>440</ele>
        <time>2016-04-23T08:09:01.000Z</time>
      </trkpt>
      <trkpt lat="43.72881" lon="5.94655">
        <ele>440</ele>
        <time>2016-04-23T08:09:03.000Z</time>
      </trkpt>
      <trkpt lat="43.72881" lon="5.94655">
        <ele>440</ele>
        <time>2016-04-23T08:09:05.000Z</time>
      </trkpt>
      <trkpt lat="43.72881" lon="5.94655">
        <ele>440</ele>
        <time>2016-04-23T08:09:07.000Z</time>
      </trkpt>
      <trkpt lat="43.72881" lon="5.94655">
        <ele>440</ele>
        <time>2016-04-23T08:09:09.000Z</time>
      </trkpt>
      <trkpt lat="43.72881" lon="5.94655">
        <ele>440</ele>
        <time>2016-04-23T08:09:11.000Z</time>
      </trkpt>
      <trkpt lat="43.72881" lon="5.94655">
        <ele>440</ele>
        <time>2016-04-23T08:09:13.000Z</time>
      </trkpt>
      <trkpt lat="43.72881" lon="5.94655">
        <ele>440</ele>
        <time>2016-04-23T08:09:15.000Z</time>
      </trkpt>
      <trkpt lat="43.72881" lon="5.94655">
        <ele>440</ele>
        <time>2016-04-23T08:09:17.000Z</time>
      </trkpt>
      <trkpt lat="43.72881" lon="5.94655">
        <ele>440</ele>
        <time>2016-04-23T08:09:19.000Z</time>
      </trkpt>
      <trkpt lat="43.72881" lon="5.94655">
        <ele>440</ele>
        <time>2016-04-23T08:09:21.000Z</time>
      </trkpt>
      <trkpt lat="43.72881" lon="5.94655">
        <ele>440</ele>
        <time>2016-04-23T08:09:23.000Z</time>
      </trkpt>
      <trkpt lat="43.72881" lon="5.94655">
        <ele>440</ele>
        <time>2016-04-23T08:09:25.000Z</time>
      </trkpt>
      <trkpt lat="43.72881" lon="5.94655">
        <ele>440</ele>
        <time>2016-04-23T08:09:27.000Z</time>
      </trkpt>
      <trkpt lat="43.72881" lon="5.94655">
        <ele>440</ele>
        <time>2016-04-23T08:09:29.000Z</time>
      </trkpt>
      <trkpt lat="43.72881" lon="5.94655">
        <ele>440</ele>
        <time>2016-04-23T08:09:31.000Z</time>
      </trkpt>
      <trkpt lat="43.72812" lon="5.94654">
        <ele>444</ele>
        <time>2016-04-23T08:09:40.000Z</time>
      </trkpt>
      <trkpt lat="43.72812" lon="5.94654">
        <ele>444</ele>
        <time>2016-04-23T08:09:44.000Z</time>
      </trkpt>
      <trkpt lat="43.72812" lon="5.94654">
        <ele>444</ele>
        <time>2016-04-23T08:09:46.000Z</time>
      </trkpt>
      <trkpt lat="43.72805" lon="5.94647">
        <ele>449</ele>
        <time>2016-04-23T08:09:54.000Z</time>
      </trkpt>
      <trkpt lat="43.72805" lon="5.94647">
        <ele>449</ele>
        <time>2016-04-23T08:10:00.000Z</time>
      </trkpt>
      <trkpt lat="43.72805" lon="5.94647">
        <ele>449</ele>
        <time>2016-04-23T08:10:08.000Z</time>
      </trkpt>
      <trkpt lat="43.72805" lon="5.94647">
        <ele>449</ele>
        <time>2016-04-23T08:10:10.000Z</time>
      </trkpt>
      <trkpt lat="43.72805" lon="5.94647">
        <ele>449</ele>
        <time>2016-04-23T08:10:12.000Z</time>
      </trkpt>
      <trkpt lat="43.72788" lon="5.94637">
        <ele>461</ele>
        <time>2016-04-23T08:11:40.000Z</time>
      </trkpt>
      <trkpt lat="43.72788" lon="5.94637">
        <ele>461</ele>
        <time>2016-04-23T08:11:42.000Z</time>
      </trkpt>
      <trkpt lat="43.72788" lon="5.94637">
        <ele>461</ele>
        <time>2016-04-23T08:11:44.000Z</time>
      </trkpt>
      <trkpt lat="43.72788" lon="5.94637">
        <ele>461</ele>
        <time>2016-04-23T08:11:46.000Z</time>
      </trkpt>
      <trkpt lat="43.72788" lon="5.94637">
        <ele>461</ele>
        <time>2016-04-23T08:11:48.000Z</time>
      </trkpt>
      <trkpt lat="43.72788" lon="5.94637">
        <ele>461</ele>
        <time>2016-04-23T08:11:50.000Z</time>
      </trkpt>
      <trkpt lat="43.72788" lon="5.94637">
        <ele>461</ele>
        <time>2016-04-23T08:11:52.000Z</time>
      </trkpt>
      <trkpt lat="43.72776" lon="5.94624">
        <ele>469</ele>
        <time>2016-04-23T08:12:25.000Z</time>
      </trkpt>
      <trkpt lat="43.72776" lon="5.94624">
        <ele>469</ele>
        <time>2016-04-23T08:12:31.000Z</time>
      </trkpt>
      <trkpt lat="43.72776" lon="5.94624">
        <ele>469</ele>
        <time>2016-04-23T08:12:55.000Z</time>
      </trkpt>
      <trkpt lat="43.72776" lon="5.94624">
        <ele>469</ele>
        <time>2016-04-23T08:12:57.000Z</time>
      </trkpt>
      <trkpt lat="43.72766" lon="5.94631">
        <ele>474</ele>
        <time>2016-04-23T08:13:11.000Z</time>
      </trkpt>
      <trkpt lat="43.72766" lon="5.94631">
        <ele>474</ele>
        <time>2016-04-23T08:13:17.000Z</time>
      </trkpt>
      <trkpt lat="43.72747" lon="5.9463">
        <ele>477</ele>
        <time>2016-04-23T08:13:43.000Z</time>
      </trkpt>
      <trkpt lat="43.72747" lon="5.9463">
        <ele>477</ele>
        <time>2016-04-23T08:13:45.000Z</time>
      </trkpt>
      <trkpt lat="43.72747" lon="5.9463">
        <ele>477</ele>
        <time>2016-04-23T08:13:47.000Z</time>
      </trkpt>
      <trkpt lat="43.72747" lon="5.9463">
        <ele>477</ele>
        <time>2016-04-23T08:13:49.000Z</time>
      </trkpt>
      <trkpt lat="43.72747" lon="5.9463">
        <ele>477</ele>
        <time>2016-04-23T08:13:51.000Z</time>
      </trkpt>
      <trkpt lat="43.72747" lon="5.9463">
        <ele>477</ele>
        <time>2016-04-23T08:13:53.000Z</time>
      </trkpt>
      <trkpt lat="43.72747" lon="5.9463">
        <ele>477</ele>
        <time>2016-04-23T08:13:55.000Z</time>
      </trkpt>
      <trkpt lat="43.72747" lon="5.9463">
        <ele>477</ele>
        <time>2016-04-23T08:13:57.000Z</time>
      </trkpt>
      <trkpt lat="43.72747" lon="5.9463">
        <ele>477</ele>
        <time>2016-04-23T08:13:59.000Z</time>
      </trkpt>
      <trkpt lat="43.72722" lon="5.9462">
        <ele>483</ele>
        <time>2016-04-23T08:14:47.000Z</time>
      </trkpt>
      <trkpt lat="43.72722" lon="5.9462">
        <ele>483</ele>
        <time>2016-04-23T08:14:53.000Z</time>
      </trkpt>
      <trkpt lat="43.72722" lon="5.9462">
        <ele>483</ele>
        <time>2016-04-23T08:14:59.000Z</time>
      </trkpt>
      <trkpt lat="43.72722" lon="5.9462">
        <ele>483</ele>
        <time>2016-04-23T08:15:01.000Z</time>
      </trkpt>
      <trkpt lat="43.72704" lon="5.94617">
        <ele>485</ele>
        <time>2016-04-23T08:15:19.000Z</time>
      </trkpt>
      <trkpt lat="43.72704" lon="5.94617">
        <ele>485</ele>
        <time>2016-04-23T08:15:21.000Z</time>
      </trkpt>
      <trkpt lat="43.72704" lon="5.94617">
        <ele>485</ele>
        <time>2016-04-23T08:15:23.000Z</time>
      </trkpt>
      <trkpt lat="43.72696" lon="5.94614">
        <ele>485</ele>
        <time>2016-04-23T08:15:33.000Z</time>
      </trkpt>
      <trkpt lat="43.72696" lon="5.94614">
        <ele>485</ele>
        <time>2016-04-23T08:15:35.000Z</time>
      </trkpt>
      <trkpt lat="43.72696" lon="5.94614">
        <ele>485</ele>
        <time>2016-04-23T08:15:37.000Z</time>
      </trkpt>
      <trkpt lat="43.72696" lon="5.94614">
        <ele>485</ele>
        <time>2016-04-23T08:15:41.000Z</time>
      </trkpt>
      <trkpt lat="43.72696" lon="5.94614">
        <ele>485</ele>
        <time>2016-04-23T08:15:43.000Z</time>
      </trkpt>
      <trkpt lat="43.72677" lon="5.94584">
        <ele>503</ele>
        <time>2016-04-23T08:16:50.000Z</time>
      </trkpt>
      <trkpt lat="43.7267" lon="5.94573">
        <ele>502</ele>
        <time>2016-04-23T08:16:58.000Z</time>
      </trkpt>
      <trkpt lat="43.72666" lon="5.94561">
        <ele>504</ele>
        <time>2016-04-23T08:17:06.000Z</time>
      </trkpt>
      <trkpt lat="43.72664" lon="5.94546">
        <ele>506</ele>
        <time>2016-04-23T08:17:14.000Z</time>
      </trkpt>
      <trkpt lat="43.72661" lon="5.94531">
        <ele>503</ele>
        <time>2016-04-23T08:17:22.000Z</time>
      </trkpt>
      <trkpt lat="43.72654" lon="5.94517">
        <ele>503</ele>
        <time>2016-04-23T08:17:30.000Z</time>
      </trkpt>
      <trkpt lat="43.72644" lon="5.94507">
        <ele>503</ele>
        <time>2016-04-23T08:17:38.000Z</time>
      </trkpt>
      <trkpt lat="43.72635" lon="5.94505">
        <ele>504</ele>
        <time>2016-04-23T08:17:44.000Z</time>
      </trkpt>
      <trkpt lat="43.72626" lon="5.94506">
        <ele>503</ele>
        <time>2016-04-23T08:17:50.000Z</time>
      </trkpt>
      <trkpt lat="43.72614" lon="5.94507">
        <ele>504</ele>
        <time>2016-04-23T08:17:58.000Z</time>
      </trkpt>
      <trkpt lat="43.72614" lon="5.94507">
        <ele>504</ele>
        <time>2016-04-23T08:18:00.000Z</time>
      </trkpt>
      <trkpt lat="43.72614" lon="5.94507">
        <ele>504</ele>
        <time>2016-04-23T08:18:02.000Z</time>
      </trkpt>
      <trkpt lat="43.72614" lon="5.94507">
        <ele>504</ele>
        <time>2016-04-23T08:18:04.000Z</time>
      </trkpt>
      <trkpt lat="43.72614" lon="5.94507">
        <ele>504</ele>
        <time>2016-04-23T08:18:06.000Z</time>
      </trkpt>
      <trkpt lat="43.72614" lon="5.94507">
        <ele>504</ele>
        <time>2016-04-23T08:18:08.000Z</time>
      </trkpt>
      <trkpt lat="43.72614" lon="5.94507">
        <ele>504</ele>
        <time>2016-04-23T08:18:10.000Z</time>
      </trkpt>
      <trkpt lat="43.72614" lon="5.94507">
        <ele>504</ele>
        <time>2016-04-23T08:18:12.000Z</time>
      </trkpt>
      <trkpt lat="43.72614" lon="5.94507">
        <ele>504</ele>
        <time>2016-04-23T08:18:14.000Z</time>
      </trkpt>
      <trkpt lat="43.72614" lon="5.94507">
        <ele>504</ele>
        <time>2016-04-23T08:18:16.000Z</time>
      </trkpt>
      <trkpt lat="43.72597" lon="5.94513">
        <ele>507</ele>
        <time>2016-04-23T08:18:18.000Z</time>
      </trkpt>
      <trkpt lat="43.72586" lon="5.94517">
        <ele>506</ele>
        <time>2016-04-23T08:18:20.000Z</time>
      </trkpt>
      <trkpt lat="43.72578" lon="5.94521">
        <ele>508</ele>
        <time>2016-04-23T08:18:22.000Z</time>
      </trkpt>
      <trkpt lat="43.72573" lon="5.94523">
        <ele>506</ele>
        <time>2016-04-23T08:18:24.000Z</time>
      </trkpt>
      <trkpt lat="43.72569" lon="5.94525">
        <ele>505</ele>
        <time>2016-04-23T08:18:26.000Z</time>
      </trkpt>
      <trkpt lat="43.72569" lon="5.94525">
        <ele>505</ele>
        <time>2016-04-23T08:18:28.000Z</time>
      </trkpt>
      <trkpt lat="43.72569" lon="5.94525">
        <ele>505</ele>
        <time>2016-04-23T08:18:30.000Z</time>
      </trkpt>
      <trkpt lat="43.72569" lon="5.94525">
        <ele>505</ele>
        <time>2016-04-23T08:18:32.000Z</time>
      </trkpt>
      <trkpt lat="43.72569" lon="5.94525">
        <ele>505</ele>
        <time>2016-04-23T08:18:34.000Z</time>
      </trkpt>
      <trkpt lat="43.72569" lon="5.94525">
        <ele>505</ele>
        <time>2016-04-23T08:18:36.000Z</time>
      </trkpt>
      <trkpt lat="43.72569" lon="5.94525">
        <ele>505</ele>
        <time>2016-04-23T08:18:38.000Z</time>
      </trkpt>
      <trkpt lat="43.72569" lon="5.94525">
        <ele>505</ele>
        <time>2016-04-23T08:18:40.000Z</time>
      </trkpt>
      <trkpt lat="43.72569" lon="5.94525">
        <ele>505</ele>
        <time>2016-04-23T08:18:42.000Z</time>
      </trkpt>
      <trkpt lat="43.72569" lon="5.94525">
        <ele>505</ele>
        <time>2016-04-23T08:18:44.000Z</time>
      </trkpt>
      <trkpt lat="43.72569" lon="5.94525">
        <ele>505</ele>
        <time>2016-04-23T08:18:46.000Z</time>
      </trkpt>
      <trkpt lat="43.72569" lon="5.94525">
        <ele>505</ele>
        <time>2016-04-23T08:18:48.000Z</time>
      </trkpt>
      <trkpt lat="43.72569" lon="5.94525">
        <ele>505</ele>
        <time>2016-04-23T08:18:50.000Z</time>
      </trkpt>
      <trkpt lat="43.72569" lon="5.94525">
        <ele>505</ele>
        <time>2016-04-23T08:18:52.000Z</time>
      </trkpt>
      <trkpt lat="43.72569" lon="5.94525">
        <ele>505</ele>
        <time>2016-04-23T08:18:54.000Z</time>
      </trkpt>
      <trkpt lat="43.72569" lon="5.94525">
        <ele>505</ele>
        <time>2016-04-23T08:18:56.000Z</time>
      </trkpt>
      <trkpt lat="43.72569" lon="5.94525">
        <ele>505</ele>
        <time>2016-04-23T08:18:58.000Z</time>
      </trkpt>
      <trkpt lat="43.72569" lon="5.94525">
        <ele>505</ele>
        <time>2016-04-23T08:19:00.000Z</time>
      </trkpt>
      <trkpt lat="43.72569" lon="5.94525">
        <ele>505</ele>
        <time>2016-04-23T08:19:02.000Z</time>
      </trkpt>
      <trkpt lat="43.72569" lon="5.94525">
        <ele>505</ele>
        <time>2016-04-23T08:19:04.000Z</time>
      </trkpt>
      <trkpt lat="43.72501" lon="5.94575">
        <ele>517</ele>
        <time>2016-04-23T08:19:10.000Z</time>
      </trkpt>
      <trkpt lat="43.72492" lon="5.94586">
        <ele>514</ele>
        <time>2016-04-23T08:19:16.000Z</time>
      </trkpt>
      <trkpt lat="43.72485" lon="5.94595">
        <ele>514</ele>
        <time>2016-04-23T08:19:20.000Z</time>
      </trkpt>
      <trkpt lat="43.72479" lon="5.94604">
        <ele>514</ele>
        <time>2016-04-23T08:19:24.000Z</time>
      </trkpt>
      <trkpt lat="43.7247" lon="5.94615">
        <ele>514</ele>
        <time>2016-04-23T08:19:30.000Z</time>
      </trkpt>
      <trkpt lat="43.72461" lon="5.94622">
        <ele>516</ele>
        <time>2016-04-23T08:19:36.000Z</time>
      </trkpt>
      <trkpt lat="43.72461" lon="5.94622">
        <ele>516</ele>
        <time>2016-04-23T08:19:38.000Z</time>
      </trkpt>
      <trkpt lat="43.72461" lon="5.94622">
        <ele>516</ele>
        <time>2016-04-23T08:19:40.000Z</time>
      </trkpt>
      <trkpt lat="43.72461" lon="5.94622">
        <ele>516</ele>
        <time>2016-04-23T08:19:42.000Z</time>
      </trkpt>
      <trkpt lat="43.72461" lon="5.94622">
        <ele>516</ele>
        <time>2016-04-23T08:19:44.000Z</time>
      </trkpt>
      <trkpt lat="43.72453" lon="5.94626">
        <ele>519</ele>
        <time>2016-04-23T08:20:06.000Z</time>
      </trkpt>
      <trkpt lat="43.72447" lon="5.94638">
        <ele>517</ele>
        <time>2016-04-23T08:20:14.000Z</time>
      </trkpt>
      <trkpt lat="43.72441" lon="5.9465">
        <ele>518</ele>
        <time>2016-04-23T08:20:22.000Z</time>
      </trkpt>
      <trkpt lat="43.72445" lon="5.94664">
        <ele>519</ele>
        <time>2016-04-23T08:20:32.000Z</time>
      </trkpt>
      <trkpt lat="43.72453" lon="5.94674">
        <ele>521</ele>
        <time>2016-04-23T08:20:40.000Z</time>
      </trkpt>
      <trkpt lat="43.72461" lon="5.94685">
        <ele>522</ele>
        <time>2016-04-23T08:20:48.000Z</time>
      </trkpt>
      <trkpt lat="43.72471" lon="5.94694">
        <ele>523</ele>
        <time>2016-04-23T08:20:56.000Z</time>
      </trkpt>
      <trkpt lat="43.72481" lon="5.94694">
        <ele>526</ele>
        <time>2016-04-23T08:21:02.000Z</time>
      </trkpt>
      <trkpt lat="43.72492" lon="5.9469">
        <ele>525</ele>
        <time>2016-04-23T08:21:08.000Z</time>
      </trkpt>
      <trkpt lat="43.72503" lon="5.94685">
        <ele>527</ele>
        <time>2016-04-23T08:21:14.000Z</time>
      </trkpt>
      <trkpt lat="43.72512" lon="5.94677">
        <ele>527</ele>
        <time>2016-04-23T08:21:20.000Z</time>
      </trkpt>
      <trkpt lat="43.72521" lon="5.94666">
        <ele>527</ele>
        <time>2016-04-23T08:21:26.000Z</time>
      </trkpt>
      <trkpt lat="43.72521" lon="5.94666">
        <ele>527</ele>
        <time>2016-04-23T08:21:28.000Z</time>
      </trkpt>
      <trkpt lat="43.72521" lon="5.94666">
        <ele>527</ele>
        <time>2016-04-23T08:21:30.000Z</time>
      </trkpt>
      <trkpt lat="43.72521" lon="5.94666">
        <ele>527</ele>
        <time>2016-04-23T08:21:32.000Z</time>
      </trkpt>
      <trkpt lat="43.72521" lon="5.94666">
        <ele>527</ele>
        <time>2016-04-23T08:21:34.000Z</time>
      </trkpt>
      <trkpt lat="43.72521" lon="5.94666">
        <ele>527</ele>
        <time>2016-04-23T08:21:36.000Z</time>
      </trkpt>
      <trkpt lat="43.72521" lon="5.94666">
        <ele>527</ele>
        <time>2016-04-23T08:21:38.000Z</time>
      </trkpt>
      <trkpt lat="43.72521" lon="5.94666">
        <ele>527</ele>
        <time>2016-04-23T08:21:40.000Z</time>
      </trkpt>
      <trkpt lat="43.72533" lon="5.94659">
        <ele>530</ele>
        <time>2016-04-23T08:21:44.000Z</time>
      </trkpt>
      <trkpt lat="43.72541" lon="5.94655">
        <ele>530</ele>
        <time>2016-04-23T08:21:46.000Z</time>
      </trkpt>
      <trkpt lat="43.72547" lon="5.94652">
        <ele>530</ele>
        <time>2016-04-23T08:21:48.000Z</time>
      </trkpt>
      <trkpt lat="43.72552" lon="5.9465">
        <ele>531</ele>
        <time>2016-04-23T08:21:50.000Z</time>
      </trkpt>
      <trkpt lat="43.72556" lon="5.94648">
        <ele>531</ele>
        <time>2016-04-23T08:21:52.000Z</time>
      </trkpt>
      <trkpt lat="43.72568" lon="5.94644">
        <ele>532</ele>
        <time>2016-04-23T08:21:56.000Z</time>
      </trkpt>
      <trkpt lat="43.72578" lon="5.94648">
        <ele>533</ele>
        <time>2016-04-23T08:22:02.000Z</time>
      </trkpt>
      <trkpt lat="43.72588" lon="5.94651">
        <ele>532</ele>
        <time>2016-04-23T08:22:08.000Z</time>
      </trkpt>
      <trkpt lat="43.72598" lon="5.94661">
        <ele>532</ele>
        <time>2016-04-23T08:22:14.000Z</time>
      </trkpt>
      <trkpt lat="43.72598" lon="5.94661">
        <ele>532</ele>
        <time>2016-04-23T08:22:18.000Z</time>
      </trkpt>
      <trkpt lat="43.72598" lon="5.94661">
        <ele>532</ele>
        <time>2016-04-23T08:22:20.000Z</time>
      </trkpt>
      <trkpt lat="43.72598" lon="5.94661">
        <ele>532</ele>
        <time>2016-04-23T08:22:22.000Z</time>
      </trkpt>
      <trkpt lat="43.72598" lon="5.94661">
        <ele>532</ele>
        <time>2016-04-23T08:22:24.000Z</time>
      </trkpt>
      <trkpt lat="43.72598" lon="5.94661">
        <ele>532</ele>
        <time>2016-04-23T08:22:26.000Z</time>
      </trkpt>
      <trkpt lat="43.72601" lon="5.94691">
        <ele>531</ele>
        <time>2016-04-23T08:22:30.000Z</time>
      </trkpt>
      <trkpt lat="43.72591" lon="5.94701">
        <ele>530</ele>
        <time>2016-04-23T08:22:36.000Z</time>
      </trkpt>
      <trkpt lat="43.72586" lon="5.94716">
        <ele>531</ele>
        <time>2016-04-23T08:22:42.000Z</time>
      </trkpt>
      <trkpt lat="43.72581" lon="5.94729">
        <ele>536</ele>
        <time>2016-04-23T08:22:48.000Z</time>
      </trkpt>
      <trkpt lat="43.72581" lon="5.94729">
        <ele>536</ele>
        <time>2016-04-23T08:22:50.000Z</time>
      </trkpt>
      <trkpt lat="43.72581" lon="5.94729">
        <ele>536</ele>
        <time>2016-04-23T08:22:52.000Z</time>
      </trkpt>
      <trkpt lat="43.72581" lon="5.94729">
        <ele>536</ele>
        <time>2016-04-23T08:22:54.000Z</time>
      </trkpt>
      <trkpt lat="43.72581" lon="5.94729">
        <ele>536</ele>
        <time>2016-04-23T08:22:56.000Z</time>
      </trkpt>
      <trkpt lat="43.72581" lon="5.94729">
        <ele>536</ele>
        <time>2016-04-23T08:22:58.000Z</time>
      </trkpt>
      <trkpt lat="43.72581" lon="5.94729">
        <ele>536</ele>
        <time>2016-04-23T08:23:00.000Z</time>
      </trkpt>
      <trkpt lat="43.72581" lon="5.94729">
        <ele>536</ele>
        <time>2016-04-23T08:23:02.000Z</time>
      </trkpt>
      <trkpt lat="43.72581" lon="5.94729">
        <ele>536</ele>
        <time>2016-04-23T08:23:04.000Z</time>
      </trkpt>
      <trkpt lat="43.72564" lon="5.94764">
        <ele>539</ele>
        <time>2016-04-23T08:23:06.000Z</time>
      </trkpt>
      <trkpt lat="43.7256" lon="5.94771">
        <ele>539</ele>
        <time>2016-04-23T08:23:12.000Z</time>
      </trkpt>
      <trkpt lat="43.72558" lon="5.94778">
        <ele>538</ele>
        <time>2016-04-23T08:23:14.000Z</time>
      </trkpt>
      <trkpt lat="43.72557" lon="5.94784">
        <ele>538</ele>
        <time>2016-04-23T08:23:16.000Z</time>
      </trkpt>
      <trkpt lat="43.72557" lon="5.94793">
        <ele>540</ele>
        <time>2016-04-23T08:23:20.000Z</time>
      </trkpt>
      <trkpt lat="43.72556" lon="5.94799">
        <ele>540</ele>
        <time>2016-04-23T08:23:22.000Z</time>
      </trkpt>
      <trkpt lat="43.72556" lon="5.94799">
        <ele>540</ele>
        <time>2016-04-23T08:23:24.000Z</time>
      </trkpt>
      <trkpt lat="43.72556" lon="5.94799">
        <ele>540</ele>
        <time>2016-04-23T08:23:26.000Z</time>
      </trkpt>
      <trkpt lat="43.72556" lon="5.94799">
        <ele>540</ele>
        <time>2016-04-23T08:23:28.000Z</time>
      </trkpt>
      <trkpt lat="43.72556" lon="5.94799">
        <ele>540</ele>
        <time>2016-04-23T08:23:30.000Z</time>
      </trkpt>
      <trkpt lat="43.72556" lon="5.94799">
        <ele>540</ele>
        <time>2016-04-23T08:23:32.000Z</time>
      </trkpt>
      <trkpt lat="43.72556" lon="5.94799">
        <ele>540</ele>
        <time>2016-04-23T08:23:34.000Z</time>
      </trkpt>
      <trkpt lat="43.72556" lon="5.94799">
        <ele>540</ele>
        <time>2016-04-23T08:23:36.000Z</time>
      </trkpt>
      <trkpt lat="43.72556" lon="5.94799">
        <ele>540</ele>
        <time>2016-04-23T08:23:38.000Z</time>
      </trkpt>
      <trkpt lat="43.72556" lon="5.94799">
        <ele>540</ele>
        <time>2016-04-23T08:23:40.000Z</time>
      </trkpt>
      <trkpt lat="43.72556" lon="5.94799">
        <ele>540</ele>
        <time>2016-04-23T08:23:42.000Z</time>
      </trkpt>
      <trkpt lat="43.72556" lon="5.94799">
        <ele>540</ele>
        <time>2016-04-23T08:23:44.000Z</time>
      </trkpt>
      <trkpt lat="43.72556" lon="5.94799">
        <ele>540</ele>
        <time>2016-04-23T08:23:46.000Z</time>
      </trkpt>
      <trkpt lat="43.72556" lon="5.94799">
        <ele>540</ele>
        <time>2016-04-23T08:23:48.000Z</time>
      </trkpt>
      <trkpt lat="43.72556" lon="5.94799">
        <ele>540</ele>
        <time>2016-04-23T08:23:50.000Z</time>
      </trkpt>
      <trkpt lat="43.72556" lon="5.94799">
        <ele>540</ele>
        <time>2016-04-23T08:23:52.000Z</time>
      </trkpt>
      <trkpt lat="43.72556" lon="5.94799">
        <ele>540</ele>
        <time>2016-04-23T08:23:54.000Z</time>
      </trkpt>
      <trkpt lat="43.72556" lon="5.94799">
        <ele>540</ele>
        <time>2016-04-23T08:23:56.000Z</time>
      </trkpt>
      <trkpt lat="43.72547" lon="5.94838">
        <ele>542</ele>
        <time>2016-04-23T08:23:58.000Z</time>
      </trkpt>
      <trkpt lat="43.72542" lon="5.9486">
        <ele>541</ele>
        <time>2016-04-23T08:24:00.000Z</time>
      </trkpt>
      <trkpt lat="43.72539" lon="5.94874">
        <ele>540</ele>
        <time>2016-04-23T08:24:02.000Z</time>
      </trkpt>
      <trkpt lat="43.72536" lon="5.94883">
        <ele>538</ele>
        <time>2016-04-23T08:24:04.000Z</time>
      </trkpt>
      <trkpt lat="43.72534" lon="5.9489">
        <ele>539</ele>
        <time>2016-04-23T08:24:06.000Z</time>
      </trkpt>
      <trkpt lat="43.7253" lon="5.94901">
        <ele>539</ele>
        <time>2016-04-23T08:24:08.000Z</time>
      </trkpt>
      <trkpt lat="43.7253" lon="5.94901">
        <ele>539</ele>
        <time>2016-04-23T08:24:10.000Z</time>
      </trkpt>
      <trkpt lat="43.7253" lon="5.94901">
        <ele>539</ele>
        <time>2016-04-23T08:24:12.000Z</time>
      </trkpt>
      <trkpt lat="43.7253" lon="5.94901">
        <ele>539</ele>
        <time>2016-04-23T08:24:14.000Z</time>
      </trkpt>
      <trkpt lat="43.7253" lon="5.94901">
        <ele>539</ele>
        <time>2016-04-23T08:24:16.000Z</time>
      </trkpt>
      <trkpt lat="43.7253" lon="5.94901">
        <ele>539</ele>
        <time>2016-04-23T08:24:18.000Z</time>
      </trkpt>
      <trkpt lat="43.72517" lon="5.94934">
        <ele>539</ele>
        <time>2016-04-23T08:24:22.000Z</time>
      </trkpt>
      <trkpt lat="43.72505" lon="5.94953">
        <ele>539</ele>
        <time>2016-04-23T08:24:26.000Z</time>
      </trkpt>
      <trkpt lat="43.72494" lon="5.94965">
        <ele>539</ele>
        <time>2016-04-23T08:24:28.000Z</time>
      </trkpt>
      <trkpt lat="43.72483" lon="5.94971">
        <ele>538</ele>
        <time>2016-04-23T08:24:30.000Z</time>
      </trkpt>
      <trkpt lat="43.72471" lon="5.94976">
        <ele>538</ele>
        <time>2016-04-23T08:24:32.000Z</time>
      </trkpt>
      <trkpt lat="43.72464" lon="5.94969">
        <ele>539</ele>
        <time>2016-04-23T08:24:35.000Z</time>
      </trkpt>
      <trkpt lat="43.72464" lon="5.94969">
        <ele>539</ele>
        <time>2016-04-23T08:24:37.000Z</time>
      </trkpt>
      <trkpt lat="43.72435" lon="5.94952">
        <ele>538</ele>
        <time>2016-04-23T08:24:41.000Z</time>
      </trkpt>
      <trkpt lat="43.72424" lon="5.94947">
        <ele>538</ele>
        <time>2016-04-23T08:24:43.000Z</time>
      </trkpt>
      <trkpt lat="43.72411" lon="5.9494">
        <ele>538</ele>
        <time>2016-04-23T08:24:45.000Z</time>
      </trkpt>
      <trkpt lat="43.72395" lon="5.94936">
        <ele>538</ele>
        <time>2016-04-23T08:24:47.000Z</time>
      </trkpt>
      <trkpt lat="43.7238" lon="5.94941">
        <ele>537</ele>
        <time>2016-04-23T08:24:50.000Z</time>
      </trkpt>
      <trkpt lat="43.72378" lon="5.94954">
        <ele>536</ele>
        <time>2016-04-23T08:24:52.000Z</time>
      </trkpt>
      <trkpt lat="43.72378" lon="5.94954">
        <ele>536</ele>
        <time>2016-04-23T08:24:54.000Z</time>
      </trkpt>
      <trkpt lat="43.72378" lon="5.94954">
        <ele>536</ele>
        <time>2016-04-23T08:24:56.000Z</time>
      </trkpt>
      <trkpt lat="43.72378" lon="5.94954">
        <ele>536</ele>
        <time>2016-04-23T08:24:58.000Z</time>
      </trkpt>
      <trkpt lat="43.72378" lon="5.94954">
        <ele>536</ele>
        <time>2016-04-23T08:25:00.000Z</time>
      </trkpt>
      <trkpt lat="43.72378" lon="5.94954">
        <ele>536</ele>
        <time>2016-04-23T08:25:02.000Z</time>
      </trkpt>
      <trkpt lat="43.72378" lon="5.94954">
        <ele>536</ele>
        <time>2016-04-23T08:25:04.000Z</time>
      </trkpt>
      <trkpt lat="43.72378" lon="5.94954">
        <ele>536</ele>
        <time>2016-04-23T08:25:06.000Z</time>
      </trkpt>
      <trkpt lat="43.72378" lon="5.94954">
        <ele>536</ele>
        <time>2016-04-23T08:25:08.000Z</time>
      </trkpt>
      <trkpt lat="43.724" lon="5.95078">
        <ele>533</ele>
        <time>2016-04-23T08:25:14.000Z</time>
      </trkpt>
      <trkpt lat="43.72412" lon="5.95094">
        <ele>535</ele>
        <time>2016-04-23T08:25:18.000Z</time>
      </trkpt>
      <trkpt lat="43.72412" lon="5.95094">
        <ele>535</ele>
        <time>2016-04-23T08:25:20.000Z</time>
      </trkpt>
      <trkpt lat="43.72412" lon="5.95094">
        <ele>535</ele>
        <time>2016-04-23T08:25:22.000Z</time>
      </trkpt>
      <trkpt lat="43.72412" lon="5.95094">
        <ele>535</ele>
        <time>2016-04-23T08:25:24.000Z</time>
      </trkpt>
      <trkpt lat="43.72412" lon="5.95094">
        <ele>535</ele>
        <time>2016-04-23T08:25:26.000Z</time>
      </trkpt>
      <trkpt lat="43.72412" lon="5.95094">
        <ele>535</ele>
        <time>2016-04-23T08:25:28.000Z</time>
      </trkpt>
      <trkpt lat="43.72412" lon="5.95094">
        <ele>535</ele>
        <time>2016-04-23T08:25:30.000Z</time>
      </trkpt>
      <trkpt lat="43.72412" lon="5.95094">
        <ele>535</ele>
        <time>2016-04-23T08:25:32.000Z</time>
      </trkpt>
      <trkpt lat="43.72412" lon="5.95094">
        <ele>535</ele>
        <time>2016-04-23T08:25:34.000Z</time>
      </trkpt>
      <trkpt lat="43.72412" lon="5.95094">
        <ele>535</ele>
        <time>2016-04-23T08:25:36.000Z</time>
      </trkpt>
      <trkpt lat="43.72412" lon="5.95094">
        <ele>535</ele>
        <time>2016-04-23T08:25:38.000Z</time>
      </trkpt>
      <trkpt lat="43.72412" lon="5.95094">
        <ele>535</ele>
        <time>2016-04-23T08:25:40.000Z</time>
      </trkpt>
      <trkpt lat="43.72412" lon="5.95094">
        <ele>535</ele>
        <time>2016-04-23T08:25:42.000Z</time>
      </trkpt>
      <trkpt lat="43.72412" lon="5.95094">
        <ele>535</ele>
        <time>2016-04-23T08:25:44.000Z</time>
      </trkpt>
      <trkpt lat="43.72412" lon="5.95094">
        <ele>535</ele>
        <time>2016-04-23T08:25:46.000Z</time>
      </trkpt>
      <trkpt lat="43.72412" lon="5.95094">
        <ele>535</ele>
        <time>2016-04-23T08:25:48.000Z</time>
      </trkpt>
      <trkpt lat="43.72412" lon="5.95094">
        <ele>535</ele>
        <time>2016-04-23T08:25:50.000Z</time>
      </trkpt>
      <trkpt lat="43.72412" lon="5.95094">
        <ele>535</ele>
        <time>2016-04-23T08:25:52.000Z</time>
      </trkpt>
      <trkpt lat="43.72412" lon="5.95094">
        <ele>535</ele>
        <time>2016-04-23T08:25:54.000Z</time>
      </trkpt>
      <trkpt lat="43.72412" lon="5.95094">
        <ele>535</ele>
        <time>2016-04-23T08:25:56.000Z</time>
      </trkpt>
      <trkpt lat="43.72412" lon="5.95094">
        <ele>535</ele>
        <time>2016-04-23T08:25:58.000Z</time>
      </trkpt>
      <trkpt lat="43.72412" lon="5.95094">
        <ele>535</ele>
        <time>2016-04-23T08:26:00.000Z</time>
      </trkpt>
      <trkpt lat="43.72412" lon="5.95094">
        <ele>535</ele>
        <time>2016-04-23T08:26:02.000Z</time>
      </trkpt>
      <trkpt lat="43.72412" lon="5.95094">
        <ele>535</ele>
        <time>2016-04-23T08:26:04.000Z</time>
      </trkpt>
      <trkpt lat="43.72412" lon="5.95094">
        <ele>535</ele>
        <time>2016-04-23T08:26:06.000Z</time>
      </trkpt>
      <trkpt lat="43.72412" lon="5.95094">
        <ele>535</ele>
        <time>2016-04-23T08:26:08.000Z</time>
      </trkpt>
      <trkpt lat="43.72412" lon="5.95094">
        <ele>535</ele>
        <time>2016-04-23T08:26:10.000Z</time>
      </trkpt>
      <trkpt lat="43.72412" lon="5.95094">
        <ele>535</ele>
        <time>2016-04-23T08:26:12.000Z</time>
      </trkpt>
      <trkpt lat="43.72412" lon="5.95094">
        <ele>535</ele>
        <time>2016-04-23T08:26:14.000Z</time>
      </trkpt>
      <trkpt lat="43.72412" lon="5.95094">
        <ele>535</ele>
        <time>2016-04-23T08:26:16.000Z</time>
      </trkpt>
      <trkpt lat="43.72412" lon="5.95094">
        <ele>535</ele>
        <time>2016-04-23T08:26:18.000Z</time>
      </trkpt>
      <trkpt lat="43.72412" lon="5.95094">
        <ele>535</ele>
        <time>2016-04-23T08:26:20.000Z</time>
      </trkpt>
      <trkpt lat="43.72412" lon="5.95094">
        <ele>535</ele>
        <time>2016-04-23T08:26:22.000Z</time>
      </trkpt>
      <trkpt lat="43.72456" lon="5.95174">
        <ele>541</ele>
        <time>2016-04-23T08:26:24.000Z</time>
      </trkpt>
      <trkpt lat="43.7248" lon="5.95217">
        <ele>541</ele>
        <time>2016-04-23T08:26:26.000Z</time>
      </trkpt>
      <trkpt lat="43.72494" lon="5.95241">
        <ele>540</ele>
        <time>2016-04-23T08:26:28.000Z</time>
      </trkpt>
      <trkpt lat="43.72502" lon="5.95256">
        <ele>541</ele>
        <time>2016-04-23T08:26:30.000Z</time>
      </trkpt>
      <trkpt lat="43.72508" lon="5.95267">
        <ele>541</ele>
        <time>2016-04-23T08:26:32.000Z</time>
      </trkpt>
      <trkpt lat="43.72517" lon="5.95289">
        <ele>540</ele>
        <time>2016-04-23T08:26:34.000Z</time>
      </trkpt>
      <trkpt lat="43.72525" lon="5.95308">
        <ele>541</ele>
        <time>2016-04-23T08:26:38.000Z</time>
      </trkpt>
      <trkpt lat="43.7253" lon="5.95326">
        <ele>540</ele>
        <time>2016-04-23T08:26:42.000Z</time>
      </trkpt>
      <trkpt lat="43.72531" lon="5.95345">
        <ele>539</ele>
        <time>2016-04-23T08:26:46.000Z</time>
      </trkpt>
      <trkpt lat="43.72531" lon="5.95345">
        <ele>539</ele>
        <time>2016-04-23T08:26:48.000Z</time>
      </trkpt>
      <trkpt lat="43.72531" lon="5.95365">
        <ele>538</ele>
        <time>2016-04-23T08:26:50.000Z</time>
      </trkpt>
      <trkpt lat="43.72531" lon="5.95365">
        <ele>538</ele>
        <time>2016-04-23T08:26:52.000Z</time>
      </trkpt>
      <trkpt lat="43.72531" lon="5.95365">
        <ele>538</ele>
        <time>2016-04-23T08:26:54.000Z</time>
      </trkpt>
      <trkpt lat="43.72531" lon="5.95365">
        <ele>538</ele>
        <time>2016-04-23T08:26:56.000Z</time>
      </trkpt>
      <trkpt lat="43.72531" lon="5.95365">
        <ele>538</ele>
        <time>2016-04-23T08:26:58.000Z</time>
      </trkpt>
      <trkpt lat="43.72544" lon="5.95373">
        <ele>539</ele>
        <time>2016-04-23T08:27:25.000Z</time>
      </trkpt>
      <trkpt lat="43.72557" lon="5.95381">
        <ele>540</ele>
        <time>2016-04-23T08:27:31.000Z</time>
      </trkpt>
      <trkpt lat="43.72567" lon="5.9538">
        <ele>544</ele>
        <time>2016-04-23T08:27:35.000Z</time>
      </trkpt>
      <trkpt lat="43.72567" lon="5.9538">
        <ele>544</ele>
        <time>2016-04-23T08:27:37.000Z</time>
      </trkpt>
      <trkpt lat="43.72567" lon="5.9538">
        <ele>544</ele>
        <time>2016-04-23T08:27:39.000Z</time>
      </trkpt>
      <trkpt lat="43.72581" lon="5.95385">
        <ele>546</ele>
        <time>2016-04-23T08:27:41.000Z</time>
      </trkpt>
      <trkpt lat="43.72593" lon="5.95392">
        <ele>546</ele>
        <time>2016-04-23T08:27:45.000Z</time>
      </trkpt>
      <trkpt lat="43.72604" lon="5.95401">
        <ele>547</ele>
        <time>2016-04-23T08:27:49.000Z</time>
      </trkpt>
      <trkpt lat="43.72618" lon="5.95405">
        <ele>546</ele>
        <time>2016-04-23T08:27:53.000Z</time>
      </trkpt>
      <trkpt lat="43.72631" lon="5.95402">
        <ele>544</ele>
        <time>2016-04-23T08:27:57.000Z</time>
      </trkpt>
      <trkpt lat="43.72631" lon="5.95402">
        <ele>544</ele>
        <time>2016-04-23T08:27:59.000Z</time>
      </trkpt>
      <trkpt lat="43.72631" lon="5.95402">
        <ele>544</ele>
        <time>2016-04-23T08:28:01.000Z</time>
      </trkpt>
      <trkpt lat="43.72631" lon="5.95402">
        <ele>544</ele>
        <time>2016-04-23T08:28:03.000Z</time>
      </trkpt>
      <trkpt lat="43.72631" lon="5.95402">
        <ele>544</ele>
        <time>2016-04-23T08:28:05.000Z</time>
      </trkpt>
      <trkpt lat="43.72631" lon="5.95402">
        <ele>544</ele>
        <time>2016-04-23T08:28:07.000Z</time>
      </trkpt>
      <trkpt lat="43.72631" lon="5.95402">
        <ele>544</ele>
        <time>2016-04-23T08:28:09.000Z</time>
      </trkpt>
      <trkpt lat="43.72631" lon="5.95402">
        <ele>544</ele>
        <time>2016-04-23T08:28:11.000Z</time>
      </trkpt>
      <trkpt lat="43.72631" lon="5.95402">
        <ele>544</ele>
        <time>2016-04-23T08:28:13.000Z</time>
      </trkpt>
      <trkpt lat="43.72631" lon="5.95402">
        <ele>544</ele>
        <time>2016-04-23T08:28:15.000Z</time>
      </trkpt>
      <trkpt lat="43.72694" lon="5.95394">
        <ele>546</ele>
        <time>2016-04-23T08:28:23.000Z</time>
      </trkpt>
      <trkpt lat="43.72704" lon="5.95393">
        <ele>544</ele>
        <time>2016-04-23T08:28:27.000Z</time>
      </trkpt>
      <trkpt lat="43.72713" lon="5.95394">
        <ele>546</ele>
        <time>2016-04-23T08:28:31.000Z</time>
      </trkpt>
      <trkpt lat="43.72725" lon="5.95401">
        <ele>544</ele>
        <time>2016-04-23T08:28:37.000Z</time>
      </trkpt>
      <trkpt lat="43.72733" lon="5.95411">
        <ele>543</ele>
        <time>2016-04-23T08:28:41.000Z</time>
      </trkpt>
      <trkpt lat="43.72733" lon="5.95411">
        <ele>543</ele>
        <time>2016-04-23T08:28:45.000Z</time>
      </trkpt>
      <trkpt lat="43.72733" lon="5.95411">
        <ele>543</ele>
        <time>2016-04-23T08:28:47.000Z</time>
      </trkpt>
      <trkpt lat="43.72733" lon="5.95411">
        <ele>543</ele>
        <time>2016-04-23T08:28:49.000Z</time>
      </trkpt>
      <trkpt lat="43.72745" lon="5.95416">
        <ele>546</ele>
        <time>2016-04-23T08:28:53.000Z</time>
      </trkpt>
      <trkpt lat="43.72753" lon="5.9542">
        <ele>547</ele>
        <time>2016-04-23T08:28:55.000Z</time>
      </trkpt>
      <trkpt lat="43.72759" lon="5.95422">
        <ele>548</ele>
        <time>2016-04-23T08:28:57.000Z</time>
      </trkpt>
      <trkpt lat="43.72765" lon="5.95424">
        <ele>549</ele>
        <time>2016-04-23T08:28:59.000Z</time>
      </trkpt>
      <trkpt lat="43.7277" lon="5.95426">
        <ele>548</ele>
        <time>2016-04-23T08:29:01.000Z</time>
      </trkpt>
      <trkpt lat="43.72779" lon="5.9543">
        <ele>550</ele>
        <time>2016-04-23T08:29:03.000Z</time>
      </trkpt>
      <trkpt lat="43.72797" lon="5.95439">
        <ele>551</ele>
        <time>2016-04-23T08:29:07.000Z</time>
      </trkpt>
      <trkpt lat="43.72817" lon="5.95449">
        <ele>551</ele>
        <time>2016-04-23T08:29:11.000Z</time>
      </trkpt>
      <trkpt lat="43.7283" lon="5.95456">
        <ele>548</ele>
        <time>2016-04-23T08:29:13.000Z</time>
      </trkpt>
      <trkpt lat="43.72841" lon="5.95459">
        <ele>546</ele>
        <time>2016-04-23T08:29:15.000Z</time>
      </trkpt>
      <trkpt lat="43.72841" lon="5.95459">
        <ele>546</ele>
        <time>2016-04-23T08:29:17.000Z</time>
      </trkpt>
      <trkpt lat="43.72841" lon="5.95459">
        <ele>546</ele>
        <time>2016-04-23T08:29:19.000Z</time>
      </trkpt>
      <trkpt lat="43.72841" lon="5.95459">
        <ele>546</ele>
        <time>2016-04-23T08:29:21.000Z</time>
      </trkpt>
      <trkpt lat="43.72841" lon="5.95459">
        <ele>546</ele>
        <time>2016-04-23T08:29:29.000Z</time>
      </trkpt>
      <trkpt lat="43.72841" lon="5.95459">
        <ele>546</ele>
        <time>2016-04-23T08:29:37.000Z</time>
      </trkpt>
      <trkpt lat="43.72841" lon="5.95459">
        <ele>546</ele>
        <time>2016-04-23T08:29:39.000Z</time>
      </trkpt>
      <trkpt lat="43.72841" lon="5.95459">
        <ele>546</ele>
        <time>2016-04-23T08:29:41.000Z</time>
      </trkpt>
      <trkpt lat="43.72841" lon="5.95459">
        <ele>546</ele>
        <time>2016-04-23T08:29:43.000Z</time>
      </trkpt>
      <trkpt lat="43.72841" lon="5.95459">
        <ele>546</ele>
        <time>2016-04-23T08:29:45.000Z</time>
      </trkpt>
      <trkpt lat="43.72841" lon="5.95459">
        <ele>546</ele>
        <time>2016-04-23T08:29:47.000Z</time>
      </trkpt>
      <trkpt lat="43.72841" lon="5.95459">
        <ele>546</ele>
        <time>2016-04-23T08:29:51.000Z</time>
      </trkpt>
      <trkpt lat="43.72841" lon="5.95459">
        <ele>546</ele>
        <time>2016-04-23T08:29:54.000Z</time>
      </trkpt>
      <trkpt lat="43.72841" lon="5.95459">
        <ele>546</ele>
        <time>2016-04-23T08:29:56.000Z</time>
      </trkpt>
      <trkpt lat="43.73013" lon="5.95508">
        <ele>515</ele>
        <time>2016-04-23T08:30:02.000Z</time>
      </trkpt>
      <trkpt lat="43.73025" lon="5.95507">
        <ele>517</ele>
        <time>2016-04-23T08:30:06.000Z</time>
      </trkpt>
      <trkpt lat="43.73025" lon="5.95507">
        <ele>517</ele>
        <time>2016-04-23T08:30:08.000Z</time>
      </trkpt>
      <trkpt lat="43.73025" lon="5.95507">
        <ele>517</ele>
        <time>2016-04-23T08:30:10.000Z</time>
      </trkpt>
      <trkpt lat="43.73025" lon="5.95507">
        <ele>517</ele>
        <time>2016-04-23T08:30:12.000Z</time>
      </trkpt>
      <trkpt lat="43.73025" lon="5.95507">
        <ele>517</ele>
        <time>2016-04-23T08:30:20.000Z</time>
      </trkpt>
      <trkpt lat="43.73025" lon="5.95507">
        <ele>517</ele>
        <time>2016-04-23T08:30:22.000Z</time>
      </trkpt>
      <trkpt lat="43.73025" lon="5.95507">
        <ele>517</ele>
        <time>2016-04-23T08:30:24.000Z</time>
      </trkpt>
      <trkpt lat="43.73042" lon="5.9553">
        <ele>516</ele>
        <time>2016-04-23T08:30:30.000Z</time>
      </trkpt>
      <trkpt lat="43.73054" lon="5.95545">
        <ele>514</ele>
        <time>2016-04-23T08:30:32.000Z</time>
      </trkpt>
      <trkpt lat="43.73062" lon="5.95558">
        <ele>514</ele>
        <time>2016-04-23T08:30:34.000Z</time>
      </trkpt>
      <trkpt lat="43.73069" lon="5.95572">
        <ele>517</ele>
        <time>2016-04-23T08:30:36.000Z</time>
      </trkpt>
      <trkpt lat="43.73073" lon="5.95585">
        <ele>516</ele>
        <time>2016-04-23T08:30:38.000Z</time>
      </trkpt>
      <trkpt lat="43.73083" lon="5.9561">
        <ele>516</ele>
        <time>2016-04-23T08:30:40.000Z</time>
      </trkpt>
      <trkpt lat="43.73085" lon="5.95624">
        <ele>514</ele>
        <time>2016-04-23T08:30:42.000Z</time>
      </trkpt>
      <trkpt lat="43.73086" lon="5.95641">
        <ele>513</ele>
        <time>2016-04-23T08:30:44.000Z</time>
      </trkpt>
      <trkpt lat="43.73096" lon="5.95664">
        <ele>507</ele>
        <time>2016-04-23T08:30:48.000Z</time>
      </trkpt>
      <trkpt lat="43.73096" lon="5.95664">
        <ele>507</ele>
        <time>2016-04-23T08:30:50.000Z</time>
      </trkpt>
      <trkpt lat="43.73096" lon="5.95664">
        <ele>507</ele>
        <time>2016-04-23T08:30:52.000Z</time>
      </trkpt>
      <trkpt lat="43.73096" lon="5.95664">
        <ele>507</ele>
        <time>2016-04-23T08:30:54.000Z</time>
      </trkpt>
      <trkpt lat="43.73096" lon="5.95664">
        <ele>507</ele>
        <time>2016-04-23T08:30:56.000Z</time>
      </trkpt>
      <trkpt lat="43.7313" lon="5.95722">
        <ele>498</ele>
        <time>2016-04-23T08:31:02.000Z</time>
      </trkpt>
      <trkpt lat="43.7313" lon="5.95722">
        <ele>498</ele>
        <time>2016-04-23T08:31:04.000Z</time>
      </trkpt>
      <trkpt lat="43.7313" lon="5.95722">
        <ele>498</ele>
        <time>2016-04-23T08:31:06.000Z</time>
      </trkpt>
      <trkpt lat="43.7313" lon="5.95722">
        <ele>498</ele>
        <time>2016-04-23T08:31:08.000Z</time>
      </trkpt>
      <trkpt lat="43.73161" lon="5.95697">
        <ele>493</ele>
        <time>2016-04-23T08:31:13.000Z</time>
      </trkpt>
      <trkpt lat="43.73161" lon="5.95697">
        <ele>493</ele>
        <time>2016-04-23T08:31:15.000Z</time>
      </trkpt>
      <trkpt lat="43.73166" lon="5.95676">
        <ele>494</ele>
        <time>2016-04-23T08:31:17.000Z</time>
      </trkpt>
      <trkpt lat="43.73166" lon="5.95676">
        <ele>494</ele>
        <time>2016-04-23T08:31:19.000Z</time>
      </trkpt>
      <trkpt lat="43.73166" lon="5.95676">
        <ele>494</ele>
        <time>2016-04-23T08:31:23.000Z</time>
      </trkpt>
      <trkpt lat="43.73166" lon="5.95676">
        <ele>494</ele>
        <time>2016-04-23T08:31:25.000Z</time>
      </trkpt>
      <trkpt lat="43.73166" lon="5.95676">
        <ele>494</ele>
        <time>2016-04-23T08:31:27.000Z</time>
      </trkpt>
      <trkpt lat="43.73166" lon="5.95676">
        <ele>494</ele>
        <time>2016-04-23T08:31:29.000Z</time>
      </trkpt>
      <trkpt lat="43.73166" lon="5.95676">
        <ele>494</ele>
        <time>2016-04-23T08:31:31.000Z</time>
      </trkpt>
      <trkpt lat="43.73177" lon="5.95587">
        <ele>491</ele>
        <time>2016-04-23T08:31:37.000Z</time>
      </trkpt>
      <trkpt lat="43.73177" lon="5.95563">
        <ele>493</ele>
        <time>2016-04-23T08:31:41.000Z</time>
      </trkpt>
      <trkpt lat="43.73175" lon="5.9555">
        <ele>492</ele>
        <time>2016-04-23T08:31:43.000Z</time>
      </trkpt>
      <trkpt lat="43.7317" lon="5.95535">
        <ele>493</ele>
        <time>2016-04-23T08:31:45.000Z</time>
      </trkpt>
      <trkpt lat="43.73167" lon="5.95523">
        <ele>496</ele>
        <time>2016-04-23T08:31:48.000Z</time>
      </trkpt>
      <trkpt lat="43.73167" lon="5.95523">
        <ele>496</ele>
        <time>2016-04-23T08:31:50.000Z</time>
      </trkpt>
      <trkpt lat="43.73167" lon="5.95523">
        <ele>496</ele>
        <time>2016-04-23T08:31:52.000Z</time>
      </trkpt>
      <trkpt lat="43.73186" lon="5.95492">
        <ele>495</ele>
        <time>2016-04-23T08:31:56.000Z</time>
      </trkpt>
      <trkpt lat="43.73192" lon="5.95472">
        <ele>493</ele>
        <time>2016-04-23T08:32:00.000Z</time>
      </trkpt>
      <trkpt lat="43.73196" lon="5.95451">
        <ele>489</ele>
        <time>2016-04-23T08:32:04.000Z</time>
      </trkpt>
      <trkpt lat="43.73196" lon="5.95451">
        <ele>489</ele>
        <time>2016-04-23T08:32:06.000Z</time>
      </trkpt>
      <trkpt lat="43.73196" lon="5.95451">
        <ele>489</ele>
        <time>2016-04-23T08:32:08.000Z</time>
      </trkpt>
      <trkpt lat="43.73196" lon="5.95451">
        <ele>489</ele>
        <time>2016-04-23T08:32:10.000Z</time>
      </trkpt>
      <trkpt lat="43.73196" lon="5.95451">
        <ele>489</ele>
        <time>2016-04-23T08:32:12.000Z</time>
      </trkpt>
      <trkpt lat="43.73196" lon="5.95451">
        <ele>489</ele>
        <time>2016-04-23T08:32:14.000Z</time>
      </trkpt>
      <trkpt lat="43.73196" lon="5.95451">
        <ele>489</ele>
        <time>2016-04-23T08:32:16.000Z</time>
      </trkpt>
      <trkpt lat="43.73196" lon="5.95451">
        <ele>489</ele>
        <time>2016-04-23T08:32:18.000Z</time>
      </trkpt>
      <trkpt lat="43.73199" lon="5.95401">
        <ele>486</ele>
        <time>2016-04-23T08:33:19.000Z</time>
      </trkpt>
      <trkpt lat="43.73205" lon="5.95391">
        <ele>480</ele>
        <time>2016-04-23T08:33:27.000Z</time>
      </trkpt>
      <trkpt lat="43.73205" lon="5.95391">
        <ele>480</ele>
        <time>2016-04-23T08:33:35.000Z</time>
      </trkpt>
      <trkpt lat="43.73205" lon="5.95391">
        <ele>480</ele>
        <time>2016-04-23T08:33:37.000Z</time>
      </trkpt>
      <trkpt lat="43.73224" lon="5.95398">
        <ele>478</ele>
        <time>2016-04-23T08:33:42.000Z</time>
      </trkpt>
      <trkpt lat="43.73237" lon="5.95413">
        <ele>477</ele>
        <time>2016-04-23T08:33:46.000Z</time>
      </trkpt>
      <trkpt lat="43.73241" lon="5.9543">
        <ele>475</ele>
        <time>2016-04-23T08:33:50.000Z</time>
      </trkpt>
      <trkpt lat="43.73252" lon="5.95454">
        <ele>471</ele>
        <time>2016-04-23T08:33:54.000Z</time>
      </trkpt>
      <trkpt lat="43.73259" lon="5.95469">
        <ele>469</ele>
        <time>2016-04-23T08:33:56.000Z</time>
      </trkpt>
      <trkpt lat="43.73265" lon="5.95484">
        <ele>469</ele>
        <time>2016-04-23T08:33:58.000Z</time>
      </trkpt>
      <trkpt lat="43.73269" lon="5.95499">
        <ele>468</ele>
        <time>2016-04-23T08:34:00.000Z</time>
      </trkpt>
      <trkpt lat="43.73275" lon="5.95512">
        <ele>466</ele>
        <time>2016-04-23T08:34:02.000Z</time>
      </trkpt>
      <trkpt lat="43.73282" lon="5.9552">
        <ele>467</ele>
        <time>2016-04-23T08:34:04.000Z</time>
      </trkpt>
      <trkpt lat="43.73282" lon="5.9552">
        <ele>467</ele>
        <time>2016-04-23T08:34:06.000Z</time>
      </trkpt>
      <trkpt lat="43.73282" lon="5.9552">
        <ele>467</ele>
        <time>2016-04-23T08:34:08.000Z</time>
      </trkpt>
      <trkpt lat="43.73282" lon="5.9552">
        <ele>467</ele>
        <time>2016-04-23T08:34:10.000Z</time>
      </trkpt>
      <trkpt lat="43.73282" lon="5.9552">
        <ele>467</ele>
        <time>2016-04-23T08:34:12.000Z</time>
      </trkpt>
      <trkpt lat="43.73291" lon="5.95537">
        <ele>464</ele>
        <time>2016-04-23T08:34:42.000Z</time>
      </trkpt>
      <trkpt lat="43.73302" lon="5.95555">
        <ele>461</ele>
        <time>2016-04-23T08:34:46.000Z</time>
      </trkpt>
      <trkpt lat="43.73302" lon="5.95569">
        <ele>461</ele>
        <time>2016-04-23T08:34:48.000Z</time>
      </trkpt>
      <trkpt lat="43.73301" lon="5.95582">
        <ele>459</ele>
        <time>2016-04-23T08:34:50.000Z</time>
      </trkpt>
      <trkpt lat="43.73301" lon="5.95595">
        <ele>458</ele>
        <time>2016-04-23T08:34:52.000Z</time>
      </trkpt>
      <trkpt lat="43.73298" lon="5.95608">
        <ele>458</ele>
        <time>2016-04-23T08:34:54.000Z</time>
      </trkpt>
      <trkpt lat="43.73299" lon="5.9562">
        <ele>458</ele>
        <time>2016-04-23T08:34:56.000Z</time>
      </trkpt>
      <trkpt lat="43.73299" lon="5.9562">
        <ele>458</ele>
        <time>2016-04-23T08:34:58.000Z</time>
      </trkpt>
      <trkpt lat="43.73299" lon="5.9562">
        <ele>458</ele>
        <time>2016-04-23T08:35:00.000Z</time>
      </trkpt>
      <trkpt lat="43.73299" lon="5.9562">
        <ele>458</ele>
        <time>2016-04-23T08:35:02.000Z</time>
      </trkpt>
      <trkpt lat="43.73299" lon="5.9562">
        <ele>458</ele>
        <time>2016-04-23T08:35:04.000Z</time>
      </trkpt>
      <trkpt lat="43.73322" lon="5.95687">
        <ele>455</ele>
        <time>2016-04-23T08:35:10.000Z</time>
      </trkpt>
      <trkpt lat="43.73319" lon="5.95698">
        <ele>455</ele>
        <time>2016-04-23T08:35:12.000Z</time>
      </trkpt>
      <trkpt lat="43.73315" lon="5.9572">
        <ele>455</ele>
        <time>2016-04-23T08:35:16.000Z</time>
      </trkpt>
      <trkpt lat="43.73315" lon="5.9572">
        <ele>455</ele>
        <time>2016-04-23T08:35:18.000Z</time>
      </trkpt>
      <trkpt lat="43.73315" lon="5.9572">
        <ele>455</ele>
        <time>2016-04-23T08:35:22.000Z</time>
      </trkpt>
      <trkpt lat="43.73315" lon="5.9572">
        <ele>455</ele>
        <time>2016-04-23T08:35:24.000Z</time>
      </trkpt>
      <trkpt lat="43.73315" lon="5.9572">
        <ele>455</ele>
        <time>2016-04-23T08:35:26.000Z</time>
      </trkpt>
      <trkpt lat="43.73315" lon="5.9572">
        <ele>455</ele>
        <time>2016-04-23T08:35:28.000Z</time>
      </trkpt>
      <trkpt lat="43.73299" lon="5.95794">
        <ele>450</ele>
        <time>2016-04-23T08:35:34.000Z</time>
      </trkpt>
      <trkpt lat="43.73296" lon="5.9581">
        <ele>451</ele>
        <time>2016-04-23T08:35:36.000Z</time>
      </trkpt>
      <trkpt lat="43.7329" lon="5.95831">
        <ele>450</ele>
        <time>2016-04-23T08:35:40.000Z</time>
      </trkpt>
      <trkpt lat="43.7329" lon="5.95831">
        <ele>450</ele>
        <time>2016-04-23T08:35:42.000Z</time>
      </trkpt>
      <trkpt lat="43.73282" lon="5.9585">
        <ele>449</ele>
        <time>2016-04-23T08:35:44.000Z</time>
      </trkpt>
      <trkpt lat="43.73282" lon="5.9585">
        <ele>449</ele>
        <time>2016-04-23T08:35:46.000Z</time>
      </trkpt>
      <trkpt lat="43.73282" lon="5.9585">
        <ele>449</ele>
        <time>2016-04-23T08:35:48.000Z</time>
      </trkpt>
      <trkpt lat="43.73282" lon="5.9585">
        <ele>449</ele>
        <time>2016-04-23T08:35:50.000Z</time>
      </trkpt>
      <trkpt lat="43.73282" lon="5.9585">
        <ele>449</ele>
        <time>2016-04-23T08:35:52.000Z</time>
      </trkpt>
      <trkpt lat="43.73282" lon="5.9585">
        <ele>449</ele>
        <time>2016-04-23T08:35:54.000Z</time>
      </trkpt>
      <trkpt lat="43.73282" lon="5.9585">
        <ele>449</ele>
        <time>2016-04-23T08:35:56.000Z</time>
      </trkpt>
      <trkpt lat="43.73282" lon="5.9585">
        <ele>449</ele>
        <time>2016-04-23T08:35:58.000Z</time>
      </trkpt>
      <trkpt lat="43.73272" lon="5.9595">
        <ele>443</ele>
        <time>2016-04-23T08:36:02.000Z</time>
      </trkpt>
      <trkpt lat="43.73272" lon="5.95966">
        <ele>443</ele>
        <time>2016-04-23T08:36:04.000Z</time>
      </trkpt>
      <trkpt lat="43.73272" lon="5.95981">
        <ele>443</ele>
        <time>2016-04-23T08:36:06.000Z</time>
      </trkpt>
      <trkpt lat="43.73273" lon="5.95995">
        <ele>444</ele>
        <time>2016-04-23T08:36:08.000Z</time>
      </trkpt>
      <trkpt lat="43.73273" lon="5.95995">
        <ele>444</ele>
        <time>2016-04-23T08:36:10.000Z</time>
      </trkpt>
      <trkpt lat="43.73273" lon="5.95995">
        <ele>444</ele>
        <time>2016-04-23T08:36:12.000Z</time>
      </trkpt>
      <trkpt lat="43.73273" lon="5.95995">
        <ele>444</ele>
        <time>2016-04-23T08:36:14.000Z</time>
      </trkpt>
      <trkpt lat="43.73273" lon="5.95995">
        <ele>444</ele>
        <time>2016-04-23T08:36:16.000Z</time>
      </trkpt>
      <trkpt lat="43.73273" lon="5.9603">
        <ele>442</ele>
        <time>2016-04-23T08:36:22.000Z</time>
      </trkpt>
      <trkpt lat="43.73271" lon="5.96052">
        <ele>441</ele>
        <time>2016-04-23T08:36:24.000Z</time>
      </trkpt>
      <trkpt lat="43.73267" lon="5.96068">
        <ele>441</ele>
        <time>2016-04-23T08:36:26.000Z</time>
      </trkpt>
      <trkpt lat="43.73263" lon="5.96083">
        <ele>442</ele>
        <time>2016-04-23T08:36:28.000Z</time>
      </trkpt>
      <trkpt lat="43.73263" lon="5.96095">
        <ele>441</ele>
        <time>2016-04-23T08:36:30.000Z</time>
      </trkpt>
      <trkpt lat="43.73263" lon="5.96095">
        <ele>441</ele>
        <time>2016-04-23T08:36:32.000Z</time>
      </trkpt>
      <trkpt lat="43.73263" lon="5.96095">
        <ele>441</ele>
        <time>2016-04-23T08:36:34.000Z</time>
      </trkpt>
      <trkpt lat="43.73263" lon="5.96095">
        <ele>441</ele>
        <time>2016-04-23T08:36:38.000Z</time>
      </trkpt>
      <trkpt lat="43.73263" lon="5.96095">
        <ele>441</ele>
        <time>2016-04-23T08:36:40.000Z</time>
      </trkpt>
      <trkpt lat="43.73263" lon="5.96095">
        <ele>441</ele>
        <time>2016-04-23T08:36:42.000Z</time>
      </trkpt>
      <trkpt lat="43.73263" lon="5.96095">
        <ele>441</ele>
        <time>2016-04-23T08:36:44.000Z</time>
      </trkpt>
      <trkpt lat="43.73263" lon="5.96095">
        <ele>441</ele>
        <time>2016-04-23T08:36:46.000Z</time>
      </trkpt>
      <trkpt lat="43.73309" lon="5.96147">
        <ele>434</ele>
        <time>2016-04-23T08:36:50.000Z</time>
      </trkpt>
      <trkpt lat="43.73319" lon="5.96151">
        <ele>433</ele>
        <time>2016-04-23T08:36:52.000Z</time>
      </trkpt>
      <trkpt lat="43.73335" lon="5.96156">
        <ele>431</ele>
        <time>2016-04-23T08:36:56.000Z</time>
      </trkpt>
      <trkpt lat="43.73351" lon="5.96167">
        <ele>428</ele>
        <time>2016-04-23T08:37:00.000Z</time>
      </trkpt>
      <trkpt lat="43.73365" lon="5.96185">
        <ele>425</ele>
        <time>2016-04-23T08:37:04.000Z</time>
      </trkpt>
      <trkpt lat="43.73377" lon="5.96189">
        <ele>424</ele>
        <time>2016-04-23T08:37:06.000Z</time>
      </trkpt>
      <trkpt lat="43.73388" lon="5.9619">
        <ele>423</ele>
        <time>2016-04-23T08:37:08.000Z</time>
      </trkpt>
      <trkpt lat="43.73388" lon="5.9619">
        <ele>423</ele>
        <time>2016-04-23T08:37:10.000Z</time>
      </trkpt>
      <trkpt lat="43.73388" lon="5.9619">
        <ele>423</ele>
        <time>2016-04-23T08:37:12.000Z</time>
      </trkpt>
      <trkpt lat="43.73388" lon="5.9619">
        <ele>423</ele>
        <time>2016-04-23T08:37:14.000Z</time>
      </trkpt>
      <trkpt lat="43.73388" lon="5.9619">
        <ele>423</ele>
        <time>2016-04-23T08:37:16.000Z</time>
      </trkpt>
      <trkpt lat="43.73414" lon="5.96252">
        <ele>420</ele>
        <time>2016-04-23T08:37:20.000Z</time>
      </trkpt>
      <trkpt lat="43.73414" lon="5.96252">
        <ele>420</ele>
        <time>2016-04-23T08:37:22.000Z</time>
      </trkpt>
      <trkpt lat="43.73428" lon="5.96267">
        <ele>419</ele>
        <time>2016-04-23T08:37:24.000Z</time>
      </trkpt>
      <trkpt lat="43.73428" lon="5.96267">
        <ele>419</ele>
        <time>2016-04-23T08:37:26.000Z</time>
      </trkpt>
      <trkpt lat="43.73428" lon="5.96267">
        <ele>419</ele>
        <time>2016-04-23T08:37:28.000Z</time>
      </trkpt>
      <trkpt lat="43.73428" lon="5.96267">
        <ele>419</ele>
        <time>2016-04-23T08:37:30.000Z</time>
      </trkpt>
      <trkpt lat="43.73428" lon="5.96267">
        <ele>419</ele>
        <time>2016-04-23T08:37:32.000Z</time>
      </trkpt>
      <trkpt lat="43.73428" lon="5.96267">
        <ele>419</ele>
        <time>2016-04-23T08:37:34.000Z</time>
      </trkpt>
      <trkpt lat="43.73435" lon="5.96277">
        <ele>421</ele>
        <time>2016-04-23T08:37:52.000Z</time>
      </trkpt>
      <trkpt lat="43.73424" lon="5.96277">
        <ele>424</ele>
        <time>2016-04-23T08:38:04.000Z</time>
      </trkpt>
      <trkpt lat="43.73416" lon="5.96286">
        <ele>424</ele>
        <time>2016-04-23T08:38:08.000Z</time>
      </trkpt>
      <trkpt lat="43.73416" lon="5.96286">
        <ele>424</ele>
        <time>2016-04-23T08:38:12.000Z</time>
      </trkpt>
      <trkpt lat="43.73416" lon="5.96286">
        <ele>424</ele>
        <time>2016-04-23T08:38:14.000Z</time>
      </trkpt>
      <trkpt lat="43.73416" lon="5.96286">
        <ele>424</ele>
        <time>2016-04-23T08:38:16.000Z</time>
      </trkpt>
      <trkpt lat="43.73427" lon="5.96305">
        <ele>419</ele>
        <time>2016-04-23T08:38:45.000Z</time>
      </trkpt>
      <trkpt lat="43.73427" lon="5.96305">
        <ele>419</ele>
        <time>2016-04-23T08:38:47.000Z</time>
      </trkpt>
      <trkpt lat="43.73427" lon="5.96305">
        <ele>419</ele>
        <time>2016-04-23T08:38:49.000Z</time>
      </trkpt>
      <trkpt lat="43.73437" lon="5.96325">
        <ele>419</ele>
        <time>2016-04-23T08:39:32.000Z</time>
      </trkpt>
      <trkpt lat="43.73448" lon="5.96324">
        <ele>420</ele>
        <time>2016-04-23T08:39:35.000Z</time>
      </trkpt>
      <trkpt lat="43.73457" lon="5.96322">
        <ele>419</ele>
        <time>2016-04-23T08:39:37.000Z</time>
      </trkpt>
      <trkpt lat="43.73471" lon="5.9632">
        <ele>419</ele>
        <time>2016-04-23T08:39:39.000Z</time>
      </trkpt>
      <trkpt lat="43.73482" lon="5.96317">
        <ele>419</ele>
        <time>2016-04-23T08:39:41.000Z</time>
      </trkpt>
      <trkpt lat="43.73494" lon="5.96315">
        <ele>418</ele>
        <time>2016-04-23T08:39:43.000Z</time>
      </trkpt>
      <trkpt lat="43.73503" lon="5.96312">
        <ele>418</ele>
        <time>2016-04-23T08:39:45.000Z</time>
      </trkpt>
      <trkpt lat="43.73503" lon="5.96312">
        <ele>418</ele>
        <time>2016-04-23T08:39:47.000Z</time>
      </trkpt>
      <trkpt lat="43.73503" lon="5.96312">
        <ele>418</ele>
        <time>2016-04-23T08:39:49.000Z</time>
      </trkpt>
      <trkpt lat="43.73503" lon="5.96312">
        <ele>418</ele>
        <time>2016-04-23T08:39:51.000Z</time>
      </trkpt>
      <trkpt lat="43.73503" lon="5.96312">
        <ele>418</ele>
        <time>2016-04-23T08:39:53.000Z</time>
      </trkpt>
      <trkpt lat="43.73503" lon="5.96312">
        <ele>418</ele>
        <time>2016-04-23T08:39:55.000Z</time>
      </trkpt>
      <trkpt lat="43.73503" lon="5.96312">
        <ele>418</ele>
        <time>2016-04-23T08:39:57.000Z</time>
      </trkpt>
      <trkpt lat="43.73503" lon="5.96312">
        <ele>418</ele>
        <time>2016-04-23T08:39:59.000Z</time>
      </trkpt>
      <trkpt lat="43.73531" lon="5.96296">
        <ele>413</ele>
        <time>2016-04-23T08:40:29.000Z</time>
      </trkpt>
      <trkpt lat="43.73539" lon="5.96305">
        <ele>414</ele>
        <time>2016-04-23T08:40:33.000Z</time>
      </trkpt>
      <trkpt lat="43.73544" lon="5.96317">
        <ele>414</ele>
        <time>2016-04-23T08:40:37.000Z</time>
      </trkpt>
      <trkpt lat="43.73549" lon="5.96329">
        <ele>414</ele>
        <time>2016-04-23T08:40:41.000Z</time>
      </trkpt>
      <trkpt lat="43.73549" lon="5.96329">
        <ele>414</ele>
        <time>2016-04-23T08:40:45.000Z</time>
      </trkpt>
      <trkpt lat="43.73549" lon="5.96329">
        <ele>414</ele>
        <time>2016-04-23T08:40:47.000Z</time>
      </trkpt>
      <trkpt lat="43.73537" lon="5.96347">
        <ele>414</ele>
        <time>2016-04-23T08:40:51.000Z</time>
      </trkpt>
      <trkpt lat="43.73529" lon="5.96361">
        <ele>413</ele>
        <time>2016-04-23T08:40:55.000Z</time>
      </trkpt>
      <trkpt lat="43.73521" lon="5.96375">
        <ele>413</ele>
        <time>2016-04-23T08:40:59.000Z</time>
      </trkpt>
      <trkpt lat="43.73513" lon="5.96388">
        <ele>412</ele>
        <time>2016-04-23T08:41:03.000Z</time>
      </trkpt>
      <trkpt lat="43.73513" lon="5.96388">
        <ele>412</ele>
        <time>2016-04-23T08:41:05.000Z</time>
      </trkpt>
      <trkpt lat="43.73513" lon="5.96388">
        <ele>412</ele>
        <time>2016-04-23T08:41:07.000Z</time>
      </trkpt>
      <trkpt lat="43.73513" lon="5.96388">
        <ele>412</ele>
        <time>2016-04-23T08:41:09.000Z</time>
      </trkpt>
      <trkpt lat="43.73513" lon="5.96388">
        <ele>412</ele>
        <time>2016-04-23T08:41:11.000Z</time>
      </trkpt>
      <trkpt lat="43.73513" lon="5.96388">
        <ele>412</ele>
        <time>2016-04-23T08:41:13.000Z</time>
      </trkpt>
      <trkpt lat="43.73513" lon="5.96388">
        <ele>412</ele>
        <time>2016-04-23T08:41:15.000Z</time>
      </trkpt>
      <trkpt lat="43.73482" lon="5.96421">
        <ele>413</ele>
        <time>2016-04-23T08:41:19.000Z</time>
      </trkpt>
      <trkpt lat="43.73471" lon="5.96423">
        <ele>413</ele>
        <time>2016-04-23T08:41:23.000Z</time>
      </trkpt>
      <trkpt lat="43.73471" lon="5.96423">
        <ele>413</ele>
        <time>2016-04-23T08:41:27.000Z</time>
      </trkpt>
      <trkpt lat="43.73471" lon="5.96423">
        <ele>413</ele>
        <time>2016-04-23T08:41:29.000Z</time>
      </trkpt>
      <trkpt lat="43.73471" lon="5.96423">
        <ele>413</ele>
        <time>2016-04-23T08:41:31.000Z</time>
      </trkpt>
      <trkpt lat="43.73471" lon="5.96423">
        <ele>413</ele>
        <time>2016-04-23T08:41:33.000Z</time>
      </trkpt>
      <trkpt lat="43.73471" lon="5.96423">
        <ele>413</ele>
        <time>2016-04-23T08:41:35.000Z</time>
      </trkpt>
      <trkpt lat="43.73471" lon="5.96423">
        <ele>413</ele>
        <time>2016-04-23T08:41:37.000Z</time>
      </trkpt>
      <trkpt lat="43.73471" lon="5.96423">
        <ele>413</ele>
        <time>2016-04-23T08:41:39.000Z</time>
      </trkpt>
      <trkpt lat="43.73471" lon="5.96423">
        <ele>413</ele>
        <time>2016-04-23T08:41:41.000Z</time>
      </trkpt>
      <trkpt lat="43.73471" lon="5.96423">
        <ele>413</ele>
        <time>2016-04-23T08:41:43.000Z</time>
      </trkpt>
      <trkpt lat="43.73471" lon="5.96423">
        <ele>413</ele>
        <time>2016-04-23T08:41:45.000Z</time>
      </trkpt>
      <trkpt lat="43.73445" lon="5.96442">
        <ele>416</ele>
        <time>2016-04-23T08:42:45.000Z</time>
      </trkpt>
      <trkpt lat="43.73439" lon="5.9644">
        <ele>419</ele>
        <time>2016-04-23T08:43:01.000Z</time>
      </trkpt>
      <trkpt lat="43.73439" lon="5.9644">
        <ele>419</ele>
        <time>2016-04-23T08:43:05.000Z</time>
      </trkpt>
      <trkpt lat="43.73439" lon="5.9644">
        <ele>419</ele>
        <time>2016-04-23T08:43:07.000Z</time>
      </trkpt>
      <trkpt lat="43.7343" lon="5.96453">
        <ele>419</ele>
        <time>2016-04-23T08:43:16.000Z</time>
      </trkpt>
      <trkpt lat="43.7343" lon="5.96453">
        <ele>419</ele>
        <time>2016-04-23T08:43:18.000Z</time>
      </trkpt>
      <trkpt lat="43.7343" lon="5.96453">
        <ele>419</ele>
        <time>2016-04-23T08:43:20.000Z</time>
      </trkpt>
      <trkpt lat="43.7343" lon="5.96453">
        <ele>419</ele>
        <time>2016-04-23T08:43:22.000Z</time>
      </trkpt>
      <trkpt lat="43.7343" lon="5.96453">
        <ele>419</ele>
        <time>2016-04-23T08:43:24.000Z</time>
      </trkpt>
      <trkpt lat="43.7343" lon="5.96453">
        <ele>419</ele>
        <time>2016-04-23T08:43:26.000Z</time>
      </trkpt>
      <trkpt lat="43.7343" lon="5.96453">
        <ele>419</ele>
        <time>2016-04-23T08:43:28.000Z</time>
      </trkpt>
      <trkpt lat="43.7343" lon="5.96453">
        <ele>419</ele>
        <time>2016-04-23T08:43:30.000Z</time>
      </trkpt>
      <trkpt lat="43.7343" lon="5.96453">
        <ele>419</ele>
        <time>2016-04-23T08:43:32.000Z</time>
      </trkpt>
      <trkpt lat="43.7343" lon="5.96453">
        <ele>419</ele>
        <time>2016-04-23T08:43:34.000Z</time>
      </trkpt>
      <trkpt lat="43.7343" lon="5.96453">
        <ele>419</ele>
        <time>2016-04-23T08:43:36.000Z</time>
      </trkpt>
      <trkpt lat="43.73392" lon="5.96463">
        <ele>422</ele>
        <time>2016-04-23T08:43:40.000Z</time>
      </trkpt>
      <trkpt lat="43.73381" lon="5.96457">
        <ele>419</ele>
        <time>2016-04-23T08:43:46.000Z</time>
      </trkpt>
      <trkpt lat="43.73381" lon="5.96457">
        <ele>419</ele>
        <time>2016-04-23T08:43:48.000Z</time>
      </trkpt>
      <trkpt lat="43.73381" lon="5.96457">
        <ele>419</ele>
        <time>2016-04-23T08:43:50.000Z</time>
      </trkpt>
      <trkpt lat="43.73381" lon="5.96457">
        <ele>419</ele>
        <time>2016-04-23T08:43:52.000Z</time>
      </trkpt>
      <trkpt lat="43.73375" lon="5.96459">
        <ele>417</ele>
        <time>2016-04-23T08:44:02.000Z</time>
      </trkpt>
      <trkpt lat="43.7338" lon="5.9646">
        <ele>415</ele>
        <time>2016-04-23T08:53:01.000Z</time>
      </trkpt>
      <trkpt lat="43.73379" lon="5.96453">
        <ele>414</ele>
        <time>2016-04-23T08:53:24.000Z</time>
      </trkpt>
      <trkpt lat="43.73379" lon="5.96453">
        <ele>414</ele>
        <time>2016-04-23T08:53:30.000Z</time>
      </trkpt>
      <trkpt lat="43.73379" lon="5.96453">
        <ele>414</ele>
        <time>2016-04-23T08:53:32.000Z</time>
      </trkpt>
      <trkpt lat="43.73379" lon="5.96453">
        <ele>414</ele>
        <time>2016-04-23T08:53:34.000Z</time>
      </trkpt>
      <trkpt lat="43.73372" lon="5.96433">
        <ele>414</ele>
        <time>2016-04-23T08:54:07.000Z</time>
      </trkpt>
      <trkpt lat="43.7337" lon="5.96419">
        <ele>414</ele>
        <time>2016-04-23T08:54:13.000Z</time>
      </trkpt>
      <trkpt lat="43.73365" lon="5.96405">
        <ele>414</ele>
        <time>2016-04-23T08:54:17.000Z</time>
      </trkpt>
      <trkpt lat="43.73357" lon="5.96388">
        <ele>413</ele>
        <time>2016-04-23T08:54:21.000Z</time>
      </trkpt>
      <trkpt lat="43.73347" lon="5.96382">
        <ele>413</ele>
        <time>2016-04-23T08:54:25.000Z</time>
      </trkpt>
      <trkpt lat="43.73347" lon="5.96382">
        <ele>413</ele>
        <time>2016-04-23T08:54:27.000Z</time>
      </trkpt>
      <trkpt lat="43.73347" lon="5.96382">
        <ele>413</ele>
        <time>2016-04-23T08:54:29.000Z</time>
      </trkpt>
      <trkpt lat="43.73347" lon="5.96382">
        <ele>413</ele>
        <time>2016-04-23T08:54:31.000Z</time>
      </trkpt>
      <trkpt lat="43.73347" lon="5.96382">
        <ele>413</ele>
        <time>2016-04-23T08:54:33.000Z</time>
      </trkpt>
      <trkpt lat="43.73347" lon="5.96382">
        <ele>413</ele>
        <time>2016-04-23T08:54:35.000Z</time>
      </trkpt>
      <trkpt lat="43.73347" lon="5.96382">
        <ele>413</ele>
        <time>2016-04-23T08:54:37.000Z</time>
      </trkpt>
      <trkpt lat="43.73347" lon="5.96382">
        <ele>413</ele>
        <time>2016-04-23T08:54:39.000Z</time>
      </trkpt>
      <trkpt lat="43.73325" lon="5.96407">
        <ele>414</ele>
        <time>2016-04-23T08:54:47.000Z</time>
      </trkpt>
      <trkpt lat="43.73318" lon="5.96416">
        <ele>415</ele>
        <time>2016-04-23T08:54:53.000Z</time>
      </trkpt>
      <trkpt lat="43.73318" lon="5.96416">
        <ele>415</ele>
        <time>2016-04-23T08:54:55.000Z</time>
      </trkpt>
      <trkpt lat="43.73318" lon="5.96416">
        <ele>415</ele>
        <time>2016-04-23T08:54:57.000Z</time>
      </trkpt>
      <trkpt lat="43.73318" lon="5.96416">
        <ele>415</ele>
        <time>2016-04-23T08:54:59.000Z</time>
      </trkpt>
      <trkpt lat="43.73318" lon="5.96416">
        <ele>415</ele>
        <time>2016-04-23T08:55:01.000Z</time>
      </trkpt>
      <trkpt lat="43.73309" lon="5.9642">
        <ele>417</ele>
        <time>2016-04-23T08:55:03.000Z</time>
      </trkpt>
      <trkpt lat="43.73298" lon="5.96417">
        <ele>417</ele>
        <time>2016-04-23T08:55:07.000Z</time>
      </trkpt>
      <trkpt lat="43.73285" lon="5.96411">
        <ele>417</ele>
        <time>2016-04-23T08:55:11.000Z</time>
      </trkpt>
      <trkpt lat="43.73278" lon="5.96397">
        <ele>417</ele>
        <time>2016-04-23T08:55:15.000Z</time>
      </trkpt>
      <trkpt lat="43.73278" lon="5.96397">
        <ele>417</ele>
        <time>2016-04-23T08:55:17.000Z</time>
      </trkpt>
      <trkpt lat="43.73271" lon="5.96388">
        <ele>417</ele>
        <time>2016-04-23T08:55:19.000Z</time>
      </trkpt>
      <trkpt lat="43.73271" lon="5.96388">
        <ele>417</ele>
        <time>2016-04-23T08:55:21.000Z</time>
      </trkpt>
      <trkpt lat="43.73258" lon="5.96381">
        <ele>414</ele>
        <time>2016-04-23T08:55:23.000Z</time>
      </trkpt>
      <trkpt lat="43.73249" lon="5.96377">
        <ele>413</ele>
        <time>2016-04-23T08:55:25.000Z</time>
      </trkpt>
      <trkpt lat="43.73241" lon="5.96369">
        <ele>412</ele>
        <time>2016-04-23T08:55:27.000Z</time>
      </trkpt>
      <trkpt lat="43.7323" lon="5.96356">
        <ele>412</ele>
        <time>2016-04-23T08:55:31.000Z</time>
      </trkpt>
      <trkpt lat="43.7323" lon="5.96356">
        <ele>412</ele>
        <time>2016-04-23T08:55:33.000Z</time>
      </trkpt>
      <trkpt lat="43.7323" lon="5.96356">
        <ele>412</ele>
        <time>2016-04-23T08:55:35.000Z</time>
      </trkpt>
      <trkpt lat="43.7323" lon="5.96356">
        <ele>412</ele>
        <time>2016-04-23T08:55:37.000Z</time>
      </trkpt>
      <trkpt lat="43.7323" lon="5.96356">
        <ele>412</ele>
        <time>2016-04-23T08:55:39.000Z</time>
      </trkpt>
      <trkpt lat="43.7323" lon="5.96356">
        <ele>412</ele>
        <time>2016-04-23T08:55:41.000Z</time>
      </trkpt>
      <trkpt lat="43.73202" lon="5.96343">
        <ele>416</ele>
        <time>2016-04-23T08:55:45.000Z</time>
      </trkpt>
      <trkpt lat="43.73191" lon="5.96344">
        <ele>416</ele>
        <time>2016-04-23T08:55:49.000Z</time>
      </trkpt>
      <trkpt lat="43.73191" lon="5.96344">
        <ele>416</ele>
        <time>2016-04-23T08:55:51.000Z</time>
      </trkpt>
      <trkpt lat="43.73191" lon="5.96344">
        <ele>416</ele>
        <time>2016-04-23T08:55:53.000Z</time>
      </trkpt>
      <trkpt lat="43.73191" lon="5.96344">
        <ele>416</ele>
        <time>2016-04-23T08:55:55.000Z</time>
      </trkpt>
      <trkpt lat="43.73191" lon="5.96344">
        <ele>416</ele>
        <time>2016-04-23T08:55:57.000Z</time>
      </trkpt>
      <trkpt lat="43.73191" lon="5.96344">
        <ele>416</ele>
        <time>2016-04-23T08:55:59.000Z</time>
      </trkpt>
      <trkpt lat="43.73183" lon="5.96333">
        <ele>419</ele>
        <time>2016-04-23T08:56:05.000Z</time>
      </trkpt>
      <trkpt lat="43.73176" lon="5.96321">
        <ele>422</ele>
        <time>2016-04-23T08:56:17.000Z</time>
      </trkpt>
      <trkpt lat="43.73176" lon="5.96321">
        <ele>422</ele>
        <time>2016-04-23T08:56:21.000Z</time>
      </trkpt>
      <trkpt lat="43.73176" lon="5.96321">
        <ele>422</ele>
        <time>2016-04-23T08:56:23.000Z</time>
      </trkpt>
      <trkpt lat="43.7317" lon="5.96313">
        <ele>420</ele>
        <time>2016-04-23T08:56:33.000Z</time>
      </trkpt>
      <trkpt lat="43.73168" lon="5.96299">
        <ele>421</ele>
        <time>2016-04-23T08:56:39.000Z</time>
      </trkpt>
      <trkpt lat="43.7317" lon="5.96281">
        <ele>421</ele>
        <time>2016-04-23T08:56:43.000Z</time>
      </trkpt>
      <trkpt lat="43.73173" lon="5.96265">
        <ele>421</ele>
        <time>2016-04-23T08:56:47.000Z</time>
      </trkpt>
      <trkpt lat="43.73173" lon="5.96265">
        <ele>421</ele>
        <time>2016-04-23T08:56:49.000Z</time>
      </trkpt>
      <trkpt lat="43.73173" lon="5.96265">
        <ele>421</ele>
        <time>2016-04-23T08:56:51.000Z</time>
      </trkpt>
      <trkpt lat="43.73173" lon="5.96265">
        <ele>421</ele>
        <time>2016-04-23T08:56:53.000Z</time>
      </trkpt>
      <trkpt lat="43.73173" lon="5.96265">
        <ele>421</ele>
        <time>2016-04-23T08:56:55.000Z</time>
      </trkpt>
      <trkpt lat="43.73173" lon="5.96265">
        <ele>421</ele>
        <time>2016-04-23T08:56:57.000Z</time>
      </trkpt>
      <trkpt lat="43.73173" lon="5.96265">
        <ele>421</ele>
        <time>2016-04-23T08:56:59.000Z</time>
      </trkpt>
      <trkpt lat="43.73143" lon="5.96244">
        <ele>421</ele>
        <time>2016-04-23T08:57:03.000Z</time>
      </trkpt>
      <trkpt lat="43.7313" lon="5.96247">
        <ele>421</ele>
        <time>2016-04-23T08:57:07.000Z</time>
      </trkpt>
      <trkpt lat="43.73117" lon="5.96263">
        <ele>421</ele>
        <time>2016-04-23T08:57:11.000Z</time>
      </trkpt>
      <trkpt lat="43.73105" lon="5.96278">
        <ele>421</ele>
        <time>2016-04-23T08:57:15.000Z</time>
      </trkpt>
      <trkpt lat="43.73092" lon="5.96292">
        <ele>420</ele>
        <time>2016-04-23T08:57:19.000Z</time>
      </trkpt>
      <trkpt lat="43.73092" lon="5.96292">
        <ele>420</ele>
        <time>2016-04-23T08:57:21.000Z</time>
      </trkpt>
      <trkpt lat="43.73092" lon="5.96292">
        <ele>420</ele>
        <time>2016-04-23T08:57:23.000Z</time>
      </trkpt>
      <trkpt lat="43.73092" lon="5.96292">
        <ele>420</ele>
        <time>2016-04-23T08:57:25.000Z</time>
      </trkpt>
      <trkpt lat="43.73092" lon="5.96292">
        <ele>420</ele>
        <time>2016-04-23T08:57:27.000Z</time>
      </trkpt>
      <trkpt lat="43.73092" lon="5.96292">
        <ele>420</ele>
        <time>2016-04-23T08:57:29.000Z</time>
      </trkpt>
      <trkpt lat="43.73035" lon="5.96311">
        <ele>420</ele>
        <time>2016-04-23T08:57:35.000Z</time>
      </trkpt>
      <trkpt lat="43.73021" lon="5.96316">
        <ele>420</ele>
        <time>2016-04-23T08:57:39.000Z</time>
      </trkpt>
      <trkpt lat="43.73005" lon="5.96324">
        <ele>418</ele>
        <time>2016-04-23T08:57:43.000Z</time>
      </trkpt>
      <trkpt lat="43.72989" lon="5.96332">
        <ele>417</ele>
        <time>2016-04-23T08:57:47.000Z</time>
      </trkpt>
      <trkpt lat="43.72989" lon="5.96332">
        <ele>417</ele>
        <time>2016-04-23T08:57:49.000Z</time>
      </trkpt>
      <trkpt lat="43.72972" lon="5.96337">
        <ele>416</ele>
        <time>2016-04-23T08:57:51.000Z</time>
      </trkpt>
      <trkpt lat="43.72955" lon="5.96344">
        <ele>416</ele>
        <time>2016-04-23T08:57:55.000Z</time>
      </trkpt>
      <trkpt lat="43.72945" lon="5.96347">
        <ele>417</ele>
        <time>2016-04-23T08:57:57.000Z</time>
      </trkpt>
      <trkpt lat="43.72945" lon="5.96347">
        <ele>417</ele>
        <time>2016-04-23T08:57:59.000Z</time>
      </trkpt>
      <trkpt lat="43.72945" lon="5.96347">
        <ele>417</ele>
        <time>2016-04-23T08:58:01.000Z</time>
      </trkpt>
      <trkpt lat="43.72945" lon="5.96347">
        <ele>417</ele>
        <time>2016-04-23T08:58:03.000Z</time>
      </trkpt>
      <trkpt lat="43.72945" lon="5.96347">
        <ele>417</ele>
        <time>2016-04-23T08:58:05.000Z</time>
      </trkpt>
      <trkpt lat="43.72945" lon="5.96347">
        <ele>417</ele>
        <time>2016-04-23T08:58:07.000Z</time>
      </trkpt>
      <trkpt lat="43.72945" lon="5.96347">
        <ele>417</ele>
        <time>2016-04-23T08:58:09.000Z</time>
      </trkpt>
      <trkpt lat="43.72945" lon="5.96347">
        <ele>417</ele>
        <time>2016-04-23T08:58:11.000Z</time>
      </trkpt>
      <trkpt lat="43.72945" lon="5.96347">
        <ele>417</ele>
        <time>2016-04-23T08:58:13.000Z</time>
      </trkpt>
      <trkpt lat="43.72945" lon="5.96347">
        <ele>417</ele>
        <time>2016-04-23T08:58:15.000Z</time>
      </trkpt>
      <trkpt lat="43.72945" lon="5.96347">
        <ele>417</ele>
        <time>2016-04-23T08:58:17.000Z</time>
      </trkpt>
      <trkpt lat="43.72945" lon="5.96347">
        <ele>417</ele>
        <time>2016-04-23T08:58:19.000Z</time>
      </trkpt>
      <trkpt lat="43.72929" lon="5.96353">
        <ele>418</ele>
        <time>2016-04-23T08:58:21.000Z</time>
      </trkpt>
      <trkpt lat="43.72916" lon="5.96356">
        <ele>418</ele>
        <time>2016-04-23T08:58:23.000Z</time>
      </trkpt>
      <trkpt lat="43.72907" lon="5.96359">
        <ele>419</ele>
        <time>2016-04-23T08:58:25.000Z</time>
      </trkpt>
      <trkpt lat="43.72898" lon="5.9636">
        <ele>419</ele>
        <time>2016-04-23T08:58:27.000Z</time>
      </trkpt>
      <trkpt lat="43.7289" lon="5.96361">
        <ele>422</ele>
        <time>2016-04-23T08:58:29.000Z</time>
      </trkpt>
      <trkpt lat="43.72872" lon="5.96363">
        <ele>424</ele>
        <time>2016-04-23T08:58:31.000Z</time>
      </trkpt>
      <trkpt lat="43.72855" lon="5.96364">
        <ele>426</ele>
        <time>2016-04-23T08:58:35.000Z</time>
      </trkpt>
      <trkpt lat="43.72838" lon="5.96363">
        <ele>425</ele>
        <time>2016-04-23T08:58:39.000Z</time>
      </trkpt>
      <trkpt lat="43.72821" lon="5.96361">
        <ele>423</ele>
        <time>2016-04-23T08:58:43.000Z</time>
      </trkpt>
      <trkpt lat="43.72821" lon="5.96361">
        <ele>423</ele>
        <time>2016-04-23T08:58:47.000Z</time>
      </trkpt>
      <trkpt lat="43.72821" lon="5.96361">
        <ele>423</ele>
        <time>2016-04-23T08:58:50.000Z</time>
      </trkpt>
      <trkpt lat="43.72821" lon="5.96361">
        <ele>423</ele>
        <time>2016-04-23T08:58:52.000Z</time>
      </trkpt>
      <trkpt lat="43.72821" lon="5.96361">
        <ele>423</ele>
        <time>2016-04-23T08:58:54.000Z</time>
      </trkpt>
      <trkpt lat="43.72791" lon="5.96346">
        <ele>423</ele>
        <time>2016-04-23T08:58:58.000Z</time>
      </trkpt>
      <trkpt lat="43.72782" lon="5.96341">
        <ele>422</ele>
        <time>2016-04-23T08:59:02.000Z</time>
      </trkpt>
      <trkpt lat="43.72768" lon="5.96337">
        <ele>420</ele>
        <time>2016-04-23T08:59:06.000Z</time>
      </trkpt>
      <trkpt lat="43.72752" lon="5.96332">
        <ele>419</ele>
        <time>2016-04-23T08:59:10.000Z</time>
      </trkpt>
      <trkpt lat="43.72739" lon="5.96322">
        <ele>418</ele>
        <time>2016-04-23T08:59:14.000Z</time>
      </trkpt>
      <trkpt lat="43.72723" lon="5.96316">
        <ele>417</ele>
        <time>2016-04-23T08:59:18.000Z</time>
      </trkpt>
      <trkpt lat="43.72723" lon="5.96316">
        <ele>417</ele>
        <time>2016-04-23T08:59:20.000Z</time>
      </trkpt>
      <trkpt lat="43.72723" lon="5.96316">
        <ele>417</ele>
        <time>2016-04-23T08:59:22.000Z</time>
      </trkpt>
      <trkpt lat="43.72723" lon="5.96316">
        <ele>417</ele>
        <time>2016-04-23T08:59:24.000Z</time>
      </trkpt>
      <trkpt lat="43.72723" lon="5.96316">
        <ele>417</ele>
        <time>2016-04-23T08:59:26.000Z</time>
      </trkpt>
      <trkpt lat="43.72723" lon="5.96316">
        <ele>417</ele>
        <time>2016-04-23T08:59:28.000Z</time>
      </trkpt>
      <trkpt lat="43.72723" lon="5.96316">
        <ele>417</ele>
        <time>2016-04-23T08:59:30.000Z</time>
      </trkpt>
      <trkpt lat="43.72667" lon="5.96326">
        <ele>416</ele>
        <time>2016-04-23T08:59:34.000Z</time>
      </trkpt>
      <trkpt lat="43.72653" lon="5.96316">
        <ele>415</ele>
        <time>2016-04-23T08:59:38.000Z</time>
      </trkpt>
      <trkpt lat="43.72653" lon="5.96316">
        <ele>415</ele>
        <time>2016-04-23T08:59:40.000Z</time>
      </trkpt>
      <trkpt lat="43.72653" lon="5.96316">
        <ele>415</ele>
        <time>2016-04-23T08:59:42.000Z</time>
      </trkpt>
      <trkpt lat="43.72653" lon="5.96316">
        <ele>415</ele>
        <time>2016-04-23T08:59:44.000Z</time>
      </trkpt>
      <trkpt lat="43.72653" lon="5.96316">
        <ele>415</ele>
        <time>2016-04-23T08:59:46.000Z</time>
      </trkpt>
      <trkpt lat="43.72653" lon="5.96316">
        <ele>415</ele>
        <time>2016-04-23T08:59:48.000Z</time>
      </trkpt>
      <trkpt lat="43.72653" lon="5.96316">
        <ele>415</ele>
        <time>2016-04-23T08:59:50.000Z</time>
      </trkpt>
      <trkpt lat="43.72653" lon="5.96316">
        <ele>415</ele>
        <time>2016-04-23T08:59:52.000Z</time>
      </trkpt>
      <trkpt lat="43.72653" lon="5.96316">
        <ele>415</ele>
        <time>2016-04-23T08:59:54.000Z</time>
      </trkpt>
      <trkpt lat="43.72653" lon="5.96316">
        <ele>415</ele>
        <time>2016-04-23T08:59:56.000Z</time>
      </trkpt>
      <trkpt lat="43.72653" lon="5.96316">
        <ele>415</ele>
        <time>2016-04-23T08:59:58.000Z</time>
      </trkpt>
      <trkpt lat="43.72653" lon="5.96316">
        <ele>415</ele>
        <time>2016-04-23T09:00:00.000Z</time>
      </trkpt>
      <trkpt lat="43.72653" lon="5.96316">
        <ele>415</ele>
        <time>2016-04-23T09:00:02.000Z</time>
      </trkpt>
      <trkpt lat="43.72653" lon="5.96316">
        <ele>415</ele>
        <time>2016-04-23T09:00:04.000Z</time>
      </trkpt>
      <trkpt lat="43.72653" lon="5.96316">
        <ele>415</ele>
        <time>2016-04-23T09:00:06.000Z</time>
      </trkpt>
      <trkpt lat="43.72653" lon="5.96316">
        <ele>415</ele>
        <time>2016-04-23T09:00:08.000Z</time>
      </trkpt>
      <trkpt lat="43.72653" lon="5.96316">
        <ele>415</ele>
        <time>2016-04-23T09:00:10.000Z</time>
      </trkpt>
      <trkpt lat="43.72653" lon="5.96316">
        <ele>415</ele>
        <time>2016-04-23T09:00:12.000Z</time>
      </trkpt>
      <trkpt lat="43.72653" lon="5.96316">
        <ele>415</ele>
        <time>2016-04-23T09:00:14.000Z</time>
      </trkpt>
      <trkpt lat="43.72653" lon="5.96316">
        <ele>415</ele>
        <time>2016-04-23T09:00:16.000Z</time>
      </trkpt>
      <trkpt lat="43.72653" lon="5.96316">
        <ele>415</ele>
        <time>2016-04-23T09:00:18.000Z</time>
      </trkpt>
      <trkpt lat="43.72615" lon="5.96299">
        <ele>423</ele>
        <time>2016-04-23T09:00:20.000Z</time>
      </trkpt>
      <trkpt lat="43.72594" lon="5.96289">
        <ele>422</ele>
        <time>2016-04-23T09:00:22.000Z</time>
      </trkpt>
      <trkpt lat="43.72583" lon="5.96282">
        <ele>423</ele>
        <time>2016-04-23T09:00:24.000Z</time>
      </trkpt>
      <trkpt lat="43.72577" lon="5.96275">
        <ele>423</ele>
        <time>2016-04-23T09:00:26.000Z</time>
      </trkpt>
      <trkpt lat="43.72572" lon="5.96269">
        <ele>423</ele>
        <time>2016-04-23T09:00:28.000Z</time>
      </trkpt>
      <trkpt lat="43.72564" lon="5.96256">
        <ele>423</ele>
        <time>2016-04-23T09:00:30.000Z</time>
      </trkpt>
      <trkpt lat="43.72558" lon="5.96246">
        <ele>424</ele>
        <time>2016-04-23T09:00:34.000Z</time>
      </trkpt>
      <trkpt lat="43.72558" lon="5.96246">
        <ele>424</ele>
        <time>2016-04-23T09:00:36.000Z</time>
      </trkpt>
      <trkpt lat="43.72558" lon="5.96246">
        <ele>424</ele>
        <time>2016-04-23T09:00:38.000Z</time>
      </trkpt>
      <trkpt lat="43.72558" lon="5.96246">
        <ele>424</ele>
        <time>2016-04-23T09:00:40.000Z</time>
      </trkpt>
      <trkpt lat="43.72558" lon="5.96246">
        <ele>424</ele>
        <time>2016-04-23T09:00:42.000Z</time>
      </trkpt>
      <trkpt lat="43.72558" lon="5.96246">
        <ele>424</ele>
        <time>2016-04-23T09:00:44.000Z</time>
      </trkpt>
      <trkpt lat="43.72558" lon="5.96246">
        <ele>424</ele>
        <time>2016-04-23T09:00:54.000Z</time>
      </trkpt>
      <trkpt lat="43.72558" lon="5.96246">
        <ele>424</ele>
        <time>2016-04-23T09:00:56.000Z</time>
      </trkpt>
      <trkpt lat="43.72558" lon="5.96246">
        <ele>424</ele>
        <time>2016-04-23T09:00:58.000Z</time>
      </trkpt>
      <trkpt lat="43.72558" lon="5.96246">
        <ele>424</ele>
        <time>2016-04-23T09:01:00.000Z</time>
      </trkpt>
      <trkpt lat="43.72558" lon="5.96246">
        <ele>424</ele>
        <time>2016-04-23T09:01:02.000Z</time>
      </trkpt>
      <trkpt lat="43.72558" lon="5.96246">
        <ele>424</ele>
        <time>2016-04-23T09:01:04.000Z</time>
      </trkpt>
      <trkpt lat="43.72504" lon="5.96223">
        <ele>424</ele>
        <time>2016-04-23T09:01:08.000Z</time>
      </trkpt>
      <trkpt lat="43.72498" lon="5.96209">
        <ele>425</ele>
        <time>2016-04-23T09:01:14.000Z</time>
      </trkpt>
      <trkpt lat="43.7249" lon="5.96197">
        <ele>425</ele>
        <time>2016-04-23T09:01:20.000Z</time>
      </trkpt>
      <trkpt lat="43.72483" lon="5.96184">
        <ele>430</ele>
        <time>2016-04-23T09:01:26.000Z</time>
      </trkpt>
      <trkpt lat="43.72477" lon="5.9617">
        <ele>432</ele>
        <time>2016-04-23T09:01:32.000Z</time>
      </trkpt>
      <trkpt lat="43.72473" lon="5.96154">
        <ele>434</ele>
        <time>2016-04-23T09:01:38.000Z</time>
      </trkpt>
      <trkpt lat="43.72472" lon="5.96138">
        <ele>436</ele>
        <time>2016-04-23T09:01:44.000Z</time>
      </trkpt>
      <trkpt lat="43.72472" lon="5.96138">
        <ele>436</ele>
        <time>2016-04-23T09:01:48.000Z</time>
      </trkpt>
      <trkpt lat="43.72472" lon="5.96138">
        <ele>436</ele>
        <time>2016-04-23T09:01:50.000Z</time>
      </trkpt>
      <trkpt lat="43.72472" lon="5.96138">
        <ele>436</ele>
        <time>2016-04-23T09:01:52.000Z</time>
      </trkpt>
      <trkpt lat="43.72472" lon="5.96138">
        <ele>436</ele>
        <time>2016-04-23T09:01:54.000Z</time>
      </trkpt>
      <trkpt lat="43.72472" lon="5.96138">
        <ele>436</ele>
        <time>2016-04-23T09:01:56.000Z</time>
      </trkpt>
      <trkpt lat="43.72472" lon="5.96138">
        <ele>436</ele>
        <time>2016-04-23T09:01:58.000Z</time>
      </trkpt>
      <trkpt lat="43.72472" lon="5.96138">
        <ele>436</ele>
        <time>2016-04-23T09:02:00.000Z</time>
      </trkpt>
      <trkpt lat="43.72472" lon="5.96138">
        <ele>436</ele>
        <time>2016-04-23T09:02:02.000Z</time>
      </trkpt>
      <trkpt lat="43.72472" lon="5.96138">
        <ele>436</ele>
        <time>2016-04-23T09:02:04.000Z</time>
      </trkpt>
      <trkpt lat="43.72472" lon="5.96138">
        <ele>436</ele>
        <time>2016-04-23T09:02:06.000Z</time>
      </trkpt>
      <trkpt lat="43.72472" lon="5.96138">
        <ele>436</ele>
        <time>2016-04-23T09:02:08.000Z</time>
      </trkpt>
      <trkpt lat="43.72472" lon="5.96138">
        <ele>436</ele>
        <time>2016-04-23T09:02:10.000Z</time>
      </trkpt>
      <trkpt lat="43.72472" lon="5.96138">
        <ele>436</ele>
        <time>2016-04-23T09:02:12.000Z</time>
      </trkpt>
      <trkpt lat="43.72472" lon="5.96138">
        <ele>436</ele>
        <time>2016-04-23T09:02:14.000Z</time>
      </trkpt>
      <trkpt lat="43.72472" lon="5.96138">
        <ele>436</ele>
        <time>2016-04-23T09:02:16.000Z</time>
      </trkpt>
      <trkpt lat="43.72472" lon="5.96138">
        <ele>436</ele>
        <time>2016-04-23T09:02:18.000Z</time>
      </trkpt>
      <trkpt lat="43.72472" lon="5.96138">
        <ele>436</ele>
        <time>2016-04-23T09:02:20.000Z</time>
      </trkpt>
      <trkpt lat="43.72472" lon="5.96138">
        <ele>436</ele>
        <time>2016-04-23T09:02:22.000Z</time>
      </trkpt>
      <trkpt lat="43.72472" lon="5.96138">
        <ele>436</ele>
        <time>2016-04-23T09:02:24.000Z</time>
      </trkpt>
      <trkpt lat="43.72472" lon="5.96138">
        <ele>436</ele>
        <time>2016-04-23T09:02:26.000Z</time>
      </trkpt>
      <trkpt lat="43.72459" lon="5.96076">
        <ele>443</ele>
        <time>2016-04-23T09:02:36.000Z</time>
      </trkpt>
      <trkpt lat="43.72452" lon="5.96044">
        <ele>444</ele>
        <time>2016-04-23T09:02:38.000Z</time>
      </trkpt>
      <trkpt lat="43.72447" lon="5.96026">
        <ele>444</ele>
        <time>2016-04-23T09:02:40.000Z</time>
      </trkpt>
      <trkpt lat="43.72444" lon="5.96015">
        <ele>444</ele>
        <time>2016-04-23T09:02:42.000Z</time>
      </trkpt>
      <trkpt lat="43.72441" lon="5.96007">
        <ele>445</ele>
        <time>2016-04-23T09:02:44.000Z</time>
      </trkpt>
      <trkpt lat="43.72436" lon="5.95996">
        <ele>445</ele>
        <time>2016-04-23T09:02:46.000Z</time>
      </trkpt>
      <trkpt lat="43.7243" lon="5.95984">
        <ele>446</ele>
        <time>2016-04-23T09:02:52.000Z</time>
      </trkpt>
      <trkpt lat="43.72425" lon="5.95972">
        <ele>446</ele>
        <time>2016-04-23T09:02:58.000Z</time>
      </trkpt>
      <trkpt lat="43.7242" lon="5.9596">
        <ele>447</ele>
        <time>2016-04-23T09:03:04.000Z</time>
      </trkpt>
      <trkpt lat="43.7242" lon="5.9596">
        <ele>447</ele>
        <time>2016-04-23T09:03:06.000Z</time>
      </trkpt>
      <trkpt lat="43.7242" lon="5.9596">
        <ele>447</ele>
        <time>2016-04-23T09:03:08.000Z</time>
      </trkpt>
      <trkpt lat="43.7242" lon="5.9596">
        <ele>447</ele>
        <time>2016-04-23T09:03:10.000Z</time>
      </trkpt>
      <trkpt lat="43.7242" lon="5.9596">
        <ele>447</ele>
        <time>2016-04-23T09:03:12.000Z</time>
      </trkpt>
      <trkpt lat="43.7242" lon="5.9596">
        <ele>447</ele>
        <time>2016-04-23T09:03:14.000Z</time>
      </trkpt>
      <trkpt lat="43.7242" lon="5.9596">
        <ele>447</ele>
        <time>2016-04-23T09:03:16.000Z</time>
      </trkpt>
      <trkpt lat="43.7242" lon="5.9596">
        <ele>447</ele>
        <time>2016-04-23T09:03:18.000Z</time>
      </trkpt>
      <trkpt lat="43.7242" lon="5.9596">
        <ele>447</ele>
        <time>2016-04-23T09:03:20.000Z</time>
      </trkpt>
      <trkpt lat="43.7242" lon="5.9596">
        <ele>447</ele>
        <time>2016-04-23T09:03:22.000Z</time>
      </trkpt>
      <trkpt lat="43.7242" lon="5.9596">
        <ele>447</ele>
        <time>2016-04-23T09:03:24.000Z</time>
      </trkpt>
      <trkpt lat="43.7242" lon="5.9596">
        <ele>447</ele>
        <time>2016-04-23T09:03:26.000Z</time>
      </trkpt>
      <trkpt lat="43.7242" lon="5.9596">
        <ele>447</ele>
        <time>2016-04-23T09:03:28.000Z</time>
      </trkpt>
      <trkpt lat="43.7242" lon="5.9596">
        <ele>447</ele>
        <time>2016-04-23T09:03:30.000Z</time>
      </trkpt>
      <trkpt lat="43.7242" lon="5.9596">
        <ele>447</ele>
        <time>2016-04-23T09:03:32.000Z</time>
      </trkpt>
      <trkpt lat="43.7242" lon="5.9596">
        <ele>447</ele>
        <time>2016-04-23T09:03:34.000Z</time>
      </trkpt>
      <trkpt lat="43.7242" lon="5.9596">
        <ele>447</ele>
        <time>2016-04-23T09:03:36.000Z</time>
      </trkpt>
      <trkpt lat="43.7242" lon="5.9596">
        <ele>447</ele>
        <time>2016-04-23T09:03:38.000Z</time>
      </trkpt>
      <trkpt lat="43.7242" lon="5.9596">
        <ele>447</ele>
        <time>2016-04-23T09:03:40.000Z</time>
      </trkpt>
      <trkpt lat="43.7242" lon="5.9596">
        <ele>447</ele>
        <time>2016-04-23T09:03:42.000Z</time>
      </trkpt>
      <trkpt lat="43.7242" lon="5.9596">
        <ele>447</ele>
        <time>2016-04-23T09:03:44.000Z</time>
      </trkpt>
      <trkpt lat="43.7242" lon="5.9596">
        <ele>447</ele>
        <time>2016-04-23T09:03:46.000Z</time>
      </trkpt>
      <trkpt lat="43.72397" lon="5.95912">
        <ele>451</ele>
        <time>2016-04-23T09:03:56.000Z</time>
      </trkpt>
      <trkpt lat="43.72385" lon="5.95887">
        <ele>451</ele>
        <time>2016-04-23T09:03:58.000Z</time>
      </trkpt>
      <trkpt lat="43.72378" lon="5.95872">
        <ele>452</ele>
        <time>2016-04-23T09:04:00.000Z</time>
      </trkpt>
      <trkpt lat="43.72373" lon="5.95863">
        <ele>452</ele>
        <time>2016-04-23T09:04:02.000Z</time>
      </trkpt>
      <trkpt lat="43.7237" lon="5.95857">
        <ele>452</ele>
        <time>2016-04-23T09:04:04.000Z</time>
      </trkpt>
      <trkpt lat="43.72362" lon="5.95843">
        <ele>452</ele>
        <time>2016-04-23T09:04:08.000Z</time>
      </trkpt>
      <trkpt lat="43.72355" lon="5.95831">
        <ele>451</ele>
        <time>2016-04-23T09:04:14.000Z</time>
      </trkpt>
      <trkpt lat="43.72349" lon="5.95819">
        <ele>451</ele>
        <time>2016-04-23T09:04:20.000Z</time>
      </trkpt>
      <trkpt lat="43.72342" lon="5.95807">
        <ele>452</ele>
        <time>2016-04-23T09:04:26.000Z</time>
      </trkpt>
      <trkpt lat="43.72335" lon="5.95797">
        <ele>452</ele>
        <time>2016-04-23T09:04:32.000Z</time>
      </trkpt>
      <trkpt lat="43.72328" lon="5.95786">
        <ele>454</ele>
        <time>2016-04-23T09:04:38.000Z</time>
      </trkpt>
      <trkpt lat="43.72318" lon="5.95779">
        <ele>455</ele>
        <time>2016-04-23T09:04:44.000Z</time>
      </trkpt>
      <trkpt lat="43.72308" lon="5.95774">
        <ele>455</ele>
        <time>2016-04-23T09:04:50.000Z</time>
      </trkpt>
      <trkpt lat="43.72299" lon="5.95769">
        <ele>454</ele>
        <time>2016-04-23T09:04:56.000Z</time>
      </trkpt>
      <trkpt lat="43.72288" lon="5.95765">
        <ele>454</ele>
        <time>2016-04-23T09:05:02.000Z</time>
      </trkpt>
      <trkpt lat="43.72277" lon="5.95761">
        <ele>452</ele>
        <time>2016-04-23T09:05:08.000Z</time>
      </trkpt>
      <trkpt lat="43.72266" lon="5.95757">
        <ele>453</ele>
        <time>2016-04-23T09:05:14.000Z</time>
      </trkpt>
      <trkpt lat="43.72257" lon="5.95752">
        <ele>454</ele>
        <time>2016-04-23T09:05:20.000Z</time>
      </trkpt>
      <trkpt lat="43.72257" lon="5.95752">
        <ele>454</ele>
        <time>2016-04-23T09:05:22.000Z</time>
      </trkpt>
      <trkpt lat="43.72257" lon="5.95752">
        <ele>454</ele>
        <time>2016-04-23T09:05:24.000Z</time>
      </trkpt>
      <trkpt lat="43.72257" lon="5.95752">
        <ele>454</ele>
        <time>2016-04-23T09:05:26.000Z</time>
      </trkpt>
      <trkpt lat="43.72257" lon="5.95752">
        <ele>454</ele>
        <time>2016-04-23T09:05:28.000Z</time>
      </trkpt>
      <trkpt lat="43.72257" lon="5.95752">
        <ele>454</ele>
        <time>2016-04-23T09:05:30.000Z</time>
      </trkpt>
      <trkpt lat="43.72257" lon="5.95752">
        <ele>454</ele>
        <time>2016-04-23T09:05:32.000Z</time>
      </trkpt>
      <trkpt lat="43.72257" lon="5.95752">
        <ele>454</ele>
        <time>2016-04-23T09:05:34.000Z</time>
      </trkpt>
      <trkpt lat="43.72257" lon="5.95752">
        <ele>454</ele>
        <time>2016-04-23T09:05:36.000Z</time>
      </trkpt>
      <trkpt lat="43.72257" lon="5.95752">
        <ele>454</ele>
        <time>2016-04-23T09:05:38.000Z</time>
      </trkpt>
      <trkpt lat="43.72257" lon="5.95752">
        <ele>454</ele>
        <time>2016-04-23T09:05:40.000Z</time>
      </trkpt>
      <trkpt lat="43.72257" lon="5.95752">
        <ele>454</ele>
        <time>2016-04-23T09:05:42.000Z</time>
      </trkpt>
      <trkpt lat="43.72257" lon="5.95752">
        <ele>454</ele>
        <time>2016-04-23T09:05:44.000Z</time>
      </trkpt>
      <trkpt lat="43.72257" lon="5.95752">
        <ele>454</ele>
        <time>2016-04-23T09:05:46.000Z</time>
      </trkpt>
      <trkpt lat="43.72257" lon="5.95752">
        <ele>454</ele>
        <time>2016-04-23T09:05:48.000Z</time>
      </trkpt>
      <trkpt lat="43.72257" lon="5.95752">
        <ele>454</ele>
        <time>2016-04-23T09:05:50.000Z</time>
      </trkpt>
      <trkpt lat="43.72257" lon="5.95752">
        <ele>454</ele>
        <time>2016-04-23T09:05:52.000Z</time>
      </trkpt>
      <trkpt lat="43.72257" lon="5.95752">
        <ele>454</ele>
        <time>2016-04-23T09:05:54.000Z</time>
      </trkpt>
      <trkpt lat="43.72257" lon="5.95752">
        <ele>454</ele>
        <time>2016-04-23T09:05:56.000Z</time>
      </trkpt>
      <trkpt lat="43.72257" lon="5.95752">
        <ele>454</ele>
        <time>2016-04-23T09:05:58.000Z</time>
      </trkpt>
      <trkpt lat="43.72257" lon="5.95752">
        <ele>454</ele>
        <time>2016-04-23T09:06:00.000Z</time>
      </trkpt>
      <trkpt lat="43.72257" lon="5.95752">
        <ele>454</ele>
        <time>2016-04-23T09:06:02.000Z</time>
      </trkpt>
      <trkpt lat="43.72217" lon="5.95741">
        <ele>464</ele>
        <time>2016-04-23T09:06:12.000Z</time>
      </trkpt>
      <trkpt lat="43.72196" lon="5.95736">
        <ele>464</ele>
        <time>2016-04-23T09:06:14.000Z</time>
      </trkpt>
      <trkpt lat="43.72183" lon="5.95733">
        <ele>464</ele>
        <time>2016-04-23T09:06:16.000Z</time>
      </trkpt>
      <trkpt lat="43.72176" lon="5.95731">
        <ele>465</ele>
        <time>2016-04-23T09:06:18.000Z</time>
      </trkpt>
      <trkpt lat="43.7217" lon="5.9573">
        <ele>466</ele>
        <time>2016-04-23T09:06:20.000Z</time>
      </trkpt>
      <trkpt lat="43.7216" lon="5.95727">
        <ele>466</ele>
        <time>2016-04-23T09:06:24.000Z</time>
      </trkpt>
      <trkpt lat="43.72148" lon="5.9572">
        <ele>465</ele>
        <time>2016-04-23T09:06:32.000Z</time>
      </trkpt>
      <trkpt lat="43.72139" lon="5.95718">
        <ele>469</ele>
        <time>2016-04-23T09:06:38.000Z</time>
      </trkpt>
      <trkpt lat="43.7213" lon="5.95717">
        <ele>471</ele>
        <time>2016-04-23T09:06:44.000Z</time>
      </trkpt>
      <trkpt lat="43.7212" lon="5.95716">
        <ele>471</ele>
        <time>2016-04-23T09:06:50.000Z</time>
      </trkpt>
      <trkpt lat="43.72111" lon="5.95713">
        <ele>472</ele>
        <time>2016-04-23T09:06:56.000Z</time>
      </trkpt>
      <trkpt lat="43.72105" lon="5.957">
        <ele>475</ele>
        <time>2016-04-23T09:07:02.000Z</time>
      </trkpt>
      <trkpt lat="43.72108" lon="5.95687">
        <ele>477</ele>
        <time>2016-04-23T09:07:08.000Z</time>
      </trkpt>
      <trkpt lat="43.72114" lon="5.95676">
        <ele>480</ele>
        <time>2016-04-23T09:07:14.000Z</time>
      </trkpt>
      <trkpt lat="43.72117" lon="5.95663">
        <ele>482</ele>
        <time>2016-04-23T09:07:20.000Z</time>
      </trkpt>
      <trkpt lat="43.72117" lon="5.95649">
        <ele>484</ele>
        <time>2016-04-23T09:07:26.000Z</time>
      </trkpt>
      <trkpt lat="43.72112" lon="5.95636">
        <ele>486</ele>
        <time>2016-04-23T09:07:32.000Z</time>
      </trkpt>
      <trkpt lat="43.72107" lon="5.95622">
        <ele>487</ele>
        <time>2016-04-23T09:07:38.000Z</time>
      </trkpt>
      <trkpt lat="43.72099" lon="5.95611">
        <ele>486</ele>
        <time>2016-04-23T09:07:44.000Z</time>
      </trkpt>
      <trkpt lat="43.72094" lon="5.95607">
        <ele>486</ele>
        <time>2016-04-23T09:07:50.000Z</time>
      </trkpt>
      <trkpt lat="43.72089" lon="5.95604">
        <ele>486</ele>
        <time>2016-04-23T09:07:52.000Z</time>
      </trkpt>
      <trkpt lat="43.72084" lon="5.95601">
        <ele>486</ele>
        <time>2016-04-23T09:07:56.000Z</time>
      </trkpt>
      <trkpt lat="43.72079" lon="5.95598">
        <ele>485</ele>
        <time>2016-04-23T09:07:58.000Z</time>
      </trkpt>
      <trkpt lat="43.72073" lon="5.95595">
        <ele>484</ele>
        <time>2016-04-23T09:08:02.000Z</time>
      </trkpt>
      <trkpt lat="43.72069" lon="5.95592">
        <ele>483</ele>
        <time>2016-04-23T09:08:04.000Z</time>
      </trkpt>
      <trkpt lat="43.72063" lon="5.95589">
        <ele>482</ele>
        <time>2016-04-23T09:08:08.000Z</time>
      </trkpt>
      <trkpt lat="43.72058" lon="5.95585">
        <ele>485</ele>
        <time>2016-04-23T09:08:12.000Z</time>
      </trkpt>
      <trkpt lat="43.72058" lon="5.95585">
        <ele>485</ele>
        <time>2016-04-23T09:08:16.000Z</time>
      </trkpt>
      <trkpt lat="43.72058" lon="5.95585">
        <ele>485</ele>
        <time>2016-04-23T09:08:18.000Z</time>
      </trkpt>
      <trkpt lat="43.72058" lon="5.95585">
        <ele>485</ele>
        <time>2016-04-23T09:08:20.000Z</time>
      </trkpt>
      <trkpt lat="43.72058" lon="5.95585">
        <ele>485</ele>
        <time>2016-04-23T09:08:22.000Z</time>
      </trkpt>
      <trkpt lat="43.72058" lon="5.95585">
        <ele>485</ele>
        <time>2016-04-23T09:08:24.000Z</time>
      </trkpt>
      <trkpt lat="43.72058" lon="5.95585">
        <ele>485</ele>
        <time>2016-04-23T09:08:26.000Z</time>
      </trkpt>
      <trkpt lat="43.72058" lon="5.95585">
        <ele>485</ele>
        <time>2016-04-23T09:08:28.000Z</time>
      </trkpt>
      <trkpt lat="43.72058" lon="5.95585">
        <ele>485</ele>
        <time>2016-04-23T09:08:30.000Z</time>
      </trkpt>
      <trkpt lat="43.72058" lon="5.95585">
        <ele>485</ele>
        <time>2016-04-23T09:08:32.000Z</time>
      </trkpt>
      <trkpt lat="43.72058" lon="5.95585">
        <ele>485</ele>
        <time>2016-04-23T09:08:34.000Z</time>
      </trkpt>
      <trkpt lat="43.72058" lon="5.95585">
        <ele>485</ele>
        <time>2016-04-23T09:08:36.000Z</time>
      </trkpt>
      <trkpt lat="43.72058" lon="5.95585">
        <ele>485</ele>
        <time>2016-04-23T09:08:38.000Z</time>
      </trkpt>
      <trkpt lat="43.72058" lon="5.95585">
        <ele>485</ele>
        <time>2016-04-23T09:08:40.000Z</time>
      </trkpt>
      <trkpt lat="43.72058" lon="5.95585">
        <ele>485</ele>
        <time>2016-04-23T09:08:42.000Z</time>
      </trkpt>
      <trkpt lat="43.72058" lon="5.95585">
        <ele>485</ele>
        <time>2016-04-23T09:08:44.000Z</time>
      </trkpt>
      <trkpt lat="43.72046" lon="5.95568">
        <ele>496</ele>
        <time>2016-04-23T09:08:46.000Z</time>
      </trkpt>
      <trkpt lat="43.72042" lon="5.9556">
        <ele>497</ele>
        <time>2016-04-23T09:08:48.000Z</time>
      </trkpt>
      <trkpt lat="43.72046" lon="5.95557">
        <ele>502</ele>
        <time>2016-04-23T09:08:54.000Z</time>
      </trkpt>
      <trkpt lat="43.72052" lon="5.95557">
        <ele>503</ele>
        <time>2016-04-23T09:08:58.000Z</time>
      </trkpt>
      <trkpt lat="43.72057" lon="5.95557">
        <ele>506</ele>
        <time>2016-04-23T09:09:00.000Z</time>
      </trkpt>
      <trkpt lat="43.72063" lon="5.95556">
        <ele>506</ele>
        <time>2016-04-23T09:09:04.000Z</time>
      </trkpt>
      <trkpt lat="43.72067" lon="5.95554">
        <ele>506</ele>
        <time>2016-04-23T09:09:06.000Z</time>
      </trkpt>
      <trkpt lat="43.72067" lon="5.95554">
        <ele>506</ele>
        <time>2016-04-23T09:09:08.000Z</time>
      </trkpt>
      <trkpt lat="43.72067" lon="5.95554">
        <ele>506</ele>
        <time>2016-04-23T09:09:10.000Z</time>
      </trkpt>
      <trkpt lat="43.72067" lon="5.95554">
        <ele>506</ele>
        <time>2016-04-23T09:09:12.000Z</time>
      </trkpt>
      <trkpt lat="43.72067" lon="5.95554">
        <ele>506</ele>
        <time>2016-04-23T09:09:14.000Z</time>
      </trkpt>
      <trkpt lat="43.72067" lon="5.95554">
        <ele>506</ele>
        <time>2016-04-23T09:09:16.000Z</time>
      </trkpt>
      <trkpt lat="43.72067" lon="5.95554">
        <ele>506</ele>
        <time>2016-04-23T09:09:18.000Z</time>
      </trkpt>
      <trkpt lat="43.72067" lon="5.95554">
        <ele>506</ele>
        <time>2016-04-23T09:09:20.000Z</time>
      </trkpt>
      <trkpt lat="43.72067" lon="5.95554">
        <ele>506</ele>
        <time>2016-04-23T09:09:22.000Z</time>
      </trkpt>
      <trkpt lat="43.72067" lon="5.95554">
        <ele>506</ele>
        <time>2016-04-23T09:09:24.000Z</time>
      </trkpt>
      <trkpt lat="43.72067" lon="5.95554">
        <ele>506</ele>
        <time>2016-04-23T09:09:26.000Z</time>
      </trkpt>
      <trkpt lat="43.72067" lon="5.95554">
        <ele>506</ele>
        <time>2016-04-23T09:09:28.000Z</time>
      </trkpt>
      <trkpt lat="43.72067" lon="5.95554">
        <ele>506</ele>
        <time>2016-04-23T09:09:30.000Z</time>
      </trkpt>
      <trkpt lat="43.72067" lon="5.95554">
        <ele>506</ele>
        <time>2016-04-23T09:09:32.000Z</time>
      </trkpt>
      <trkpt lat="43.72067" lon="5.95554">
        <ele>506</ele>
        <time>2016-04-23T09:09:34.000Z</time>
      </trkpt>
      <trkpt lat="43.72067" lon="5.95554">
        <ele>506</ele>
        <time>2016-04-23T09:09:36.000Z</time>
      </trkpt>
      <trkpt lat="43.72067" lon="5.95554">
        <ele>506</ele>
        <time>2016-04-23T09:09:38.000Z</time>
      </trkpt>
      <trkpt lat="43.72067" lon="5.95554">
        <ele>506</ele>
        <time>2016-04-23T09:09:40.000Z</time>
      </trkpt>
      <trkpt lat="43.72067" lon="5.95554">
        <ele>506</ele>
        <time>2016-04-23T09:09:42.000Z</time>
      </trkpt>
      <trkpt lat="43.72067" lon="5.95554">
        <ele>506</ele>
        <time>2016-04-23T09:09:44.000Z</time>
      </trkpt>
      <trkpt lat="43.72067" lon="5.95554">
        <ele>506</ele>
        <time>2016-04-23T09:09:46.000Z</time>
      </trkpt>
      <trkpt lat="43.7203" lon="5.95529">
        <ele>504</ele>
        <time>2016-04-23T09:09:56.000Z</time>
      </trkpt>
      <trkpt lat="43.7201" lon="5.95516">
        <ele>504</ele>
        <time>2016-04-23T09:09:58.000Z</time>
      </trkpt>
      <trkpt lat="43.71999" lon="5.95507">
        <ele>506</ele>
        <time>2016-04-23T09:10:00.000Z</time>
      </trkpt>
      <trkpt lat="43.71992" lon="5.95502">
        <ele>505</ele>
        <time>2016-04-23T09:10:02.000Z</time>
      </trkpt>
      <trkpt lat="43.71988" lon="5.95498">
        <ele>506</ele>
        <time>2016-04-23T09:10:04.000Z</time>
      </trkpt>
      <trkpt lat="43.71979" lon="5.95488">
        <ele>509</ele>
        <time>2016-04-23T09:10:08.000Z</time>
      </trkpt>
      <trkpt lat="43.7197" lon="5.95482">
        <ele>509</ele>
        <time>2016-04-23T09:10:14.000Z</time>
      </trkpt>
      <trkpt lat="43.7196" lon="5.95475">
        <ele>509</ele>
        <time>2016-04-23T09:10:20.000Z</time>
      </trkpt>
      <trkpt lat="43.7196" lon="5.95475">
        <ele>509</ele>
        <time>2016-04-23T09:10:26.000Z</time>
      </trkpt>
      <trkpt lat="43.7196" lon="5.95475">
        <ele>509</ele>
        <time>2016-04-23T09:10:28.000Z</time>
      </trkpt>
      <trkpt lat="43.71942" lon="5.9546">
        <ele>511</ele>
        <time>2016-04-23T09:10:32.000Z</time>
      </trkpt>
      <trkpt lat="43.71933" lon="5.95453">
        <ele>510</ele>
        <time>2016-04-23T09:10:38.000Z</time>
      </trkpt>
      <trkpt lat="43.71922" lon="5.95446">
        <ele>506</ele>
        <time>2016-04-23T09:10:44.000Z</time>
      </trkpt>
      <trkpt lat="43.7191" lon="5.95438">
        <ele>498</ele>
        <time>2016-04-23T09:10:50.000Z</time>
      </trkpt>
      <trkpt lat="43.719" lon="5.95433">
        <ele>495</ele>
        <time>2016-04-23T09:10:54.000Z</time>
      </trkpt>
      <trkpt lat="43.71889" lon="5.95427">
        <ele>501</ele>
        <time>2016-04-23T09:10:58.000Z</time>
      </trkpt>
      <trkpt lat="43.71879" lon="5.9542">
        <ele>507</ele>
        <time>2016-04-23T09:11:02.000Z</time>
      </trkpt>
      <trkpt lat="43.71869" lon="5.95413">
        <ele>506</ele>
        <time>2016-04-23T09:11:06.000Z</time>
      </trkpt>
      <trkpt lat="43.71861" lon="5.95406">
        <ele>509</ele>
        <time>2016-04-23T09:11:10.000Z</time>
      </trkpt>
      <trkpt lat="43.71861" lon="5.95406">
        <ele>509</ele>
        <time>2016-04-23T09:11:12.000Z</time>
      </trkpt>
      <trkpt lat="43.71861" lon="5.95406">
        <ele>509</ele>
        <time>2016-04-23T09:11:14.000Z</time>
      </trkpt>
      <trkpt lat="43.71861" lon="5.95406">
        <ele>509</ele>
        <time>2016-04-23T09:11:16.000Z</time>
      </trkpt>
      <trkpt lat="43.71861" lon="5.95406">
        <ele>509</ele>
        <time>2016-04-23T09:11:18.000Z</time>
      </trkpt>
      <trkpt lat="43.71861" lon="5.95406">
        <ele>509</ele>
        <time>2016-04-23T09:11:20.000Z</time>
      </trkpt>
      <trkpt lat="43.71861" lon="5.95406">
        <ele>509</ele>
        <time>2016-04-23T09:11:22.000Z</time>
      </trkpt>
      <trkpt lat="43.71861" lon="5.95406">
        <ele>509</ele>
        <time>2016-04-23T09:11:24.000Z</time>
      </trkpt>
      <trkpt lat="43.71861" lon="5.95406">
        <ele>509</ele>
        <time>2016-04-23T09:11:26.000Z</time>
      </trkpt>
      <trkpt lat="43.71861" lon="5.95406">
        <ele>509</ele>
        <time>2016-04-23T09:11:28.000Z</time>
      </trkpt>
      <trkpt lat="43.71861" lon="5.95406">
        <ele>509</ele>
        <time>2016-04-23T09:11:30.000Z</time>
      </trkpt>
      <trkpt lat="43.71839" lon="5.95379">
        <ele>525</ele>
        <time>2016-04-23T09:11:40.000Z</time>
      </trkpt>
      <trkpt lat="43.71826" lon="5.95365">
        <ele>522</ele>
        <time>2016-04-23T09:11:42.000Z</time>
      </trkpt>
      <trkpt lat="43.71817" lon="5.95357">
        <ele>521</ele>
        <time>2016-04-23T09:11:44.000Z</time>
      </trkpt>
      <trkpt lat="43.71811" lon="5.95353">
        <ele>522</ele>
        <time>2016-04-23T09:11:46.000Z</time>
      </trkpt>
      <trkpt lat="43.71805" lon="5.9535">
        <ele>521</ele>
        <time>2016-04-23T09:11:48.000Z</time>
      </trkpt>
      <trkpt lat="43.71796" lon="5.95347">
        <ele>521</ele>
        <time>2016-04-23T09:11:50.000Z</time>
      </trkpt>
      <trkpt lat="43.71784" lon="5.95342">
        <ele>523</ele>
        <time>2016-04-23T09:11:56.000Z</time>
      </trkpt>
      <trkpt lat="43.71774" lon="5.95335">
        <ele>523</ele>
        <time>2016-04-23T09:12:02.000Z</time>
      </trkpt>
      <trkpt lat="43.71765" lon="5.95326">
        <ele>523</ele>
        <time>2016-04-23T09:12:08.000Z</time>
      </trkpt>
      <trkpt lat="43.71756" lon="5.95316">
        <ele>526</ele>
        <time>2016-04-23T09:12:14.000Z</time>
      </trkpt>
      <trkpt lat="43.71746" lon="5.95307">
        <ele>528</ele>
        <time>2016-04-23T09:12:20.000Z</time>
      </trkpt>
      <trkpt lat="43.71735" lon="5.95301">
        <ele>530</ele>
        <time>2016-04-23T09:12:26.000Z</time>
      </trkpt>
      <trkpt lat="43.71723" lon="5.95299">
        <ele>532</ele>
        <time>2016-04-23T09:12:32.000Z</time>
      </trkpt>
      <trkpt lat="43.71711" lon="5.95297">
        <ele>532</ele>
        <time>2016-04-23T09:12:38.000Z</time>
      </trkpt>
      <trkpt lat="43.71701" lon="5.95287">
        <ele>534</ele>
        <time>2016-04-23T09:12:44.000Z</time>
      </trkpt>
      <trkpt lat="43.71696" lon="5.95272">
        <ele>535</ele>
        <time>2016-04-23T09:12:50.000Z</time>
      </trkpt>
      <trkpt lat="43.7169" lon="5.95258">
        <ele>537</ele>
        <time>2016-04-23T09:12:56.000Z</time>
      </trkpt>
      <trkpt lat="43.7169" lon="5.95258">
        <ele>537</ele>
        <time>2016-04-23T09:13:00.000Z</time>
      </trkpt>
      <trkpt lat="43.7169" lon="5.95258">
        <ele>537</ele>
        <time>2016-04-23T09:13:02.000Z</time>
      </trkpt>
      <trkpt lat="43.7169" lon="5.95258">
        <ele>537</ele>
        <time>2016-04-23T09:13:04.000Z</time>
      </trkpt>
      <trkpt lat="43.7169" lon="5.95258">
        <ele>537</ele>
        <time>2016-04-23T09:13:06.000Z</time>
      </trkpt>
      <trkpt lat="43.7169" lon="5.95258">
        <ele>537</ele>
        <time>2016-04-23T09:13:08.000Z</time>
      </trkpt>
      <trkpt lat="43.7169" lon="5.95258">
        <ele>537</ele>
        <time>2016-04-23T09:13:10.000Z</time>
      </trkpt>
      <trkpt lat="43.7169" lon="5.95258">
        <ele>537</ele>
        <time>2016-04-23T09:13:12.000Z</time>
      </trkpt>
      <trkpt lat="43.7169" lon="5.95258">
        <ele>537</ele>
        <time>2016-04-23T09:13:14.000Z</time>
      </trkpt>
      <trkpt lat="43.7169" lon="5.95258">
        <ele>537</ele>
        <time>2016-04-23T09:13:16.000Z</time>
      </trkpt>
      <trkpt lat="43.7169" lon="5.95258">
        <ele>537</ele>
        <time>2016-04-23T09:13:18.000Z</time>
      </trkpt>
      <trkpt lat="43.7169" lon="5.95258">
        <ele>537</ele>
        <time>2016-04-23T09:13:20.000Z</time>
      </trkpt>
      <trkpt lat="43.7169" lon="5.95258">
        <ele>537</ele>
        <time>2016-04-23T09:13:22.000Z</time>
      </trkpt>
      <trkpt lat="43.7169" lon="5.95258">
        <ele>537</ele>
        <time>2016-04-23T09:13:24.000Z</time>
      </trkpt>
      <trkpt lat="43.7169" lon="5.95258">
        <ele>537</ele>
        <time>2016-04-23T09:13:26.000Z</time>
      </trkpt>
      <trkpt lat="43.7169" lon="5.95258">
        <ele>537</ele>
        <time>2016-04-23T09:13:28.000Z</time>
      </trkpt>
      <trkpt lat="43.7169" lon="5.95258">
        <ele>537</ele>
        <time>2016-04-23T09:13:30.000Z</time>
      </trkpt>
      <trkpt lat="43.7169" lon="5.95258">
        <ele>537</ele>
        <time>2016-04-23T09:13:32.000Z</time>
      </trkpt>
      <trkpt lat="43.7169" lon="5.95258">
        <ele>537</ele>
        <time>2016-04-23T09:13:34.000Z</time>
      </trkpt>
      <trkpt lat="43.7169" lon="5.95258">
        <ele>537</ele>
        <time>2016-04-23T09:13:36.000Z</time>
      </trkpt>
      <trkpt lat="43.7169" lon="5.95258">
        <ele>537</ele>
        <time>2016-04-23T09:13:38.000Z</time>
      </trkpt>
      <trkpt lat="43.7166" lon="5.95211">
        <ele>544</ele>
        <time>2016-04-23T09:13:48.000Z</time>
      </trkpt>
      <trkpt lat="43.71644" lon="5.95186">
        <ele>545</ele>
        <time>2016-04-23T09:13:50.000Z</time>
      </trkpt>
      <trkpt lat="43.71635" lon="5.95172">
        <ele>545</ele>
        <time>2016-04-23T09:13:52.000Z</time>
      </trkpt>
      <trkpt lat="43.71629" lon="5.95163">
        <ele>545</ele>
        <time>2016-04-23T09:13:54.000Z</time>
      </trkpt>
      <trkpt lat="43.71626" lon="5.95157">
        <ele>546</ele>
        <time>2016-04-23T09:13:56.000Z</time>
      </trkpt>
      <trkpt lat="43.71626" lon="5.95157">
        <ele>546</ele>
        <time>2016-04-23T09:13:58.000Z</time>
      </trkpt>
      <trkpt lat="43.71626" lon="5.95157">
        <ele>546</ele>
        <time>2016-04-23T09:14:00.000Z</time>
      </trkpt>
      <trkpt lat="43.71626" lon="5.95157">
        <ele>546</ele>
        <time>2016-04-23T09:14:02.000Z</time>
      </trkpt>
      <trkpt lat="43.71626" lon="5.95157">
        <ele>546</ele>
        <time>2016-04-23T09:14:04.000Z</time>
      </trkpt>
      <trkpt lat="43.71626" lon="5.95157">
        <ele>546</ele>
        <time>2016-04-23T09:14:06.000Z</time>
      </trkpt>
      <trkpt lat="43.71626" lon="5.95157">
        <ele>546</ele>
        <time>2016-04-23T09:14:08.000Z</time>
      </trkpt>
      <trkpt lat="43.71626" lon="5.95157">
        <ele>546</ele>
        <time>2016-04-23T09:14:10.000Z</time>
      </trkpt>
      <trkpt lat="43.71626" lon="5.95157">
        <ele>546</ele>
        <time>2016-04-23T09:14:12.000Z</time>
      </trkpt>
      <trkpt lat="43.71626" lon="5.95157">
        <ele>546</ele>
        <time>2016-04-23T09:14:14.000Z</time>
      </trkpt>
      <trkpt lat="43.71626" lon="5.95157">
        <ele>546</ele>
        <time>2016-04-23T09:14:16.000Z</time>
      </trkpt>
      <trkpt lat="43.71626" lon="5.95157">
        <ele>546</ele>
        <time>2016-04-23T09:14:18.000Z</time>
      </trkpt>
      <trkpt lat="43.71626" lon="5.95157">
        <ele>546</ele>
        <time>2016-04-23T09:14:20.000Z</time>
      </trkpt>
      <trkpt lat="43.71626" lon="5.95157">
        <ele>546</ele>
        <time>2016-04-23T09:14:22.000Z</time>
      </trkpt>
      <trkpt lat="43.71626" lon="5.95157">
        <ele>546</ele>
        <time>2016-04-23T09:14:24.000Z</time>
      </trkpt>
      <trkpt lat="43.71626" lon="5.95157">
        <ele>546</ele>
        <time>2016-04-23T09:14:26.000Z</time>
      </trkpt>
      <trkpt lat="43.71626" lon="5.95157">
        <ele>546</ele>
        <time>2016-04-23T09:14:28.000Z</time>
      </trkpt>
      <trkpt lat="43.71626" lon="5.95157">
        <ele>546</ele>
        <time>2016-04-23T09:14:30.000Z</time>
      </trkpt>
      <trkpt lat="43.71626" lon="5.95157">
        <ele>546</ele>
        <time>2016-04-23T09:14:32.000Z</time>
      </trkpt>
      <trkpt lat="43.71626" lon="5.95157">
        <ele>546</ele>
        <time>2016-04-23T09:14:34.000Z</time>
      </trkpt>
      <trkpt lat="43.71626" lon="5.95157">
        <ele>546</ele>
        <time>2016-04-23T09:14:36.000Z</time>
      </trkpt>
      <trkpt lat="43.71626" lon="5.95157">
        <ele>546</ele>
        <time>2016-04-23T09:14:38.000Z</time>
      </trkpt>
      <trkpt lat="43.71558" lon="5.95098">
        <ele>550</ele>
        <time>2016-04-23T09:14:48.000Z</time>
      </trkpt>
      <trkpt lat="43.71549" lon="5.95093">
        <ele>552</ele>
        <time>2016-04-23T09:14:54.000Z</time>
      </trkpt>
      <trkpt lat="43.71542" lon="5.95085">
        <ele>553</ele>
        <time>2016-04-23T09:15:00.000Z</time>
      </trkpt>
      <trkpt lat="43.71537" lon="5.95083">
        <ele>554</ele>
        <time>2016-04-23T09:15:06.000Z</time>
      </trkpt>
      <trkpt lat="43.71532" lon="5.9508">
        <ele>555</ele>
        <time>2016-04-23T09:15:10.000Z</time>
      </trkpt>
      <trkpt lat="43.71527" lon="5.95078">
        <ele>556</ele>
        <time>2016-04-23T09:15:14.000Z</time>
      </trkpt>
      <trkpt lat="43.71522" lon="5.95076">
        <ele>556</ele>
        <time>2016-04-23T09:15:18.000Z</time>
      </trkpt>
      <trkpt lat="43.71517" lon="5.95073">
        <ele>557</ele>
        <time>2016-04-23T09:15:22.000Z</time>
      </trkpt>
      <trkpt lat="43.71512" lon="5.9507">
        <ele>557</ele>
        <time>2016-04-23T09:15:26.000Z</time>
      </trkpt>
      <trkpt lat="43.71507" lon="5.95067">
        <ele>559</ele>
        <time>2016-04-23T09:15:30.000Z</time>
      </trkpt>
      <trkpt lat="43.71507" lon="5.95067">
        <ele>559</ele>
        <time>2016-04-23T09:15:32.000Z</time>
      </trkpt>
      <trkpt lat="43.71507" lon="5.95067">
        <ele>559</ele>
        <time>2016-04-23T09:15:34.000Z</time>
      </trkpt>
      <trkpt lat="43.71507" lon="5.95067">
        <ele>559</ele>
        <time>2016-04-23T09:15:36.000Z</time>
      </trkpt>
      <trkpt lat="43.71507" lon="5.95067">
        <ele>559</ele>
        <time>2016-04-23T09:15:38.000Z</time>
      </trkpt>
      <trkpt lat="43.71507" lon="5.95067">
        <ele>559</ele>
        <time>2016-04-23T09:15:40.000Z</time>
      </trkpt>
      <trkpt lat="43.71496" lon="5.95058">
        <ele>562</ele>
        <time>2016-04-23T09:15:44.000Z</time>
      </trkpt>
      <trkpt lat="43.7149" lon="5.95051">
        <ele>564</ele>
        <time>2016-04-23T09:15:46.000Z</time>
      </trkpt>
      <trkpt lat="43.71487" lon="5.95045">
        <ele>565</ele>
        <time>2016-04-23T09:15:48.000Z</time>
      </trkpt>
      <trkpt lat="43.71485" lon="5.95038">
        <ele>566</ele>
        <time>2016-04-23T09:15:52.000Z</time>
      </trkpt>
      <trkpt lat="43.71486" lon="5.95031">
        <ele>568</ele>
        <time>2016-04-23T09:15:56.000Z</time>
      </trkpt>
      <trkpt lat="43.71489" lon="5.95025">
        <ele>569</ele>
        <time>2016-04-23T09:16:00.000Z</time>
      </trkpt>
      <trkpt lat="43.71493" lon="5.95019">
        <ele>571</ele>
        <time>2016-04-23T09:16:04.000Z</time>
      </trkpt>
      <trkpt lat="43.71497" lon="5.95013">
        <ele>573</ele>
        <time>2016-04-23T09:16:08.000Z</time>
      </trkpt>
      <trkpt lat="43.715" lon="5.95007">
        <ele>575</ele>
        <time>2016-04-23T09:16:12.000Z</time>
      </trkpt>
      <trkpt lat="43.71502" lon="5.95">
        <ele>576</ele>
        <time>2016-04-23T09:16:16.000Z</time>
      </trkpt>
      <trkpt lat="43.71502" lon="5.95">
        <ele>576</ele>
        <time>2016-04-23T09:16:18.000Z</time>
      </trkpt>
      <trkpt lat="43.71502" lon="5.95">
        <ele>576</ele>
        <time>2016-04-23T09:16:20.000Z</time>
      </trkpt>
      <trkpt lat="43.71502" lon="5.95">
        <ele>576</ele>
        <time>2016-04-23T09:16:22.000Z</time>
      </trkpt>
      <trkpt lat="43.715" lon="5.94989">
        <ele>576</ele>
        <time>2016-04-23T09:16:26.000Z</time>
      </trkpt>
      <trkpt lat="43.71497" lon="5.94982">
        <ele>576</ele>
        <time>2016-04-23T09:16:28.000Z</time>
      </trkpt>
      <trkpt lat="43.71491" lon="5.94978">
        <ele>576</ele>
        <time>2016-04-23T09:16:32.000Z</time>
      </trkpt>
      <trkpt lat="43.71487" lon="5.94975">
        <ele>577</ele>
        <time>2016-04-23T09:16:34.000Z</time>
      </trkpt>
      <trkpt lat="43.71481" lon="5.94972">
        <ele>577</ele>
        <time>2016-04-23T09:16:38.000Z</time>
      </trkpt>
      <trkpt lat="43.71476" lon="5.9497">
        <ele>577</ele>
        <time>2016-04-23T09:16:40.000Z</time>
      </trkpt>
      <trkpt lat="43.7147" lon="5.94967">
        <ele>578</ele>
        <time>2016-04-23T09:16:44.000Z</time>
      </trkpt>
      <trkpt lat="43.71466" lon="5.94965">
        <ele>577</ele>
        <time>2016-04-23T09:16:46.000Z</time>
      </trkpt>
      <trkpt lat="43.7146" lon="5.94963">
        <ele>579</ele>
        <time>2016-04-23T09:16:50.000Z</time>
      </trkpt>
      <trkpt lat="43.71455" lon="5.94961">
        <ele>579</ele>
        <time>2016-04-23T09:16:52.000Z</time>
      </trkpt>
      <trkpt lat="43.7145" lon="5.94958">
        <ele>580</ele>
        <time>2016-04-23T09:16:56.000Z</time>
      </trkpt>
      <trkpt lat="43.7145" lon="5.94958">
        <ele>580</ele>
        <time>2016-04-23T09:17:00.000Z</time>
      </trkpt>
      <trkpt lat="43.7145" lon="5.94958">
        <ele>580</ele>
        <time>2016-04-23T09:17:02.000Z</time>
      </trkpt>
      <trkpt lat="43.7145" lon="5.94958">
        <ele>580</ele>
        <time>2016-04-23T09:17:04.000Z</time>
      </trkpt>
      <trkpt lat="43.7145" lon="5.94958">
        <ele>580</ele>
        <time>2016-04-23T09:17:06.000Z</time>
      </trkpt>
      <trkpt lat="43.7145" lon="5.94958">
        <ele>580</ele>
        <time>2016-04-23T09:17:08.000Z</time>
      </trkpt>
      <trkpt lat="43.7145" lon="5.94958">
        <ele>580</ele>
        <time>2016-04-23T09:17:10.000Z</time>
      </trkpt>
      <trkpt lat="43.7145" lon="5.94958">
        <ele>580</ele>
        <time>2016-04-23T09:17:12.000Z</time>
      </trkpt>
      <trkpt lat="43.7145" lon="5.94958">
        <ele>580</ele>
        <time>2016-04-23T09:17:14.000Z</time>
      </trkpt>
      <trkpt lat="43.7145" lon="5.94958">
        <ele>580</ele>
        <time>2016-04-23T09:17:16.000Z</time>
      </trkpt>
      <trkpt lat="43.7145" lon="5.94958">
        <ele>580</ele>
        <time>2016-04-23T09:17:18.000Z</time>
      </trkpt>
      <trkpt lat="43.7145" lon="5.94958">
        <ele>580</ele>
        <time>2016-04-23T09:17:20.000Z</time>
      </trkpt>
      <trkpt lat="43.7145" lon="5.94958">
        <ele>580</ele>
        <time>2016-04-23T09:17:22.000Z</time>
      </trkpt>
      <trkpt lat="43.7145" lon="5.94958">
        <ele>580</ele>
        <time>2016-04-23T09:17:24.000Z</time>
      </trkpt>
      <trkpt lat="43.71411" lon="5.94956">
        <ele>581</ele>
        <time>2016-04-23T09:20:48.000Z</time>
      </trkpt>
      <trkpt lat="43.71411" lon="5.94956">
        <ele>581</ele>
        <time>2016-04-23T09:20:50.000Z</time>
      </trkpt>
      <trkpt lat="43.71411" lon="5.94956">
        <ele>581</ele>
        <time>2016-04-23T09:20:52.000Z</time>
      </trkpt>
      <trkpt lat="43.71411" lon="5.94956">
        <ele>581</ele>
        <time>2016-04-23T09:20:54.000Z</time>
      </trkpt>
      <trkpt lat="43.7141" lon="5.94971">
        <ele>580</ele>
        <time>2016-04-23T09:20:58.000Z</time>
      </trkpt>
      <trkpt lat="43.71407" lon="5.94983">
        <ele>581</ele>
        <time>2016-04-23T09:21:02.000Z</time>
      </trkpt>
      <trkpt lat="43.71408" lon="5.95">
        <ele>581</ele>
        <time>2016-04-23T09:21:06.000Z</time>
      </trkpt>
      <trkpt lat="43.71413" lon="5.95015">
        <ele>581</ele>
        <time>2016-04-23T09:21:10.000Z</time>
      </trkpt>
      <trkpt lat="43.71417" lon="5.95027">
        <ele>580</ele>
        <time>2016-04-23T09:21:14.000Z</time>
      </trkpt>
      <trkpt lat="43.71417" lon="5.95027">
        <ele>580</ele>
        <time>2016-04-23T09:21:16.000Z</time>
      </trkpt>
      <trkpt lat="43.71417" lon="5.95027">
        <ele>580</ele>
        <time>2016-04-23T09:21:18.000Z</time>
      </trkpt>
      <trkpt lat="43.71417" lon="5.95027">
        <ele>580</ele>
        <time>2016-04-23T09:21:20.000Z</time>
      </trkpt>
      <trkpt lat="43.71417" lon="5.95027">
        <ele>580</ele>
        <time>2016-04-23T09:21:22.000Z</time>
      </trkpt>
      <trkpt lat="43.71417" lon="5.95027">
        <ele>580</ele>
        <time>2016-04-23T09:21:24.000Z</time>
      </trkpt>
      <trkpt lat="43.71417" lon="5.95027">
        <ele>580</ele>
        <time>2016-04-23T09:21:26.000Z</time>
      </trkpt>
      <trkpt lat="43.71417" lon="5.95027">
        <ele>580</ele>
        <time>2016-04-23T09:21:28.000Z</time>
      </trkpt>
      <trkpt lat="43.71417" lon="5.95027">
        <ele>580</ele>
        <time>2016-04-23T09:21:30.000Z</time>
      </trkpt>
      <trkpt lat="43.71417" lon="5.95027">
        <ele>580</ele>
        <time>2016-04-23T09:21:32.000Z</time>
      </trkpt>
      <trkpt lat="43.71417" lon="5.95027">
        <ele>580</ele>
        <time>2016-04-23T09:21:34.000Z</time>
      </trkpt>
      <trkpt lat="43.71417" lon="5.95027">
        <ele>580</ele>
        <time>2016-04-23T09:21:36.000Z</time>
      </trkpt>
      <trkpt lat="43.71417" lon="5.95027">
        <ele>580</ele>
        <time>2016-04-23T09:21:38.000Z</time>
      </trkpt>
      <trkpt lat="43.71417" lon="5.95027">
        <ele>580</ele>
        <time>2016-04-23T09:21:40.000Z</time>
      </trkpt>
      <trkpt lat="43.71417" lon="5.95027">
        <ele>580</ele>
        <time>2016-04-23T09:21:42.000Z</time>
      </trkpt>
      <trkpt lat="43.71417" lon="5.95027">
        <ele>580</ele>
        <time>2016-04-23T09:21:44.000Z</time>
      </trkpt>
      <trkpt lat="43.71417" lon="5.95027">
        <ele>580</ele>
        <time>2016-04-23T09:21:46.000Z</time>
      </trkpt>
      <trkpt lat="43.71417" lon="5.95027">
        <ele>580</ele>
        <time>2016-04-23T09:21:48.000Z</time>
      </trkpt>
      <trkpt lat="43.71417" lon="5.95027">
        <ele>580</ele>
        <time>2016-04-23T09:21:50.000Z</time>
      </trkpt>
      <trkpt lat="43.71417" lon="5.95027">
        <ele>580</ele>
        <time>2016-04-23T09:21:52.000Z</time>
      </trkpt>
      <trkpt lat="43.71417" lon="5.95027">
        <ele>580</ele>
        <time>2016-04-23T09:21:54.000Z</time>
      </trkpt>
      <trkpt lat="43.71417" lon="5.95027">
        <ele>580</ele>
        <time>2016-04-23T09:21:56.000Z</time>
      </trkpt>
      <trkpt lat="43.71417" lon="5.95027">
        <ele>580</ele>
        <time>2016-04-23T09:21:58.000Z</time>
      </trkpt>
      <trkpt lat="43.71417" lon="5.95027">
        <ele>580</ele>
        <time>2016-04-23T09:22:00.000Z</time>
      </trkpt>
      <trkpt lat="43.71417" lon="5.95027">
        <ele>580</ele>
        <time>2016-04-23T09:22:02.000Z</time>
      </trkpt>
      <trkpt lat="43.71417" lon="5.95027">
        <ele>580</ele>
        <time>2016-04-23T09:22:04.000Z</time>
      </trkpt>
      <trkpt lat="43.71417" lon="5.95027">
        <ele>580</ele>
        <time>2016-04-23T09:22:06.000Z</time>
      </trkpt>
      <trkpt lat="43.71417" lon="5.95027">
        <ele>580</ele>
        <time>2016-04-23T09:22:08.000Z</time>
      </trkpt>
      <trkpt lat="43.71417" lon="5.95027">
        <ele>580</ele>
        <time>2016-04-23T09:22:10.000Z</time>
      </trkpt>
      <trkpt lat="43.71417" lon="5.95027">
        <ele>580</ele>
        <time>2016-04-23T09:22:12.000Z</time>
      </trkpt>
      <trkpt lat="43.71417" lon="5.95027">
        <ele>580</ele>
        <time>2016-04-23T09:22:14.000Z</time>
      </trkpt>
      <trkpt lat="43.71417" lon="5.95027">
        <ele>580</ele>
        <time>2016-04-23T09:22:16.000Z</time>
      </trkpt>
      <trkpt lat="43.71417" lon="5.95027">
        <ele>580</ele>
        <time>2016-04-23T09:22:18.000Z</time>
      </trkpt>
      <trkpt lat="43.71447" lon="5.951">
        <ele>582</ele>
        <time>2016-04-23T09:22:20.000Z</time>
      </trkpt>
      <trkpt lat="43.71463" lon="5.95138">
        <ele>583</ele>
        <time>2016-04-23T09:22:22.000Z</time>
      </trkpt>
      <trkpt lat="43.71473" lon="5.9516">
        <ele>583</ele>
        <time>2016-04-23T09:22:24.000Z</time>
      </trkpt>
      <trkpt lat="43.71478" lon="5.95172">
        <ele>583</ele>
        <time>2016-04-23T09:22:26.000Z</time>
      </trkpt>
      <trkpt lat="43.71482" lon="5.9518">
        <ele>585</ele>
        <time>2016-04-23T09:22:28.000Z</time>
      </trkpt>
      <trkpt lat="43.71482" lon="5.9518">
        <ele>585</ele>
        <time>2016-04-23T09:22:30.000Z</time>
      </trkpt>
      <trkpt lat="43.71482" lon="5.9518">
        <ele>585</ele>
        <time>2016-04-23T09:22:32.000Z</time>
      </trkpt>
      <trkpt lat="43.71482" lon="5.9518">
        <ele>585</ele>
        <time>2016-04-23T09:22:34.000Z</time>
      </trkpt>
      <trkpt lat="43.71499" lon="5.95201">
        <ele>586</ele>
        <time>2016-04-23T09:22:38.000Z</time>
      </trkpt>
      <trkpt lat="43.71508" lon="5.95212">
        <ele>585</ele>
        <time>2016-04-23T09:22:44.000Z</time>
      </trkpt>
      <trkpt lat="43.71508" lon="5.95212">
        <ele>585</ele>
        <time>2016-04-23T09:22:46.000Z</time>
      </trkpt>
      <trkpt lat="43.71508" lon="5.95212">
        <ele>585</ele>
        <time>2016-04-23T09:22:48.000Z</time>
      </trkpt>
      <trkpt lat="43.71508" lon="5.95212">
        <ele>585</ele>
        <time>2016-04-23T09:22:50.000Z</time>
      </trkpt>
      <trkpt lat="43.71508" lon="5.95212">
        <ele>585</ele>
        <time>2016-04-23T09:22:52.000Z</time>
      </trkpt>
      <trkpt lat="43.71508" lon="5.95212">
        <ele>585</ele>
        <time>2016-04-23T09:22:54.000Z</time>
      </trkpt>
      <trkpt lat="43.71508" lon="5.95212">
        <ele>585</ele>
        <time>2016-04-23T09:22:56.000Z</time>
      </trkpt>
      <trkpt lat="43.71508" lon="5.95212">
        <ele>585</ele>
        <time>2016-04-23T09:22:58.000Z</time>
      </trkpt>
      <trkpt lat="43.71508" lon="5.95212">
        <ele>585</ele>
        <time>2016-04-23T09:23:00.000Z</time>
      </trkpt>
      <trkpt lat="43.71508" lon="5.95212">
        <ele>585</ele>
        <time>2016-04-23T09:23:02.000Z</time>
      </trkpt>
      <trkpt lat="43.71534" lon="5.95247">
        <ele>582</ele>
        <time>2016-04-23T09:23:04.000Z</time>
      </trkpt>
      <trkpt lat="43.71542" lon="5.95254">
        <ele>582</ele>
        <time>2016-04-23T09:23:08.000Z</time>
      </trkpt>
      <trkpt lat="43.71548" lon="5.95267">
        <ele>583</ele>
        <time>2016-04-23T09:23:14.000Z</time>
      </trkpt>
      <trkpt lat="43.71548" lon="5.95267">
        <ele>583</ele>
        <time>2016-04-23T09:23:16.000Z</time>
      </trkpt>
      <trkpt lat="43.71548" lon="5.95267">
        <ele>583</ele>
        <time>2016-04-23T09:23:18.000Z</time>
      </trkpt>
      <trkpt lat="43.71548" lon="5.95267">
        <ele>583</ele>
        <time>2016-04-23T09:23:20.000Z</time>
      </trkpt>
      <trkpt lat="43.71548" lon="5.95267">
        <ele>583</ele>
        <time>2016-04-23T09:23:22.000Z</time>
      </trkpt>
      <trkpt lat="43.71548" lon="5.95267">
        <ele>583</ele>
        <time>2016-04-23T09:23:24.000Z</time>
      </trkpt>
      <trkpt lat="43.71538" lon="5.95298">
        <ele>585</ele>
        <time>2016-04-23T09:23:26.000Z</time>
      </trkpt>
      <trkpt lat="43.71532" lon="5.95308">
        <ele>585</ele>
        <time>2016-04-23T09:23:30.000Z</time>
      </trkpt>
      <trkpt lat="43.71526" lon="5.95319">
        <ele>585</ele>
        <time>2016-04-23T09:23:34.000Z</time>
      </trkpt>
      <trkpt lat="43.71524" lon="5.9533">
        <ele>585</ele>
        <time>2016-04-23T09:23:38.000Z</time>
      </trkpt>
      <trkpt lat="43.71524" lon="5.9533">
        <ele>585</ele>
        <time>2016-04-23T09:23:40.000Z</time>
      </trkpt>
      <trkpt lat="43.71524" lon="5.9533">
        <ele>585</ele>
        <time>2016-04-23T09:23:42.000Z</time>
      </trkpt>
      <trkpt lat="43.71524" lon="5.9533">
        <ele>585</ele>
        <time>2016-04-23T09:23:44.000Z</time>
      </trkpt>
      <trkpt lat="43.71509" lon="5.95327">
        <ele>585</ele>
        <time>2016-04-23T09:24:27.000Z</time>
      </trkpt>
      <trkpt lat="43.715" lon="5.95333">
        <ele>585</ele>
        <time>2016-04-23T09:24:33.000Z</time>
      </trkpt>
      <trkpt lat="43.715" lon="5.95333">
        <ele>585</ele>
        <time>2016-04-23T09:24:35.000Z</time>
      </trkpt>
      <trkpt lat="43.715" lon="5.95333">
        <ele>585</ele>
        <time>2016-04-23T09:24:37.000Z</time>
      </trkpt>
      <trkpt lat="43.715" lon="5.95333">
        <ele>585</ele>
        <time>2016-04-23T09:24:39.000Z</time>
      </trkpt>
      <trkpt lat="43.7149" lon="5.95346">
        <ele>584</ele>
        <time>2016-04-23T09:24:43.000Z</time>
      </trkpt>
      <trkpt lat="43.7148" lon="5.95354">
        <ele>584</ele>
        <time>2016-04-23T09:24:49.000Z</time>
      </trkpt>
      <trkpt lat="43.71468" lon="5.95354">
        <ele>584</ele>
        <time>2016-04-23T09:24:55.000Z</time>
      </trkpt>
      <trkpt lat="43.71468" lon="5.95354">
        <ele>584</ele>
        <time>2016-04-23T09:24:57.000Z</time>
      </trkpt>
      <trkpt lat="43.71468" lon="5.95354">
        <ele>584</ele>
        <time>2016-04-23T09:24:59.000Z</time>
      </trkpt>
      <trkpt lat="43.71468" lon="5.95354">
        <ele>584</ele>
        <time>2016-04-23T09:25:01.000Z</time>
      </trkpt>
      <trkpt lat="43.71468" lon="5.95354">
        <ele>584</ele>
        <time>2016-04-23T09:25:03.000Z</time>
      </trkpt>
      <trkpt lat="43.71468" lon="5.95354">
        <ele>584</ele>
        <time>2016-04-23T09:25:05.000Z</time>
      </trkpt>
      <trkpt lat="43.71468" lon="5.95354">
        <ele>584</ele>
        <time>2016-04-23T09:25:07.000Z</time>
      </trkpt>
      <trkpt lat="43.71468" lon="5.95354">
        <ele>584</ele>
        <time>2016-04-23T09:25:09.000Z</time>
      </trkpt>
      <trkpt lat="43.71468" lon="5.95354">
        <ele>584</ele>
        <time>2016-04-23T09:25:11.000Z</time>
      </trkpt>
      <trkpt lat="43.71454" lon="5.95359">
        <ele>585</ele>
        <time>2016-04-23T09:25:24.000Z</time>
      </trkpt>
      <trkpt lat="43.71454" lon="5.95359">
        <ele>585</ele>
        <time>2016-04-23T09:25:30.000Z</time>
      </trkpt>
      <trkpt lat="43.71454" lon="5.95359">
        <ele>585</ele>
        <time>2016-04-23T09:25:32.000Z</time>
      </trkpt>
      <trkpt lat="43.71446" lon="5.95364">
        <ele>585</ele>
        <time>2016-04-23T09:25:41.000Z</time>
      </trkpt>
      <trkpt lat="43.71458" lon="5.95358">
        <ele>589</ele>
        <time>2016-04-23T09:26:03.000Z</time>
      </trkpt>
      <trkpt lat="43.71458" lon="5.95358">
        <ele>589</ele>
        <time>2016-04-23T09:26:09.000Z</time>
      </trkpt>
      <trkpt lat="43.71458" lon="5.95358">
        <ele>589</ele>
        <time>2016-04-23T09:26:13.000Z</time>
      </trkpt>
      <trkpt lat="43.71458" lon="5.95358">
        <ele>589</ele>
        <time>2016-04-23T09:26:15.000Z</time>
      </trkpt>
      <trkpt lat="43.71476" lon="5.9535">
        <ele>588</ele>
        <time>2016-04-23T09:26:44.000Z</time>
      </trkpt>
      <trkpt lat="43.71486" lon="5.95348">
        <ele>590</ele>
        <time>2016-04-23T09:26:54.000Z</time>
      </trkpt>
      <trkpt lat="43.71494" lon="5.95341">
        <ele>590</ele>
        <time>2016-04-23T09:27:02.000Z</time>
      </trkpt>
      <trkpt lat="43.71494" lon="5.95341">
        <ele>590</ele>
        <time>2016-04-23T09:27:04.000Z</time>
      </trkpt>
      <trkpt lat="43.71494" lon="5.95341">
        <ele>590</ele>
        <time>2016-04-23T09:27:06.000Z</time>
      </trkpt>
      <trkpt lat="43.71494" lon="5.95341">
        <ele>590</ele>
        <time>2016-04-23T09:27:08.000Z</time>
      </trkpt>
      <trkpt lat="43.71494" lon="5.95341">
        <ele>590</ele>
        <time>2016-04-23T09:27:10.000Z</time>
      </trkpt>
      <trkpt lat="43.71494" lon="5.95341">
        <ele>590</ele>
        <time>2016-04-23T09:27:12.000Z</time>
      </trkpt>
      <trkpt lat="43.71494" lon="5.95341">
        <ele>590</ele>
        <time>2016-04-23T09:27:14.000Z</time>
      </trkpt>
      <trkpt lat="43.71506" lon="5.9533">
        <ele>591</ele>
        <time>2016-04-23T09:27:16.000Z</time>
      </trkpt>
      <trkpt lat="43.71515" lon="5.95327">
        <ele>591</ele>
        <time>2016-04-23T09:27:24.000Z</time>
      </trkpt>
      <trkpt lat="43.71515" lon="5.95327">
        <ele>591</ele>
        <time>2016-04-23T09:27:32.000Z</time>
      </trkpt>
      <trkpt lat="43.71515" lon="5.95327">
        <ele>591</ele>
        <time>2016-04-23T09:27:34.000Z</time>
      </trkpt>
      <trkpt lat="43.71527" lon="5.95343">
        <ele>591</ele>
        <time>2016-04-23T09:27:46.000Z</time>
      </trkpt>
      <trkpt lat="43.71524" lon="5.95359">
        <ele>589</ele>
        <time>2016-04-23T09:27:52.000Z</time>
      </trkpt>
      <trkpt lat="43.7152" lon="5.95372">
        <ele>589</ele>
        <time>2016-04-23T09:27:56.000Z</time>
      </trkpt>
      <trkpt lat="43.71519" lon="5.95379">
        <ele>587</ele>
        <time>2016-04-23T09:28:00.000Z</time>
      </trkpt>
      <trkpt lat="43.71519" lon="5.95386">
        <ele>585</ele>
        <time>2016-04-23T09:28:02.000Z</time>
      </trkpt>
      <trkpt lat="43.71519" lon="5.95393">
        <ele>586</ele>
        <time>2016-04-23T09:28:04.000Z</time>
      </trkpt>
      <trkpt lat="43.71519" lon="5.954">
        <ele>585</ele>
        <time>2016-04-23T09:28:06.000Z</time>
      </trkpt>
      <trkpt lat="43.7152" lon="5.95407">
        <ele>586</ele>
        <time>2016-04-23T09:28:08.000Z</time>
      </trkpt>
      <trkpt lat="43.71519" lon="5.9542">
        <ele>585</ele>
        <time>2016-04-23T09:28:10.000Z</time>
      </trkpt>
      <trkpt lat="43.71519" lon="5.9542">
        <ele>585</ele>
        <time>2016-04-23T09:28:12.000Z</time>
      </trkpt>
      <trkpt lat="43.71519" lon="5.9542">
        <ele>585</ele>
        <time>2016-04-23T09:28:14.000Z</time>
      </trkpt>
      <trkpt lat="43.71519" lon="5.9542">
        <ele>585</ele>
        <time>2016-04-23T09:28:16.000Z</time>
      </trkpt>
      <trkpt lat="43.71519" lon="5.9542">
        <ele>585</ele>
        <time>2016-04-23T09:28:18.000Z</time>
      </trkpt>
      <trkpt lat="43.71519" lon="5.9542">
        <ele>585</ele>
        <time>2016-04-23T09:28:20.000Z</time>
      </trkpt>
      <trkpt lat="43.71519" lon="5.9542">
        <ele>585</ele>
        <time>2016-04-23T09:28:22.000Z</time>
      </trkpt>
      <trkpt lat="43.71519" lon="5.9542">
        <ele>585</ele>
        <time>2016-04-23T09:28:24.000Z</time>
      </trkpt>
      <trkpt lat="43.71519" lon="5.9542">
        <ele>585</ele>
        <time>2016-04-23T09:28:26.000Z</time>
      </trkpt>
      <trkpt lat="43.71519" lon="5.9542">
        <ele>585</ele>
        <time>2016-04-23T09:28:28.000Z</time>
      </trkpt>
      <trkpt lat="43.71519" lon="5.9542">
        <ele>585</ele>
        <time>2016-04-23T09:28:30.000Z</time>
      </trkpt>
      <trkpt lat="43.71501" lon="5.95462">
        <ele>588</ele>
        <time>2016-04-23T09:28:32.000Z</time>
      </trkpt>
      <trkpt lat="43.71492" lon="5.95465">
        <ele>586</ele>
        <time>2016-04-23T09:28:36.000Z</time>
      </trkpt>
      <trkpt lat="43.71483" lon="5.95468">
        <ele>586</ele>
        <time>2016-04-23T09:28:40.000Z</time>
      </trkpt>
      <trkpt lat="43.71473" lon="5.95469">
        <ele>586</ele>
        <time>2016-04-23T09:28:44.000Z</time>
      </trkpt>
      <trkpt lat="43.71461" lon="5.95471">
        <ele>584</ele>
        <time>2016-04-23T09:28:48.000Z</time>
      </trkpt>
      <trkpt lat="43.71449" lon="5.95474">
        <ele>582</ele>
        <time>2016-04-23T09:28:52.000Z</time>
      </trkpt>
      <trkpt lat="43.71436" lon="5.95477">
        <ele>584</ele>
        <time>2016-04-23T09:28:56.000Z</time>
      </trkpt>
      <trkpt lat="43.71426" lon="5.95493">
        <ele>583</ele>
        <time>2016-04-23T09:29:00.000Z</time>
      </trkpt>
      <trkpt lat="43.71426" lon="5.95493">
        <ele>583</ele>
        <time>2016-04-23T09:29:02.000Z</time>
      </trkpt>
      <trkpt lat="43.71426" lon="5.95493">
        <ele>583</ele>
        <time>2016-04-23T09:29:04.000Z</time>
      </trkpt>
      <trkpt lat="43.71426" lon="5.95493">
        <ele>583</ele>
        <time>2016-04-23T09:29:06.000Z</time>
      </trkpt>
      <trkpt lat="43.71426" lon="5.95493">
        <ele>583</ele>
        <time>2016-04-23T09:29:08.000Z</time>
      </trkpt>
      <trkpt lat="43.71382" lon="5.95478">
        <ele>580</ele>
        <time>2016-04-23T09:29:14.000Z</time>
      </trkpt>
      <trkpt lat="43.71367" lon="5.95479">
        <ele>578</ele>
        <time>2016-04-23T09:29:18.000Z</time>
      </trkpt>
      <trkpt lat="43.71352" lon="5.95481">
        <ele>576</ele>
        <time>2016-04-23T09:29:22.000Z</time>
      </trkpt>
      <trkpt lat="43.71352" lon="5.95481">
        <ele>576</ele>
        <time>2016-04-23T09:29:24.000Z</time>
      </trkpt>
      <trkpt lat="43.71352" lon="5.95481">
        <ele>576</ele>
        <time>2016-04-23T09:29:26.000Z</time>
      </trkpt>
      <trkpt lat="43.71352" lon="5.95481">
        <ele>576</ele>
        <time>2016-04-23T09:29:28.000Z</time>
      </trkpt>
      <trkpt lat="43.71352" lon="5.95481">
        <ele>576</ele>
        <time>2016-04-23T09:29:30.000Z</time>
      </trkpt>
      <trkpt lat="43.71352" lon="5.95481">
        <ele>576</ele>
        <time>2016-04-23T09:29:32.000Z</time>
      </trkpt>
      <trkpt lat="43.71333" lon="5.95469">
        <ele>570</ele>
        <time>2016-04-23T09:29:36.000Z</time>
      </trkpt>
      <trkpt lat="43.71319" lon="5.95461">
        <ele>571</ele>
        <time>2016-04-23T09:29:38.000Z</time>
      </trkpt>
      <trkpt lat="43.71308" lon="5.95455">
        <ele>570</ele>
        <time>2016-04-23T09:29:40.000Z</time>
      </trkpt>
      <trkpt lat="43.71298" lon="5.95451">
        <ele>568</ele>
        <time>2016-04-23T09:29:42.000Z</time>
      </trkpt>
      <trkpt lat="43.7129" lon="5.95448">
        <ele>569</ele>
        <time>2016-04-23T09:29:44.000Z</time>
      </trkpt>
      <trkpt lat="43.71276" lon="5.95445">
        <ele>567</ele>
        <time>2016-04-23T09:29:46.000Z</time>
      </trkpt>
      <trkpt lat="43.71276" lon="5.95445">
        <ele>567</ele>
        <time>2016-04-23T09:29:48.000Z</time>
      </trkpt>
      <trkpt lat="43.71276" lon="5.95445">
        <ele>567</ele>
        <time>2016-04-23T09:29:50.000Z</time>
      </trkpt>
      <trkpt lat="43.71251" lon="5.95424">
        <ele>566</ele>
        <time>2016-04-23T09:29:54.000Z</time>
      </trkpt>
      <trkpt lat="43.71239" lon="5.95421">
        <ele>565</ele>
        <time>2016-04-23T09:29:56.000Z</time>
      </trkpt>
      <trkpt lat="43.71228" lon="5.9542">
        <ele>565</ele>
        <time>2016-04-23T09:29:58.000Z</time>
      </trkpt>
      <trkpt lat="43.71216" lon="5.95414">
        <ele>562</ele>
        <time>2016-04-23T09:30:00.000Z</time>
      </trkpt>
      <trkpt lat="43.71205" lon="5.95403">
        <ele>562</ele>
        <time>2016-04-23T09:30:02.000Z</time>
      </trkpt>
      <trkpt lat="43.71194" lon="5.95393">
        <ele>561</ele>
        <time>2016-04-23T09:30:04.000Z</time>
      </trkpt>
      <trkpt lat="43.71186" lon="5.95386">
        <ele>560</ele>
        <time>2016-04-23T09:30:06.000Z</time>
      </trkpt>
      <trkpt lat="43.71186" lon="5.95386">
        <ele>560</ele>
        <time>2016-04-23T09:30:08.000Z</time>
      </trkpt>
      <trkpt lat="43.71186" lon="5.95386">
        <ele>560</ele>
        <time>2016-04-23T09:30:10.000Z</time>
      </trkpt>
      <trkpt lat="43.71186" lon="5.95386">
        <ele>560</ele>
        <time>2016-04-23T09:30:12.000Z</time>
      </trkpt>
      <trkpt lat="43.71136" lon="5.95373">
        <ele>554</ele>
        <time>2016-04-23T09:30:19.000Z</time>
      </trkpt>
      <trkpt lat="43.71127" lon="5.95361">
        <ele>554</ele>
        <time>2016-04-23T09:30:21.000Z</time>
      </trkpt>
      <trkpt lat="43.71122" lon="5.95351">
        <ele>555</ele>
        <time>2016-04-23T09:30:23.000Z</time>
      </trkpt>
      <trkpt lat="43.71122" lon="5.95351">
        <ele>555</ele>
        <time>2016-04-23T09:30:25.000Z</time>
      </trkpt>
      <trkpt lat="43.71122" lon="5.95351">
        <ele>555</ele>
        <time>2016-04-23T09:30:27.000Z</time>
      </trkpt>
      <trkpt lat="43.71122" lon="5.95351">
        <ele>555</ele>
        <time>2016-04-23T09:30:29.000Z</time>
      </trkpt>
      <trkpt lat="43.71122" lon="5.95351">
        <ele>555</ele>
        <time>2016-04-23T09:30:31.000Z</time>
      </trkpt>
      <trkpt lat="43.71122" lon="5.95351">
        <ele>555</ele>
        <time>2016-04-23T09:30:33.000Z</time>
      </trkpt>
      <trkpt lat="43.71122" lon="5.95351">
        <ele>555</ele>
        <time>2016-04-23T09:30:35.000Z</time>
      </trkpt>
      <trkpt lat="43.71122" lon="5.95351">
        <ele>555</ele>
        <time>2016-04-23T09:30:37.000Z</time>
      </trkpt>
      <trkpt lat="43.71122" lon="5.95351">
        <ele>555</ele>
        <time>2016-04-23T09:30:39.000Z</time>
      </trkpt>
      <trkpt lat="43.71074" lon="5.95311">
        <ele>555</ele>
        <time>2016-04-23T09:30:43.000Z</time>
      </trkpt>
      <trkpt lat="43.71063" lon="5.95308">
        <ele>554</ele>
        <time>2016-04-23T09:30:45.000Z</time>
      </trkpt>
      <trkpt lat="43.71053" lon="5.95304">
        <ele>552</ele>
        <time>2016-04-23T09:30:47.000Z</time>
      </trkpt>
      <trkpt lat="43.71043" lon="5.95301">
        <ele>553</ele>
        <time>2016-04-23T09:30:49.000Z</time>
      </trkpt>
      <trkpt lat="43.71031" lon="5.953">
        <ele>553</ele>
        <time>2016-04-23T09:30:51.000Z</time>
      </trkpt>
      <trkpt lat="43.71019" lon="5.95301">
        <ele>552</ele>
        <time>2016-04-23T09:30:53.000Z</time>
      </trkpt>
      <trkpt lat="43.71009" lon="5.95298">
        <ele>551</ele>
        <time>2016-04-23T09:30:55.000Z</time>
      </trkpt>
      <trkpt lat="43.71001" lon="5.95293">
        <ele>550</ele>
        <time>2016-04-23T09:30:57.000Z</time>
      </trkpt>
      <trkpt lat="43.70988" lon="5.95287">
        <ele>549</ele>
        <time>2016-04-23T09:30:59.000Z</time>
      </trkpt>
      <trkpt lat="43.70978" lon="5.95285">
        <ele>549</ele>
        <time>2016-04-23T09:31:01.000Z</time>
      </trkpt>
      <trkpt lat="43.70968" lon="5.95283">
        <ele>550</ele>
        <time>2016-04-23T09:31:03.000Z</time>
      </trkpt>
      <trkpt lat="43.70968" lon="5.95283">
        <ele>550</ele>
        <time>2016-04-23T09:31:05.000Z</time>
      </trkpt>
      <trkpt lat="43.70968" lon="5.95283">
        <ele>550</ele>
        <time>2016-04-23T09:31:07.000Z</time>
      </trkpt>
      <trkpt lat="43.70968" lon="5.95283">
        <ele>550</ele>
        <time>2016-04-23T09:31:09.000Z</time>
      </trkpt>
      <trkpt lat="43.70938" lon="5.95276">
        <ele>550</ele>
        <time>2016-04-23T09:31:15.000Z</time>
      </trkpt>
      <trkpt lat="43.70924" lon="5.95271">
        <ele>550</ele>
        <time>2016-04-23T09:31:19.000Z</time>
      </trkpt>
      <trkpt lat="43.70911" lon="5.95268">
        <ele>550</ele>
        <time>2016-04-23T09:31:23.000Z</time>
      </trkpt>
      <trkpt lat="43.70911" lon="5.95268">
        <ele>550</ele>
        <time>2016-04-23T09:31:25.000Z</time>
      </trkpt>
      <trkpt lat="43.70911" lon="5.95268">
        <ele>550</ele>
        <time>2016-04-23T09:31:27.000Z</time>
      </trkpt>
      <trkpt lat="43.70911" lon="5.95268">
        <ele>550</ele>
        <time>2016-04-23T09:31:29.000Z</time>
      </trkpt>
      <trkpt lat="43.70911" lon="5.95268">
        <ele>550</ele>
        <time>2016-04-23T09:31:31.000Z</time>
      </trkpt>
      <trkpt lat="43.70911" lon="5.95268">
        <ele>550</ele>
        <time>2016-04-23T09:31:33.000Z</time>
      </trkpt>
      <trkpt lat="43.70911" lon="5.95268">
        <ele>550</ele>
        <time>2016-04-23T09:31:35.000Z</time>
      </trkpt>
      <trkpt lat="43.70911" lon="5.95268">
        <ele>550</ele>
        <time>2016-04-23T09:31:37.000Z</time>
      </trkpt>
      <trkpt lat="43.70911" lon="5.95268">
        <ele>550</ele>
        <time>2016-04-23T09:31:39.000Z</time>
      </trkpt>
      <trkpt lat="43.70911" lon="5.95268">
        <ele>550</ele>
        <time>2016-04-23T09:31:41.000Z</time>
      </trkpt>
      <trkpt lat="43.70911" lon="5.95268">
        <ele>550</ele>
        <time>2016-04-23T09:31:43.000Z</time>
      </trkpt>
      <trkpt lat="43.70911" lon="5.95268">
        <ele>550</ele>
        <time>2016-04-23T09:31:45.000Z</time>
      </trkpt>
      <trkpt lat="43.70911" lon="5.95268">
        <ele>550</ele>
        <time>2016-04-23T09:31:47.000Z</time>
      </trkpt>
      <trkpt lat="43.70911" lon="5.95268">
        <ele>550</ele>
        <time>2016-04-23T09:31:49.000Z</time>
      </trkpt>
      <trkpt lat="43.70911" lon="5.95268">
        <ele>550</ele>
        <time>2016-04-23T09:31:51.000Z</time>
      </trkpt>
      <trkpt lat="43.70911" lon="5.95268">
        <ele>550</ele>
        <time>2016-04-23T09:31:53.000Z</time>
      </trkpt>
      <trkpt lat="43.70911" lon="5.95268">
        <ele>550</ele>
        <time>2016-04-23T09:31:55.000Z</time>
      </trkpt>
      <trkpt lat="43.70911" lon="5.95268">
        <ele>550</ele>
        <time>2016-04-23T09:31:57.000Z</time>
      </trkpt>
      <trkpt lat="43.70911" lon="5.95268">
        <ele>550</ele>
        <time>2016-04-23T09:31:59.000Z</time>
      </trkpt>
      <trkpt lat="43.70911" lon="5.95268">
        <ele>550</ele>
        <time>2016-04-23T09:32:01.000Z</time>
      </trkpt>
      <trkpt lat="43.70911" lon="5.95268">
        <ele>550</ele>
        <time>2016-04-23T09:32:03.000Z</time>
      </trkpt>
      <trkpt lat="43.70911" lon="5.95268">
        <ele>550</ele>
        <time>2016-04-23T09:32:05.000Z</time>
      </trkpt>
      <trkpt lat="43.70911" lon="5.95268">
        <ele>550</ele>
        <time>2016-04-23T09:32:07.000Z</time>
      </trkpt>
      <trkpt lat="43.70854" lon="5.9524">
        <ele>556</ele>
        <time>2016-04-23T09:32:11.000Z</time>
      </trkpt>
      <trkpt lat="43.70824" lon="5.95226">
        <ele>555</ele>
        <time>2016-04-23T09:32:13.000Z</time>
      </trkpt>
      <trkpt lat="43.70806" lon="5.9522">
        <ele>555</ele>
        <time>2016-04-23T09:32:15.000Z</time>
      </trkpt>
      <trkpt lat="43.70794" lon="5.95219">
        <ele>554</ele>
        <time>2016-04-23T09:32:17.000Z</time>
      </trkpt>
      <trkpt lat="43.70785" lon="5.95222">
        <ele>552</ele>
        <time>2016-04-23T09:32:19.000Z</time>
      </trkpt>
      <trkpt lat="43.70764" lon="5.95227">
        <ele>552</ele>
        <time>2016-04-23T09:32:21.000Z</time>
      </trkpt>
      <trkpt lat="43.70753" lon="5.95231">
        <ele>552</ele>
        <time>2016-04-23T09:32:23.000Z</time>
      </trkpt>
      <trkpt lat="43.70744" lon="5.95236">
        <ele>552</ele>
        <time>2016-04-23T09:32:25.000Z</time>
      </trkpt>
      <trkpt lat="43.70744" lon="5.95236">
        <ele>552</ele>
        <time>2016-04-23T09:32:27.000Z</time>
      </trkpt>
      <trkpt lat="43.70729" lon="5.95235">
        <ele>552</ele>
        <time>2016-04-23T09:32:29.000Z</time>
      </trkpt>
      <trkpt lat="43.70729" lon="5.95235">
        <ele>552</ele>
        <time>2016-04-23T09:32:31.000Z</time>
      </trkpt>
      <trkpt lat="43.70729" lon="5.95235">
        <ele>552</ele>
        <time>2016-04-23T09:32:33.000Z</time>
      </trkpt>
      <trkpt lat="43.70729" lon="5.95235">
        <ele>552</ele>
        <time>2016-04-23T09:32:35.000Z</time>
      </trkpt>
      <trkpt lat="43.70729" lon="5.95235">
        <ele>552</ele>
        <time>2016-04-23T09:32:37.000Z</time>
      </trkpt>
      <trkpt lat="43.70729" lon="5.95235">
        <ele>552</ele>
        <time>2016-04-23T09:32:39.000Z</time>
      </trkpt>
      <trkpt lat="43.70729" lon="5.95235">
        <ele>552</ele>
        <time>2016-04-23T09:32:41.000Z</time>
      </trkpt>
      <trkpt lat="43.70729" lon="5.95235">
        <ele>552</ele>
        <time>2016-04-23T09:32:43.000Z</time>
      </trkpt>
      <trkpt lat="43.70729" lon="5.95235">
        <ele>552</ele>
        <time>2016-04-23T09:32:45.000Z</time>
      </trkpt>
      <trkpt lat="43.70729" lon="5.95235">
        <ele>552</ele>
        <time>2016-04-23T09:32:47.000Z</time>
      </trkpt>
      <trkpt lat="43.70729" lon="5.95235">
        <ele>552</ele>
        <time>2016-04-23T09:32:49.000Z</time>
      </trkpt>
      <trkpt lat="43.70729" lon="5.95235">
        <ele>552</ele>
        <time>2016-04-23T09:32:51.000Z</time>
      </trkpt>
      <trkpt lat="43.70729" lon="5.95235">
        <ele>552</ele>
        <time>2016-04-23T09:32:53.000Z</time>
      </trkpt>
      <trkpt lat="43.70729" lon="5.95235">
        <ele>552</ele>
        <time>2016-04-23T09:32:55.000Z</time>
      </trkpt>
      <trkpt lat="43.70729" lon="5.95235">
        <ele>552</ele>
        <time>2016-04-23T09:32:57.000Z</time>
      </trkpt>
      <trkpt lat="43.70729" lon="5.95235">
        <ele>552</ele>
        <time>2016-04-23T09:32:59.000Z</time>
      </trkpt>
      <trkpt lat="43.70729" lon="5.95235">
        <ele>552</ele>
        <time>2016-04-23T09:33:01.000Z</time>
      </trkpt>
      <trkpt lat="43.70599" lon="5.95245">
        <ele>555</ele>
        <time>2016-04-23T09:33:07.000Z</time>
      </trkpt>
      <trkpt lat="43.70585" lon="5.95247">
        <ele>554</ele>
        <time>2016-04-23T09:33:11.000Z</time>
      </trkpt>
      <trkpt lat="43.70571" lon="5.9525">
        <ele>555</ele>
        <time>2016-04-23T09:33:15.000Z</time>
      </trkpt>
      <trkpt lat="43.70557" lon="5.95254">
        <ele>556</ele>
        <time>2016-04-23T09:33:19.000Z</time>
      </trkpt>
      <trkpt lat="43.70544" lon="5.95261">
        <ele>558</ele>
        <time>2016-04-23T09:33:23.000Z</time>
      </trkpt>
      <trkpt lat="43.70544" lon="5.95261">
        <ele>558</ele>
        <time>2016-04-23T09:33:25.000Z</time>
      </trkpt>
      <trkpt lat="43.70544" lon="5.95261">
        <ele>558</ele>
        <time>2016-04-23T09:33:27.000Z</time>
      </trkpt>
      <trkpt lat="43.70544" lon="5.95261">
        <ele>558</ele>
        <time>2016-04-23T09:33:29.000Z</time>
      </trkpt>
      <trkpt lat="43.70505" lon="5.95278">
        <ele>558</ele>
        <time>2016-04-23T09:33:35.000Z</time>
      </trkpt>
      <trkpt lat="43.7049" lon="5.95277">
        <ele>558</ele>
        <time>2016-04-23T09:33:39.000Z</time>
      </trkpt>
      <trkpt lat="43.70482" lon="5.95278">
        <ele>558</ele>
        <time>2016-04-23T09:33:43.000Z</time>
      </trkpt>
      <trkpt lat="43.70482" lon="5.95278">
        <ele>558</ele>
        <time>2016-04-23T09:33:45.000Z</time>
      </trkpt>
      <trkpt lat="43.70482" lon="5.95278">
        <ele>558</ele>
        <time>2016-04-23T09:33:47.000Z</time>
      </trkpt>
      <trkpt lat="43.70482" lon="5.95278">
        <ele>558</ele>
        <time>2016-04-23T09:33:49.000Z</time>
      </trkpt>
      <trkpt lat="43.70482" lon="5.95278">
        <ele>558</ele>
        <time>2016-04-23T09:33:51.000Z</time>
      </trkpt>
      <trkpt lat="43.70482" lon="5.95278">
        <ele>558</ele>
        <time>2016-04-23T09:33:53.000Z</time>
      </trkpt>
      <trkpt lat="43.70482" lon="5.95278">
        <ele>558</ele>
        <time>2016-04-23T09:33:55.000Z</time>
      </trkpt>
      <trkpt lat="43.70482" lon="5.95278">
        <ele>558</ele>
        <time>2016-04-23T09:33:57.000Z</time>
      </trkpt>
      <trkpt lat="43.70482" lon="5.95278">
        <ele>558</ele>
        <time>2016-04-23T09:33:59.000Z</time>
      </trkpt>
      <trkpt lat="43.70482" lon="5.95278">
        <ele>558</ele>
        <time>2016-04-23T09:34:01.000Z</time>
      </trkpt>
      <trkpt lat="43.70482" lon="5.95278">
        <ele>558</ele>
        <time>2016-04-23T09:34:03.000Z</time>
      </trkpt>
      <trkpt lat="43.70482" lon="5.95278">
        <ele>558</ele>
        <time>2016-04-23T09:34:05.000Z</time>
      </trkpt>
      <trkpt lat="43.70453" lon="5.95261">
        <ele>561</ele>
        <time>2016-04-23T09:34:09.000Z</time>
      </trkpt>
      <trkpt lat="43.7044" lon="5.95248">
        <ele>561</ele>
        <time>2016-04-23T09:34:11.000Z</time>
      </trkpt>
      <trkpt lat="43.70435" lon="5.95237">
        <ele>562</ele>
        <time>2016-04-23T09:34:13.000Z</time>
      </trkpt>
      <trkpt lat="43.70433" lon="5.95228">
        <ele>562</ele>
        <time>2016-04-23T09:34:15.000Z</time>
      </trkpt>
      <trkpt lat="43.70434" lon="5.9522">
        <ele>563</ele>
        <time>2016-04-23T09:34:17.000Z</time>
      </trkpt>
      <trkpt lat="43.70436" lon="5.95203">
        <ele>563</ele>
        <time>2016-04-23T09:34:19.000Z</time>
      </trkpt>
      <trkpt lat="43.70441" lon="5.95186">
        <ele>563</ele>
        <time>2016-04-23T09:34:23.000Z</time>
      </trkpt>
      <trkpt lat="43.70445" lon="5.95171">
        <ele>564</ele>
        <time>2016-04-23T09:34:27.000Z</time>
      </trkpt>
      <trkpt lat="43.70445" lon="5.95171">
        <ele>564</ele>
        <time>2016-04-23T09:34:31.000Z</time>
      </trkpt>
      <trkpt lat="43.70445" lon="5.95171">
        <ele>564</ele>
        <time>2016-04-23T09:34:33.000Z</time>
      </trkpt>
      <trkpt lat="43.70445" lon="5.95171">
        <ele>564</ele>
        <time>2016-04-23T09:34:35.000Z</time>
      </trkpt>
      <trkpt lat="43.70445" lon="5.95171">
        <ele>564</ele>
        <time>2016-04-23T09:34:37.000Z</time>
      </trkpt>
      <trkpt lat="43.70445" lon="5.95171">
        <ele>564</ele>
        <time>2016-04-23T09:34:39.000Z</time>
      </trkpt>
      <trkpt lat="43.70445" lon="5.95171">
        <ele>564</ele>
        <time>2016-04-23T09:34:41.000Z</time>
      </trkpt>
      <trkpt lat="43.70445" lon="5.95171">
        <ele>564</ele>
        <time>2016-04-23T09:34:43.000Z</time>
      </trkpt>
      <trkpt lat="43.70445" lon="5.95171">
        <ele>564</ele>
        <time>2016-04-23T09:34:45.000Z</time>
      </trkpt>
      <trkpt lat="43.70445" lon="5.95171">
        <ele>564</ele>
        <time>2016-04-23T09:34:47.000Z</time>
      </trkpt>
      <trkpt lat="43.70445" lon="5.95171">
        <ele>564</ele>
        <time>2016-04-23T09:34:49.000Z</time>
      </trkpt>
      <trkpt lat="43.70455" lon="5.95125">
        <ele>566</ele>
        <time>2016-04-23T09:39:06.000Z</time>
      </trkpt>
      <trkpt lat="43.70459" lon="5.95112">
        <ele>566</ele>
        <time>2016-04-23T09:39:10.000Z</time>
      </trkpt>
      <trkpt lat="43.70463" lon="5.95098">
        <ele>566</ele>
        <time>2016-04-23T09:39:14.000Z</time>
      </trkpt>
      <trkpt lat="43.70467" lon="5.95084">
        <ele>565</ele>
        <time>2016-04-23T09:39:18.000Z</time>
      </trkpt>
      <trkpt lat="43.70472" lon="5.95068">
        <ele>565</ele>
        <time>2016-04-23T09:39:22.000Z</time>
      </trkpt>
      <trkpt lat="43.70476" lon="5.95053">
        <ele>565</ele>
        <time>2016-04-23T09:39:26.000Z</time>
      </trkpt>
      <trkpt lat="43.70481" lon="5.95036">
        <ele>566</ele>
        <time>2016-04-23T09:39:30.000Z</time>
      </trkpt>
      <trkpt lat="43.70487" lon="5.95018">
        <ele>566</ele>
        <time>2016-04-23T09:39:34.000Z</time>
      </trkpt>
      <trkpt lat="43.70493" lon="5.95002">
        <ele>566</ele>
        <time>2016-04-23T09:39:38.000Z</time>
      </trkpt>
      <trkpt lat="43.70498" lon="5.94986">
        <ele>566</ele>
        <time>2016-04-23T09:39:42.000Z</time>
      </trkpt>
      <trkpt lat="43.70498" lon="5.94986">
        <ele>566</ele>
        <time>2016-04-23T09:39:44.000Z</time>
      </trkpt>
      <trkpt lat="43.70498" lon="5.94986">
        <ele>566</ele>
        <time>2016-04-23T09:39:46.000Z</time>
      </trkpt>
      <trkpt lat="43.70498" lon="5.94986">
        <ele>566</ele>
        <time>2016-04-23T09:39:48.000Z</time>
      </trkpt>
      <trkpt lat="43.70498" lon="5.94986">
        <ele>566</ele>
        <time>2016-04-23T09:39:50.000Z</time>
      </trkpt>
      <trkpt lat="43.70498" lon="5.94986">
        <ele>566</ele>
        <time>2016-04-23T09:39:52.000Z</time>
      </trkpt>
      <trkpt lat="43.70498" lon="5.94986">
        <ele>566</ele>
        <time>2016-04-23T09:39:54.000Z</time>
      </trkpt>
      <trkpt lat="43.70518" lon="5.94923">
        <ele>567</ele>
        <time>2016-04-23T09:39:58.000Z</time>
      </trkpt>
      <trkpt lat="43.70522" lon="5.94906">
        <ele>566</ele>
        <time>2016-04-23T09:40:02.000Z</time>
      </trkpt>
      <trkpt lat="43.70528" lon="5.94886">
        <ele>566</ele>
        <time>2016-04-23T09:40:06.000Z</time>
      </trkpt>
      <trkpt lat="43.70533" lon="5.94865">
        <ele>566</ele>
        <time>2016-04-23T09:40:10.000Z</time>
      </trkpt>
      <trkpt lat="43.70538" lon="5.94846">
        <ele>566</ele>
        <time>2016-04-23T09:40:14.000Z</time>
      </trkpt>
      <trkpt lat="43.70538" lon="5.94846">
        <ele>566</ele>
        <time>2016-04-23T09:40:16.000Z</time>
      </trkpt>
      <trkpt lat="43.70546" lon="5.94829">
        <ele>566</ele>
        <time>2016-04-23T09:40:18.000Z</time>
      </trkpt>
      <trkpt lat="43.70546" lon="5.94829">
        <ele>566</ele>
        <time>2016-04-23T09:40:20.000Z</time>
      </trkpt>
      <trkpt lat="43.70546" lon="5.94829">
        <ele>566</ele>
        <time>2016-04-23T09:40:22.000Z</time>
      </trkpt>
      <trkpt lat="43.70546" lon="5.94829">
        <ele>566</ele>
        <time>2016-04-23T09:40:24.000Z</time>
      </trkpt>
      <trkpt lat="43.70546" lon="5.94829">
        <ele>566</ele>
        <time>2016-04-23T09:40:26.000Z</time>
      </trkpt>
      <trkpt lat="43.70546" lon="5.94829">
        <ele>566</ele>
        <time>2016-04-23T09:40:28.000Z</time>
      </trkpt>
      <trkpt lat="43.70546" lon="5.94829">
        <ele>566</ele>
        <time>2016-04-23T09:40:30.000Z</time>
      </trkpt>
      <trkpt lat="43.70546" lon="5.94829">
        <ele>566</ele>
        <time>2016-04-23T09:40:32.000Z</time>
      </trkpt>
      <trkpt lat="43.70546" lon="5.94829">
        <ele>566</ele>
        <time>2016-04-23T09:40:34.000Z</time>
      </trkpt>
      <trkpt lat="43.70546" lon="5.94829">
        <ele>566</ele>
        <time>2016-04-23T09:40:36.000Z</time>
      </trkpt>
      <trkpt lat="43.70546" lon="5.94829">
        <ele>566</ele>
        <time>2016-04-23T09:40:38.000Z</time>
      </trkpt>
      <trkpt lat="43.70546" lon="5.94829">
        <ele>566</ele>
        <time>2016-04-23T09:40:40.000Z</time>
      </trkpt>
      <trkpt lat="43.70546" lon="5.94829">
        <ele>566</ele>
        <time>2016-04-23T09:40:42.000Z</time>
      </trkpt>
      <trkpt lat="43.70546" lon="5.94829">
        <ele>566</ele>
        <time>2016-04-23T09:40:44.000Z</time>
      </trkpt>
      <trkpt lat="43.70546" lon="5.94829">
        <ele>566</ele>
        <time>2016-04-23T09:40:46.000Z</time>
      </trkpt>
      <trkpt lat="43.70546" lon="5.94829">
        <ele>566</ele>
        <time>2016-04-23T09:40:48.000Z</time>
      </trkpt>
      <trkpt lat="43.70546" lon="5.94829">
        <ele>566</ele>
        <time>2016-04-23T09:40:50.000Z</time>
      </trkpt>
      <trkpt lat="43.70546" lon="5.94829">
        <ele>566</ele>
        <time>2016-04-23T09:40:52.000Z</time>
      </trkpt>
      <trkpt lat="43.70546" lon="5.94829">
        <ele>566</ele>
        <time>2016-04-23T09:40:54.000Z</time>
      </trkpt>
      <trkpt lat="43.70546" lon="5.94829">
        <ele>566</ele>
        <time>2016-04-23T09:40:56.000Z</time>
      </trkpt>
      <trkpt lat="43.70546" lon="5.94829">
        <ele>566</ele>
        <time>2016-04-23T09:40:58.000Z</time>
      </trkpt>
      <trkpt lat="43.70546" lon="5.94829">
        <ele>566</ele>
        <time>2016-04-23T09:41:00.000Z</time>
      </trkpt>
      <trkpt lat="43.70546" lon="5.94829">
        <ele>566</ele>
        <time>2016-04-23T09:41:02.000Z</time>
      </trkpt>
      <trkpt lat="43.70546" lon="5.94829">
        <ele>566</ele>
        <time>2016-04-23T09:41:04.000Z</time>
      </trkpt>
      <trkpt lat="43.70546" lon="5.94829">
        <ele>566</ele>
        <time>2016-04-23T09:41:06.000Z</time>
      </trkpt>
      <trkpt lat="43.70546" lon="5.94829">
        <ele>566</ele>
        <time>2016-04-23T09:41:08.000Z</time>
      </trkpt>
      <trkpt lat="43.70546" lon="5.94829">
        <ele>566</ele>
        <time>2016-04-23T09:41:10.000Z</time>
      </trkpt>
      <trkpt lat="43.70546" lon="5.94829">
        <ele>566</ele>
        <time>2016-04-23T09:41:12.000Z</time>
      </trkpt>
      <trkpt lat="43.70546" lon="5.94829">
        <ele>566</ele>
        <time>2016-04-23T09:41:14.000Z</time>
      </trkpt>
      <trkpt lat="43.70546" lon="5.94829">
        <ele>566</ele>
        <time>2016-04-23T09:41:16.000Z</time>
      </trkpt>
      <trkpt lat="43.70546" lon="5.94829">
        <ele>566</ele>
        <time>2016-04-23T09:41:18.000Z</time>
      </trkpt>
      <trkpt lat="43.70546" lon="5.94829">
        <ele>566</ele>
        <time>2016-04-23T09:41:20.000Z</time>
      </trkpt>
      <trkpt lat="43.70546" lon="5.94829">
        <ele>566</ele>
        <time>2016-04-23T09:41:22.000Z</time>
      </trkpt>
      <trkpt lat="43.70546" lon="5.94829">
        <ele>566</ele>
        <time>2016-04-23T09:41:24.000Z</time>
      </trkpt>
      <trkpt lat="43.70546" lon="5.94829">
        <ele>566</ele>
        <time>2016-04-23T09:41:26.000Z</time>
      </trkpt>
      <trkpt lat="43.70546" lon="5.94829">
        <ele>566</ele>
        <time>2016-04-23T09:41:28.000Z</time>
      </trkpt>
      <trkpt lat="43.70546" lon="5.94829">
        <ele>566</ele>
        <time>2016-04-23T09:41:30.000Z</time>
      </trkpt>
      <trkpt lat="43.70546" lon="5.94829">
        <ele>566</ele>
        <time>2016-04-23T09:41:32.000Z</time>
      </trkpt>
      <trkpt lat="43.70546" lon="5.94829">
        <ele>566</ele>
        <time>2016-04-23T09:41:34.000Z</time>
      </trkpt>
      <trkpt lat="43.70546" lon="5.94829">
        <ele>566</ele>
        <time>2016-04-23T09:41:36.000Z</time>
      </trkpt>
      <trkpt lat="43.70546" lon="5.94829">
        <ele>566</ele>
        <time>2016-04-23T09:41:38.000Z</time>
      </trkpt>
      <trkpt lat="43.70546" lon="5.94829">
        <ele>566</ele>
        <time>2016-04-23T09:41:40.000Z</time>
      </trkpt>
      <trkpt lat="43.70546" lon="5.94829">
        <ele>566</ele>
        <time>2016-04-23T09:41:42.000Z</time>
      </trkpt>
      <trkpt lat="43.70546" lon="5.94829">
        <ele>566</ele>
        <time>2016-04-23T09:41:44.000Z</time>
      </trkpt>
      <trkpt lat="43.70546" lon="5.94829">
        <ele>566</ele>
        <time>2016-04-23T09:41:46.000Z</time>
      </trkpt>
      <trkpt lat="43.70546" lon="5.94829">
        <ele>566</ele>
        <time>2016-04-23T09:41:48.000Z</time>
      </trkpt>
      <trkpt lat="43.70546" lon="5.94829">
        <ele>566</ele>
        <time>2016-04-23T09:41:50.000Z</time>
      </trkpt>
      <trkpt lat="43.70523" lon="5.94715">
        <ele>576</ele>
        <time>2016-04-23T09:41:52.000Z</time>
      </trkpt>
      <trkpt lat="43.70511" lon="5.94656">
        <ele>577</ele>
        <time>2016-04-23T09:41:54.000Z</time>
      </trkpt>
      <trkpt lat="43.70502" lon="5.94624">
        <ele>577</ele>
        <time>2016-04-23T09:41:56.000Z</time>
      </trkpt>
      <trkpt lat="43.70496" lon="5.94607">
        <ele>577</ele>
        <time>2016-04-23T09:41:58.000Z</time>
      </trkpt>
      <trkpt lat="43.70491" lon="5.94597">
        <ele>577</ele>
        <time>2016-04-23T09:42:00.000Z</time>
      </trkpt>
      <trkpt lat="43.70481" lon="5.94584">
        <ele>576</ele>
        <time>2016-04-23T09:42:02.000Z</time>
      </trkpt>
      <trkpt lat="43.70473" lon="5.94579">
        <ele>574</ele>
        <time>2016-04-23T09:42:06.000Z</time>
      </trkpt>
      <trkpt lat="43.70461" lon="5.94572">
        <ele>572</ele>
        <time>2016-04-23T09:42:10.000Z</time>
      </trkpt>
      <trkpt lat="43.70447" lon="5.94553">
        <ele>572</ele>
        <time>2016-04-23T09:42:14.000Z</time>
      </trkpt>
      <trkpt lat="43.70438" lon="5.94545">
        <ele>573</ele>
        <time>2016-04-23T09:42:16.000Z</time>
      </trkpt>
      <trkpt lat="43.7043" lon="5.94536">
        <ele>573</ele>
        <time>2016-04-23T09:42:18.000Z</time>
      </trkpt>
      <trkpt lat="43.70416" lon="5.94524">
        <ele>573</ele>
        <time>2016-04-23T09:42:22.000Z</time>
      </trkpt>
      <trkpt lat="43.70416" lon="5.94524">
        <ele>573</ele>
        <time>2016-04-23T09:42:24.000Z</time>
      </trkpt>
      <trkpt lat="43.70416" lon="5.94524">
        <ele>573</ele>
        <time>2016-04-23T09:42:26.000Z</time>
      </trkpt>
      <trkpt lat="43.70416" lon="5.94524">
        <ele>573</ele>
        <time>2016-04-23T09:42:28.000Z</time>
      </trkpt>
      <trkpt lat="43.70416" lon="5.94524">
        <ele>573</ele>
        <time>2016-04-23T09:42:30.000Z</time>
      </trkpt>
      <trkpt lat="43.70416" lon="5.94524">
        <ele>573</ele>
        <time>2016-04-23T09:42:32.000Z</time>
      </trkpt>
      <trkpt lat="43.70382" lon="5.94493">
        <ele>567</ele>
        <time>2016-04-23T09:42:36.000Z</time>
      </trkpt>
      <trkpt lat="43.70375" lon="5.94484">
        <ele>565</ele>
        <time>2016-04-23T09:42:38.000Z</time>
      </trkpt>
      <trkpt lat="43.70375" lon="5.94484">
        <ele>565</ele>
        <time>2016-04-23T09:42:40.000Z</time>
      </trkpt>
      <trkpt lat="43.70362" lon="5.94467">
        <ele>562</ele>
        <time>2016-04-23T09:42:42.000Z</time>
      </trkpt>
      <trkpt lat="43.70362" lon="5.94467">
        <ele>562</ele>
        <time>2016-04-23T09:42:44.000Z</time>
      </trkpt>
      <trkpt lat="43.70351" lon="5.94449">
        <ele>562</ele>
        <time>2016-04-23T09:42:46.000Z</time>
      </trkpt>
      <trkpt lat="43.70342" lon="5.94442">
        <ele>562</ele>
        <time>2016-04-23T09:42:48.000Z</time>
      </trkpt>
      <trkpt lat="43.70333" lon="5.94434">
        <ele>561</ele>
        <time>2016-04-23T09:42:50.000Z</time>
      </trkpt>
      <trkpt lat="43.7032" lon="5.94418">
        <ele>560</ele>
        <time>2016-04-23T09:42:54.000Z</time>
      </trkpt>
      <trkpt lat="43.70314" lon="5.94408">
        <ele>559</ele>
        <time>2016-04-23T09:42:56.000Z</time>
      </trkpt>
      <trkpt lat="43.70314" lon="5.94408">
        <ele>559</ele>
        <time>2016-04-23T09:42:58.000Z</time>
      </trkpt>
      <trkpt lat="43.70299" lon="5.94371">
        <ele>557</ele>
        <time>2016-04-23T09:43:02.000Z</time>
      </trkpt>
      <trkpt lat="43.70292" lon="5.94359">
        <ele>557</ele>
        <time>2016-04-23T09:43:04.000Z</time>
      </trkpt>
      <trkpt lat="43.70282" lon="5.94351">
        <ele>555</ele>
        <time>2016-04-23T09:43:06.000Z</time>
      </trkpt>
      <trkpt lat="43.70272" lon="5.94348">
        <ele>554</ele>
        <time>2016-04-23T09:43:08.000Z</time>
      </trkpt>
      <trkpt lat="43.70272" lon="5.94348">
        <ele>554</ele>
        <time>2016-04-23T09:43:10.000Z</time>
      </trkpt>
      <trkpt lat="43.70272" lon="5.94348">
        <ele>554</ele>
        <time>2016-04-23T09:43:12.000Z</time>
      </trkpt>
      <trkpt lat="43.70272" lon="5.94348">
        <ele>554</ele>
        <time>2016-04-23T09:43:14.000Z</time>
      </trkpt>
      <trkpt lat="43.70272" lon="5.94348">
        <ele>554</ele>
        <time>2016-04-23T09:43:16.000Z</time>
      </trkpt>
      <trkpt lat="43.70272" lon="5.94348">
        <ele>554</ele>
        <time>2016-04-23T09:43:18.000Z</time>
      </trkpt>
      <trkpt lat="43.70227" lon="5.94287">
        <ele>548</ele>
        <time>2016-04-23T09:43:22.000Z</time>
      </trkpt>
      <trkpt lat="43.70227" lon="5.94287">
        <ele>548</ele>
        <time>2016-04-23T09:43:24.000Z</time>
      </trkpt>
      <trkpt lat="43.70216" lon="5.94269">
        <ele>549</ele>
        <time>2016-04-23T09:43:26.000Z</time>
      </trkpt>
      <trkpt lat="43.70216" lon="5.94269">
        <ele>549</ele>
        <time>2016-04-23T09:43:28.000Z</time>
      </trkpt>
      <trkpt lat="43.70202" lon="5.94247">
        <ele>549</ele>
        <time>2016-04-23T09:43:30.000Z</time>
      </trkpt>
      <trkpt lat="43.70196" lon="5.94233">
        <ele>548</ele>
        <time>2016-04-23T09:43:32.000Z</time>
      </trkpt>
      <trkpt lat="43.70191" lon="5.94218">
        <ele>549</ele>
        <time>2016-04-23T09:43:34.000Z</time>
      </trkpt>
      <trkpt lat="43.70188" lon="5.94202">
        <ele>548</ele>
        <time>2016-04-23T09:43:36.000Z</time>
      </trkpt>
      <trkpt lat="43.70186" lon="5.94184">
        <ele>548</ele>
        <time>2016-04-23T09:43:38.000Z</time>
      </trkpt>
      <trkpt lat="43.70185" lon="5.94167">
        <ele>548</ele>
        <time>2016-04-23T09:43:40.000Z</time>
      </trkpt>
      <trkpt lat="43.70182" lon="5.94152">
        <ele>547</ele>
        <time>2016-04-23T09:43:42.000Z</time>
      </trkpt>
      <trkpt lat="43.7018" lon="5.94136">
        <ele>548</ele>
        <time>2016-04-23T09:43:44.000Z</time>
      </trkpt>
      <trkpt lat="43.70178" lon="5.9412">
        <ele>547</ele>
        <time>2016-04-23T09:43:46.000Z</time>
      </trkpt>
      <trkpt lat="43.70174" lon="5.94103">
        <ele>546</ele>
        <time>2016-04-23T09:43:48.000Z</time>
      </trkpt>
      <trkpt lat="43.70172" lon="5.94086">
        <ele>544</ele>
        <time>2016-04-23T09:43:50.000Z</time>
      </trkpt>
      <trkpt lat="43.70169" lon="5.94069">
        <ele>545</ele>
        <time>2016-04-23T09:43:52.000Z</time>
      </trkpt>
      <trkpt lat="43.70166" lon="5.94054">
        <ele>545</ele>
        <time>2016-04-23T09:43:54.000Z</time>
      </trkpt>
      <trkpt lat="43.70164" lon="5.94038">
        <ele>545</ele>
        <time>2016-04-23T09:43:56.000Z</time>
      </trkpt>
      <trkpt lat="43.70161" lon="5.94024">
        <ele>545</ele>
        <time>2016-04-23T09:43:58.000Z</time>
      </trkpt>
      <trkpt lat="43.70159" lon="5.94009">
        <ele>545</ele>
        <time>2016-04-23T09:44:00.000Z</time>
      </trkpt>
      <trkpt lat="43.70156" lon="5.93994">
        <ele>544</ele>
        <time>2016-04-23T09:44:02.000Z</time>
      </trkpt>
      <trkpt lat="43.70154" lon="5.93979">
        <ele>544</ele>
        <time>2016-04-23T09:44:04.000Z</time>
      </trkpt>
      <trkpt lat="43.70154" lon="5.93966">
        <ele>544</ele>
        <time>2016-04-23T09:44:06.000Z</time>
      </trkpt>
      <trkpt lat="43.70154" lon="5.93966">
        <ele>544</ele>
        <time>2016-04-23T09:44:08.000Z</time>
      </trkpt>
      <trkpt lat="43.70154" lon="5.93966">
        <ele>544</ele>
        <time>2016-04-23T09:44:10.000Z</time>
      </trkpt>
      <trkpt lat="43.70154" lon="5.93966">
        <ele>544</ele>
        <time>2016-04-23T09:44:12.000Z</time>
      </trkpt>
      <trkpt lat="43.70154" lon="5.93966">
        <ele>544</ele>
        <time>2016-04-23T09:44:14.000Z</time>
      </trkpt>
      <trkpt lat="43.70154" lon="5.93966">
        <ele>544</ele>
        <time>2016-04-23T09:44:16.000Z</time>
      </trkpt>
      <trkpt lat="43.70154" lon="5.93966">
        <ele>544</ele>
        <time>2016-04-23T09:44:18.000Z</time>
      </trkpt>
      <trkpt lat="43.70154" lon="5.93966">
        <ele>544</ele>
        <time>2016-04-23T09:44:20.000Z</time>
      </trkpt>
      <trkpt lat="43.70154" lon="5.93966">
        <ele>544</ele>
        <time>2016-04-23T09:44:22.000Z</time>
      </trkpt>
      <trkpt lat="43.70154" lon="5.93966">
        <ele>544</ele>
        <time>2016-04-23T09:44:24.000Z</time>
      </trkpt>
      <trkpt lat="43.70154" lon="5.93966">
        <ele>544</ele>
        <time>2016-04-23T09:44:26.000Z</time>
      </trkpt>
      <trkpt lat="43.70154" lon="5.93966">
        <ele>544</ele>
        <time>2016-04-23T09:44:28.000Z</time>
      </trkpt>
      <trkpt lat="43.70162" lon="5.9392">
        <ele>546</ele>
        <time>2016-04-23T09:44:30.000Z</time>
      </trkpt>
      <trkpt lat="43.70169" lon="5.93894">
        <ele>547</ele>
        <time>2016-04-23T09:44:32.000Z</time>
      </trkpt>
      <trkpt lat="43.70175" lon="5.93879">
        <ele>546</ele>
        <time>2016-04-23T09:44:34.000Z</time>
      </trkpt>
      <trkpt lat="43.7018" lon="5.93869">
        <ele>546</ele>
        <time>2016-04-23T09:44:36.000Z</time>
      </trkpt>
      <trkpt lat="43.70184" lon="5.93861">
        <ele>546</ele>
        <time>2016-04-23T09:44:38.000Z</time>
      </trkpt>
      <trkpt lat="43.70191" lon="5.93847">
        <ele>546</ele>
        <time>2016-04-23T09:44:40.000Z</time>
      </trkpt>
      <trkpt lat="43.70191" lon="5.93847">
        <ele>546</ele>
        <time>2016-04-23T09:44:42.000Z</time>
      </trkpt>
      <trkpt lat="43.70191" lon="5.93847">
        <ele>546</ele>
        <time>2016-04-23T09:44:44.000Z</time>
      </trkpt>
      <trkpt lat="43.70191" lon="5.93847">
        <ele>546</ele>
        <time>2016-04-23T09:44:46.000Z</time>
      </trkpt>
      <trkpt lat="43.70191" lon="5.93847">
        <ele>546</ele>
        <time>2016-04-23T09:44:48.000Z</time>
      </trkpt>
      <trkpt lat="43.70191" lon="5.93847">
        <ele>546</ele>
        <time>2016-04-23T09:44:50.000Z</time>
      </trkpt>
      <trkpt lat="43.70191" lon="5.93847">
        <ele>546</ele>
        <time>2016-04-23T09:44:52.000Z</time>
      </trkpt>
      <trkpt lat="43.70191" lon="5.93847">
        <ele>546</ele>
        <time>2016-04-23T09:44:54.000Z</time>
      </trkpt>
      <trkpt lat="43.70191" lon="5.93847">
        <ele>546</ele>
        <time>2016-04-23T09:44:56.000Z</time>
      </trkpt>
      <trkpt lat="43.70191" lon="5.93847">
        <ele>546</ele>
        <time>2016-04-23T09:44:58.000Z</time>
      </trkpt>
      <trkpt lat="43.70191" lon="5.93847">
        <ele>546</ele>
        <time>2016-04-23T09:45:00.000Z</time>
      </trkpt>
      <trkpt lat="43.70191" lon="5.93847">
        <ele>546</ele>
        <time>2016-04-23T09:45:02.000Z</time>
      </trkpt>
      <trkpt lat="43.70191" lon="5.93847">
        <ele>546</ele>
        <time>2016-04-23T09:45:04.000Z</time>
      </trkpt>
      <trkpt lat="43.70191" lon="5.93847">
        <ele>546</ele>
        <time>2016-04-23T09:45:06.000Z</time>
      </trkpt>
      <trkpt lat="43.70191" lon="5.93847">
        <ele>546</ele>
        <time>2016-04-23T09:45:08.000Z</time>
      </trkpt>
      <trkpt lat="43.70191" lon="5.93847">
        <ele>546</ele>
        <time>2016-04-23T09:45:10.000Z</time>
      </trkpt>
      <trkpt lat="43.70191" lon="5.93847">
        <ele>546</ele>
        <time>2016-04-23T09:45:12.000Z</time>
      </trkpt>
      <trkpt lat="43.70191" lon="5.93847">
        <ele>546</ele>
        <time>2016-04-23T09:45:14.000Z</time>
      </trkpt>
      <trkpt lat="43.70191" lon="5.93847">
        <ele>546</ele>
        <time>2016-04-23T09:45:16.000Z</time>
      </trkpt>
      <trkpt lat="43.70191" lon="5.93847">
        <ele>546</ele>
        <time>2016-04-23T09:45:18.000Z</time>
      </trkpt>
      <trkpt lat="43.70191" lon="5.93847">
        <ele>546</ele>
        <time>2016-04-23T09:45:20.000Z</time>
      </trkpt>
      <trkpt lat="43.70191" lon="5.93847">
        <ele>546</ele>
        <time>2016-04-23T09:45:22.000Z</time>
      </trkpt>
      <trkpt lat="43.70191" lon="5.93847">
        <ele>546</ele>
        <time>2016-04-23T09:45:24.000Z</time>
      </trkpt>
      <trkpt lat="43.70191" lon="5.93847">
        <ele>546</ele>
        <time>2016-04-23T09:45:26.000Z</time>
      </trkpt>
      <trkpt lat="43.70191" lon="5.93847">
        <ele>546</ele>
        <time>2016-04-23T09:45:28.000Z</time>
      </trkpt>
      <trkpt lat="43.70191" lon="5.93847">
        <ele>546</ele>
        <time>2016-04-23T09:45:30.000Z</time>
      </trkpt>
      <trkpt lat="43.70191" lon="5.93847">
        <ele>546</ele>
        <time>2016-04-23T09:45:32.000Z</time>
      </trkpt>
      <trkpt lat="43.70189" lon="5.93684">
        <ele>545</ele>
        <time>2016-04-23T09:45:38.000Z</time>
      </trkpt>
      <trkpt lat="43.70184" lon="5.93664">
        <ele>549</ele>
        <time>2016-04-23T09:45:42.000Z</time>
      </trkpt>
      <trkpt lat="43.70187" lon="5.93653">
        <ele>551</ele>
        <time>2016-04-23T09:45:46.000Z</time>
      </trkpt>
      <trkpt lat="43.70192" lon="5.93645">
        <ele>552</ele>
        <time>2016-04-23T09:45:48.000Z</time>
      </trkpt>
      <trkpt lat="43.70195" lon="5.93637">
        <ele>552</ele>
        <time>2016-04-23T09:45:50.000Z</time>
      </trkpt>
      <trkpt lat="43.70195" lon="5.93637">
        <ele>552</ele>
        <time>2016-04-23T09:45:52.000Z</time>
      </trkpt>
      <trkpt lat="43.70195" lon="5.93637">
        <ele>552</ele>
        <time>2016-04-23T09:45:54.000Z</time>
      </trkpt>
      <trkpt lat="43.70195" lon="5.93637">
        <ele>552</ele>
        <time>2016-04-23T09:45:56.000Z</time>
      </trkpt>
      <trkpt lat="43.70195" lon="5.93637">
        <ele>552</ele>
        <time>2016-04-23T09:45:58.000Z</time>
      </trkpt>
      <trkpt lat="43.702" lon="5.9361">
        <ele>553</ele>
        <time>2016-04-23T09:46:02.000Z</time>
      </trkpt>
      <trkpt lat="43.70204" lon="5.93592">
        <ele>553</ele>
        <time>2016-04-23T09:46:04.000Z</time>
      </trkpt>
      <trkpt lat="43.70207" lon="5.9358">
        <ele>554</ele>
        <time>2016-04-23T09:46:06.000Z</time>
      </trkpt>
      <trkpt lat="43.70208" lon="5.93569">
        <ele>555</ele>
        <time>2016-04-23T09:46:08.000Z</time>
      </trkpt>
      <trkpt lat="43.70208" lon="5.93569">
        <ele>555</ele>
        <time>2016-04-23T09:46:10.000Z</time>
      </trkpt>
      <trkpt lat="43.70208" lon="5.93569">
        <ele>555</ele>
        <time>2016-04-23T09:46:12.000Z</time>
      </trkpt>
      <trkpt lat="43.70208" lon="5.93569">
        <ele>555</ele>
        <time>2016-04-23T09:46:14.000Z</time>
      </trkpt>
      <trkpt lat="43.70208" lon="5.93569">
        <ele>555</ele>
        <time>2016-04-23T09:46:16.000Z</time>
      </trkpt>
      <trkpt lat="43.70208" lon="5.93569">
        <ele>555</ele>
        <time>2016-04-23T09:46:18.000Z</time>
      </trkpt>
      <trkpt lat="43.70208" lon="5.93569">
        <ele>555</ele>
        <time>2016-04-23T09:46:20.000Z</time>
      </trkpt>
      <trkpt lat="43.70208" lon="5.93569">
        <ele>555</ele>
        <time>2016-04-23T09:46:22.000Z</time>
      </trkpt>
      <trkpt lat="43.70208" lon="5.93569">
        <ele>555</ele>
        <time>2016-04-23T09:46:24.000Z</time>
      </trkpt>
      <trkpt lat="43.70208" lon="5.93569">
        <ele>555</ele>
        <time>2016-04-23T09:46:26.000Z</time>
      </trkpt>
      <trkpt lat="43.70208" lon="5.93569">
        <ele>555</ele>
        <time>2016-04-23T09:46:28.000Z</time>
      </trkpt>
      <trkpt lat="43.70208" lon="5.93569">
        <ele>555</ele>
        <time>2016-04-23T09:46:30.000Z</time>
      </trkpt>
      <trkpt lat="43.702" lon="5.93504">
        <ele>558</ele>
        <time>2016-04-23T09:46:41.000Z</time>
      </trkpt>
      <trkpt lat="43.70207" lon="5.93495">
        <ele>558</ele>
        <time>2016-04-23T09:46:45.000Z</time>
      </trkpt>
      <trkpt lat="43.70213" lon="5.93485">
        <ele>560</ele>
        <time>2016-04-23T09:46:49.000Z</time>
      </trkpt>
      <trkpt lat="43.7022" lon="5.93475">
        <ele>559</ele>
        <time>2016-04-23T09:46:53.000Z</time>
      </trkpt>
      <trkpt lat="43.70227" lon="5.93463">
        <ele>560</ele>
        <time>2016-04-23T09:46:57.000Z</time>
      </trkpt>
      <trkpt lat="43.70234" lon="5.93451">
        <ele>560</ele>
        <time>2016-04-23T09:47:01.000Z</time>
      </trkpt>
      <trkpt lat="43.7024" lon="5.93441">
        <ele>560</ele>
        <time>2016-04-23T09:47:05.000Z</time>
      </trkpt>
      <trkpt lat="43.7025" lon="5.93432">
        <ele>559</ele>
        <time>2016-04-23T09:47:09.000Z</time>
      </trkpt>
      <trkpt lat="43.70259" lon="5.93422">
        <ele>559</ele>
        <time>2016-04-23T09:47:13.000Z</time>
      </trkpt>
      <trkpt lat="43.70267" lon="5.93409">
        <ele>558</ele>
        <time>2016-04-23T09:47:17.000Z</time>
      </trkpt>
      <trkpt lat="43.70277" lon="5.93395">
        <ele>558</ele>
        <time>2016-04-23T09:47:21.000Z</time>
      </trkpt>
      <trkpt lat="43.70283" lon="5.93383">
        <ele>558</ele>
        <time>2016-04-23T09:47:23.000Z</time>
      </trkpt>
      <trkpt lat="43.70288" lon="5.93371">
        <ele>557</ele>
        <time>2016-04-23T09:47:25.000Z</time>
      </trkpt>
      <trkpt lat="43.70293" lon="5.93359">
        <ele>557</ele>
        <time>2016-04-23T09:47:27.000Z</time>
      </trkpt>
      <trkpt lat="43.703" lon="5.93349">
        <ele>556</ele>
        <time>2016-04-23T09:47:29.000Z</time>
      </trkpt>
      <trkpt lat="43.70307" lon="5.9334">
        <ele>556</ele>
        <time>2016-04-23T09:47:31.000Z</time>
      </trkpt>
      <trkpt lat="43.70313" lon="5.9333">
        <ele>557</ele>
        <time>2016-04-23T09:47:33.000Z</time>
      </trkpt>
      <trkpt lat="43.70313" lon="5.9333">
        <ele>557</ele>
        <time>2016-04-23T09:47:35.000Z</time>
      </trkpt>
      <trkpt lat="43.70313" lon="5.9333">
        <ele>557</ele>
        <time>2016-04-23T09:47:37.000Z</time>
      </trkpt>
      <trkpt lat="43.70313" lon="5.9333">
        <ele>557</ele>
        <time>2016-04-23T09:47:39.000Z</time>
      </trkpt>
      <trkpt lat="43.70313" lon="5.9333">
        <ele>557</ele>
        <time>2016-04-23T09:47:41.000Z</time>
      </trkpt>
      <trkpt lat="43.70313" lon="5.9333">
        <ele>557</ele>
        <time>2016-04-23T09:47:51.000Z</time>
      </trkpt>
      <trkpt lat="43.70339" lon="5.9321">
        <ele>555</ele>
        <time>2016-04-23T09:47:55.000Z</time>
      </trkpt>
      <trkpt lat="43.70341" lon="5.93187">
        <ele>554</ele>
        <time>2016-04-23T09:47:59.000Z</time>
      </trkpt>
      <trkpt lat="43.70338" lon="5.93173">
        <ele>554</ele>
        <time>2016-04-23T09:48:01.000Z</time>
      </trkpt>
      <trkpt lat="43.70336" lon="5.93159">
        <ele>553</ele>
        <time>2016-04-23T09:48:03.000Z</time>
      </trkpt>
      <trkpt lat="43.70331" lon="5.93143">
        <ele>550</ele>
        <time>2016-04-23T09:48:05.000Z</time>
      </trkpt>
      <trkpt lat="43.70329" lon="5.93128">
        <ele>550</ele>
        <time>2016-04-23T09:48:07.000Z</time>
      </trkpt>
      <trkpt lat="43.7033" lon="5.93113">
        <ele>550</ele>
        <time>2016-04-23T09:48:09.000Z</time>
      </trkpt>
      <trkpt lat="43.7033" lon="5.93113">
        <ele>550</ele>
        <time>2016-04-23T09:48:11.000Z</time>
      </trkpt>
      <trkpt lat="43.7033" lon="5.93113">
        <ele>550</ele>
        <time>2016-04-23T09:48:13.000Z</time>
      </trkpt>
      <trkpt lat="43.7033" lon="5.93113">
        <ele>550</ele>
        <time>2016-04-23T09:48:15.000Z</time>
      </trkpt>
      <trkpt lat="43.7033" lon="5.93113">
        <ele>550</ele>
        <time>2016-04-23T09:48:17.000Z</time>
      </trkpt>
      <trkpt lat="43.7033" lon="5.93113">
        <ele>550</ele>
        <time>2016-04-23T09:48:19.000Z</time>
      </trkpt>
      <trkpt lat="43.7033" lon="5.93113">
        <ele>550</ele>
        <time>2016-04-23T09:48:21.000Z</time>
      </trkpt>
      <trkpt lat="43.7033" lon="5.93113">
        <ele>550</ele>
        <time>2016-04-23T09:48:23.000Z</time>
      </trkpt>
      <trkpt lat="43.7033" lon="5.93113">
        <ele>550</ele>
        <time>2016-04-23T09:48:25.000Z</time>
      </trkpt>
      <trkpt lat="43.70335" lon="5.93067">
        <ele>545</ele>
        <time>2016-04-23T09:48:31.000Z</time>
      </trkpt>
      <trkpt lat="43.70334" lon="5.9304">
        <ele>545</ele>
        <time>2016-04-23T09:48:33.000Z</time>
      </trkpt>
      <trkpt lat="43.70329" lon="5.93025">
        <ele>544</ele>
        <time>2016-04-23T09:48:35.000Z</time>
      </trkpt>
      <trkpt lat="43.70323" lon="5.93016">
        <ele>543</ele>
        <time>2016-04-23T09:48:37.000Z</time>
      </trkpt>
      <trkpt lat="43.70315" lon="5.93013">
        <ele>542</ele>
        <time>2016-04-23T09:48:39.000Z</time>
      </trkpt>
      <trkpt lat="43.70299" lon="5.93015">
        <ele>540</ele>
        <time>2016-04-23T09:48:41.000Z</time>
      </trkpt>
      <trkpt lat="43.70281" lon="5.93011">
        <ele>541</ele>
        <time>2016-04-23T09:48:45.000Z</time>
      </trkpt>
      <trkpt lat="43.70272" lon="5.93005">
        <ele>541</ele>
        <time>2016-04-23T09:48:47.000Z</time>
      </trkpt>
      <trkpt lat="43.70263" lon="5.92998">
        <ele>541</ele>
        <time>2016-04-23T09:48:49.000Z</time>
      </trkpt>
      <trkpt lat="43.70253" lon="5.92993">
        <ele>542</ele>
        <time>2016-04-23T09:48:51.000Z</time>
      </trkpt>
      <trkpt lat="43.70253" lon="5.92993">
        <ele>542</ele>
        <time>2016-04-23T09:48:54.000Z</time>
      </trkpt>
      <trkpt lat="43.70253" lon="5.92993">
        <ele>542</ele>
        <time>2016-04-23T09:48:56.000Z</time>
      </trkpt>
      <trkpt lat="43.70253" lon="5.92993">
        <ele>542</ele>
        <time>2016-04-23T09:48:58.000Z</time>
      </trkpt>
      <trkpt lat="43.70254" lon="5.92966">
        <ele>543</ele>
        <time>2016-04-23T09:49:06.000Z</time>
      </trkpt>
      <trkpt lat="43.70254" lon="5.92951">
        <ele>543</ele>
        <time>2016-04-23T09:49:10.000Z</time>
      </trkpt>
      <trkpt lat="43.70255" lon="5.92934">
        <ele>543</ele>
        <time>2016-04-23T09:49:14.000Z</time>
      </trkpt>
      <trkpt lat="43.70257" lon="5.92919">
        <ele>543</ele>
        <time>2016-04-23T09:49:18.000Z</time>
      </trkpt>
      <trkpt lat="43.70266" lon="5.92906">
        <ele>546</ele>
        <time>2016-04-23T09:49:22.000Z</time>
      </trkpt>
      <trkpt lat="43.70273" lon="5.92894">
        <ele>547</ele>
        <time>2016-04-23T09:49:26.000Z</time>
      </trkpt>
      <trkpt lat="43.70277" lon="5.92879">
        <ele>548</ele>
        <time>2016-04-23T09:49:30.000Z</time>
      </trkpt>
      <trkpt lat="43.70274" lon="5.92863">
        <ele>546</ele>
        <time>2016-04-23T09:49:34.000Z</time>
      </trkpt>
      <trkpt lat="43.70274" lon="5.92863">
        <ele>546</ele>
        <time>2016-04-23T09:49:36.000Z</time>
      </trkpt>
      <trkpt lat="43.70263" lon="5.92849">
        <ele>545</ele>
        <time>2016-04-23T09:49:38.000Z</time>
      </trkpt>
      <trkpt lat="43.70256" lon="5.92836">
        <ele>544</ele>
        <time>2016-04-23T09:49:40.000Z</time>
      </trkpt>
      <trkpt lat="43.70251" lon="5.92825">
        <ele>544</ele>
        <time>2016-04-23T09:49:42.000Z</time>
      </trkpt>
      <trkpt lat="43.70244" lon="5.92814">
        <ele>545</ele>
        <time>2016-04-23T09:49:44.000Z</time>
      </trkpt>
      <trkpt lat="43.70235" lon="5.92796">
        <ele>545</ele>
        <time>2016-04-23T09:49:48.000Z</time>
      </trkpt>
      <trkpt lat="43.70235" lon="5.92796">
        <ele>545</ele>
        <time>2016-04-23T09:49:50.000Z</time>
      </trkpt>
      <trkpt lat="43.70235" lon="5.92796">
        <ele>545</ele>
        <time>2016-04-23T09:49:52.000Z</time>
      </trkpt>
      <trkpt lat="43.70235" lon="5.92796">
        <ele>545</ele>
        <time>2016-04-23T09:49:54.000Z</time>
      </trkpt>
      <trkpt lat="43.70235" lon="5.92796">
        <ele>545</ele>
        <time>2016-04-23T09:49:56.000Z</time>
      </trkpt>
      <trkpt lat="43.70235" lon="5.92796">
        <ele>545</ele>
        <time>2016-04-23T09:49:58.000Z</time>
      </trkpt>
      <trkpt lat="43.70235" lon="5.92796">
        <ele>545</ele>
        <time>2016-04-23T09:50:00.000Z</time>
      </trkpt>
      <trkpt lat="43.70235" lon="5.92796">
        <ele>545</ele>
        <time>2016-04-23T09:50:02.000Z</time>
      </trkpt>
      <trkpt lat="43.70235" lon="5.92796">
        <ele>545</ele>
        <time>2016-04-23T09:50:04.000Z</time>
      </trkpt>
      <trkpt lat="43.70235" lon="5.92796">
        <ele>545</ele>
        <time>2016-04-23T09:50:06.000Z</time>
      </trkpt>
      <trkpt lat="43.70235" lon="5.92796">
        <ele>545</ele>
        <time>2016-04-23T09:50:08.000Z</time>
      </trkpt>
      <trkpt lat="43.7019" lon="5.92714">
        <ele>545</ele>
        <time>2016-04-23T09:50:12.000Z</time>
      </trkpt>
      <trkpt lat="43.70181" lon="5.92696">
        <ele>544</ele>
        <time>2016-04-23T09:50:16.000Z</time>
      </trkpt>
      <trkpt lat="43.70173" lon="5.92675">
        <ele>544</ele>
        <time>2016-04-23T09:50:20.000Z</time>
      </trkpt>
      <trkpt lat="43.70173" lon="5.92675">
        <ele>544</ele>
        <time>2016-04-23T09:50:24.000Z</time>
      </trkpt>
      <trkpt lat="43.70173" lon="5.92675">
        <ele>544</ele>
        <time>2016-04-23T09:50:28.000Z</time>
      </trkpt>
      <trkpt lat="43.70173" lon="5.92675">
        <ele>544</ele>
        <time>2016-04-23T09:50:30.000Z</time>
      </trkpt>
      <trkpt lat="43.70173" lon="5.92675">
        <ele>544</ele>
        <time>2016-04-23T09:50:32.000Z</time>
      </trkpt>
      <trkpt lat="43.70167" lon="5.92674">
        <ele>540</ele>
        <time>2016-04-23T09:50:42.000Z</time>
      </trkpt>
      <trkpt lat="43.70161" lon="5.92677">
        <ele>542</ele>
        <time>2016-04-23T09:50:44.000Z</time>
      </trkpt>
      <trkpt lat="43.70156" lon="5.9268">
        <ele>543</ele>
        <time>2016-04-23T09:50:46.000Z</time>
      </trkpt>
      <trkpt lat="43.70156" lon="5.9268">
        <ele>543</ele>
        <time>2016-04-23T09:50:48.000Z</time>
      </trkpt>
      <trkpt lat="43.7015" lon="5.92679">
        <ele>544</ele>
        <time>2016-04-23T09:50:50.000Z</time>
      </trkpt>
      <trkpt lat="43.7015" lon="5.92679">
        <ele>544</ele>
        <time>2016-04-23T09:50:52.000Z</time>
      </trkpt>
      <trkpt lat="43.7015" lon="5.92679">
        <ele>544</ele>
        <time>2016-04-23T09:50:54.000Z</time>
      </trkpt>
      <trkpt lat="43.7015" lon="5.92679">
        <ele>544</ele>
        <time>2016-04-23T09:50:56.000Z</time>
      </trkpt>
      <trkpt lat="43.7015" lon="5.92679">
        <ele>544</ele>
        <time>2016-04-23T09:50:58.000Z</time>
      </trkpt>
      <trkpt lat="43.7015" lon="5.92679">
        <ele>544</ele>
        <time>2016-04-23T09:51:00.000Z</time>
      </trkpt>
      <trkpt lat="43.7015" lon="5.92679">
        <ele>544</ele>
        <time>2016-04-23T09:51:02.000Z</time>
      </trkpt>
      <trkpt lat="43.70137" lon="5.92682">
        <ele>547</ele>
        <time>2016-04-23T09:51:06.000Z</time>
      </trkpt>
      <trkpt lat="43.70129" lon="5.92685">
        <ele>548</ele>
        <time>2016-04-23T09:51:08.000Z</time>
      </trkpt>
      <trkpt lat="43.70123" lon="5.92687">
        <ele>550</ele>
        <time>2016-04-23T09:51:10.000Z</time>
      </trkpt>
      <trkpt lat="43.70123" lon="5.92687">
        <ele>550</ele>
        <time>2016-04-23T09:51:12.000Z</time>
      </trkpt>
      <trkpt lat="43.70117" lon="5.92687">
        <ele>550</ele>
        <time>2016-04-23T09:51:14.000Z</time>
      </trkpt>
      <trkpt lat="43.70112" lon="5.92685">
        <ele>549</ele>
        <time>2016-04-23T09:51:16.000Z</time>
      </trkpt>
      <trkpt lat="43.70107" lon="5.92682">
        <ele>549</ele>
        <time>2016-04-23T09:51:20.000Z</time>
      </trkpt>
      <trkpt lat="43.70102" lon="5.92681">
        <ele>548</ele>
        <time>2016-04-23T09:51:22.000Z</time>
      </trkpt>
      <trkpt lat="43.70102" lon="5.92681">
        <ele>548</ele>
        <time>2016-04-23T09:51:24.000Z</time>
      </trkpt>
      <trkpt lat="43.70102" lon="5.92681">
        <ele>548</ele>
        <time>2016-04-23T09:51:26.000Z</time>
      </trkpt>
      <trkpt lat="43.70102" lon="5.92681">
        <ele>548</ele>
        <time>2016-04-23T09:51:28.000Z</time>
      </trkpt>
      <trkpt lat="43.70102" lon="5.92681">
        <ele>548</ele>
        <time>2016-04-23T09:51:30.000Z</time>
      </trkpt>
      <trkpt lat="43.70102" lon="5.92681">
        <ele>548</ele>
        <time>2016-04-23T09:51:32.000Z</time>
      </trkpt>
      <trkpt lat="43.70092" lon="5.92682">
        <ele>551</ele>
        <time>2016-04-23T09:51:36.000Z</time>
      </trkpt>
      <trkpt lat="43.70085" lon="5.92682">
        <ele>551</ele>
        <time>2016-04-23T09:51:38.000Z</time>
      </trkpt>
      <trkpt lat="43.7008" lon="5.92681">
        <ele>551</ele>
        <time>2016-04-23T09:51:40.000Z</time>
      </trkpt>
      <trkpt lat="43.70075" lon="5.9268">
        <ele>550</ele>
        <time>2016-04-23T09:51:42.000Z</time>
      </trkpt>
      <trkpt lat="43.70071" lon="5.92679">
        <ele>549</ele>
        <time>2016-04-23T09:51:44.000Z</time>
      </trkpt>
      <trkpt lat="43.70061" lon="5.92678">
        <ele>548</ele>
        <time>2016-04-23T09:51:46.000Z</time>
      </trkpt>
      <trkpt lat="43.70051" lon="5.92678">
        <ele>549</ele>
        <time>2016-04-23T09:51:50.000Z</time>
      </trkpt>
      <trkpt lat="43.70041" lon="5.92676">
        <ele>550</ele>
        <time>2016-04-23T09:51:54.000Z</time>
      </trkpt>
      <trkpt lat="43.70031" lon="5.92672">
        <ele>551</ele>
        <time>2016-04-23T09:51:58.000Z</time>
      </trkpt>
      <trkpt lat="43.70023" lon="5.92664">
        <ele>551</ele>
        <time>2016-04-23T09:52:02.000Z</time>
      </trkpt>
      <trkpt lat="43.70021" lon="5.9265">
        <ele>551</ele>
        <time>2016-04-23T09:52:06.000Z</time>
      </trkpt>
      <trkpt lat="43.70021" lon="5.92636">
        <ele>551</ele>
        <time>2016-04-23T09:52:10.000Z</time>
      </trkpt>
      <trkpt lat="43.70018" lon="5.92623">
        <ele>551</ele>
        <time>2016-04-23T09:52:14.000Z</time>
      </trkpt>
      <trkpt lat="43.70017" lon="5.9261">
        <ele>550</ele>
        <time>2016-04-23T09:52:18.000Z</time>
      </trkpt>
      <trkpt lat="43.70017" lon="5.9261">
        <ele>550</ele>
        <time>2016-04-23T09:52:20.000Z</time>
      </trkpt>
      <trkpt lat="43.70017" lon="5.9261">
        <ele>550</ele>
        <time>2016-04-23T09:52:22.000Z</time>
      </trkpt>
      <trkpt lat="43.70017" lon="5.9261">
        <ele>550</ele>
        <time>2016-04-23T09:52:24.000Z</time>
      </trkpt>
      <trkpt lat="43.70017" lon="5.9261">
        <ele>550</ele>
        <time>2016-04-23T09:52:26.000Z</time>
      </trkpt>
      <trkpt lat="43.70005" lon="5.92582">
        <ele>548</ele>
        <time>2016-04-23T09:52:30.000Z</time>
      </trkpt>
      <trkpt lat="43.70006" lon="5.9257">
        <ele>546</ele>
        <time>2016-04-23T09:52:34.000Z</time>
      </trkpt>
      <trkpt lat="43.70006" lon="5.9257">
        <ele>546</ele>
        <time>2016-04-23T09:52:36.000Z</time>
      </trkpt>
      <trkpt lat="43.70006" lon="5.9257">
        <ele>546</ele>
        <time>2016-04-23T09:52:38.000Z</time>
      </trkpt>
      <trkpt lat="43.70006" lon="5.9257">
        <ele>546</ele>
        <time>2016-04-23T09:52:44.000Z</time>
      </trkpt>
      <trkpt lat="43.70006" lon="5.9257">
        <ele>546</ele>
        <time>2016-04-23T09:52:46.000Z</time>
      </trkpt>
      <trkpt lat="43.70006" lon="5.9257">
        <ele>546</ele>
        <time>2016-04-23T09:52:48.000Z</time>
      </trkpt>
      <trkpt lat="43.69984" lon="5.92527">
        <ele>535</ele>
        <time>2016-04-23T09:52:52.000Z</time>
      </trkpt>
      <trkpt lat="43.69984" lon="5.92527">
        <ele>535</ele>
        <time>2016-04-23T09:52:56.000Z</time>
      </trkpt>
      <trkpt lat="43.69984" lon="5.92527">
        <ele>535</ele>
        <time>2016-04-23T09:52:58.000Z</time>
      </trkpt>
      <trkpt lat="43.69984" lon="5.92527">
        <ele>535</ele>
        <time>2016-04-23T09:53:00.000Z</time>
      </trkpt>
      <trkpt lat="43.69984" lon="5.92527">
        <ele>535</ele>
        <time>2016-04-23T09:53:02.000Z</time>
      </trkpt>
      <trkpt lat="43.69988" lon="5.92512">
        <ele>530</ele>
        <time>2016-04-23T09:53:30.000Z</time>
      </trkpt>
      <trkpt lat="43.69988" lon="5.92512">
        <ele>530</ele>
        <time>2016-04-23T09:53:32.000Z</time>
      </trkpt>
      <trkpt lat="43.69988" lon="5.92512">
        <ele>530</ele>
        <time>2016-04-23T09:53:34.000Z</time>
      </trkpt>
      <trkpt lat="43.69988" lon="5.92512">
        <ele>530</ele>
        <time>2016-04-23T09:53:36.000Z</time>
      </trkpt>
      <trkpt lat="43.69976" lon="5.92507">
        <ele>528</ele>
        <time>2016-04-23T09:53:40.000Z</time>
      </trkpt>
      <trkpt lat="43.69965" lon="5.92507">
        <ele>526</ele>
        <time>2016-04-23T09:53:44.000Z</time>
      </trkpt>
      <trkpt lat="43.69957" lon="5.92513">
        <ele>527</ele>
        <time>2016-04-23T09:53:48.000Z</time>
      </trkpt>
      <trkpt lat="43.69957" lon="5.92513">
        <ele>527</ele>
        <time>2016-04-23T09:53:50.000Z</time>
      </trkpt>
      <trkpt lat="43.69957" lon="5.92513">
        <ele>527</ele>
        <time>2016-04-23T09:53:52.000Z</time>
      </trkpt>
      <trkpt lat="43.69939" lon="5.92515">
        <ele>521</ele>
        <time>2016-04-23T09:53:56.000Z</time>
      </trkpt>
      <trkpt lat="43.69926" lon="5.92516">
        <ele>517</ele>
        <time>2016-04-23T09:54:02.000Z</time>
      </trkpt>
      <trkpt lat="43.69912" lon="5.92533">
        <ele>515</ele>
        <time>2016-04-23T09:54:06.000Z</time>
      </trkpt>
      <trkpt lat="43.69902" lon="5.92536">
        <ele>513</ele>
        <time>2016-04-23T09:54:08.000Z</time>
      </trkpt>
      <trkpt lat="43.69893" lon="5.92541">
        <ele>514</ele>
        <time>2016-04-23T09:54:10.000Z</time>
      </trkpt>
      <trkpt lat="43.69893" lon="5.92541">
        <ele>514</ele>
        <time>2016-04-23T09:54:12.000Z</time>
      </trkpt>
      <trkpt lat="43.69893" lon="5.92541">
        <ele>514</ele>
        <time>2016-04-23T09:54:15.000Z</time>
      </trkpt>
      <trkpt lat="43.69893" lon="5.92541">
        <ele>514</ele>
        <time>2016-04-23T09:54:17.000Z</time>
      </trkpt>
      <trkpt lat="43.69895" lon="5.92539">
        <ele>514</ele>
        <time>2016-04-23T09:54:26.000Z</time>
      </trkpt>
      <trkpt lat="43.69895" lon="5.92539">
        <ele>514</ele>
        <time>2016-04-23T09:54:30.000Z</time>
      </trkpt>
      <trkpt lat="43.69895" lon="5.92539">
        <ele>514</ele>
        <time>2016-04-23T09:54:32.000Z</time>
      </trkpt>
      <trkpt lat="43.69895" lon="5.92539">
        <ele>514</ele>
        <time>2016-04-23T09:54:34.000Z</time>
      </trkpt>
      <trkpt lat="43.69885" lon="5.92547">
        <ele>511</ele>
        <time>2016-04-23T09:54:40.000Z</time>
      </trkpt>
      <trkpt lat="43.69877" lon="5.92539">
        <ele>510</ele>
        <time>2016-04-23T09:54:42.000Z</time>
      </trkpt>
      <trkpt lat="43.69877" lon="5.92539">
        <ele>510</ele>
        <time>2016-04-23T09:54:46.000Z</time>
      </trkpt>
      <trkpt lat="43.6988" lon="5.9253">
        <ele>511</ele>
        <time>2016-04-23T09:55:21.000Z</time>
      </trkpt>
      <trkpt lat="43.69884" lon="5.92514">
        <ele>509</ele>
        <time>2016-04-23T09:55:27.000Z</time>
      </trkpt>
      <trkpt lat="43.69886" lon="5.92501">
        <ele>508</ele>
        <time>2016-04-23T09:55:31.000Z</time>
      </trkpt>
      <trkpt lat="43.69889" lon="5.92489">
        <ele>509</ele>
        <time>2016-04-23T09:55:35.000Z</time>
      </trkpt>
      <trkpt lat="43.69889" lon="5.92472">
        <ele>509</ele>
        <time>2016-04-23T09:55:41.000Z</time>
      </trkpt>
      <trkpt lat="43.69878" lon="5.9246">
        <ele>509</ele>
        <time>2016-04-23T09:55:47.000Z</time>
      </trkpt>
      <trkpt lat="43.69869" lon="5.92454">
        <ele>509</ele>
        <time>2016-04-23T09:55:51.000Z</time>
      </trkpt>
      <trkpt lat="43.69859" lon="5.92441">
        <ele>508</ele>
        <time>2016-04-23T09:55:57.000Z</time>
      </trkpt>
      <trkpt lat="43.69853" lon="5.92431">
        <ele>507</ele>
        <time>2016-04-23T09:56:01.000Z</time>
      </trkpt>
      <trkpt lat="43.69847" lon="5.92421">
        <ele>507</ele>
        <time>2016-04-23T09:56:05.000Z</time>
      </trkpt>
      <trkpt lat="43.69847" lon="5.92421">
        <ele>507</ele>
        <time>2016-04-23T09:56:07.000Z</time>
      </trkpt>
      <trkpt lat="43.69847" lon="5.92421">
        <ele>507</ele>
        <time>2016-04-23T09:56:09.000Z</time>
      </trkpt>
      <trkpt lat="43.69847" lon="5.92421">
        <ele>507</ele>
        <time>2016-04-23T09:56:11.000Z</time>
      </trkpt>
      <trkpt lat="43.69839" lon="5.92399">
        <ele>508</ele>
        <time>2016-04-23T09:56:23.000Z</time>
      </trkpt>
      <trkpt lat="43.69834" lon="5.92383">
        <ele>508</ele>
        <time>2016-04-23T09:56:27.000Z</time>
      </trkpt>
      <trkpt lat="43.69834" lon="5.92383">
        <ele>508</ele>
        <time>2016-04-23T09:56:29.000Z</time>
      </trkpt>
      <trkpt lat="43.69834" lon="5.92383">
        <ele>508</ele>
        <time>2016-04-23T09:56:35.000Z</time>
      </trkpt>
      <trkpt lat="43.69834" lon="5.92383">
        <ele>508</ele>
        <time>2016-04-23T09:56:37.000Z</time>
      </trkpt>
      <trkpt lat="43.69834" lon="5.92383">
        <ele>508</ele>
        <time>2016-04-23T09:56:39.000Z</time>
      </trkpt>
      <trkpt lat="43.69834" lon="5.92383">
        <ele>508</ele>
        <time>2016-04-23T09:56:41.000Z</time>
      </trkpt>
      <trkpt lat="43.69834" lon="5.92383">
        <ele>508</ele>
        <time>2016-04-23T09:56:43.000Z</time>
      </trkpt>
      <trkpt lat="43.69834" lon="5.92383">
        <ele>508</ele>
        <time>2016-04-23T09:56:45.000Z</time>
      </trkpt>
      <trkpt lat="43.69834" lon="5.92383">
        <ele>508</ele>
        <time>2016-04-23T09:56:47.000Z</time>
      </trkpt>
      <trkpt lat="43.69834" lon="5.92383">
        <ele>508</ele>
        <time>2016-04-23T09:56:49.000Z</time>
      </trkpt>
      <trkpt lat="43.69856" lon="5.92341">
        <ele>508</ele>
        <time>2016-04-23T09:56:53.000Z</time>
      </trkpt>
      <trkpt lat="43.69866" lon="5.92347">
        <ele>510</ele>
        <time>2016-04-23T09:56:57.000Z</time>
      </trkpt>
      <trkpt lat="43.69876" lon="5.92349">
        <ele>509</ele>
        <time>2016-04-23T09:57:01.000Z</time>
      </trkpt>
      <trkpt lat="43.69876" lon="5.92349">
        <ele>509</ele>
        <time>2016-04-23T09:57:03.000Z</time>
      </trkpt>
      <trkpt lat="43.69885" lon="5.92343">
        <ele>508</ele>
        <time>2016-04-23T09:57:05.000Z</time>
      </trkpt>
      <trkpt lat="43.69885" lon="5.92343">
        <ele>508</ele>
        <time>2016-04-23T09:57:07.000Z</time>
      </trkpt>
      <trkpt lat="43.69885" lon="5.92343">
        <ele>508</ele>
        <time>2016-04-23T09:57:09.000Z</time>
      </trkpt>
      <trkpt lat="43.69885" lon="5.92343">
        <ele>508</ele>
        <time>2016-04-23T09:57:11.000Z</time>
      </trkpt>
      <trkpt lat="43.69885" lon="5.92343">
        <ele>508</ele>
        <time>2016-04-23T09:57:13.000Z</time>
      </trkpt>
      <trkpt lat="43.69885" lon="5.92343">
        <ele>508</ele>
        <time>2016-04-23T09:57:15.000Z</time>
      </trkpt>
      <trkpt lat="43.69885" lon="5.92343">
        <ele>508</ele>
        <time>2016-04-23T09:57:17.000Z</time>
      </trkpt>
      <trkpt lat="43.69885" lon="5.92343">
        <ele>508</ele>
        <time>2016-04-23T09:57:19.000Z</time>
      </trkpt>
      <trkpt lat="43.69915" lon="5.92308">
        <ele>511</ele>
        <time>2016-04-23T09:57:21.000Z</time>
      </trkpt>
      <trkpt lat="43.6992" lon="5.92294">
        <ele>510</ele>
        <time>2016-04-23T09:57:25.000Z</time>
      </trkpt>
      <trkpt lat="43.69927" lon="5.9228">
        <ele>510</ele>
        <time>2016-04-23T09:57:29.000Z</time>
      </trkpt>
      <trkpt lat="43.69933" lon="5.92263">
        <ele>511</ele>
        <time>2016-04-23T09:57:33.000Z</time>
      </trkpt>
      <trkpt lat="43.69941" lon="5.92247">
        <ele>511</ele>
        <time>2016-04-23T09:57:37.000Z</time>
      </trkpt>
      <trkpt lat="43.6995" lon="5.92231">
        <ele>510</ele>
        <time>2016-04-23T09:57:41.000Z</time>
      </trkpt>
      <trkpt lat="43.6996" lon="5.92218">
        <ele>510</ele>
        <time>2016-04-23T09:57:45.000Z</time>
      </trkpt>
      <trkpt lat="43.6996" lon="5.92218">
        <ele>510</ele>
        <time>2016-04-23T09:57:49.000Z</time>
      </trkpt>
      <trkpt lat="43.6996" lon="5.92218">
        <ele>510</ele>
        <time>2016-04-23T09:57:51.000Z</time>
      </trkpt>
      <trkpt lat="43.6996" lon="5.92218">
        <ele>510</ele>
        <time>2016-04-23T09:57:53.000Z</time>
      </trkpt>
      <trkpt lat="43.6996" lon="5.92218">
        <ele>510</ele>
        <time>2016-04-23T09:57:55.000Z</time>
      </trkpt>
      <trkpt lat="43.69981" lon="5.92208">
        <ele>512</ele>
        <time>2016-04-23T09:58:01.000Z</time>
      </trkpt>
      <trkpt lat="43.69994" lon="5.92206">
        <ele>512</ele>
        <time>2016-04-23T09:58:03.000Z</time>
      </trkpt>
      <trkpt lat="43.70004" lon="5.92208">
        <ele>512</ele>
        <time>2016-04-23T09:58:05.000Z</time>
      </trkpt>
      <trkpt lat="43.70012" lon="5.92211">
        <ele>512</ele>
        <time>2016-04-23T09:58:07.000Z</time>
      </trkpt>
      <trkpt lat="43.70018" lon="5.92212">
        <ele>513</ele>
        <time>2016-04-23T09:58:09.000Z</time>
      </trkpt>
      <trkpt lat="43.70031" lon="5.92214">
        <ele>512</ele>
        <time>2016-04-23T09:58:11.000Z</time>
      </trkpt>
      <trkpt lat="43.70045" lon="5.92206">
        <ele>511</ele>
        <time>2016-04-23T09:58:15.000Z</time>
      </trkpt>
      <trkpt lat="43.7006" lon="5.92195">
        <ele>510</ele>
        <time>2016-04-23T09:58:19.000Z</time>
      </trkpt>
      <trkpt lat="43.70076" lon="5.92188">
        <ele>510</ele>
        <time>2016-04-23T09:58:23.000Z</time>
      </trkpt>
      <trkpt lat="43.70076" lon="5.92188">
        <ele>510</ele>
        <time>2016-04-23T09:58:25.000Z</time>
      </trkpt>
      <trkpt lat="43.70088" lon="5.92174">
        <ele>510</ele>
        <time>2016-04-23T09:58:27.000Z</time>
      </trkpt>
      <trkpt lat="43.70088" lon="5.92174">
        <ele>510</ele>
        <time>2016-04-23T09:58:29.000Z</time>
      </trkpt>
      <trkpt lat="43.70088" lon="5.92174">
        <ele>510</ele>
        <time>2016-04-23T09:58:31.000Z</time>
      </trkpt>
      <trkpt lat="43.70088" lon="5.92174">
        <ele>510</ele>
        <time>2016-04-23T09:58:33.000Z</time>
      </trkpt>
      <trkpt lat="43.70088" lon="5.92174">
        <ele>510</ele>
        <time>2016-04-23T09:58:35.000Z</time>
      </trkpt>
      <trkpt lat="43.70088" lon="5.92174">
        <ele>510</ele>
        <time>2016-04-23T09:58:37.000Z</time>
      </trkpt>
      <trkpt lat="43.70088" lon="5.92174">
        <ele>510</ele>
        <time>2016-04-23T09:58:39.000Z</time>
      </trkpt>
      <trkpt lat="43.70088" lon="5.92174">
        <ele>510</ele>
        <time>2016-04-23T09:58:41.000Z</time>
      </trkpt>
      <trkpt lat="43.70073" lon="5.92107">
        <ele>512</ele>
        <time>2016-04-23T09:58:45.000Z</time>
      </trkpt>
      <trkpt lat="43.70061" lon="5.92092">
        <ele>512</ele>
        <time>2016-04-23T09:58:49.000Z</time>
      </trkpt>
      <trkpt lat="43.70047" lon="5.92077">
        <ele>512</ele>
        <time>2016-04-23T09:58:53.000Z</time>
      </trkpt>
      <trkpt lat="43.70039" lon="5.92067">
        <ele>512</ele>
        <time>2016-04-23T09:58:55.000Z</time>
      </trkpt>
      <trkpt lat="43.70024" lon="5.92052">
        <ele>511</ele>
        <time>2016-04-23T09:58:59.000Z</time>
      </trkpt>
      <trkpt lat="43.70015" lon="5.92042">
        <ele>511</ele>
        <time>2016-04-23T09:59:01.000Z</time>
      </trkpt>
      <trkpt lat="43.70006" lon="5.92032">
        <ele>510</ele>
        <time>2016-04-23T09:59:03.000Z</time>
      </trkpt>
      <trkpt lat="43.69998" lon="5.92019">
        <ele>509</ele>
        <time>2016-04-23T09:59:05.000Z</time>
      </trkpt>
      <trkpt lat="43.6999" lon="5.92005">
        <ele>507</ele>
        <time>2016-04-23T09:59:07.000Z</time>
      </trkpt>
      <trkpt lat="43.69981" lon="5.91989">
        <ele>507</ele>
        <time>2016-04-23T09:59:09.000Z</time>
      </trkpt>
      <trkpt lat="43.6997" lon="5.91972">
        <ele>506</ele>
        <time>2016-04-23T09:59:11.000Z</time>
      </trkpt>
      <trkpt lat="43.69961" lon="5.91957">
        <ele>505</ele>
        <time>2016-04-23T09:59:13.000Z</time>
      </trkpt>
      <trkpt lat="43.6995" lon="5.91942">
        <ele>505</ele>
        <time>2016-04-23T09:59:15.000Z</time>
      </trkpt>
      <trkpt lat="43.69939" lon="5.91926">
        <ele>504</ele>
        <time>2016-04-23T09:59:17.000Z</time>
      </trkpt>
      <trkpt lat="43.69928" lon="5.91909">
        <ele>504</ele>
        <time>2016-04-23T09:59:19.000Z</time>
      </trkpt>
      <trkpt lat="43.69918" lon="5.91894">
        <ele>504</ele>
        <time>2016-04-23T09:59:21.000Z</time>
      </trkpt>
      <trkpt lat="43.69907" lon="5.91879">
        <ele>503</ele>
        <time>2016-04-23T09:59:23.000Z</time>
      </trkpt>
      <trkpt lat="43.69895" lon="5.91869">
        <ele>502</ele>
        <time>2016-04-23T09:59:25.000Z</time>
      </trkpt>
      <trkpt lat="43.69884" lon="5.91857">
        <ele>502</ele>
        <time>2016-04-23T09:59:27.000Z</time>
      </trkpt>
      <trkpt lat="43.69873" lon="5.91845">
        <ele>502</ele>
        <time>2016-04-23T09:59:29.000Z</time>
      </trkpt>
      <trkpt lat="43.69863" lon="5.91832">
        <ele>502</ele>
        <time>2016-04-23T09:59:31.000Z</time>
      </trkpt>
      <trkpt lat="43.69853" lon="5.91818">
        <ele>501</ele>
        <time>2016-04-23T09:59:33.000Z</time>
      </trkpt>
      <trkpt lat="43.69843" lon="5.91803">
        <ele>500</ele>
        <time>2016-04-23T09:59:35.000Z</time>
      </trkpt>
      <trkpt lat="43.69836" lon="5.9179">
        <ele>499</ele>
        <time>2016-04-23T09:59:37.000Z</time>
      </trkpt>
      <trkpt lat="43.69832" lon="5.91777">
        <ele>497</ele>
        <time>2016-04-23T09:59:39.000Z</time>
      </trkpt>
      <trkpt lat="43.69826" lon="5.91765">
        <ele>497</ele>
        <time>2016-04-23T09:59:41.000Z</time>
      </trkpt>
      <trkpt lat="43.69816" lon="5.91756">
        <ele>497</ele>
        <time>2016-04-23T09:59:43.000Z</time>
      </trkpt>
      <trkpt lat="43.69808" lon="5.91747">
        <ele>497</ele>
        <time>2016-04-23T09:59:45.000Z</time>
      </trkpt>
      <trkpt lat="43.69801" lon="5.91737">
        <ele>497</ele>
        <time>2016-04-23T09:59:47.000Z</time>
      </trkpt>
      <trkpt lat="43.69801" lon="5.91737">
        <ele>497</ele>
        <time>2016-04-23T09:59:49.000Z</time>
      </trkpt>
      <trkpt lat="43.69783" lon="5.91719">
        <ele>496</ele>
        <time>2016-04-23T09:59:51.000Z</time>
      </trkpt>
      <trkpt lat="43.69773" lon="5.91709">
        <ele>496</ele>
        <time>2016-04-23T09:59:53.000Z</time>
      </trkpt>
      <trkpt lat="43.69762" lon="5.91699">
        <ele>496</ele>
        <time>2016-04-23T09:59:55.000Z</time>
      </trkpt>
      <trkpt lat="43.69751" lon="5.91689">
        <ele>496</ele>
        <time>2016-04-23T09:59:57.000Z</time>
      </trkpt>
      <trkpt lat="43.6974" lon="5.9168">
        <ele>496</ele>
        <time>2016-04-23T09:59:59.000Z</time>
      </trkpt>
      <trkpt lat="43.69728" lon="5.91671">
        <ele>495</ele>
        <time>2016-04-23T10:00:01.000Z</time>
      </trkpt>
      <trkpt lat="43.69718" lon="5.91663">
        <ele>495</ele>
        <time>2016-04-23T10:00:03.000Z</time>
      </trkpt>
      <trkpt lat="43.69708" lon="5.91654">
        <ele>495</ele>
        <time>2016-04-23T10:00:05.000Z</time>
      </trkpt>
      <trkpt lat="43.69698" lon="5.91646">
        <ele>495</ele>
        <time>2016-04-23T10:00:07.000Z</time>
      </trkpt>
      <trkpt lat="43.69689" lon="5.91639">
        <ele>495</ele>
        <time>2016-04-23T10:00:09.000Z</time>
      </trkpt>
      <trkpt lat="43.6968" lon="5.91631">
        <ele>495</ele>
        <time>2016-04-23T10:00:11.000Z</time>
      </trkpt>
      <trkpt lat="43.69671" lon="5.91624">
        <ele>494</ele>
        <time>2016-04-23T10:00:13.000Z</time>
      </trkpt>
      <trkpt lat="43.69671" lon="5.91624">
        <ele>494</ele>
        <time>2016-04-23T10:00:15.000Z</time>
      </trkpt>
      <trkpt lat="43.69671" lon="5.91624">
        <ele>494</ele>
        <time>2016-04-23T10:00:17.000Z</time>
      </trkpt>
      <trkpt lat="43.69671" lon="5.91624">
        <ele>494</ele>
        <time>2016-04-23T10:00:19.000Z</time>
      </trkpt>
      <trkpt lat="43.69671" lon="5.91624">
        <ele>494</ele>
        <time>2016-04-23T10:00:21.000Z</time>
      </trkpt>
      <trkpt lat="43.69671" lon="5.91624">
        <ele>494</ele>
        <time>2016-04-23T10:00:23.000Z</time>
      </trkpt>
      <trkpt lat="43.69607" lon="5.91571">
        <ele>495</ele>
        <time>2016-04-23T10:00:27.000Z</time>
      </trkpt>
      <trkpt lat="43.69597" lon="5.91565">
        <ele>494</ele>
        <time>2016-04-23T10:00:29.000Z</time>
      </trkpt>
      <trkpt lat="43.69587" lon="5.91558">
        <ele>495</ele>
        <time>2016-04-23T10:00:31.000Z</time>
      </trkpt>
      <trkpt lat="43.69576" lon="5.9155">
        <ele>495</ele>
        <time>2016-04-23T10:00:33.000Z</time>
      </trkpt>
      <trkpt lat="43.69566" lon="5.91545">
        <ele>496</ele>
        <time>2016-04-23T10:00:35.000Z</time>
      </trkpt>
      <trkpt lat="43.69556" lon="5.91539">
        <ele>496</ele>
        <time>2016-04-23T10:00:37.000Z</time>
      </trkpt>
      <trkpt lat="43.69545" lon="5.91533">
        <ele>495</ele>
        <time>2016-04-23T10:00:39.000Z</time>
      </trkpt>
      <trkpt lat="43.69535" lon="5.91528">
        <ele>495</ele>
        <time>2016-04-23T10:00:41.000Z</time>
      </trkpt>
      <trkpt lat="43.69523" lon="5.91525">
        <ele>495</ele>
        <time>2016-04-23T10:00:43.000Z</time>
      </trkpt>
      <trkpt lat="43.69511" lon="5.91523">
        <ele>495</ele>
        <time>2016-04-23T10:00:45.000Z</time>
      </trkpt>
      <trkpt lat="43.69498" lon="5.91523">
        <ele>495</ele>
        <time>2016-04-23T10:00:47.000Z</time>
      </trkpt>
      <trkpt lat="43.69487" lon="5.91523">
        <ele>495</ele>
        <time>2016-04-23T10:00:49.000Z</time>
      </trkpt>
      <trkpt lat="43.69475" lon="5.91524">
        <ele>495</ele>
        <time>2016-04-23T10:00:51.000Z</time>
      </trkpt>
      <trkpt lat="43.69475" lon="5.91524">
        <ele>495</ele>
        <time>2016-04-23T10:00:53.000Z</time>
      </trkpt>
      <trkpt lat="43.69475" lon="5.91524">
        <ele>495</ele>
        <time>2016-04-23T10:00:55.000Z</time>
      </trkpt>
      <trkpt lat="43.69475" lon="5.91524">
        <ele>495</ele>
        <time>2016-04-23T10:00:57.000Z</time>
      </trkpt>
      <trkpt lat="43.69408" lon="5.91508">
        <ele>494</ele>
        <time>2016-04-23T10:01:05.000Z</time>
      </trkpt>
      <trkpt lat="43.69398" lon="5.91503">
        <ele>493</ele>
        <time>2016-04-23T10:01:07.000Z</time>
      </trkpt>
      <trkpt lat="43.69387" lon="5.91498">
        <ele>493</ele>
        <time>2016-04-23T10:01:09.000Z</time>
      </trkpt>
      <trkpt lat="43.69377" lon="5.91492">
        <ele>493</ele>
        <time>2016-04-23T10:01:11.000Z</time>
      </trkpt>
      <trkpt lat="43.69375" lon="5.91479">
        <ele>492</ele>
        <time>2016-04-23T10:01:13.000Z</time>
      </trkpt>
      <trkpt lat="43.69375" lon="5.91479">
        <ele>492</ele>
        <time>2016-04-23T10:01:15.000Z</time>
      </trkpt>
      <trkpt lat="43.69375" lon="5.91479">
        <ele>492</ele>
        <time>2016-04-23T10:01:17.000Z</time>
      </trkpt>
      <trkpt lat="43.69375" lon="5.91479">
        <ele>492</ele>
        <time>2016-04-23T10:01:19.000Z</time>
      </trkpt>
      <trkpt lat="43.69375" lon="5.91479">
        <ele>492</ele>
        <time>2016-04-23T10:01:21.000Z</time>
      </trkpt>
      <trkpt lat="43.69375" lon="5.91479">
        <ele>492</ele>
        <time>2016-04-23T10:01:23.000Z</time>
      </trkpt>
      <trkpt lat="43.69375" lon="5.91479">
        <ele>492</ele>
        <time>2016-04-23T10:01:25.000Z</time>
      </trkpt>
      <trkpt lat="43.69375" lon="5.91479">
        <ele>492</ele>
        <time>2016-04-23T10:01:27.000Z</time>
      </trkpt>
      <trkpt lat="43.69375" lon="5.91479">
        <ele>492</ele>
        <time>2016-04-23T10:01:29.000Z</time>
      </trkpt>
    </trkseg>
  </trk>
</gpx>